<?xml version="1.0" encoding="UTF-8" standalone="no" ?>
<gpx xmlns="http://www.topografix.com/GPX/1/1" xmlns:xsi="http://www.w3.org/2001/XMLSchema-instance" xsi:schemaLocation="http://www.topografix.com/GPX/1/1 http://www.topografix.com/GPX/1/1/gpx.xsd" version="1.1" creator="VisuGPX - https://www.visugpx.com">
  <metadata>
    <name>Rando Trespoux 37 Km 900m D+</name>
    <desc><![CDATA[Rando Trespoux du 14-04-2019. 35 km 911 D+ (relevé sur mon garmin  edge 100).
Super rando.]]></desc>
  </metadata>
  <trk>
    <name><![CDATA[2019-04-14-07-45-04 on GPSies.com]]></name>
    <trkseg>
      <trkpt lat="44.41416" lon="1.37197">
        <ele>359</ele>
        <time>2019-04-14T07:45:04Z</time>
      </trkpt>
      <trkpt lat="44.41415" lon="1.37199">
        <ele>362</ele>
        <time>2019-04-14T07:45:05Z</time>
      </trkpt>
      <trkpt lat="44.41413" lon="1.372">
        <ele>362</ele>
        <time>2019-04-14T07:45:06Z</time>
      </trkpt>
      <trkpt lat="44.41412" lon="1.37201">
        <ele>362</ele>
        <time>2019-04-14T07:45:07Z</time>
      </trkpt>
      <trkpt lat="44.4141" lon="1.37202">
        <ele>362</ele>
        <time>2019-04-14T07:45:08Z</time>
      </trkpt>
      <trkpt lat="44.41405" lon="1.37203">
        <ele>362</ele>
        <time>2019-04-14T07:45:10Z</time>
      </trkpt>
      <trkpt lat="44.41397" lon="1.37201">
        <ele>362</ele>
        <time>2019-04-14T07:45:13Z</time>
      </trkpt>
      <trkpt lat="44.41395" lon="1.37198">
        <ele>362</ele>
        <time>2019-04-14T07:45:14Z</time>
      </trkpt>
      <trkpt lat="44.41393" lon="1.3719">
        <ele>361</ele>
        <time>2019-04-14T07:45:16Z</time>
      </trkpt>
      <trkpt lat="44.41392" lon="1.37186">
        <ele>361</ele>
        <time>2019-04-14T07:45:17Z</time>
      </trkpt>
      <trkpt lat="44.41391" lon="1.3717">
        <ele>361</ele>
        <time>2019-04-14T07:45:20Z</time>
      </trkpt>
      <trkpt lat="44.4139" lon="1.37158">
        <ele>361</ele>
        <time>2019-04-14T07:45:22Z</time>
      </trkpt>
      <trkpt lat="44.41388" lon="1.37138">
        <ele>361</ele>
        <time>2019-04-14T07:45:25Z</time>
      </trkpt>
      <trkpt lat="44.41386" lon="1.37115">
        <ele>360</ele>
        <time>2019-04-14T07:45:28Z</time>
      </trkpt>
      <trkpt lat="44.41385" lon="1.37107">
        <ele>360</ele>
        <time>2019-04-14T07:45:29Z</time>
      </trkpt>
      <trkpt lat="44.41383" lon="1.37053">
        <ele>359</ele>
        <time>2019-04-14T07:45:35Z</time>
      </trkpt>
      <trkpt lat="44.41382" lon="1.37023">
        <ele>357</ele>
        <time>2019-04-14T07:45:38Z</time>
      </trkpt>
      <trkpt lat="44.41379" lon="1.3699">
        <ele>356</ele>
        <time>2019-04-14T07:45:41Z</time>
      </trkpt>
      <trkpt lat="44.41378" lon="1.36979">
        <ele>356</ele>
        <time>2019-04-14T07:45:42Z</time>
      </trkpt>
      <trkpt lat="44.41372" lon="1.36945">
        <ele>355</ele>
        <time>2019-04-14T07:45:45Z</time>
      </trkpt>
      <trkpt lat="44.41365" lon="1.3691">
        <ele>354</ele>
        <time>2019-04-14T07:45:48Z</time>
      </trkpt>
      <trkpt lat="44.41363" lon="1.36898">
        <ele>354</ele>
        <time>2019-04-14T07:45:49Z</time>
      </trkpt>
      <trkpt lat="44.41357" lon="1.36873">
        <ele>353</ele>
        <time>2019-04-14T07:45:51Z</time>
      </trkpt>
      <trkpt lat="44.41348" lon="1.36837">
        <ele>352</ele>
        <time>2019-04-14T07:45:54Z</time>
      </trkpt>
      <trkpt lat="44.41341" lon="1.36812">
        <ele>350</ele>
        <time>2019-04-14T07:45:56Z</time>
      </trkpt>
      <trkpt lat="44.4133" lon="1.36778">
        <ele>349</ele>
        <time>2019-04-14T07:45:59Z</time>
      </trkpt>
      <trkpt lat="44.41323" lon="1.36757">
        <ele>349</ele>
        <time>2019-04-14T07:46:01Z</time>
      </trkpt>
      <trkpt lat="44.41319" lon="1.36747">
        <ele>349</ele>
        <time>2019-04-14T07:46:02Z</time>
      </trkpt>
      <trkpt lat="44.41315" lon="1.36738">
        <ele>348</ele>
        <time>2019-04-14T07:46:03Z</time>
      </trkpt>
      <trkpt lat="44.41312" lon="1.36727">
        <ele>348</ele>
        <time>2019-04-14T07:46:04Z</time>
      </trkpt>
      <trkpt lat="44.4131" lon="1.36707">
        <ele>347</ele>
        <time>2019-04-14T07:46:06Z</time>
      </trkpt>
      <trkpt lat="44.41312" lon="1.3669">
        <ele>347</ele>
        <time>2019-04-14T07:46:08Z</time>
      </trkpt>
      <trkpt lat="44.41316" lon="1.36675">
        <ele>348</ele>
        <time>2019-04-14T07:46:10Z</time>
      </trkpt>
      <trkpt lat="44.41324" lon="1.36643">
        <ele>348</ele>
        <time>2019-04-14T07:46:15Z</time>
      </trkpt>
      <trkpt lat="44.41326" lon="1.36637">
        <ele>348</ele>
        <time>2019-04-14T07:46:16Z</time>
      </trkpt>
      <trkpt lat="44.41327" lon="1.3663">
        <ele>349</ele>
        <time>2019-04-14T07:46:17Z</time>
      </trkpt>
      <trkpt lat="44.41326" lon="1.36583">
        <ele>348</ele>
        <time>2019-04-14T07:46:24Z</time>
      </trkpt>
      <trkpt lat="44.41325" lon="1.36569">
        <ele>348</ele>
        <time>2019-04-14T07:46:26Z</time>
      </trkpt>
      <trkpt lat="44.41317" lon="1.36524">
        <ele>349</ele>
        <time>2019-04-14T07:46:33Z</time>
      </trkpt>
      <trkpt lat="44.41309" lon="1.36486">
        <ele>348</ele>
        <time>2019-04-14T07:46:39Z</time>
      </trkpt>
      <trkpt lat="44.41304" lon="1.36469">
        <ele>348</ele>
        <time>2019-04-14T07:46:42Z</time>
      </trkpt>
      <trkpt lat="44.41297" lon="1.36448">
        <ele>349</ele>
        <time>2019-04-14T07:46:46Z</time>
      </trkpt>
      <trkpt lat="44.41295" lon="1.36436">
        <ele>349</ele>
        <time>2019-04-14T07:46:48Z</time>
      </trkpt>
      <trkpt lat="44.41301" lon="1.36413">
        <ele>349</ele>
        <time>2019-04-14T07:46:52Z</time>
      </trkpt>
      <trkpt lat="44.41308" lon="1.36403">
        <ele>349</ele>
        <time>2019-04-14T07:46:54Z</time>
      </trkpt>
      <trkpt lat="44.4132" lon="1.36389">
        <ele>349</ele>
        <time>2019-04-14T07:46:57Z</time>
      </trkpt>
      <trkpt lat="44.41357" lon="1.36356">
        <ele>348</ele>
        <time>2019-04-14T07:47:05Z</time>
      </trkpt>
      <trkpt lat="44.41366" lon="1.36346">
        <ele>347</ele>
        <time>2019-04-14T07:47:07Z</time>
      </trkpt>
      <trkpt lat="44.4138" lon="1.36331">
        <ele>347</ele>
        <time>2019-04-14T07:47:10Z</time>
      </trkpt>
      <trkpt lat="44.4139" lon="1.36324">
        <ele>347</ele>
        <time>2019-04-14T07:47:12Z</time>
      </trkpt>
      <trkpt lat="44.41395" lon="1.3632">
        <ele>346</ele>
        <time>2019-04-14T07:47:13Z</time>
      </trkpt>
      <trkpt lat="44.41428" lon="1.36295">
        <ele>346</ele>
        <time>2019-04-14T07:47:19Z</time>
      </trkpt>
      <trkpt lat="44.41459" lon="1.36278">
        <ele>344</ele>
        <time>2019-04-14T07:47:24Z</time>
      </trkpt>
      <trkpt lat="44.41473" lon="1.36271">
        <ele>344</ele>
        <time>2019-04-14T07:47:26Z</time>
      </trkpt>
      <trkpt lat="44.41486" lon="1.36264">
        <ele>343</ele>
        <time>2019-04-14T07:47:28Z</time>
      </trkpt>
      <trkpt lat="44.41503" lon="1.36254">
        <ele>342</ele>
        <time>2019-04-14T07:47:31Z</time>
      </trkpt>
      <trkpt lat="44.4151" lon="1.3625">
        <ele>342</ele>
        <time>2019-04-14T07:47:32Z</time>
      </trkpt>
      <trkpt lat="44.41529" lon="1.36241">
        <ele>341</ele>
        <time>2019-04-14T07:47:35Z</time>
      </trkpt>
      <trkpt lat="44.41535" lon="1.36238">
        <ele>341</ele>
        <time>2019-04-14T07:47:36Z</time>
      </trkpt>
      <trkpt lat="44.41542" lon="1.36235">
        <ele>340</ele>
        <time>2019-04-14T07:47:37Z</time>
      </trkpt>
      <trkpt lat="44.4155" lon="1.36232">
        <ele>340</ele>
        <time>2019-04-14T07:47:38Z</time>
      </trkpt>
      <trkpt lat="44.41572" lon="1.36218">
        <ele>338</ele>
        <time>2019-04-14T07:47:41Z</time>
      </trkpt>
      <trkpt lat="44.41579" lon="1.36213">
        <ele>338</ele>
        <time>2019-04-14T07:47:42Z</time>
      </trkpt>
      <trkpt lat="44.41595" lon="1.36201">
        <ele>337</ele>
        <time>2019-04-14T07:47:44Z</time>
      </trkpt>
      <trkpt lat="44.4162" lon="1.36184">
        <ele>335</ele>
        <time>2019-04-14T07:47:47Z</time>
      </trkpt>
      <trkpt lat="44.41645" lon="1.36167">
        <ele>334</ele>
        <time>2019-04-14T07:47:50Z</time>
      </trkpt>
      <trkpt lat="44.41693" lon="1.36138">
        <ele>333</ele>
        <time>2019-04-14T07:47:56Z</time>
      </trkpt>
      <trkpt lat="44.41721" lon="1.36123">
        <ele>333</ele>
        <time>2019-04-14T07:48:00Z</time>
      </trkpt>
      <trkpt lat="44.41727" lon="1.36118">
        <ele>333</ele>
        <time>2019-04-14T07:48:01Z</time>
      </trkpt>
      <trkpt lat="44.41739" lon="1.36102">
        <ele>332</ele>
        <time>2019-04-14T07:48:04Z</time>
      </trkpt>
      <trkpt lat="44.41744" lon="1.36097">
        <ele>332</ele>
        <time>2019-04-14T07:48:05Z</time>
      </trkpt>
      <trkpt lat="44.41754" lon="1.36088">
        <ele>332</ele>
        <time>2019-04-14T07:48:07Z</time>
      </trkpt>
      <trkpt lat="44.41758" lon="1.36084">
        <ele>332</ele>
        <time>2019-04-14T07:48:08Z</time>
      </trkpt>
      <trkpt lat="44.4177" lon="1.36071">
        <ele>333</ele>
        <time>2019-04-14T07:48:11Z</time>
      </trkpt>
      <trkpt lat="44.41774" lon="1.36066">
        <ele>333</ele>
        <time>2019-04-14T07:48:12Z</time>
      </trkpt>
      <trkpt lat="44.41784" lon="1.36052">
        <ele>334</ele>
        <time>2019-04-14T07:48:15Z</time>
      </trkpt>
      <trkpt lat="44.41791" lon="1.36043">
        <ele>334</ele>
        <time>2019-04-14T07:48:17Z</time>
      </trkpt>
      <trkpt lat="44.41802" lon="1.3603">
        <ele>335</ele>
        <time>2019-04-14T07:48:20Z</time>
      </trkpt>
      <trkpt lat="44.41815" lon="1.36015">
        <ele>335</ele>
        <time>2019-04-14T07:48:24Z</time>
      </trkpt>
      <trkpt lat="44.41833" lon="1.35996">
        <ele>336</ele>
        <time>2019-04-14T07:48:29Z</time>
      </trkpt>
      <trkpt lat="44.4184" lon="1.35989">
        <ele>336</ele>
        <time>2019-04-14T07:48:31Z</time>
      </trkpt>
      <trkpt lat="44.41844" lon="1.35986">
        <ele>336</ele>
        <time>2019-04-14T07:48:32Z</time>
      </trkpt>
      <trkpt lat="44.41857" lon="1.3597">
        <ele>338</ele>
        <time>2019-04-14T07:48:36Z</time>
      </trkpt>
      <trkpt lat="44.41864" lon="1.35961">
        <ele>338</ele>
        <time>2019-04-14T07:48:38Z</time>
      </trkpt>
      <trkpt lat="44.41882" lon="1.35932">
        <ele>338</ele>
        <time>2019-04-14T07:48:44Z</time>
      </trkpt>
      <trkpt lat="44.41885" lon="1.35927">
        <ele>338</ele>
        <time>2019-04-14T07:48:45Z</time>
      </trkpt>
      <trkpt lat="44.41911" lon="1.35892">
        <ele>338</ele>
        <time>2019-04-14T07:48:52Z</time>
      </trkpt>
      <trkpt lat="44.41916" lon="1.35872">
        <ele>336</ele>
        <time>2019-04-14T07:48:55Z</time>
      </trkpt>
      <trkpt lat="44.41919" lon="1.35857">
        <ele>335</ele>
        <time>2019-04-14T07:48:59Z</time>
      </trkpt>
      <trkpt lat="44.41923" lon="1.35852">
        <ele>335</ele>
        <time>2019-04-14T07:49:02Z</time>
      </trkpt>
      <trkpt lat="44.41924" lon="1.35852">
        <ele>335</ele>
        <time>2019-04-14T07:49:03Z</time>
      </trkpt>
      <trkpt lat="44.41929" lon="1.35854">
        <ele>335</ele>
        <time>2019-04-14T07:49:06Z</time>
      </trkpt>
      <trkpt lat="44.41935" lon="1.35854">
        <ele>335</ele>
        <time>2019-04-14T07:49:09Z</time>
      </trkpt>
      <trkpt lat="44.41944" lon="1.35841">
        <ele>335</ele>
        <time>2019-04-14T07:49:13Z</time>
      </trkpt>
      <trkpt lat="44.41947" lon="1.35837">
        <ele>335</ele>
        <time>2019-04-14T07:49:14Z</time>
      </trkpt>
      <trkpt lat="44.41949" lon="1.35833">
        <ele>334</ele>
        <time>2019-04-14T07:49:15Z</time>
      </trkpt>
      <trkpt lat="44.41958" lon="1.35818">
        <ele>333</ele>
        <time>2019-04-14T07:49:18Z</time>
      </trkpt>
      <trkpt lat="44.41964" lon="1.3581">
        <ele>333</ele>
        <time>2019-04-14T07:49:20Z</time>
      </trkpt>
      <trkpt lat="44.41971" lon="1.35801">
        <ele>332</ele>
        <time>2019-04-14T07:49:22Z</time>
      </trkpt>
      <trkpt lat="44.41979" lon="1.3579">
        <ele>332</ele>
        <time>2019-04-14T07:49:24Z</time>
      </trkpt>
      <trkpt lat="44.41982" lon="1.35784">
        <ele>331</ele>
        <time>2019-04-14T07:49:25Z</time>
      </trkpt>
      <trkpt lat="44.41985" lon="1.35778">
        <ele>331</ele>
        <time>2019-04-14T07:49:26Z</time>
      </trkpt>
      <trkpt lat="44.41993" lon="1.35765">
        <ele>329</ele>
        <time>2019-04-14T07:49:28Z</time>
      </trkpt>
      <trkpt lat="44.41998" lon="1.35759">
        <ele>329</ele>
        <time>2019-04-14T07:49:29Z</time>
      </trkpt>
      <trkpt lat="44.42006" lon="1.35746">
        <ele>328</ele>
        <time>2019-04-14T07:49:31Z</time>
      </trkpt>
      <trkpt lat="44.42013" lon="1.35736">
        <ele>327</ele>
        <time>2019-04-14T07:49:33Z</time>
      </trkpt>
      <trkpt lat="44.42023" lon="1.35729">
        <ele>326</ele>
        <time>2019-04-14T07:49:35Z</time>
      </trkpt>
      <trkpt lat="44.42034" lon="1.35724">
        <ele>325</ele>
        <time>2019-04-14T07:49:37Z</time>
      </trkpt>
      <trkpt lat="44.4204" lon="1.35724">
        <ele>324</ele>
        <time>2019-04-14T07:49:38Z</time>
      </trkpt>
      <trkpt lat="44.42053" lon="1.35725">
        <ele>323</ele>
        <time>2019-04-14T07:49:40Z</time>
      </trkpt>
      <trkpt lat="44.42058" lon="1.35726">
        <ele>322</ele>
        <time>2019-04-14T07:49:41Z</time>
      </trkpt>
      <trkpt lat="44.42062" lon="1.35729">
        <ele>321</ele>
        <time>2019-04-14T07:49:42Z</time>
      </trkpt>
      <trkpt lat="44.42066" lon="1.3574">
        <ele>320</ele>
        <time>2019-04-14T07:49:45Z</time>
      </trkpt>
      <trkpt lat="44.42068" lon="1.35745">
        <ele>320</ele>
        <time>2019-04-14T07:49:46Z</time>
      </trkpt>
      <trkpt lat="44.42068" lon="1.35751">
        <ele>320</ele>
        <time>2019-04-14T07:49:47Z</time>
      </trkpt>
      <trkpt lat="44.42066" lon="1.35767">
        <ele>319</ele>
        <time>2019-04-14T07:49:50Z</time>
      </trkpt>
      <trkpt lat="44.42062" lon="1.35772">
        <ele>319</ele>
        <time>2019-04-14T07:49:52Z</time>
      </trkpt>
      <trkpt lat="44.42057" lon="1.35776">
        <ele>319</ele>
        <time>2019-04-14T07:49:54Z</time>
      </trkpt>
      <trkpt lat="44.42048" lon="1.35786">
        <ele>320</ele>
        <time>2019-04-14T07:49:59Z</time>
      </trkpt>
      <trkpt lat="44.42047" lon="1.35788">
        <ele>321</ele>
        <time>2019-04-14T07:50:00Z</time>
      </trkpt>
      <trkpt lat="44.42045" lon="1.35794">
        <ele>321</ele>
        <time>2019-04-14T07:50:02Z</time>
      </trkpt>
      <trkpt lat="44.42044" lon="1.35799">
        <ele>322</ele>
        <time>2019-04-14T07:50:04Z</time>
      </trkpt>
      <trkpt lat="44.42039" lon="1.35809">
        <ele>322</ele>
        <time>2019-04-14T07:50:08Z</time>
      </trkpt>
      <trkpt lat="44.42037" lon="1.35811">
        <ele>322</ele>
        <time>2019-04-14T07:50:09Z</time>
      </trkpt>
      <trkpt lat="44.42028" lon="1.35821">
        <ele>322</ele>
        <time>2019-04-14T07:50:14Z</time>
      </trkpt>
      <trkpt lat="44.42026" lon="1.35823">
        <ele>323</ele>
        <time>2019-04-14T07:50:15Z</time>
      </trkpt>
      <trkpt lat="44.42022" lon="1.35831">
        <ele>324</ele>
        <time>2019-04-14T07:50:18Z</time>
      </trkpt>
      <trkpt lat="44.42021" lon="1.35834">
        <ele>324</ele>
        <time>2019-04-14T07:50:19Z</time>
      </trkpt>
      <trkpt lat="44.42015" lon="1.35847">
        <ele>324</ele>
        <time>2019-04-14T07:50:23Z</time>
      </trkpt>
      <trkpt lat="44.42012" lon="1.3585">
        <ele>325</ele>
        <time>2019-04-14T07:50:25Z</time>
      </trkpt>
      <trkpt lat="44.42011" lon="1.35853">
        <ele>326</ele>
        <time>2019-04-14T07:50:26Z</time>
      </trkpt>
      <trkpt lat="44.42012" lon="1.3586">
        <ele>326</ele>
        <time>2019-04-14T07:50:28Z</time>
      </trkpt>
      <trkpt lat="44.42013" lon="1.35868">
        <ele>326</ele>
        <time>2019-04-14T07:50:30Z</time>
      </trkpt>
      <trkpt lat="44.42017" lon="1.35876">
        <ele>326</ele>
        <time>2019-04-14T07:50:32Z</time>
      </trkpt>
      <trkpt lat="44.42019" lon="1.3588">
        <ele>325</ele>
        <time>2019-04-14T07:50:33Z</time>
      </trkpt>
      <trkpt lat="44.4202" lon="1.35885">
        <ele>324</ele>
        <time>2019-04-14T07:50:34Z</time>
      </trkpt>
      <trkpt lat="44.4202" lon="1.35891">
        <ele>323</ele>
        <time>2019-04-14T07:50:35Z</time>
      </trkpt>
      <trkpt lat="44.4202" lon="1.35897">
        <ele>323</ele>
        <time>2019-04-14T07:50:36Z</time>
      </trkpt>
      <trkpt lat="44.42021" lon="1.35907">
        <ele>322</ele>
        <time>2019-04-14T07:50:38Z</time>
      </trkpt>
      <trkpt lat="44.42023" lon="1.35912">
        <ele>321</ele>
        <time>2019-04-14T07:50:39Z</time>
      </trkpt>
      <trkpt lat="44.42026" lon="1.35925">
        <ele>320</ele>
        <time>2019-04-14T07:50:41Z</time>
      </trkpt>
      <trkpt lat="44.42027" lon="1.35931">
        <ele>319</ele>
        <time>2019-04-14T07:50:42Z</time>
      </trkpt>
      <trkpt lat="44.42029" lon="1.35937">
        <ele>319</ele>
        <time>2019-04-14T07:50:43Z</time>
      </trkpt>
      <trkpt lat="44.42033" lon="1.35946">
        <ele>319</ele>
        <time>2019-04-14T07:50:45Z</time>
      </trkpt>
      <trkpt lat="44.42039" lon="1.35954">
        <ele>319</ele>
        <time>2019-04-14T07:50:48Z</time>
      </trkpt>
      <trkpt lat="44.42041" lon="1.35957">
        <ele>320</ele>
        <time>2019-04-14T07:50:49Z</time>
      </trkpt>
      <trkpt lat="44.42046" lon="1.35964">
        <ele>320</ele>
        <time>2019-04-14T07:50:52Z</time>
      </trkpt>
      <trkpt lat="44.42046" lon="1.35966">
        <ele>321</ele>
        <time>2019-04-14T07:50:53Z</time>
      </trkpt>
      <trkpt lat="44.42047" lon="1.35968">
        <ele>321</ele>
        <time>2019-04-14T07:50:54Z</time>
      </trkpt>
      <trkpt lat="44.42048" lon="1.3597">
        <ele>321</ele>
        <time>2019-04-14T07:50:55Z</time>
      </trkpt>
      <trkpt lat="44.42051" lon="1.35977">
        <ele>322</ele>
        <time>2019-04-14T07:50:57Z</time>
      </trkpt>
      <trkpt lat="44.42052" lon="1.3598">
        <ele>323</ele>
        <time>2019-04-14T07:50:58Z</time>
      </trkpt>
      <trkpt lat="44.42058" lon="1.35988">
        <ele>324</ele>
        <time>2019-04-14T07:51:01Z</time>
      </trkpt>
      <trkpt lat="44.4206" lon="1.35989">
        <ele>324</ele>
        <time>2019-04-14T07:51:02Z</time>
      </trkpt>
      <trkpt lat="44.42071" lon="1.35989">
        <ele>324</ele>
        <time>2019-04-14T07:51:05Z</time>
      </trkpt>
      <trkpt lat="44.42075" lon="1.35989">
        <ele>324</ele>
        <time>2019-04-14T07:51:06Z</time>
      </trkpt>
      <trkpt lat="44.42085" lon="1.35989">
        <ele>323</ele>
        <time>2019-04-14T07:51:09Z</time>
      </trkpt>
      <trkpt lat="44.42099" lon="1.3598">
        <ele>322</ele>
        <time>2019-04-14T07:51:13Z</time>
      </trkpt>
      <trkpt lat="44.42109" lon="1.35979">
        <ele>321</ele>
        <time>2019-04-14T07:51:16Z</time>
      </trkpt>
      <trkpt lat="44.42124" lon="1.35975">
        <ele>320</ele>
        <time>2019-04-14T07:51:20Z</time>
      </trkpt>
      <trkpt lat="44.42127" lon="1.35974">
        <ele>319</ele>
        <time>2019-04-14T07:51:21Z</time>
      </trkpt>
      <trkpt lat="44.42132" lon="1.3597">
        <ele>319</ele>
        <time>2019-04-14T07:51:23Z</time>
      </trkpt>
      <trkpt lat="44.42134" lon="1.3597">
        <ele>318</ele>
        <time>2019-04-14T07:51:24Z</time>
      </trkpt>
      <trkpt lat="44.42144" lon="1.35971">
        <ele>317</ele>
        <time>2019-04-14T07:51:27Z</time>
      </trkpt>
      <trkpt lat="44.42153" lon="1.35968">
        <ele>317</ele>
        <time>2019-04-14T07:51:29Z</time>
      </trkpt>
      <trkpt lat="44.42162" lon="1.35969">
        <ele>317</ele>
        <time>2019-04-14T07:51:31Z</time>
      </trkpt>
      <trkpt lat="44.42173" lon="1.35967">
        <ele>316</ele>
        <time>2019-04-14T07:51:34Z</time>
      </trkpt>
      <trkpt lat="44.4218" lon="1.35962">
        <ele>316</ele>
        <time>2019-04-14T07:51:36Z</time>
      </trkpt>
      <trkpt lat="44.42183" lon="1.35961">
        <ele>316</ele>
        <time>2019-04-14T07:51:37Z</time>
      </trkpt>
      <trkpt lat="44.42186" lon="1.35959">
        <ele>316</ele>
        <time>2019-04-14T07:51:38Z</time>
      </trkpt>
      <trkpt lat="44.42192" lon="1.35954">
        <ele>315</ele>
        <time>2019-04-14T07:51:40Z</time>
      </trkpt>
      <trkpt lat="44.42196" lon="1.35951">
        <ele>315</ele>
        <time>2019-04-14T07:51:41Z</time>
      </trkpt>
      <trkpt lat="44.42205" lon="1.35945">
        <ele>314</ele>
        <time>2019-04-14T07:51:43Z</time>
      </trkpt>
      <trkpt lat="44.4221" lon="1.3594">
        <ele>313</ele>
        <time>2019-04-14T07:51:45Z</time>
      </trkpt>
      <trkpt lat="44.4222" lon="1.35931">
        <ele>312</ele>
        <time>2019-04-14T07:51:48Z</time>
      </trkpt>
      <trkpt lat="44.42227" lon="1.35922">
        <ele>311</ele>
        <time>2019-04-14T07:51:50Z</time>
      </trkpt>
      <trkpt lat="44.42235" lon="1.35913">
        <ele>311</ele>
        <time>2019-04-14T07:51:52Z</time>
      </trkpt>
      <trkpt lat="44.42245" lon="1.359">
        <ele>310</ele>
        <time>2019-04-14T07:51:55Z</time>
      </trkpt>
      <trkpt lat="44.42251" lon="1.35894">
        <ele>309</ele>
        <time>2019-04-14T07:51:57Z</time>
      </trkpt>
      <trkpt lat="44.42257" lon="1.35891">
        <ele>309</ele>
        <time>2019-04-14T07:51:59Z</time>
      </trkpt>
      <trkpt lat="44.42265" lon="1.35878">
        <ele>309</ele>
        <time>2019-04-14T07:52:02Z</time>
      </trkpt>
      <trkpt lat="44.42268" lon="1.35873">
        <ele>309</ele>
        <time>2019-04-14T07:52:03Z</time>
      </trkpt>
      <trkpt lat="44.42274" lon="1.35864">
        <ele>308</ele>
        <time>2019-04-14T07:52:05Z</time>
      </trkpt>
      <trkpt lat="44.42282" lon="1.35859">
        <ele>308</ele>
        <time>2019-04-14T07:52:07Z</time>
      </trkpt>
      <trkpt lat="44.42287" lon="1.35854">
        <ele>307</ele>
        <time>2019-04-14T07:52:09Z</time>
      </trkpt>
      <trkpt lat="44.42291" lon="1.35848">
        <ele>307</ele>
        <time>2019-04-14T07:52:11Z</time>
      </trkpt>
      <trkpt lat="44.42296" lon="1.35843">
        <ele>307</ele>
        <time>2019-04-14T07:52:13Z</time>
      </trkpt>
      <trkpt lat="44.42299" lon="1.3584">
        <ele>307</ele>
        <time>2019-04-14T07:52:14Z</time>
      </trkpt>
      <trkpt lat="44.42304" lon="1.35834">
        <ele>307</ele>
        <time>2019-04-14T07:52:16Z</time>
      </trkpt>
      <trkpt lat="44.4231" lon="1.35831">
        <ele>307</ele>
        <time>2019-04-14T07:52:18Z</time>
      </trkpt>
      <trkpt lat="44.42319" lon="1.35814">
        <ele>307</ele>
        <time>2019-04-14T07:52:22Z</time>
      </trkpt>
      <trkpt lat="44.4233" lon="1.35798">
        <ele>308</ele>
        <time>2019-04-14T07:52:26Z</time>
      </trkpt>
      <trkpt lat="44.42341" lon="1.35785">
        <ele>307</ele>
        <time>2019-04-14T07:52:30Z</time>
      </trkpt>
      <trkpt lat="44.4235" lon="1.3578">
        <ele>308</ele>
        <time>2019-04-14T07:52:33Z</time>
      </trkpt>
      <trkpt lat="44.42354" lon="1.35777">
        <ele>308</ele>
        <time>2019-04-14T07:52:34Z</time>
      </trkpt>
      <trkpt lat="44.4236" lon="1.35769">
        <ele>309</ele>
        <time>2019-04-14T07:52:36Z</time>
      </trkpt>
      <trkpt lat="44.42361" lon="1.35764">
        <ele>309</ele>
        <time>2019-04-14T07:52:37Z</time>
      </trkpt>
      <trkpt lat="44.42362" lon="1.3576">
        <ele>309</ele>
        <time>2019-04-14T07:52:38Z</time>
      </trkpt>
      <trkpt lat="44.42367" lon="1.35755">
        <ele>309</ele>
        <time>2019-04-14T07:52:40Z</time>
      </trkpt>
      <trkpt lat="44.42377" lon="1.35747">
        <ele>309</ele>
        <time>2019-04-14T07:52:43Z</time>
      </trkpt>
      <trkpt lat="44.4239" lon="1.35735">
        <ele>309</ele>
        <time>2019-04-14T07:52:47Z</time>
      </trkpt>
      <trkpt lat="44.42387" lon="1.35717">
        <ele>309</ele>
        <time>2019-04-14T07:52:50Z</time>
      </trkpt>
      <trkpt lat="44.42385" lon="1.3571">
        <ele>309</ele>
        <time>2019-04-14T07:52:51Z</time>
      </trkpt>
      <trkpt lat="44.42381" lon="1.35696">
        <ele>307</ele>
        <time>2019-04-14T07:52:53Z</time>
      </trkpt>
      <trkpt lat="44.42382" lon="1.35684">
        <ele>306</ele>
        <time>2019-04-14T07:52:55Z</time>
      </trkpt>
      <trkpt lat="44.42384" lon="1.35679">
        <ele>306</ele>
        <time>2019-04-14T07:52:56Z</time>
      </trkpt>
      <trkpt lat="44.42391" lon="1.35665">
        <ele>305</ele>
        <time>2019-04-14T07:52:59Z</time>
      </trkpt>
      <trkpt lat="44.42403" lon="1.35652">
        <ele>303</ele>
        <time>2019-04-14T07:53:02Z</time>
      </trkpt>
      <trkpt lat="44.42407" lon="1.35649">
        <ele>303</ele>
        <time>2019-04-14T07:53:03Z</time>
      </trkpt>
      <trkpt lat="44.4241" lon="1.35645">
        <ele>303</ele>
        <time>2019-04-14T07:53:04Z</time>
      </trkpt>
      <trkpt lat="44.42419" lon="1.35638">
        <ele>303</ele>
        <time>2019-04-14T07:53:06Z</time>
      </trkpt>
      <trkpt lat="44.42427" lon="1.35635">
        <ele>303</ele>
        <time>2019-04-14T07:53:08Z</time>
      </trkpt>
      <trkpt lat="44.42442" lon="1.35632">
        <ele>304</ele>
        <time>2019-04-14T07:53:12Z</time>
      </trkpt>
      <trkpt lat="44.42446" lon="1.35632">
        <ele>304</ele>
        <time>2019-04-14T07:53:13Z</time>
      </trkpt>
      <trkpt lat="44.42449" lon="1.35632">
        <ele>305</ele>
        <time>2019-04-14T07:53:14Z</time>
      </trkpt>
      <trkpt lat="44.42459" lon="1.35626">
        <ele>306</ele>
        <time>2019-04-14T07:53:17Z</time>
      </trkpt>
      <trkpt lat="44.42463" lon="1.35624">
        <ele>306</ele>
        <time>2019-04-14T07:53:18Z</time>
      </trkpt>
      <trkpt lat="44.42479" lon="1.35611">
        <ele>305</ele>
        <time>2019-04-14T07:53:22Z</time>
      </trkpt>
      <trkpt lat="44.42488" lon="1.356">
        <ele>305</ele>
        <time>2019-04-14T07:53:25Z</time>
      </trkpt>
      <trkpt lat="44.42494" lon="1.35591">
        <ele>304</ele>
        <time>2019-04-14T07:53:27Z</time>
      </trkpt>
      <trkpt lat="44.42502" lon="1.35586">
        <ele>303</ele>
        <time>2019-04-14T07:53:29Z</time>
      </trkpt>
      <trkpt lat="44.42506" lon="1.35585">
        <ele>303</ele>
        <time>2019-04-14T07:53:30Z</time>
      </trkpt>
      <trkpt lat="44.42514" lon="1.35587">
        <ele>303</ele>
        <time>2019-04-14T07:53:32Z</time>
      </trkpt>
      <trkpt lat="44.42528" lon="1.35585">
        <ele>304</ele>
        <time>2019-04-14T07:53:36Z</time>
      </trkpt>
      <trkpt lat="44.42549" lon="1.35577">
        <ele>303</ele>
        <time>2019-04-14T07:53:42Z</time>
      </trkpt>
      <trkpt lat="44.42553" lon="1.35573">
        <ele>303</ele>
        <time>2019-04-14T07:53:43Z</time>
      </trkpt>
      <trkpt lat="44.42562" lon="1.35561">
        <ele>302</ele>
        <time>2019-04-14T07:53:46Z</time>
      </trkpt>
      <trkpt lat="44.4257" lon="1.35554">
        <ele>301</ele>
        <time>2019-04-14T07:53:48Z</time>
      </trkpt>
      <trkpt lat="44.42575" lon="1.35552">
        <ele>301</ele>
        <time>2019-04-14T07:53:49Z</time>
      </trkpt>
      <trkpt lat="44.42584" lon="1.35549">
        <ele>300</ele>
        <time>2019-04-14T07:53:51Z</time>
      </trkpt>
      <trkpt lat="44.42601" lon="1.35549">
        <ele>299</ele>
        <time>2019-04-14T07:53:55Z</time>
      </trkpt>
      <trkpt lat="44.42609" lon="1.35549">
        <ele>298</ele>
        <time>2019-04-14T07:53:57Z</time>
      </trkpt>
      <trkpt lat="44.42613" lon="1.35549">
        <ele>298</ele>
        <time>2019-04-14T07:53:58Z</time>
      </trkpt>
      <trkpt lat="44.42618" lon="1.35549">
        <ele>298</ele>
        <time>2019-04-14T07:53:59Z</time>
      </trkpt>
      <trkpt lat="44.42626" lon="1.35556">
        <ele>298</ele>
        <time>2019-04-14T07:54:01Z</time>
      </trkpt>
      <trkpt lat="44.42636" lon="1.35578">
        <ele>299</ele>
        <time>2019-04-14T07:54:05Z</time>
      </trkpt>
      <trkpt lat="44.42642" lon="1.35586">
        <ele>300</ele>
        <time>2019-04-14T07:54:07Z</time>
      </trkpt>
      <trkpt lat="44.42648" lon="1.35589">
        <ele>300</ele>
        <time>2019-04-14T07:54:09Z</time>
      </trkpt>
      <trkpt lat="44.42659" lon="1.35583">
        <ele>300</ele>
        <time>2019-04-14T07:54:12Z</time>
      </trkpt>
      <trkpt lat="44.42667" lon="1.35582">
        <ele>298</ele>
        <time>2019-04-14T07:54:14Z</time>
      </trkpt>
      <trkpt lat="44.42672" lon="1.35582">
        <ele>298</ele>
        <time>2019-04-14T07:54:15Z</time>
      </trkpt>
      <trkpt lat="44.4269" lon="1.35583">
        <ele>297</ele>
        <time>2019-04-14T07:54:18Z</time>
      </trkpt>
      <trkpt lat="44.42698" lon="1.35588">
        <ele>296</ele>
        <time>2019-04-14T07:54:20Z</time>
      </trkpt>
      <trkpt lat="44.42702" lon="1.3559">
        <ele>295</ele>
        <time>2019-04-14T07:54:21Z</time>
      </trkpt>
      <trkpt lat="44.42711" lon="1.35588">
        <ele>294</ele>
        <time>2019-04-14T07:54:23Z</time>
      </trkpt>
      <trkpt lat="44.42715" lon="1.3559">
        <ele>294</ele>
        <time>2019-04-14T07:54:24Z</time>
      </trkpt>
      <trkpt lat="44.4272" lon="1.35591">
        <ele>293</ele>
        <time>2019-04-14T07:54:25Z</time>
      </trkpt>
      <trkpt lat="44.42729" lon="1.35591">
        <ele>292</ele>
        <time>2019-04-14T07:54:27Z</time>
      </trkpt>
      <trkpt lat="44.42732" lon="1.35592">
        <ele>292</ele>
        <time>2019-04-14T07:54:28Z</time>
      </trkpt>
      <trkpt lat="44.42736" lon="1.35598">
        <ele>290</ele>
        <time>2019-04-14T07:54:30Z</time>
      </trkpt>
      <trkpt lat="44.42738" lon="1.35602">
        <ele>290</ele>
        <time>2019-04-14T07:54:31Z</time>
      </trkpt>
      <trkpt lat="44.42746" lon="1.35611">
        <ele>290</ele>
        <time>2019-04-14T07:54:35Z</time>
      </trkpt>
      <trkpt lat="44.42753" lon="1.3561">
        <ele>290</ele>
        <time>2019-04-14T07:54:38Z</time>
      </trkpt>
      <trkpt lat="44.42759" lon="1.35607">
        <ele>289</ele>
        <time>2019-04-14T07:54:41Z</time>
      </trkpt>
      <trkpt lat="44.42762" lon="1.35609">
        <ele>289</ele>
        <time>2019-04-14T07:54:42Z</time>
      </trkpt>
      <trkpt lat="44.42778" lon="1.35611">
        <ele>287</ele>
        <time>2019-04-14T07:54:45Z</time>
      </trkpt>
      <trkpt lat="44.42784" lon="1.35609">
        <ele>287</ele>
        <time>2019-04-14T07:54:46Z</time>
      </trkpt>
      <trkpt lat="44.4279" lon="1.35607">
        <ele>287</ele>
        <time>2019-04-14T07:54:47Z</time>
      </trkpt>
      <trkpt lat="44.42796" lon="1.35604">
        <ele>286</ele>
        <time>2019-04-14T07:54:48Z</time>
      </trkpt>
      <trkpt lat="44.42802" lon="1.35601">
        <ele>286</ele>
        <time>2019-04-14T07:54:49Z</time>
      </trkpt>
      <trkpt lat="44.42812" lon="1.35594">
        <ele>285</ele>
        <time>2019-04-14T07:54:51Z</time>
      </trkpt>
      <trkpt lat="44.42818" lon="1.35593">
        <ele>285</ele>
        <time>2019-04-14T07:54:52Z</time>
      </trkpt>
      <trkpt lat="44.42828" lon="1.35593">
        <ele>285</ele>
        <time>2019-04-14T07:54:54Z</time>
      </trkpt>
      <trkpt lat="44.42831" lon="1.35596">
        <ele>284</ele>
        <time>2019-04-14T07:54:55Z</time>
      </trkpt>
      <trkpt lat="44.42833" lon="1.35599">
        <ele>284</ele>
        <time>2019-04-14T07:54:56Z</time>
      </trkpt>
      <trkpt lat="44.42844" lon="1.3561">
        <ele>285</ele>
        <time>2019-04-14T07:55:00Z</time>
      </trkpt>
      <trkpt lat="44.42851" lon="1.35614">
        <ele>285</ele>
        <time>2019-04-14T07:55:03Z</time>
      </trkpt>
      <trkpt lat="44.42867" lon="1.35613">
        <ele>286</ele>
        <time>2019-04-14T07:55:07Z</time>
      </trkpt>
      <trkpt lat="44.42883" lon="1.35605">
        <ele>285</ele>
        <time>2019-04-14T07:55:11Z</time>
      </trkpt>
      <trkpt lat="44.42899" lon="1.35596">
        <ele>284</ele>
        <time>2019-04-14T07:55:15Z</time>
      </trkpt>
      <trkpt lat="44.42904" lon="1.35593">
        <ele>284</ele>
        <time>2019-04-14T07:55:16Z</time>
      </trkpt>
      <trkpt lat="44.42908" lon="1.35591">
        <ele>284</ele>
        <time>2019-04-14T07:55:17Z</time>
      </trkpt>
      <trkpt lat="44.42912" lon="1.35587">
        <ele>283</ele>
        <time>2019-04-14T07:55:18Z</time>
      </trkpt>
      <trkpt lat="44.42917" lon="1.35583">
        <ele>283</ele>
        <time>2019-04-14T07:55:19Z</time>
      </trkpt>
      <trkpt lat="44.42926" lon="1.35575">
        <ele>282</ele>
        <time>2019-04-14T07:55:21Z</time>
      </trkpt>
      <trkpt lat="44.4293" lon="1.35569">
        <ele>280</ele>
        <time>2019-04-14T07:55:22Z</time>
      </trkpt>
      <trkpt lat="44.42935" lon="1.35565">
        <ele>279</ele>
        <time>2019-04-14T07:55:23Z</time>
      </trkpt>
      <trkpt lat="44.42948" lon="1.35555">
        <ele>278</ele>
        <time>2019-04-14T07:55:25Z</time>
      </trkpt>
      <trkpt lat="44.42955" lon="1.35551">
        <ele>277</ele>
        <time>2019-04-14T07:55:26Z</time>
      </trkpt>
      <trkpt lat="44.42962" lon="1.35547">
        <ele>276</ele>
        <time>2019-04-14T07:55:27Z</time>
      </trkpt>
      <trkpt lat="44.4298" lon="1.35538">
        <ele>275</ele>
        <time>2019-04-14T07:55:30Z</time>
      </trkpt>
      <trkpt lat="44.42986" lon="1.35536">
        <ele>275</ele>
        <time>2019-04-14T07:55:31Z</time>
      </trkpt>
      <trkpt lat="44.42999" lon="1.35525">
        <ele>276</ele>
        <time>2019-04-14T07:55:34Z</time>
      </trkpt>
      <trkpt lat="44.43004" lon="1.35521">
        <ele>276</ele>
        <time>2019-04-14T07:55:35Z</time>
      </trkpt>
      <trkpt lat="44.43019" lon="1.3551">
        <ele>276</ele>
        <time>2019-04-14T07:55:38Z</time>
      </trkpt>
      <trkpt lat="44.43024" lon="1.35508">
        <ele>276</ele>
        <time>2019-04-14T07:55:39Z</time>
      </trkpt>
      <trkpt lat="44.43037" lon="1.35505">
        <ele>278</ele>
        <time>2019-04-14T07:55:42Z</time>
      </trkpt>
      <trkpt lat="44.43046" lon="1.355">
        <ele>279</ele>
        <time>2019-04-14T07:55:45Z</time>
      </trkpt>
      <trkpt lat="44.43052" lon="1.35497">
        <ele>281</ele>
        <time>2019-04-14T07:55:47Z</time>
      </trkpt>
      <trkpt lat="44.43057" lon="1.35499">
        <ele>282</ele>
        <time>2019-04-14T07:55:49Z</time>
      </trkpt>
      <trkpt lat="44.43061" lon="1.35499">
        <ele>283</ele>
        <time>2019-04-14T07:55:51Z</time>
      </trkpt>
      <trkpt lat="44.43063" lon="1.35499">
        <ele>284</ele>
        <time>2019-04-14T07:55:52Z</time>
      </trkpt>
      <trkpt lat="44.43065" lon="1.35499">
        <ele>284</ele>
        <time>2019-04-14T07:55:53Z</time>
      </trkpt>
      <trkpt lat="44.43066" lon="1.35501">
        <ele>284</ele>
        <time>2019-04-14T07:55:54Z</time>
      </trkpt>
      <trkpt lat="44.43069" lon="1.35504">
        <ele>285</ele>
        <time>2019-04-14T07:55:56Z</time>
      </trkpt>
      <trkpt lat="44.43071" lon="1.35504">
        <ele>286</ele>
        <time>2019-04-14T07:55:57Z</time>
      </trkpt>
      <trkpt lat="44.43074" lon="1.35502">
        <ele>287</ele>
        <time>2019-04-14T07:55:59Z</time>
      </trkpt>
      <trkpt lat="44.43077" lon="1.35501">
        <ele>287</ele>
        <time>2019-04-14T07:56:01Z</time>
      </trkpt>
      <trkpt lat="44.4308" lon="1.35499">
        <ele>288</ele>
        <time>2019-04-14T07:56:03Z</time>
      </trkpt>
      <trkpt lat="44.43087" lon="1.35496">
        <ele>289</ele>
        <time>2019-04-14T07:56:08Z</time>
      </trkpt>
      <trkpt lat="44.43089" lon="1.35496">
        <ele>289</ele>
        <time>2019-04-14T07:56:09Z</time>
      </trkpt>
      <trkpt lat="44.43095" lon="1.35496">
        <ele>290</ele>
        <time>2019-04-14T07:56:13Z</time>
      </trkpt>
      <trkpt lat="44.43099" lon="1.35495">
        <ele>291</ele>
        <time>2019-04-14T07:56:16Z</time>
      </trkpt>
      <trkpt lat="44.43101" lon="1.35495">
        <ele>291</ele>
        <time>2019-04-14T07:56:17Z</time>
      </trkpt>
      <trkpt lat="44.43104" lon="1.35495">
        <ele>292</ele>
        <time>2019-04-14T07:56:19Z</time>
      </trkpt>
      <trkpt lat="44.43106" lon="1.35492">
        <ele>292</ele>
        <time>2019-04-14T07:56:21Z</time>
      </trkpt>
      <trkpt lat="44.43107" lon="1.35489">
        <ele>292</ele>
        <time>2019-04-14T07:56:22Z</time>
      </trkpt>
      <trkpt lat="44.4311" lon="1.35476">
        <ele>293</ele>
        <time>2019-04-14T07:56:27Z</time>
      </trkpt>
      <trkpt lat="44.43113" lon="1.35457">
        <ele>292</ele>
        <time>2019-04-14T07:56:32Z</time>
      </trkpt>
      <trkpt lat="44.43116" lon="1.35452">
        <ele>291</ele>
        <time>2019-04-14T07:56:34Z</time>
      </trkpt>
      <trkpt lat="44.43118" lon="1.35442">
        <ele>291</ele>
        <time>2019-04-14T07:56:36Z</time>
      </trkpt>
      <trkpt lat="44.4312" lon="1.35432">
        <ele>290</ele>
        <time>2019-04-14T07:56:38Z</time>
      </trkpt>
      <trkpt lat="44.43126" lon="1.35423">
        <ele>289</ele>
        <time>2019-04-14T07:56:40Z</time>
      </trkpt>
      <trkpt lat="44.43133" lon="1.35417">
        <ele>287</ele>
        <time>2019-04-14T07:56:42Z</time>
      </trkpt>
      <trkpt lat="44.43139" lon="1.35414">
        <ele>286</ele>
        <time>2019-04-14T07:56:44Z</time>
      </trkpt>
      <trkpt lat="44.43146" lon="1.35419">
        <ele>287</ele>
        <time>2019-04-14T07:56:48Z</time>
      </trkpt>
      <trkpt lat="44.43147" lon="1.3542">
        <ele>288</ele>
        <time>2019-04-14T07:56:49Z</time>
      </trkpt>
      <trkpt lat="44.43149" lon="1.35419">
        <ele>288</ele>
        <time>2019-04-14T07:56:50Z</time>
      </trkpt>
      <trkpt lat="44.43154" lon="1.35417">
        <ele>288</ele>
        <time>2019-04-14T07:56:52Z</time>
      </trkpt>
      <trkpt lat="44.43168" lon="1.35409">
        <ele>288</ele>
        <time>2019-04-14T07:56:56Z</time>
      </trkpt>
      <trkpt lat="44.43177" lon="1.35406">
        <ele>288</ele>
        <time>2019-04-14T07:56:58Z</time>
      </trkpt>
      <trkpt lat="44.43184" lon="1.35406">
        <ele>287</ele>
        <time>2019-04-14T07:57:00Z</time>
      </trkpt>
      <trkpt lat="44.43187" lon="1.35405">
        <ele>287</ele>
        <time>2019-04-14T07:57:01Z</time>
      </trkpt>
      <trkpt lat="44.4319" lon="1.35406">
        <ele>286</ele>
        <time>2019-04-14T07:57:02Z</time>
      </trkpt>
      <trkpt lat="44.43196" lon="1.35408">
        <ele>286</ele>
        <time>2019-04-14T07:57:04Z</time>
      </trkpt>
      <trkpt lat="44.43198" lon="1.35411">
        <ele>286</ele>
        <time>2019-04-14T07:57:05Z</time>
      </trkpt>
      <trkpt lat="44.43201" lon="1.35415">
        <ele>286</ele>
        <time>2019-04-14T07:57:07Z</time>
      </trkpt>
      <trkpt lat="44.43211" lon="1.35427">
        <ele>286</ele>
        <time>2019-04-14T07:57:11Z</time>
      </trkpt>
      <trkpt lat="44.43214" lon="1.35429">
        <ele>286</ele>
        <time>2019-04-14T07:57:12Z</time>
      </trkpt>
      <trkpt lat="44.43223" lon="1.35437">
        <ele>285</ele>
        <time>2019-04-14T07:57:15Z</time>
      </trkpt>
      <trkpt lat="44.43224" lon="1.35439">
        <ele>285</ele>
        <time>2019-04-14T07:57:16Z</time>
      </trkpt>
      <trkpt lat="44.43235" lon="1.35449">
        <ele>285</ele>
        <time>2019-04-14T07:57:20Z</time>
      </trkpt>
      <trkpt lat="44.43238" lon="1.35452">
        <ele>286</ele>
        <time>2019-04-14T07:57:21Z</time>
      </trkpt>
      <trkpt lat="44.43241" lon="1.35454">
        <ele>286</ele>
        <time>2019-04-14T07:57:22Z</time>
      </trkpt>
      <trkpt lat="44.43249" lon="1.35459">
        <ele>286</ele>
        <time>2019-04-14T07:57:25Z</time>
      </trkpt>
      <trkpt lat="44.43252" lon="1.35462">
        <ele>287</ele>
        <time>2019-04-14T07:57:26Z</time>
      </trkpt>
      <trkpt lat="44.43256" lon="1.35465">
        <ele>287</ele>
        <time>2019-04-14T07:57:28Z</time>
      </trkpt>
      <trkpt lat="44.43258" lon="1.35465">
        <ele>287</ele>
        <time>2019-04-14T07:57:29Z</time>
      </trkpt>
      <trkpt lat="44.43273" lon="1.35466">
        <ele>288</ele>
        <time>2019-04-14T07:57:34Z</time>
      </trkpt>
      <trkpt lat="44.43276" lon="1.35465">
        <ele>288</ele>
        <time>2019-04-14T07:57:35Z</time>
      </trkpt>
      <trkpt lat="44.43288" lon="1.35464">
        <ele>289</ele>
        <time>2019-04-14T07:57:38Z</time>
      </trkpt>
      <trkpt lat="44.43291" lon="1.3546">
        <ele>288</ele>
        <time>2019-04-14T07:57:39Z</time>
      </trkpt>
      <trkpt lat="44.43308" lon="1.35446">
        <ele>288</ele>
        <time>2019-04-14T07:57:43Z</time>
      </trkpt>
      <trkpt lat="44.43313" lon="1.35443">
        <ele>288</ele>
        <time>2019-04-14T07:57:44Z</time>
      </trkpt>
      <trkpt lat="44.43321" lon="1.35441">
        <ele>288</ele>
        <time>2019-04-14T07:57:46Z</time>
      </trkpt>
      <trkpt lat="44.43327" lon="1.3543">
        <ele>288</ele>
        <time>2019-04-14T07:57:49Z</time>
      </trkpt>
      <trkpt lat="44.43328" lon="1.35426">
        <ele>288</ele>
        <time>2019-04-14T07:57:50Z</time>
      </trkpt>
      <trkpt lat="44.43333" lon="1.35422">
        <ele>287</ele>
        <time>2019-04-14T07:57:52Z</time>
      </trkpt>
      <trkpt lat="44.43338" lon="1.35413">
        <ele>286</ele>
        <time>2019-04-14T07:57:54Z</time>
      </trkpt>
      <trkpt lat="44.43342" lon="1.35409">
        <ele>286</ele>
        <time>2019-04-14T07:57:55Z</time>
      </trkpt>
      <trkpt lat="44.43346" lon="1.35406">
        <ele>285</ele>
        <time>2019-04-14T07:57:56Z</time>
      </trkpt>
      <trkpt lat="44.4335" lon="1.35403">
        <ele>285</ele>
        <time>2019-04-14T07:57:57Z</time>
      </trkpt>
      <trkpt lat="44.43363" lon="1.35388">
        <ele>284</ele>
        <time>2019-04-14T07:58:01Z</time>
      </trkpt>
      <trkpt lat="44.43368" lon="1.35379">
        <ele>282</ele>
        <time>2019-04-14T07:58:03Z</time>
      </trkpt>
      <trkpt lat="44.43376" lon="1.35369">
        <ele>281</ele>
        <time>2019-04-14T07:58:06Z</time>
      </trkpt>
      <trkpt lat="44.43389" lon="1.35361">
        <ele>280</ele>
        <time>2019-04-14T07:58:10Z</time>
      </trkpt>
      <trkpt lat="44.43392" lon="1.3536">
        <ele>280</ele>
        <time>2019-04-14T07:58:11Z</time>
      </trkpt>
      <trkpt lat="44.43395" lon="1.35358">
        <ele>280</ele>
        <time>2019-04-14T07:58:12Z</time>
      </trkpt>
      <trkpt lat="44.434" lon="1.3535">
        <ele>280</ele>
        <time>2019-04-14T07:58:14Z</time>
      </trkpt>
      <trkpt lat="44.43403" lon="1.35343">
        <ele>279</ele>
        <time>2019-04-14T07:58:16Z</time>
      </trkpt>
      <trkpt lat="44.43405" lon="1.3534">
        <ele>278</ele>
        <time>2019-04-14T07:58:17Z</time>
      </trkpt>
      <trkpt lat="44.43408" lon="1.35339">
        <ele>278</ele>
        <time>2019-04-14T07:58:18Z</time>
      </trkpt>
      <trkpt lat="44.43416" lon="1.3534">
        <ele>276</ele>
        <time>2019-04-14T07:58:20Z</time>
      </trkpt>
      <trkpt lat="44.43419" lon="1.35341">
        <ele>276</ele>
        <time>2019-04-14T07:58:21Z</time>
      </trkpt>
      <trkpt lat="44.43425" lon="1.35343">
        <ele>276</ele>
        <time>2019-04-14T07:58:23Z</time>
      </trkpt>
      <trkpt lat="44.43435" lon="1.35353">
        <ele>276</ele>
        <time>2019-04-14T07:58:27Z</time>
      </trkpt>
      <trkpt lat="44.43441" lon="1.35373">
        <ele>276</ele>
        <time>2019-04-14T07:58:32Z</time>
      </trkpt>
      <trkpt lat="44.43437" lon="1.35391">
        <ele>278</ele>
        <time>2019-04-14T07:58:37Z</time>
      </trkpt>
      <trkpt lat="44.43441" lon="1.35402">
        <ele>278</ele>
        <time>2019-04-14T07:58:40Z</time>
      </trkpt>
      <trkpt lat="44.43447" lon="1.35423">
        <ele>279</ele>
        <time>2019-04-14T07:58:45Z</time>
      </trkpt>
      <trkpt lat="44.43447" lon="1.35429">
        <ele>279</ele>
        <time>2019-04-14T07:58:47Z</time>
      </trkpt>
      <trkpt lat="44.43447" lon="1.35436">
        <ele>279</ele>
        <time>2019-04-14T07:58:49Z</time>
      </trkpt>
      <trkpt lat="44.43447" lon="1.3544">
        <ele>279</ele>
        <time>2019-04-14T07:58:50Z</time>
      </trkpt>
      <trkpt lat="44.43449" lon="1.35453">
        <ele>279</ele>
        <time>2019-04-14T07:58:53Z</time>
      </trkpt>
      <trkpt lat="44.43447" lon="1.35458">
        <ele>280</ele>
        <time>2019-04-14T07:58:55Z</time>
      </trkpt>
      <trkpt lat="44.43445" lon="1.3546">
        <ele>280</ele>
        <time>2019-04-14T07:58:56Z</time>
      </trkpt>
      <trkpt lat="44.43441" lon="1.35462">
        <ele>281</ele>
        <time>2019-04-14T07:58:58Z</time>
      </trkpt>
      <trkpt lat="44.43441" lon="1.35467">
        <ele>282</ele>
        <time>2019-04-14T07:59:00Z</time>
      </trkpt>
      <trkpt lat="44.43443" lon="1.35472">
        <ele>283</ele>
        <time>2019-04-14T07:59:01Z</time>
      </trkpt>
      <trkpt lat="44.43444" lon="1.35476">
        <ele>283</ele>
        <time>2019-04-14T07:59:02Z</time>
      </trkpt>
      <trkpt lat="44.43446" lon="1.35485">
        <ele>283</ele>
        <time>2019-04-14T07:59:04Z</time>
      </trkpt>
      <trkpt lat="44.43445" lon="1.35489">
        <ele>283</ele>
        <time>2019-04-14T07:59:05Z</time>
      </trkpt>
      <trkpt lat="44.4344" lon="1.35499">
        <ele>284</ele>
        <time>2019-04-14T07:59:08Z</time>
      </trkpt>
      <trkpt lat="44.43434" lon="1.35503">
        <ele>284</ele>
        <time>2019-04-14T07:59:10Z</time>
      </trkpt>
      <trkpt lat="44.43432" lon="1.35505">
        <ele>284</ele>
        <time>2019-04-14T07:59:11Z</time>
      </trkpt>
      <trkpt lat="44.43431" lon="1.35511">
        <ele>285</ele>
        <time>2019-04-14T07:59:13Z</time>
      </trkpt>
      <trkpt lat="44.43428" lon="1.35526">
        <ele>286</ele>
        <time>2019-04-14T07:59:18Z</time>
      </trkpt>
      <trkpt lat="44.43426" lon="1.35537">
        <ele>287</ele>
        <time>2019-04-14T07:59:22Z</time>
      </trkpt>
      <trkpt lat="44.43435" lon="1.35548">
        <ele>287</ele>
        <time>2019-04-14T07:59:26Z</time>
      </trkpt>
      <trkpt lat="44.43444" lon="1.35554">
        <ele>287</ele>
        <time>2019-04-14T07:59:29Z</time>
      </trkpt>
      <trkpt lat="44.43451" lon="1.35568">
        <ele>286</ele>
        <time>2019-04-14T07:59:33Z</time>
      </trkpt>
      <trkpt lat="44.43457" lon="1.3558">
        <ele>286</ele>
        <time>2019-04-14T07:59:37Z</time>
      </trkpt>
      <trkpt lat="44.43461" lon="1.35578">
        <ele>286</ele>
        <time>2019-04-14T07:59:38Z</time>
      </trkpt>
      <trkpt lat="44.43472" lon="1.35576">
        <ele>285</ele>
        <time>2019-04-14T07:59:40Z</time>
      </trkpt>
      <trkpt lat="44.43478" lon="1.35574">
        <ele>284</ele>
        <time>2019-04-14T07:59:41Z</time>
      </trkpt>
      <trkpt lat="44.43482" lon="1.35572">
        <ele>283</ele>
        <time>2019-04-14T07:59:42Z</time>
      </trkpt>
      <trkpt lat="44.43487" lon="1.35568">
        <ele>282</ele>
        <time>2019-04-14T07:59:44Z</time>
      </trkpt>
      <trkpt lat="44.4349" lon="1.35569">
        <ele>282</ele>
        <time>2019-04-14T07:59:45Z</time>
      </trkpt>
      <trkpt lat="44.43497" lon="1.35569">
        <ele>281</ele>
        <time>2019-04-14T07:59:48Z</time>
      </trkpt>
      <trkpt lat="44.43506" lon="1.35559">
        <ele>280</ele>
        <time>2019-04-14T07:59:51Z</time>
      </trkpt>
      <trkpt lat="44.43515" lon="1.35563">
        <ele>279</ele>
        <time>2019-04-14T07:59:54Z</time>
      </trkpt>
      <trkpt lat="44.43519" lon="1.35561">
        <ele>279</ele>
        <time>2019-04-14T07:59:56Z</time>
      </trkpt>
      <trkpt lat="44.43523" lon="1.35559">
        <ele>279</ele>
        <time>2019-04-14T07:59:57Z</time>
      </trkpt>
      <trkpt lat="44.4353" lon="1.35559">
        <ele>278</ele>
        <time>2019-04-14T07:59:59Z</time>
      </trkpt>
      <trkpt lat="44.43532" lon="1.35561">
        <ele>278</ele>
        <time>2019-04-14T08:00:00Z</time>
      </trkpt>
      <trkpt lat="44.43535" lon="1.35569">
        <ele>278</ele>
        <time>2019-04-14T08:00:03Z</time>
      </trkpt>
      <trkpt lat="44.43538" lon="1.35574">
        <ele>279</ele>
        <time>2019-04-14T08:00:06Z</time>
      </trkpt>
      <trkpt lat="44.43538" lon="1.35575">
        <ele>280</ele>
        <time>2019-04-14T08:00:07Z</time>
      </trkpt>
      <trkpt lat="44.4354" lon="1.35576">
        <ele>280</ele>
        <time>2019-04-14T08:00:09Z</time>
      </trkpt>
      <trkpt lat="44.43542" lon="1.35578">
        <ele>281</ele>
        <time>2019-04-14T08:00:22Z</time>
      </trkpt>
      <trkpt lat="44.43543" lon="1.35579">
        <ele>281</ele>
        <time>2019-04-14T08:00:23Z</time>
      </trkpt>
      <trkpt lat="44.4355" lon="1.35585">
        <ele>282</ele>
        <time>2019-04-14T08:00:29Z</time>
      </trkpt>
      <trkpt lat="44.43551" lon="1.35587">
        <ele>282</ele>
        <time>2019-04-14T08:00:30Z</time>
      </trkpt>
      <trkpt lat="44.43555" lon="1.35592">
        <ele>282</ele>
        <time>2019-04-14T08:00:32Z</time>
      </trkpt>
      <trkpt lat="44.43556" lon="1.35594">
        <ele>282</ele>
        <time>2019-04-14T08:00:33Z</time>
      </trkpt>
      <trkpt lat="44.43558" lon="1.35596">
        <ele>283</ele>
        <time>2019-04-14T08:00:34Z</time>
      </trkpt>
      <trkpt lat="44.43563" lon="1.35596">
        <ele>284</ele>
        <time>2019-04-14T08:00:36Z</time>
      </trkpt>
      <trkpt lat="44.43566" lon="1.35597">
        <ele>284</ele>
        <time>2019-04-14T08:00:37Z</time>
      </trkpt>
      <trkpt lat="44.43585" lon="1.35599">
        <ele>284</ele>
        <time>2019-04-14T08:00:42Z</time>
      </trkpt>
      <trkpt lat="44.43595" lon="1.35604">
        <ele>284</ele>
        <time>2019-04-14T08:00:45Z</time>
      </trkpt>
      <trkpt lat="44.43597" lon="1.35607">
        <ele>284</ele>
        <time>2019-04-14T08:00:46Z</time>
      </trkpt>
      <trkpt lat="44.43609" lon="1.35621">
        <ele>284</ele>
        <time>2019-04-14T08:00:50Z</time>
      </trkpt>
      <trkpt lat="44.43613" lon="1.35622">
        <ele>284</ele>
        <time>2019-04-14T08:00:51Z</time>
      </trkpt>
      <trkpt lat="44.43627" lon="1.35619">
        <ele>284</ele>
        <time>2019-04-14T08:00:55Z</time>
      </trkpt>
      <trkpt lat="44.43635" lon="1.35604">
        <ele>285</ele>
        <time>2019-04-14T08:00:59Z</time>
      </trkpt>
      <trkpt lat="44.4365" lon="1.3559">
        <ele>285</ele>
        <time>2019-04-14T08:01:04Z</time>
      </trkpt>
      <trkpt lat="44.43658" lon="1.35587">
        <ele>285</ele>
        <time>2019-04-14T08:01:06Z</time>
      </trkpt>
      <trkpt lat="44.43671" lon="1.35588">
        <ele>285</ele>
        <time>2019-04-14T08:01:09Z</time>
      </trkpt>
      <trkpt lat="44.43681" lon="1.35599">
        <ele>285</ele>
        <time>2019-04-14T08:01:12Z</time>
      </trkpt>
      <trkpt lat="44.43684" lon="1.35625">
        <ele>284</ele>
        <time>2019-04-14T08:01:16Z</time>
      </trkpt>
      <trkpt lat="44.43685" lon="1.35646">
        <ele>284</ele>
        <time>2019-04-14T08:01:19Z</time>
      </trkpt>
      <trkpt lat="44.43687" lon="1.35678">
        <ele>283</ele>
        <time>2019-04-14T08:01:23Z</time>
      </trkpt>
      <trkpt lat="44.43688" lon="1.35687">
        <ele>283</ele>
        <time>2019-04-14T08:01:24Z</time>
      </trkpt>
      <trkpt lat="44.43688" lon="1.35708">
        <ele>281</ele>
        <time>2019-04-14T08:01:26Z</time>
      </trkpt>
      <trkpt lat="44.43689" lon="1.35718">
        <ele>281</ele>
        <time>2019-04-14T08:01:27Z</time>
      </trkpt>
      <trkpt lat="44.43689" lon="1.35728">
        <ele>280</ele>
        <time>2019-04-14T08:01:28Z</time>
      </trkpt>
      <trkpt lat="44.43691" lon="1.35746">
        <ele>279</ele>
        <time>2019-04-14T08:01:30Z</time>
      </trkpt>
      <trkpt lat="44.43693" lon="1.35753">
        <ele>278</ele>
        <time>2019-04-14T08:01:31Z</time>
      </trkpt>
      <trkpt lat="44.43698" lon="1.35758">
        <ele>276</ele>
        <time>2019-04-14T08:01:32Z</time>
      </trkpt>
      <trkpt lat="44.43703" lon="1.35759">
        <ele>275</ele>
        <time>2019-04-14T08:01:33Z</time>
      </trkpt>
      <trkpt lat="44.43708" lon="1.35759">
        <ele>275</ele>
        <time>2019-04-14T08:01:34Z</time>
      </trkpt>
      <trkpt lat="44.43714" lon="1.3576">
        <ele>274</ele>
        <time>2019-04-14T08:01:35Z</time>
      </trkpt>
      <trkpt lat="44.43725" lon="1.35765">
        <ele>274</ele>
        <time>2019-04-14T08:01:37Z</time>
      </trkpt>
      <trkpt lat="44.43747" lon="1.35783">
        <ele>272</ele>
        <time>2019-04-14T08:01:40Z</time>
      </trkpt>
      <trkpt lat="44.43756" lon="1.35791">
        <ele>271</ele>
        <time>2019-04-14T08:01:41Z</time>
      </trkpt>
      <trkpt lat="44.43765" lon="1.35799">
        <ele>269</ele>
        <time>2019-04-14T08:01:42Z</time>
      </trkpt>
      <trkpt lat="44.43773" lon="1.35808">
        <ele>267</ele>
        <time>2019-04-14T08:01:43Z</time>
      </trkpt>
      <trkpt lat="44.43781" lon="1.35816">
        <ele>265</ele>
        <time>2019-04-14T08:01:44Z</time>
      </trkpt>
      <trkpt lat="44.43789" lon="1.35823">
        <ele>263</ele>
        <time>2019-04-14T08:01:45Z</time>
      </trkpt>
      <trkpt lat="44.43795" lon="1.35829">
        <ele>262</ele>
        <time>2019-04-14T08:01:46Z</time>
      </trkpt>
      <trkpt lat="44.43805" lon="1.35835">
        <ele>261</ele>
        <time>2019-04-14T08:01:48Z</time>
      </trkpt>
      <trkpt lat="44.43808" lon="1.35839">
        <ele>260</ele>
        <time>2019-04-14T08:01:49Z</time>
      </trkpt>
      <trkpt lat="44.43809" lon="1.35846">
        <ele>260</ele>
        <time>2019-04-14T08:01:51Z</time>
      </trkpt>
      <trkpt lat="44.4381" lon="1.35849">
        <ele>260</ele>
        <time>2019-04-14T08:01:52Z</time>
      </trkpt>
      <trkpt lat="44.43811" lon="1.35851">
        <ele>260</ele>
        <time>2019-04-14T08:01:53Z</time>
      </trkpt>
      <trkpt lat="44.43818" lon="1.3586">
        <ele>259</ele>
        <time>2019-04-14T08:01:57Z</time>
      </trkpt>
      <trkpt lat="44.43827" lon="1.35872">
        <ele>258</ele>
        <time>2019-04-14T08:02:00Z</time>
      </trkpt>
      <trkpt lat="44.43831" lon="1.35878">
        <ele>258</ele>
        <time>2019-04-14T08:02:01Z</time>
      </trkpt>
      <trkpt lat="44.43834" lon="1.35884">
        <ele>257</ele>
        <time>2019-04-14T08:02:02Z</time>
      </trkpt>
      <trkpt lat="44.43852" lon="1.35905">
        <ele>257</ele>
        <time>2019-04-14T08:02:06Z</time>
      </trkpt>
      <trkpt lat="44.43856" lon="1.35907">
        <ele>256</ele>
        <time>2019-04-14T08:02:07Z</time>
      </trkpt>
      <trkpt lat="44.4386" lon="1.3591">
        <ele>256</ele>
        <time>2019-04-14T08:02:08Z</time>
      </trkpt>
      <trkpt lat="44.43866" lon="1.3592">
        <ele>255</ele>
        <time>2019-04-14T08:02:10Z</time>
      </trkpt>
      <trkpt lat="44.43872" lon="1.35936">
        <ele>254</ele>
        <time>2019-04-14T08:02:13Z</time>
      </trkpt>
      <trkpt lat="44.43884" lon="1.35943">
        <ele>254</ele>
        <time>2019-04-14T08:02:16Z</time>
      </trkpt>
      <trkpt lat="44.43888" lon="1.35946">
        <ele>254</ele>
        <time>2019-04-14T08:02:17Z</time>
      </trkpt>
      <trkpt lat="44.43897" lon="1.35943">
        <ele>253</ele>
        <time>2019-04-14T08:02:19Z</time>
      </trkpt>
      <trkpt lat="44.43902" lon="1.35943">
        <ele>253</ele>
        <time>2019-04-14T08:02:20Z</time>
      </trkpt>
      <trkpt lat="44.43907" lon="1.35944">
        <ele>252</ele>
        <time>2019-04-14T08:02:21Z</time>
      </trkpt>
      <trkpt lat="44.43912" lon="1.35944">
        <ele>252</ele>
        <time>2019-04-14T08:02:22Z</time>
      </trkpt>
      <trkpt lat="44.43916" lon="1.35944">
        <ele>252</ele>
        <time>2019-04-14T08:02:23Z</time>
      </trkpt>
      <trkpt lat="44.43928" lon="1.35949">
        <ele>250</ele>
        <time>2019-04-14T08:02:26Z</time>
      </trkpt>
      <trkpt lat="44.43931" lon="1.35952">
        <ele>249</ele>
        <time>2019-04-14T08:02:27Z</time>
      </trkpt>
      <trkpt lat="44.43933" lon="1.35956">
        <ele>248</ele>
        <time>2019-04-14T08:02:28Z</time>
      </trkpt>
      <trkpt lat="44.43933" lon="1.35961">
        <ele>248</ele>
        <time>2019-04-14T08:02:29Z</time>
      </trkpt>
      <trkpt lat="44.43932" lon="1.35965">
        <ele>248</ele>
        <time>2019-04-14T08:02:30Z</time>
      </trkpt>
      <trkpt lat="44.43935" lon="1.35976">
        <ele>247</ele>
        <time>2019-04-14T08:02:33Z</time>
      </trkpt>
      <trkpt lat="44.43938" lon="1.35981">
        <ele>245</ele>
        <time>2019-04-14T08:02:35Z</time>
      </trkpt>
      <trkpt lat="44.43941" lon="1.35985">
        <ele>243</ele>
        <time>2019-04-14T08:02:37Z</time>
      </trkpt>
      <trkpt lat="44.43943" lon="1.35986">
        <ele>243</ele>
        <time>2019-04-14T08:02:38Z</time>
      </trkpt>
      <trkpt lat="44.43945" lon="1.35987">
        <ele>241</ele>
        <time>2019-04-14T08:02:39Z</time>
      </trkpt>
      <trkpt lat="44.43952" lon="1.35989">
        <ele>240</ele>
        <time>2019-04-14T08:02:41Z</time>
      </trkpt>
      <trkpt lat="44.43959" lon="1.35991">
        <ele>238</ele>
        <time>2019-04-14T08:02:43Z</time>
      </trkpt>
      <trkpt lat="44.43963" lon="1.3599">
        <ele>237</ele>
        <time>2019-04-14T08:02:44Z</time>
      </trkpt>
      <trkpt lat="44.43967" lon="1.3599">
        <ele>236</ele>
        <time>2019-04-14T08:02:45Z</time>
      </trkpt>
      <trkpt lat="44.43971" lon="1.35989">
        <ele>235</ele>
        <time>2019-04-14T08:02:46Z</time>
      </trkpt>
      <trkpt lat="44.43974" lon="1.3599">
        <ele>233</ele>
        <time>2019-04-14T08:02:47Z</time>
      </trkpt>
      <trkpt lat="44.43978" lon="1.3599">
        <ele>232</ele>
        <time>2019-04-14T08:02:49Z</time>
      </trkpt>
      <trkpt lat="44.43984" lon="1.35987">
        <ele>231</ele>
        <time>2019-04-14T08:02:51Z</time>
      </trkpt>
      <trkpt lat="44.4399" lon="1.35987">
        <ele>229</ele>
        <time>2019-04-14T08:02:53Z</time>
      </trkpt>
      <trkpt lat="44.43992" lon="1.35989">
        <ele>229</ele>
        <time>2019-04-14T08:02:54Z</time>
      </trkpt>
      <trkpt lat="44.43995" lon="1.3599">
        <ele>228</ele>
        <time>2019-04-14T08:02:55Z</time>
      </trkpt>
      <trkpt lat="44.44" lon="1.35988">
        <ele>226</ele>
        <time>2019-04-14T08:02:57Z</time>
      </trkpt>
      <trkpt lat="44.44005" lon="1.35986">
        <ele>224</ele>
        <time>2019-04-14T08:02:59Z</time>
      </trkpt>
      <trkpt lat="44.4401" lon="1.35985">
        <ele>223</ele>
        <time>2019-04-14T08:03:01Z</time>
      </trkpt>
      <trkpt lat="44.44012" lon="1.35984">
        <ele>222</ele>
        <time>2019-04-14T08:03:02Z</time>
      </trkpt>
      <trkpt lat="44.44014" lon="1.35982">
        <ele>221</ele>
        <time>2019-04-14T08:03:03Z</time>
      </trkpt>
      <trkpt lat="44.44017" lon="1.35981">
        <ele>219</ele>
        <time>2019-04-14T08:03:04Z</time>
      </trkpt>
      <trkpt lat="44.4402" lon="1.35978">
        <ele>218</ele>
        <time>2019-04-14T08:03:06Z</time>
      </trkpt>
      <trkpt lat="44.44023" lon="1.35976">
        <ele>218</ele>
        <time>2019-04-14T08:03:07Z</time>
      </trkpt>
      <trkpt lat="44.44025" lon="1.35976">
        <ele>217</ele>
        <time>2019-04-14T08:03:08Z</time>
      </trkpt>
      <trkpt lat="44.4403" lon="1.35975">
        <ele>215</ele>
        <time>2019-04-14T08:03:10Z</time>
      </trkpt>
      <trkpt lat="44.44033" lon="1.35975">
        <ele>214</ele>
        <time>2019-04-14T08:03:11Z</time>
      </trkpt>
      <trkpt lat="44.44036" lon="1.35975">
        <ele>211</ele>
        <time>2019-04-14T08:03:13Z</time>
      </trkpt>
      <trkpt lat="44.44038" lon="1.35976">
        <ele>210</ele>
        <time>2019-04-14T08:03:14Z</time>
      </trkpt>
      <trkpt lat="44.4404" lon="1.35977">
        <ele>209</ele>
        <time>2019-04-14T08:03:15Z</time>
      </trkpt>
      <trkpt lat="44.44043" lon="1.35977">
        <ele>208</ele>
        <time>2019-04-14T08:03:16Z</time>
      </trkpt>
      <trkpt lat="44.44046" lon="1.35977">
        <ele>207</ele>
        <time>2019-04-14T08:03:17Z</time>
      </trkpt>
      <trkpt lat="44.44053" lon="1.35976">
        <ele>206</ele>
        <time>2019-04-14T08:03:19Z</time>
      </trkpt>
      <trkpt lat="44.44055" lon="1.35974">
        <ele>204</ele>
        <time>2019-04-14T08:03:20Z</time>
      </trkpt>
      <trkpt lat="44.44056" lon="1.35971">
        <ele>203</ele>
        <time>2019-04-14T08:03:21Z</time>
      </trkpt>
      <trkpt lat="44.44057" lon="1.35968">
        <ele>202</ele>
        <time>2019-04-14T08:03:22Z</time>
      </trkpt>
      <trkpt lat="44.44057" lon="1.3596">
        <ele>200</ele>
        <time>2019-04-14T08:03:24Z</time>
      </trkpt>
      <trkpt lat="44.44062" lon="1.35955">
        <ele>199</ele>
        <time>2019-04-14T08:03:26Z</time>
      </trkpt>
      <trkpt lat="44.44065" lon="1.35952">
        <ele>197</ele>
        <time>2019-04-14T08:03:27Z</time>
      </trkpt>
      <trkpt lat="44.44068" lon="1.35951">
        <ele>196</ele>
        <time>2019-04-14T08:03:28Z</time>
      </trkpt>
      <trkpt lat="44.44071" lon="1.35952">
        <ele>195</ele>
        <time>2019-04-14T08:03:29Z</time>
      </trkpt>
      <trkpt lat="44.44076" lon="1.35958">
        <ele>193</ele>
        <time>2019-04-14T08:03:31Z</time>
      </trkpt>
      <trkpt lat="44.4408" lon="1.35963">
        <ele>192</ele>
        <time>2019-04-14T08:03:33Z</time>
      </trkpt>
      <trkpt lat="44.44092" lon="1.35973">
        <ele>190</ele>
        <time>2019-04-14T08:03:36Z</time>
      </trkpt>
      <trkpt lat="44.44095" lon="1.35975">
        <ele>189</ele>
        <time>2019-04-14T08:03:37Z</time>
      </trkpt>
      <trkpt lat="44.44099" lon="1.35976">
        <ele>189</ele>
        <time>2019-04-14T08:03:38Z</time>
      </trkpt>
      <trkpt lat="44.4411" lon="1.35976">
        <ele>188</ele>
        <time>2019-04-14T08:03:40Z</time>
      </trkpt>
      <trkpt lat="44.44115" lon="1.35977">
        <ele>187</ele>
        <time>2019-04-14T08:03:41Z</time>
      </trkpt>
      <trkpt lat="44.44119" lon="1.35979">
        <ele>186</ele>
        <time>2019-04-14T08:03:42Z</time>
      </trkpt>
      <trkpt lat="44.44124" lon="1.35981">
        <ele>185</ele>
        <time>2019-04-14T08:03:43Z</time>
      </trkpt>
      <trkpt lat="44.44128" lon="1.35983">
        <ele>184</ele>
        <time>2019-04-14T08:03:44Z</time>
      </trkpt>
      <trkpt lat="44.44137" lon="1.35986">
        <ele>182</ele>
        <time>2019-04-14T08:03:46Z</time>
      </trkpt>
      <trkpt lat="44.4414" lon="1.35989">
        <ele>182</ele>
        <time>2019-04-14T08:03:47Z</time>
      </trkpt>
      <trkpt lat="44.44142" lon="1.35992">
        <ele>181</ele>
        <time>2019-04-14T08:03:48Z</time>
      </trkpt>
      <trkpt lat="44.44148" lon="1.36">
        <ele>179</ele>
        <time>2019-04-14T08:03:50Z</time>
      </trkpt>
      <trkpt lat="44.44151" lon="1.36003">
        <ele>178</ele>
        <time>2019-04-14T08:03:51Z</time>
      </trkpt>
      <trkpt lat="44.44153" lon="1.36012">
        <ele>177</ele>
        <time>2019-04-14T08:03:53Z</time>
      </trkpt>
      <trkpt lat="44.44154" lon="1.36017">
        <ele>176</ele>
        <time>2019-04-14T08:03:54Z</time>
      </trkpt>
      <trkpt lat="44.44155" lon="1.3602">
        <ele>176</ele>
        <time>2019-04-14T08:03:55Z</time>
      </trkpt>
      <trkpt lat="44.44156" lon="1.36027">
        <ele>175</ele>
        <time>2019-04-14T08:03:58Z</time>
      </trkpt>
      <trkpt lat="44.44156" lon="1.36029">
        <ele>174</ele>
        <time>2019-04-14T08:03:59Z</time>
      </trkpt>
      <trkpt lat="44.44157" lon="1.36031">
        <ele>173</ele>
        <time>2019-04-14T08:04:01Z</time>
      </trkpt>
      <trkpt lat="44.44159" lon="1.36031">
        <ele>173</ele>
        <time>2019-04-14T08:04:02Z</time>
      </trkpt>
      <trkpt lat="44.44166" lon="1.36029">
        <ele>172</ele>
        <time>2019-04-14T08:04:04Z</time>
      </trkpt>
      <trkpt lat="44.4417" lon="1.36027">
        <ele>172</ele>
        <time>2019-04-14T08:04:05Z</time>
      </trkpt>
      <trkpt lat="44.44185" lon="1.36016">
        <ele>171</ele>
        <time>2019-04-14T08:04:08Z</time>
      </trkpt>
      <trkpt lat="44.44191" lon="1.36013">
        <ele>171</ele>
        <time>2019-04-14T08:04:09Z</time>
      </trkpt>
      <trkpt lat="44.442" lon="1.36005">
        <ele>170</ele>
        <time>2019-04-14T08:04:11Z</time>
      </trkpt>
      <trkpt lat="44.44205" lon="1.36002">
        <ele>170</ele>
        <time>2019-04-14T08:04:12Z</time>
      </trkpt>
      <trkpt lat="44.44213" lon="1.35996">
        <ele>170</ele>
        <time>2019-04-14T08:04:14Z</time>
      </trkpt>
      <trkpt lat="44.44228" lon="1.35984">
        <ele>170</ele>
        <time>2019-04-14T08:04:18Z</time>
      </trkpt>
      <trkpt lat="44.44232" lon="1.3598">
        <ele>170</ele>
        <time>2019-04-14T08:04:19Z</time>
      </trkpt>
      <trkpt lat="44.44249" lon="1.35965">
        <ele>170</ele>
        <time>2019-04-14T08:04:23Z</time>
      </trkpt>
      <trkpt lat="44.44259" lon="1.35957">
        <ele>170</ele>
        <time>2019-04-14T08:04:25Z</time>
      </trkpt>
      <trkpt lat="44.44268" lon="1.35949">
        <ele>170</ele>
        <time>2019-04-14T08:04:27Z</time>
      </trkpt>
      <trkpt lat="44.44289" lon="1.35936">
        <ele>170</ele>
        <time>2019-04-14T08:04:31Z</time>
      </trkpt>
      <trkpt lat="44.44295" lon="1.35935">
        <ele>170</ele>
        <time>2019-04-14T08:04:32Z</time>
      </trkpt>
      <trkpt lat="44.44306" lon="1.35931">
        <ele>169</ele>
        <time>2019-04-14T08:04:34Z</time>
      </trkpt>
      <trkpt lat="44.44311" lon="1.35928">
        <ele>169</ele>
        <time>2019-04-14T08:04:35Z</time>
      </trkpt>
      <trkpt lat="44.44326" lon="1.35921">
        <ele>169</ele>
        <time>2019-04-14T08:04:38Z</time>
      </trkpt>
      <trkpt lat="44.44331" lon="1.35919">
        <ele>169</ele>
        <time>2019-04-14T08:04:39Z</time>
      </trkpt>
      <trkpt lat="44.44349" lon="1.35915">
        <ele>169</ele>
        <time>2019-04-14T08:04:42Z</time>
      </trkpt>
      <trkpt lat="44.44369" lon="1.35915">
        <ele>169</ele>
        <time>2019-04-14T08:04:46Z</time>
      </trkpt>
      <trkpt lat="44.44374" lon="1.35916">
        <ele>169</ele>
        <time>2019-04-14T08:04:47Z</time>
      </trkpt>
      <trkpt lat="44.44379" lon="1.35917">
        <ele>169</ele>
        <time>2019-04-14T08:04:48Z</time>
      </trkpt>
      <trkpt lat="44.44396" lon="1.35918">
        <ele>169</ele>
        <time>2019-04-14T08:04:51Z</time>
      </trkpt>
      <trkpt lat="44.44401" lon="1.35918">
        <ele>168</ele>
        <time>2019-04-14T08:04:52Z</time>
      </trkpt>
      <trkpt lat="44.44411" lon="1.3592">
        <ele>169</ele>
        <time>2019-04-14T08:04:54Z</time>
      </trkpt>
      <trkpt lat="44.44416" lon="1.3592">
        <ele>168</ele>
        <time>2019-04-14T08:04:55Z</time>
      </trkpt>
      <trkpt lat="44.44431" lon="1.35921">
        <ele>168</ele>
        <time>2019-04-14T08:04:58Z</time>
      </trkpt>
      <trkpt lat="44.44436" lon="1.35922">
        <ele>168</ele>
        <time>2019-04-14T08:04:59Z</time>
      </trkpt>
      <trkpt lat="44.44457" lon="1.35925">
        <ele>168</ele>
        <time>2019-04-14T08:05:03Z</time>
      </trkpt>
      <trkpt lat="44.44468" lon="1.35927">
        <ele>168</ele>
        <time>2019-04-14T08:05:05Z</time>
      </trkpt>
      <trkpt lat="44.44483" lon="1.35929">
        <ele>168</ele>
        <time>2019-04-14T08:05:08Z</time>
      </trkpt>
      <trkpt lat="44.445" lon="1.35933">
        <ele>167</ele>
        <time>2019-04-14T08:05:12Z</time>
      </trkpt>
      <trkpt lat="44.44503" lon="1.35935">
        <ele>167</ele>
        <time>2019-04-14T08:05:13Z</time>
      </trkpt>
      <trkpt lat="44.44517" lon="1.35937">
        <ele>166</ele>
        <time>2019-04-14T08:05:17Z</time>
      </trkpt>
      <trkpt lat="44.44521" lon="1.35939">
        <ele>166</ele>
        <time>2019-04-14T08:05:18Z</time>
      </trkpt>
      <trkpt lat="44.44524" lon="1.35942">
        <ele>166</ele>
        <time>2019-04-14T08:05:19Z</time>
      </trkpt>
      <trkpt lat="44.44527" lon="1.35944">
        <ele>166</ele>
        <time>2019-04-14T08:05:20Z</time>
      </trkpt>
      <trkpt lat="44.44542" lon="1.35945">
        <ele>165</ele>
        <time>2019-04-14T08:05:24Z</time>
      </trkpt>
      <trkpt lat="44.44553" lon="1.35946">
        <ele>166</ele>
        <time>2019-04-14T08:05:28Z</time>
      </trkpt>
      <trkpt lat="44.44562" lon="1.35949">
        <ele>166</ele>
        <time>2019-04-14T08:05:31Z</time>
      </trkpt>
      <trkpt lat="44.44564" lon="1.3595">
        <ele>166</ele>
        <time>2019-04-14T08:05:32Z</time>
      </trkpt>
      <trkpt lat="44.44574" lon="1.35958">
        <ele>166</ele>
        <time>2019-04-14T08:05:36Z</time>
      </trkpt>
      <trkpt lat="44.44579" lon="1.35962">
        <ele>165</ele>
        <time>2019-04-14T08:05:38Z</time>
      </trkpt>
      <trkpt lat="44.44582" lon="1.35962">
        <ele>165</ele>
        <time>2019-04-14T08:05:39Z</time>
      </trkpt>
      <trkpt lat="44.44585" lon="1.35964">
        <ele>165</ele>
        <time>2019-04-14T08:05:40Z</time>
      </trkpt>
      <trkpt lat="44.44592" lon="1.3597">
        <ele>164</ele>
        <time>2019-04-14T08:05:42Z</time>
      </trkpt>
      <trkpt lat="44.446" lon="1.35973">
        <ele>164</ele>
        <time>2019-04-14T08:05:44Z</time>
      </trkpt>
      <trkpt lat="44.44616" lon="1.35976">
        <ele>163</ele>
        <time>2019-04-14T08:05:49Z</time>
      </trkpt>
      <trkpt lat="44.44635" lon="1.35981">
        <ele>163</ele>
        <time>2019-04-14T08:05:54Z</time>
      </trkpt>
      <trkpt lat="44.44638" lon="1.35982">
        <ele>162</ele>
        <time>2019-04-14T08:05:55Z</time>
      </trkpt>
      <trkpt lat="44.44645" lon="1.35988">
        <ele>162</ele>
        <time>2019-04-14T08:05:57Z</time>
      </trkpt>
      <trkpt lat="44.44655" lon="1.35993">
        <ele>162</ele>
        <time>2019-04-14T08:06:00Z</time>
      </trkpt>
      <trkpt lat="44.4466" lon="1.35994">
        <ele>162</ele>
        <time>2019-04-14T08:06:01Z</time>
      </trkpt>
      <trkpt lat="44.44675" lon="1.35996">
        <ele>161</ele>
        <time>2019-04-14T08:06:05Z</time>
      </trkpt>
      <trkpt lat="44.44678" lon="1.35995">
        <ele>161</ele>
        <time>2019-04-14T08:06:06Z</time>
      </trkpt>
      <trkpt lat="44.44688" lon="1.35993">
        <ele>161</ele>
        <time>2019-04-14T08:06:09Z</time>
      </trkpt>
      <trkpt lat="44.447" lon="1.35995">
        <ele>162</ele>
        <time>2019-04-14T08:06:13Z</time>
      </trkpt>
      <trkpt lat="44.44708" lon="1.35998">
        <ele>162</ele>
        <time>2019-04-14T08:06:16Z</time>
      </trkpt>
      <trkpt lat="44.44714" lon="1.36003">
        <ele>162</ele>
        <time>2019-04-14T08:06:18Z</time>
      </trkpt>
      <trkpt lat="44.44722" lon="1.36003">
        <ele>161</ele>
        <time>2019-04-14T08:06:20Z</time>
      </trkpt>
      <trkpt lat="44.44729" lon="1.36005">
        <ele>160</ele>
        <time>2019-04-14T08:06:22Z</time>
      </trkpt>
      <trkpt lat="44.44738" lon="1.36007">
        <ele>160</ele>
        <time>2019-04-14T08:06:25Z</time>
      </trkpt>
      <trkpt lat="44.4474" lon="1.36006">
        <ele>159</ele>
        <time>2019-04-14T08:06:26Z</time>
      </trkpt>
      <trkpt lat="44.44743" lon="1.36006">
        <ele>159</ele>
        <time>2019-04-14T08:06:27Z</time>
      </trkpt>
      <trkpt lat="44.44754" lon="1.36002">
        <ele>159</ele>
        <time>2019-04-14T08:06:30Z</time>
      </trkpt>
      <trkpt lat="44.44757" lon="1.36002">
        <ele>159</ele>
        <time>2019-04-14T08:06:31Z</time>
      </trkpt>
      <trkpt lat="44.44762" lon="1.35999">
        <ele>160</ele>
        <time>2019-04-14T08:06:33Z</time>
      </trkpt>
      <trkpt lat="44.44774" lon="1.35992">
        <ele>160</ele>
        <time>2019-04-14T08:06:37Z</time>
      </trkpt>
      <trkpt lat="44.44781" lon="1.35994">
        <ele>161</ele>
        <time>2019-04-14T08:06:39Z</time>
      </trkpt>
      <trkpt lat="44.44788" lon="1.35995">
        <ele>161</ele>
        <time>2019-04-14T08:06:41Z</time>
      </trkpt>
      <trkpt lat="44.44803" lon="1.35989">
        <ele>159</ele>
        <time>2019-04-14T08:06:44Z</time>
      </trkpt>
      <trkpt lat="44.44811" lon="1.35979">
        <ele>159</ele>
        <time>2019-04-14T08:06:47Z</time>
      </trkpt>
      <trkpt lat="44.44827" lon="1.35967">
        <ele>159</ele>
        <time>2019-04-14T08:06:52Z</time>
      </trkpt>
      <trkpt lat="44.44835" lon="1.35962">
        <ele>159</ele>
        <time>2019-04-14T08:06:54Z</time>
      </trkpt>
      <trkpt lat="44.44838" lon="1.35959">
        <ele>159</ele>
        <time>2019-04-14T08:06:55Z</time>
      </trkpt>
      <trkpt lat="44.44841" lon="1.35956">
        <ele>159</ele>
        <time>2019-04-14T08:06:56Z</time>
      </trkpt>
      <trkpt lat="44.44852" lon="1.35946">
        <ele>159</ele>
        <time>2019-04-14T08:06:59Z</time>
      </trkpt>
      <trkpt lat="44.44856" lon="1.35943">
        <ele>159</ele>
        <time>2019-04-14T08:07:00Z</time>
      </trkpt>
      <trkpt lat="44.44866" lon="1.3593">
        <ele>158</ele>
        <time>2019-04-14T08:07:04Z</time>
      </trkpt>
      <trkpt lat="44.44874" lon="1.35923">
        <ele>158</ele>
        <time>2019-04-14T08:07:07Z</time>
      </trkpt>
      <trkpt lat="44.44879" lon="1.35918">
        <ele>158</ele>
        <time>2019-04-14T08:07:09Z</time>
      </trkpt>
      <trkpt lat="44.44885" lon="1.35909">
        <ele>158</ele>
        <time>2019-04-14T08:07:11Z</time>
      </trkpt>
      <trkpt lat="44.44896" lon="1.35894">
        <ele>158</ele>
        <time>2019-04-14T08:07:15Z</time>
      </trkpt>
      <trkpt lat="44.44909" lon="1.35882">
        <ele>158</ele>
        <time>2019-04-14T08:07:19Z</time>
      </trkpt>
      <trkpt lat="44.44922" lon="1.35867">
        <ele>158</ele>
        <time>2019-04-14T08:07:23Z</time>
      </trkpt>
      <trkpt lat="44.44933" lon="1.35852">
        <ele>158</ele>
        <time>2019-04-14T08:07:28Z</time>
      </trkpt>
      <trkpt lat="44.44937" lon="1.35847">
        <ele>158</ele>
        <time>2019-04-14T08:07:32Z</time>
      </trkpt>
      <trkpt lat="44.44939" lon="1.35846">
        <ele>158</ele>
        <time>2019-04-14T08:07:33Z</time>
      </trkpt>
      <trkpt lat="44.44945" lon="1.35843">
        <ele>157</ele>
        <time>2019-04-14T08:07:36Z</time>
      </trkpt>
      <trkpt lat="44.44946" lon="1.35842">
        <ele>157</ele>
        <time>2019-04-14T08:07:37Z</time>
      </trkpt>
      <trkpt lat="44.44956" lon="1.3583">
        <ele>158</ele>
        <time>2019-04-14T08:07:43Z</time>
      </trkpt>
      <trkpt lat="44.44961" lon="1.35823">
        <ele>158</ele>
        <time>2019-04-14T08:07:48Z</time>
      </trkpt>
      <trkpt lat="44.44966" lon="1.35817">
        <ele>159</ele>
        <time>2019-04-14T08:07:51Z</time>
      </trkpt>
      <trkpt lat="44.44967" lon="1.35817">
        <ele>159</ele>
        <time>2019-04-14T08:07:53Z</time>
      </trkpt>
      <trkpt lat="44.44969" lon="1.35812">
        <ele>160</ele>
        <time>2019-04-14T08:07:55Z</time>
      </trkpt>
      <trkpt lat="44.4497" lon="1.35811">
        <ele>160</ele>
        <time>2019-04-14T08:07:57Z</time>
      </trkpt>
      <trkpt lat="44.44972" lon="1.35807">
        <ele>160</ele>
        <time>2019-04-14T08:07:59Z</time>
      </trkpt>
      <trkpt lat="44.4498" lon="1.358">
        <ele>160</ele>
        <time>2019-04-14T08:08:02Z</time>
      </trkpt>
      <trkpt lat="44.44988" lon="1.35789">
        <ele>158</ele>
        <time>2019-04-14T08:08:06Z</time>
      </trkpt>
      <trkpt lat="44.44991" lon="1.35788">
        <ele>158</ele>
        <time>2019-04-14T08:08:07Z</time>
      </trkpt>
      <trkpt lat="44.44995" lon="1.35792">
        <ele>157</ele>
        <time>2019-04-14T08:08:09Z</time>
      </trkpt>
      <trkpt lat="44.44996" lon="1.35794">
        <ele>156</ele>
        <time>2019-04-14T08:08:10Z</time>
      </trkpt>
      <trkpt lat="44.44997" lon="1.35794">
        <ele>156</ele>
        <time>2019-04-14T08:08:11Z</time>
      </trkpt>
      <trkpt lat="44.44999" lon="1.35792">
        <ele>155</ele>
        <time>2019-04-14T08:08:12Z</time>
      </trkpt>
      <trkpt lat="44.45004" lon="1.35778">
        <ele>154</ele>
        <time>2019-04-14T08:08:16Z</time>
      </trkpt>
      <trkpt lat="44.45006" lon="1.35772">
        <ele>154</ele>
        <time>2019-04-14T08:08:18Z</time>
      </trkpt>
      <trkpt lat="44.45005" lon="1.35768">
        <ele>153</ele>
        <time>2019-04-14T08:08:20Z</time>
      </trkpt>
      <trkpt lat="44.45001" lon="1.35763">
        <ele>153</ele>
        <time>2019-04-14T08:08:22Z</time>
      </trkpt>
      <trkpt lat="44.44996" lon="1.3576">
        <ele>154</ele>
        <time>2019-04-14T08:08:24Z</time>
      </trkpt>
      <trkpt lat="44.44991" lon="1.35755">
        <ele>153</ele>
        <time>2019-04-14T08:08:26Z</time>
      </trkpt>
      <trkpt lat="44.44986" lon="1.3575">
        <ele>153</ele>
        <time>2019-04-14T08:08:28Z</time>
      </trkpt>
      <trkpt lat="44.44975" lon="1.3574">
        <ele>153</ele>
        <time>2019-04-14T08:08:32Z</time>
      </trkpt>
      <trkpt lat="44.44972" lon="1.35737">
        <ele>154</ele>
        <time>2019-04-14T08:08:33Z</time>
      </trkpt>
      <trkpt lat="44.44963" lon="1.3573">
        <ele>154</ele>
        <time>2019-04-14T08:08:36Z</time>
      </trkpt>
      <trkpt lat="44.4496" lon="1.35728">
        <ele>155</ele>
        <time>2019-04-14T08:08:37Z</time>
      </trkpt>
      <trkpt lat="44.44949" lon="1.35721">
        <ele>155</ele>
        <time>2019-04-14T08:08:41Z</time>
      </trkpt>
      <trkpt lat="44.44947" lon="1.35718">
        <ele>155</ele>
        <time>2019-04-14T08:08:42Z</time>
      </trkpt>
      <trkpt lat="44.44942" lon="1.35711">
        <ele>155</ele>
        <time>2019-04-14T08:08:44Z</time>
      </trkpt>
      <trkpt lat="44.4493" lon="1.35701">
        <ele>155</ele>
        <time>2019-04-14T08:08:47Z</time>
      </trkpt>
      <trkpt lat="44.44913" lon="1.35689">
        <ele>155</ele>
        <time>2019-04-14T08:08:52Z</time>
      </trkpt>
      <trkpt lat="44.44905" lon="1.35684">
        <ele>155</ele>
        <time>2019-04-14T08:08:55Z</time>
      </trkpt>
      <trkpt lat="44.44899" lon="1.35684">
        <ele>156</ele>
        <time>2019-04-14T08:08:57Z</time>
      </trkpt>
      <trkpt lat="44.44891" lon="1.35685">
        <ele>157</ele>
        <time>2019-04-14T08:09:00Z</time>
      </trkpt>
      <trkpt lat="44.44886" lon="1.35682">
        <ele>157</ele>
        <time>2019-04-14T08:09:02Z</time>
      </trkpt>
      <trkpt lat="44.44877" lon="1.35679">
        <ele>158</ele>
        <time>2019-04-14T08:09:05Z</time>
      </trkpt>
      <trkpt lat="44.4487" lon="1.35679">
        <ele>158</ele>
        <time>2019-04-14T08:09:07Z</time>
      </trkpt>
      <trkpt lat="44.44867" lon="1.35678">
        <ele>158</ele>
        <time>2019-04-14T08:09:08Z</time>
      </trkpt>
      <trkpt lat="44.44863" lon="1.35674">
        <ele>158</ele>
        <time>2019-04-14T08:09:10Z</time>
      </trkpt>
      <trkpt lat="44.44859" lon="1.35664">
        <ele>158</ele>
        <time>2019-04-14T08:09:13Z</time>
      </trkpt>
      <trkpt lat="44.44849" lon="1.3566">
        <ele>157</ele>
        <time>2019-04-14T08:09:17Z</time>
      </trkpt>
      <trkpt lat="44.44838" lon="1.35655">
        <ele>157</ele>
        <time>2019-04-14T08:09:21Z</time>
      </trkpt>
      <trkpt lat="44.44829" lon="1.35649">
        <ele>157</ele>
        <time>2019-04-14T08:09:24Z</time>
      </trkpt>
      <trkpt lat="44.44822" lon="1.35642">
        <ele>157</ele>
        <time>2019-04-14T08:09:26Z</time>
      </trkpt>
      <trkpt lat="44.44811" lon="1.35636">
        <ele>157</ele>
        <time>2019-04-14T08:09:29Z</time>
      </trkpt>
      <trkpt lat="44.44807" lon="1.35634">
        <ele>157</ele>
        <time>2019-04-14T08:09:30Z</time>
      </trkpt>
      <trkpt lat="44.44795" lon="1.3563">
        <ele>157</ele>
        <time>2019-04-14T08:09:33Z</time>
      </trkpt>
      <trkpt lat="44.44776" lon="1.35624">
        <ele>158</ele>
        <time>2019-04-14T08:09:38Z</time>
      </trkpt>
      <trkpt lat="44.44771" lon="1.35623">
        <ele>158</ele>
        <time>2019-04-14T08:09:40Z</time>
      </trkpt>
      <trkpt lat="44.44765" lon="1.35621">
        <ele>158</ele>
        <time>2019-04-14T08:09:42Z</time>
      </trkpt>
      <trkpt lat="44.44746" lon="1.35612">
        <ele>158</ele>
        <time>2019-04-14T08:09:47Z</time>
      </trkpt>
      <trkpt lat="44.44728" lon="1.3561">
        <ele>159</ele>
        <time>2019-04-14T08:09:52Z</time>
      </trkpt>
      <trkpt lat="44.44724" lon="1.35609">
        <ele>159</ele>
        <time>2019-04-14T08:09:53Z</time>
      </trkpt>
      <trkpt lat="44.44717" lon="1.35607">
        <ele>159</ele>
        <time>2019-04-14T08:09:55Z</time>
      </trkpt>
      <trkpt lat="44.44705" lon="1.35602">
        <ele>160</ele>
        <time>2019-04-14T08:09:59Z</time>
      </trkpt>
      <trkpt lat="44.44688" lon="1.35598">
        <ele>160</ele>
        <time>2019-04-14T08:10:04Z</time>
      </trkpt>
      <trkpt lat="44.44674" lon="1.35592">
        <ele>160</ele>
        <time>2019-04-14T08:10:08Z</time>
      </trkpt>
      <trkpt lat="44.44662" lon="1.35592">
        <ele>160</ele>
        <time>2019-04-14T08:10:12Z</time>
      </trkpt>
      <trkpt lat="44.44659" lon="1.3559">
        <ele>160</ele>
        <time>2019-04-14T08:10:13Z</time>
      </trkpt>
      <trkpt lat="44.44649" lon="1.35586">
        <ele>160</ele>
        <time>2019-04-14T08:10:16Z</time>
      </trkpt>
      <trkpt lat="44.44645" lon="1.35585">
        <ele>160</ele>
        <time>2019-04-14T08:10:17Z</time>
      </trkpt>
      <trkpt lat="44.44636" lon="1.35584">
        <ele>161</ele>
        <time>2019-04-14T08:10:20Z</time>
      </trkpt>
      <trkpt lat="44.44633" lon="1.35584">
        <ele>161</ele>
        <time>2019-04-14T08:10:21Z</time>
      </trkpt>
      <trkpt lat="44.44618" lon="1.35585">
        <ele>161</ele>
        <time>2019-04-14T08:10:25Z</time>
      </trkpt>
      <trkpt lat="44.44599" lon="1.35583">
        <ele>161</ele>
        <time>2019-04-14T08:10:30Z</time>
      </trkpt>
      <trkpt lat="44.44596" lon="1.35581">
        <ele>161</ele>
        <time>2019-04-14T08:10:31Z</time>
      </trkpt>
      <trkpt lat="44.44589" lon="1.35574">
        <ele>161</ele>
        <time>2019-04-14T08:10:33Z</time>
      </trkpt>
      <trkpt lat="44.44583" lon="1.35572">
        <ele>161</ele>
        <time>2019-04-14T08:10:35Z</time>
      </trkpt>
      <trkpt lat="44.44581" lon="1.35574">
        <ele>161</ele>
        <time>2019-04-14T08:10:36Z</time>
      </trkpt>
      <trkpt lat="44.44574" lon="1.35572">
        <ele>161</ele>
        <time>2019-04-14T08:10:39Z</time>
      </trkpt>
      <trkpt lat="44.44565" lon="1.35566">
        <ele>160</ele>
        <time>2019-04-14T08:10:42Z</time>
      </trkpt>
      <trkpt lat="44.44552" lon="1.35566">
        <ele>160</ele>
        <time>2019-04-14T08:10:46Z</time>
      </trkpt>
      <trkpt lat="44.44549" lon="1.35566">
        <ele>160</ele>
        <time>2019-04-14T08:10:47Z</time>
      </trkpt>
      <trkpt lat="44.44538" lon="1.35562">
        <ele>160</ele>
        <time>2019-04-14T08:10:50Z</time>
      </trkpt>
      <trkpt lat="44.44532" lon="1.35556">
        <ele>160</ele>
        <time>2019-04-14T08:10:52Z</time>
      </trkpt>
      <trkpt lat="44.44526" lon="1.35557">
        <ele>160</ele>
        <time>2019-04-14T08:10:54Z</time>
      </trkpt>
      <trkpt lat="44.44513" lon="1.35551">
        <ele>161</ele>
        <time>2019-04-14T08:10:58Z</time>
      </trkpt>
      <trkpt lat="44.44502" lon="1.35547">
        <ele>161</ele>
        <time>2019-04-14T08:11:02Z</time>
      </trkpt>
      <trkpt lat="44.44497" lon="1.35544">
        <ele>162</ele>
        <time>2019-04-14T08:11:04Z</time>
      </trkpt>
      <trkpt lat="44.44493" lon="1.3554">
        <ele>162</ele>
        <time>2019-04-14T08:11:06Z</time>
      </trkpt>
      <trkpt lat="44.44478" lon="1.35532">
        <ele>161</ele>
        <time>2019-04-14T08:11:11Z</time>
      </trkpt>
      <trkpt lat="44.44465" lon="1.35523">
        <ele>161</ele>
        <time>2019-04-14T08:11:15Z</time>
      </trkpt>
      <trkpt lat="44.4446" lon="1.35522">
        <ele>161</ele>
        <time>2019-04-14T08:11:17Z</time>
      </trkpt>
      <trkpt lat="44.44456" lon="1.35525">
        <ele>161</ele>
        <time>2019-04-14T08:11:19Z</time>
      </trkpt>
      <trkpt lat="44.4445" lon="1.35527">
        <ele>162</ele>
        <time>2019-04-14T08:11:22Z</time>
      </trkpt>
      <trkpt lat="44.44436" lon="1.35518">
        <ele>163</ele>
        <time>2019-04-14T08:11:27Z</time>
      </trkpt>
      <trkpt lat="44.44434" lon="1.35518">
        <ele>163</ele>
        <time>2019-04-14T08:11:28Z</time>
      </trkpt>
      <trkpt lat="44.44432" lon="1.35519">
        <ele>163</ele>
        <time>2019-04-14T08:11:29Z</time>
      </trkpt>
      <trkpt lat="44.44428" lon="1.35522">
        <ele>164</ele>
        <time>2019-04-14T08:11:31Z</time>
      </trkpt>
      <trkpt lat="44.44425" lon="1.35525">
        <ele>164</ele>
        <time>2019-04-14T08:11:33Z</time>
      </trkpt>
      <trkpt lat="44.44421" lon="1.35528">
        <ele>166</ele>
        <time>2019-04-14T08:11:36Z</time>
      </trkpt>
      <trkpt lat="44.44414" lon="1.35523">
        <ele>167</ele>
        <time>2019-04-14T08:11:40Z</time>
      </trkpt>
      <trkpt lat="44.44411" lon="1.35522">
        <ele>167</ele>
        <time>2019-04-14T08:11:41Z</time>
      </trkpt>
      <trkpt lat="44.44409" lon="1.35522">
        <ele>167</ele>
        <time>2019-04-14T08:11:42Z</time>
      </trkpt>
      <trkpt lat="44.44399" lon="1.35519">
        <ele>166</ele>
        <time>2019-04-14T08:11:46Z</time>
      </trkpt>
      <trkpt lat="44.44385" lon="1.35513">
        <ele>167</ele>
        <time>2019-04-14T08:11:51Z</time>
      </trkpt>
      <trkpt lat="44.44382" lon="1.35513">
        <ele>167</ele>
        <time>2019-04-14T08:11:52Z</time>
      </trkpt>
      <trkpt lat="44.44376" lon="1.35508">
        <ele>167</ele>
        <time>2019-04-14T08:11:55Z</time>
      </trkpt>
      <trkpt lat="44.44374" lon="1.35508">
        <ele>166</ele>
        <time>2019-04-14T08:11:56Z</time>
      </trkpt>
      <trkpt lat="44.4436" lon="1.35507">
        <ele>167</ele>
        <time>2019-04-14T08:12:02Z</time>
      </trkpt>
      <trkpt lat="44.44351" lon="1.35498">
        <ele>167</ele>
        <time>2019-04-14T08:12:06Z</time>
      </trkpt>
      <trkpt lat="44.44343" lon="1.35496">
        <ele>166</ele>
        <time>2019-04-14T08:12:08Z</time>
      </trkpt>
      <trkpt lat="44.44333" lon="1.35494">
        <ele>165</ele>
        <time>2019-04-14T08:12:11Z</time>
      </trkpt>
      <trkpt lat="44.44317" lon="1.3549">
        <ele>166</ele>
        <time>2019-04-14T08:12:16Z</time>
      </trkpt>
      <trkpt lat="44.44306" lon="1.35481">
        <ele>165</ele>
        <time>2019-04-14T08:12:20Z</time>
      </trkpt>
      <trkpt lat="44.4429" lon="1.35481">
        <ele>165</ele>
        <time>2019-04-14T08:12:26Z</time>
      </trkpt>
      <trkpt lat="44.44275" lon="1.35479">
        <ele>166</ele>
        <time>2019-04-14T08:12:31Z</time>
      </trkpt>
      <trkpt lat="44.44272" lon="1.35477">
        <ele>167</ele>
        <time>2019-04-14T08:12:32Z</time>
      </trkpt>
      <trkpt lat="44.4427" lon="1.35474">
        <ele>167</ele>
        <time>2019-04-14T08:12:33Z</time>
      </trkpt>
      <trkpt lat="44.44265" lon="1.35468">
        <ele>167</ele>
        <time>2019-04-14T08:12:35Z</time>
      </trkpt>
      <trkpt lat="44.44252" lon="1.35462">
        <ele>167</ele>
        <time>2019-04-14T08:12:39Z</time>
      </trkpt>
      <trkpt lat="44.44249" lon="1.35461">
        <ele>166</ele>
        <time>2019-04-14T08:12:40Z</time>
      </trkpt>
      <trkpt lat="44.44239" lon="1.35462">
        <ele>166</ele>
        <time>2019-04-14T08:12:43Z</time>
      </trkpt>
      <trkpt lat="44.44235" lon="1.35462">
        <ele>166</ele>
        <time>2019-04-14T08:12:44Z</time>
      </trkpt>
      <trkpt lat="44.44226" lon="1.35459">
        <ele>167</ele>
        <time>2019-04-14T08:12:47Z</time>
      </trkpt>
      <trkpt lat="44.44206" lon="1.35453">
        <ele>168</ele>
        <time>2019-04-14T08:12:53Z</time>
      </trkpt>
      <trkpt lat="44.442" lon="1.35451">
        <ele>168</ele>
        <time>2019-04-14T08:12:55Z</time>
      </trkpt>
      <trkpt lat="44.44194" lon="1.3545">
        <ele>168</ele>
        <time>2019-04-14T08:12:57Z</time>
      </trkpt>
      <trkpt lat="44.44185" lon="1.35448">
        <ele>168</ele>
        <time>2019-04-14T08:13:00Z</time>
      </trkpt>
      <trkpt lat="44.44176" lon="1.35438">
        <ele>168</ele>
        <time>2019-04-14T08:13:04Z</time>
      </trkpt>
      <trkpt lat="44.4416" lon="1.35432">
        <ele>168</ele>
        <time>2019-04-14T08:13:08Z</time>
      </trkpt>
      <trkpt lat="44.44157" lon="1.35432">
        <ele>168</ele>
        <time>2019-04-14T08:13:09Z</time>
      </trkpt>
      <trkpt lat="44.4415" lon="1.35431">
        <ele>168</ele>
        <time>2019-04-14T08:13:11Z</time>
      </trkpt>
      <trkpt lat="44.44144" lon="1.35422">
        <ele>169</ele>
        <time>2019-04-14T08:13:15Z</time>
      </trkpt>
      <trkpt lat="44.44137" lon="1.35412">
        <ele>168</ele>
        <time>2019-04-14T08:13:18Z</time>
      </trkpt>
      <trkpt lat="44.44133" lon="1.3541">
        <ele>168</ele>
        <time>2019-04-14T08:13:19Z</time>
      </trkpt>
      <trkpt lat="44.44131" lon="1.35407">
        <ele>168</ele>
        <time>2019-04-14T08:13:20Z</time>
      </trkpt>
      <trkpt lat="44.44125" lon="1.35402">
        <ele>168</ele>
        <time>2019-04-14T08:13:22Z</time>
      </trkpt>
      <trkpt lat="44.4412" lon="1.35396">
        <ele>168</ele>
        <time>2019-04-14T08:13:24Z</time>
      </trkpt>
      <trkpt lat="44.44114" lon="1.35391">
        <ele>167</ele>
        <time>2019-04-14T08:13:26Z</time>
      </trkpt>
      <trkpt lat="44.44112" lon="1.35389">
        <ele>167</ele>
        <time>2019-04-14T08:13:27Z</time>
      </trkpt>
      <trkpt lat="44.44109" lon="1.35384">
        <ele>168</ele>
        <time>2019-04-14T08:13:29Z</time>
      </trkpt>
      <trkpt lat="44.44101" lon="1.3537">
        <ele>168</ele>
        <time>2019-04-14T08:13:33Z</time>
      </trkpt>
      <trkpt lat="44.44092" lon="1.35356">
        <ele>167</ele>
        <time>2019-04-14T08:13:37Z</time>
      </trkpt>
      <trkpt lat="44.44074" lon="1.35337">
        <ele>168</ele>
        <time>2019-04-14T08:13:43Z</time>
      </trkpt>
      <trkpt lat="44.44062" lon="1.35322">
        <ele>168</ele>
        <time>2019-04-14T08:13:47Z</time>
      </trkpt>
      <trkpt lat="44.44054" lon="1.35312">
        <ele>169</ele>
        <time>2019-04-14T08:13:50Z</time>
      </trkpt>
      <trkpt lat="44.44051" lon="1.35311">
        <ele>169</ele>
        <time>2019-04-14T08:13:51Z</time>
      </trkpt>
      <trkpt lat="44.44039" lon="1.35301">
        <ele>170</ele>
        <time>2019-04-14T08:13:56Z</time>
      </trkpt>
      <trkpt lat="44.44027" lon="1.35284">
        <ele>170</ele>
        <time>2019-04-14T08:14:01Z</time>
      </trkpt>
      <trkpt lat="44.44023" lon="1.35279">
        <ele>170</ele>
        <time>2019-04-14T08:14:03Z</time>
      </trkpt>
      <trkpt lat="44.44013" lon="1.35267">
        <ele>170</ele>
        <time>2019-04-14T08:14:07Z</time>
      </trkpt>
      <trkpt lat="44.44" lon="1.35248">
        <ele>169</ele>
        <time>2019-04-14T08:14:12Z</time>
      </trkpt>
      <trkpt lat="44.43992" lon="1.3524">
        <ele>169</ele>
        <time>2019-04-14T08:14:15Z</time>
      </trkpt>
      <trkpt lat="44.43988" lon="1.35239">
        <ele>169</ele>
        <time>2019-04-14T08:14:16Z</time>
      </trkpt>
      <trkpt lat="44.43971" lon="1.35236">
        <ele>169</ele>
        <time>2019-04-14T08:14:20Z</time>
      </trkpt>
      <trkpt lat="44.43967" lon="1.35236">
        <ele>170</ele>
        <time>2019-04-14T08:14:21Z</time>
      </trkpt>
      <trkpt lat="44.43959" lon="1.35237">
        <ele>170</ele>
        <time>2019-04-14T08:14:23Z</time>
      </trkpt>
      <trkpt lat="44.43949" lon="1.35238">
        <ele>171</ele>
        <time>2019-04-14T08:14:26Z</time>
      </trkpt>
      <trkpt lat="44.43944" lon="1.35239">
        <ele>173</ele>
        <time>2019-04-14T08:14:28Z</time>
      </trkpt>
      <trkpt lat="44.43941" lon="1.35239">
        <ele>173</ele>
        <time>2019-04-14T08:14:29Z</time>
      </trkpt>
      <trkpt lat="44.43938" lon="1.35239">
        <ele>174</ele>
        <time>2019-04-14T08:14:30Z</time>
      </trkpt>
      <trkpt lat="44.4393" lon="1.35233">
        <ele>174</ele>
        <time>2019-04-14T08:14:33Z</time>
      </trkpt>
      <trkpt lat="44.4392" lon="1.35228">
        <ele>174</ele>
        <time>2019-04-14T08:14:36Z</time>
      </trkpt>
      <trkpt lat="44.43911" lon="1.3523">
        <ele>175</ele>
        <time>2019-04-14T08:14:39Z</time>
      </trkpt>
      <trkpt lat="44.43907" lon="1.3523">
        <ele>176</ele>
        <time>2019-04-14T08:14:40Z</time>
      </trkpt>
      <trkpt lat="44.43889" lon="1.35222">
        <ele>175</ele>
        <time>2019-04-14T08:14:45Z</time>
      </trkpt>
      <trkpt lat="44.43874" lon="1.3522">
        <ele>175</ele>
        <time>2019-04-14T08:14:49Z</time>
      </trkpt>
      <trkpt lat="44.43856" lon="1.35216">
        <ele>175</ele>
        <time>2019-04-14T08:14:54Z</time>
      </trkpt>
      <trkpt lat="44.43854" lon="1.35215">
        <ele>175</ele>
        <time>2019-04-14T08:14:55Z</time>
      </trkpt>
      <trkpt lat="44.43844" lon="1.35211">
        <ele>176</ele>
        <time>2019-04-14T08:14:59Z</time>
      </trkpt>
      <trkpt lat="44.43837" lon="1.35208">
        <ele>177</ele>
        <time>2019-04-14T08:15:01Z</time>
      </trkpt>
      <trkpt lat="44.43821" lon="1.35202">
        <ele>151</ele>
        <time>2019-04-14T08:15:06Z</time>
      </trkpt>
      <trkpt lat="44.43804" lon="1.35196">
        <ele>177</ele>
        <time>2019-04-14T08:15:11Z</time>
      </trkpt>
      <trkpt lat="44.43785" lon="1.35188">
        <ele>178</ele>
        <time>2019-04-14T08:15:16Z</time>
      </trkpt>
      <trkpt lat="44.43778" lon="1.35184">
        <ele>178</ele>
        <time>2019-04-14T08:15:18Z</time>
      </trkpt>
      <trkpt lat="44.4376" lon="1.35179">
        <ele>178</ele>
        <time>2019-04-14T08:15:23Z</time>
      </trkpt>
      <trkpt lat="44.43745" lon="1.35176">
        <ele>179</ele>
        <time>2019-04-14T08:15:27Z</time>
      </trkpt>
      <trkpt lat="44.43741" lon="1.35175">
        <ele>179</ele>
        <time>2019-04-14T08:15:28Z</time>
      </trkpt>
      <trkpt lat="44.43725" lon="1.3517">
        <ele>179</ele>
        <time>2019-04-14T08:15:32Z</time>
      </trkpt>
      <trkpt lat="44.43706" lon="1.35167">
        <ele>179</ele>
        <time>2019-04-14T08:15:37Z</time>
      </trkpt>
      <trkpt lat="44.43685" lon="1.35162">
        <ele>179</ele>
        <time>2019-04-14T08:15:42Z</time>
      </trkpt>
      <trkpt lat="44.43661" lon="1.35158">
        <ele>180</ele>
        <time>2019-04-14T08:15:48Z</time>
      </trkpt>
      <trkpt lat="44.43637" lon="1.35156">
        <ele>180</ele>
        <time>2019-04-14T08:15:54Z</time>
      </trkpt>
      <trkpt lat="44.43627" lon="1.35154">
        <ele>180</ele>
        <time>2019-04-14T08:15:57Z</time>
      </trkpt>
      <trkpt lat="44.43624" lon="1.35153">
        <ele>180</ele>
        <time>2019-04-14T08:15:58Z</time>
      </trkpt>
      <trkpt lat="44.43618" lon="1.35152">
        <ele>181</ele>
        <time>2019-04-14T08:16:00Z</time>
      </trkpt>
      <trkpt lat="44.4361" lon="1.35149">
        <ele>182</ele>
        <time>2019-04-14T08:16:03Z</time>
      </trkpt>
      <trkpt lat="44.43607" lon="1.35148">
        <ele>182</ele>
        <time>2019-04-14T08:16:04Z</time>
      </trkpt>
      <trkpt lat="44.43601" lon="1.35144">
        <ele>182</ele>
        <time>2019-04-14T08:16:06Z</time>
      </trkpt>
      <trkpt lat="44.43598" lon="1.35139">
        <ele>182</ele>
        <time>2019-04-14T08:16:07Z</time>
      </trkpt>
      <trkpt lat="44.43591" lon="1.35131">
        <ele>181</ele>
        <time>2019-04-14T08:16:09Z</time>
      </trkpt>
      <trkpt lat="44.4358" lon="1.3512">
        <ele>181</ele>
        <time>2019-04-14T08:16:12Z</time>
      </trkpt>
      <trkpt lat="44.43564" lon="1.35108">
        <ele>180</ele>
        <time>2019-04-14T08:16:16Z</time>
      </trkpt>
      <trkpt lat="44.43557" lon="1.35102">
        <ele>181</ele>
        <time>2019-04-14T08:16:18Z</time>
      </trkpt>
      <trkpt lat="44.43554" lon="1.35098">
        <ele>181</ele>
        <time>2019-04-14T08:16:19Z</time>
      </trkpt>
      <trkpt lat="44.43541" lon="1.35085">
        <ele>182</ele>
        <time>2019-04-14T08:16:23Z</time>
      </trkpt>
      <trkpt lat="44.43538" lon="1.35082">
        <ele>182</ele>
        <time>2019-04-14T08:16:24Z</time>
      </trkpt>
      <trkpt lat="44.43527" lon="1.35072">
        <ele>182</ele>
        <time>2019-04-14T08:16:27Z</time>
      </trkpt>
      <trkpt lat="44.43523" lon="1.35069">
        <ele>182</ele>
        <time>2019-04-14T08:16:28Z</time>
      </trkpt>
      <trkpt lat="44.43513" lon="1.35059">
        <ele>182</ele>
        <time>2019-04-14T08:16:31Z</time>
      </trkpt>
      <trkpt lat="44.4351" lon="1.35056">
        <ele>182</ele>
        <time>2019-04-14T08:16:32Z</time>
      </trkpt>
      <trkpt lat="44.43504" lon="1.35052">
        <ele>182</ele>
        <time>2019-04-14T08:16:33Z</time>
      </trkpt>
      <trkpt lat="44.43495" lon="1.35044">
        <ele>182</ele>
        <time>2019-04-14T08:16:35Z</time>
      </trkpt>
      <trkpt lat="44.43478" lon="1.35035">
        <ele>182</ele>
        <time>2019-04-14T08:16:39Z</time>
      </trkpt>
      <trkpt lat="44.43459" lon="1.35033">
        <ele>183</ele>
        <time>2019-04-14T08:16:43Z</time>
      </trkpt>
      <trkpt lat="44.43454" lon="1.35033">
        <ele>183</ele>
        <time>2019-04-14T08:16:44Z</time>
      </trkpt>
      <trkpt lat="44.4345" lon="1.35032">
        <ele>183</ele>
        <time>2019-04-14T08:16:45Z</time>
      </trkpt>
      <trkpt lat="44.43441" lon="1.35032">
        <ele>183</ele>
        <time>2019-04-14T08:16:47Z</time>
      </trkpt>
      <trkpt lat="44.43437" lon="1.35032">
        <ele>184</ele>
        <time>2019-04-14T08:16:48Z</time>
      </trkpt>
      <trkpt lat="44.43421" lon="1.35034">
        <ele>184</ele>
        <time>2019-04-14T08:16:52Z</time>
      </trkpt>
      <trkpt lat="44.43408" lon="1.35036">
        <ele>184</ele>
        <time>2019-04-14T08:16:55Z</time>
      </trkpt>
      <trkpt lat="44.43399" lon="1.35037">
        <ele>184</ele>
        <time>2019-04-14T08:16:57Z</time>
      </trkpt>
      <trkpt lat="44.43394" lon="1.35038">
        <ele>185</ele>
        <time>2019-04-14T08:16:58Z</time>
      </trkpt>
      <trkpt lat="44.43366" lon="1.3504">
        <ele>185</ele>
        <time>2019-04-14T08:17:04Z</time>
      </trkpt>
      <trkpt lat="44.43352" lon="1.35043">
        <ele>185</ele>
        <time>2019-04-14T08:17:07Z</time>
      </trkpt>
      <trkpt lat="44.43349" lon="1.35046">
        <ele>184</ele>
        <time>2019-04-14T08:17:08Z</time>
      </trkpt>
      <trkpt lat="44.4334" lon="1.35054">
        <ele>184</ele>
        <time>2019-04-14T08:17:11Z</time>
      </trkpt>
      <trkpt lat="44.43332" lon="1.35063">
        <ele>185</ele>
        <time>2019-04-14T08:17:14Z</time>
      </trkpt>
      <trkpt lat="44.43323" lon="1.35073">
        <ele>185</ele>
        <time>2019-04-14T08:17:17Z</time>
      </trkpt>
      <trkpt lat="44.4331" lon="1.35071">
        <ele>185</ele>
        <time>2019-04-14T08:17:20Z</time>
      </trkpt>
      <trkpt lat="44.43296" lon="1.35071">
        <ele>185</ele>
        <time>2019-04-14T08:17:23Z</time>
      </trkpt>
      <trkpt lat="44.43279" lon="1.35076">
        <ele>185</ele>
        <time>2019-04-14T08:17:28Z</time>
      </trkpt>
      <trkpt lat="44.43273" lon="1.35078">
        <ele>186</ele>
        <time>2019-04-14T08:17:30Z</time>
      </trkpt>
      <trkpt lat="44.43268" lon="1.35074">
        <ele>186</ele>
        <time>2019-04-14T08:17:32Z</time>
      </trkpt>
      <trkpt lat="44.43268" lon="1.35065">
        <ele>186</ele>
        <time>2019-04-14T08:17:35Z</time>
      </trkpt>
      <trkpt lat="44.43268" lon="1.35056">
        <ele>186</ele>
        <time>2019-04-14T08:17:38Z</time>
      </trkpt>
      <trkpt lat="44.43267" lon="1.35053">
        <ele>187</ele>
        <time>2019-04-14T08:17:39Z</time>
      </trkpt>
      <trkpt lat="44.43266" lon="1.35051">
        <ele>187</ele>
        <time>2019-04-14T08:17:40Z</time>
      </trkpt>
      <trkpt lat="44.4326" lon="1.35052">
        <ele>187</ele>
        <time>2019-04-14T08:17:43Z</time>
      </trkpt>
      <trkpt lat="44.43258" lon="1.35053">
        <ele>188</ele>
        <time>2019-04-14T08:17:44Z</time>
      </trkpt>
      <trkpt lat="44.43243" lon="1.35057">
        <ele>189</ele>
        <time>2019-04-14T08:17:51Z</time>
      </trkpt>
      <trkpt lat="44.43241" lon="1.35058">
        <ele>190</ele>
        <time>2019-04-14T08:17:52Z</time>
      </trkpt>
      <trkpt lat="44.43237" lon="1.35059">
        <ele>190</ele>
        <time>2019-04-14T08:17:54Z</time>
      </trkpt>
      <trkpt lat="44.4323" lon="1.35061">
        <ele>192</ele>
        <time>2019-04-14T08:17:58Z</time>
      </trkpt>
      <trkpt lat="44.43228" lon="1.35062">
        <ele>192</ele>
        <time>2019-04-14T08:17:59Z</time>
      </trkpt>
      <trkpt lat="44.43224" lon="1.35061">
        <ele>193</ele>
        <time>2019-04-14T08:18:01Z</time>
      </trkpt>
      <trkpt lat="44.43221" lon="1.3506">
        <ele>193</ele>
        <time>2019-04-14T08:18:03Z</time>
      </trkpt>
      <trkpt lat="44.43216" lon="1.35057">
        <ele>194</ele>
        <time>2019-04-14T08:18:06Z</time>
      </trkpt>
      <trkpt lat="44.43212" lon="1.35055">
        <ele>195</ele>
        <time>2019-04-14T08:18:09Z</time>
      </trkpt>
      <trkpt lat="44.4321" lon="1.35055">
        <ele>195</ele>
        <time>2019-04-14T08:18:10Z</time>
      </trkpt>
      <trkpt lat="44.43209" lon="1.35059">
        <ele>196</ele>
        <time>2019-04-14T08:18:12Z</time>
      </trkpt>
      <trkpt lat="44.43204" lon="1.35067">
        <ele>195</ele>
        <time>2019-04-14T08:18:16Z</time>
      </trkpt>
      <trkpt lat="44.432" lon="1.35069">
        <ele>194</ele>
        <time>2019-04-14T08:18:18Z</time>
      </trkpt>
      <trkpt lat="44.43197" lon="1.35071">
        <ele>194</ele>
        <time>2019-04-14T08:18:19Z</time>
      </trkpt>
      <trkpt lat="44.43196" lon="1.35072">
        <ele>193</ele>
        <time>2019-04-14T08:18:20Z</time>
      </trkpt>
      <trkpt lat="44.43194" lon="1.35073">
        <ele>193</ele>
        <time>2019-04-14T08:18:21Z</time>
      </trkpt>
      <trkpt lat="44.43192" lon="1.35075">
        <ele>192</ele>
        <time>2019-04-14T08:18:22Z</time>
      </trkpt>
      <trkpt lat="44.43189" lon="1.35077">
        <ele>191</ele>
        <time>2019-04-14T08:18:23Z</time>
      </trkpt>
      <trkpt lat="44.43181" lon="1.35077">
        <ele>190</ele>
        <time>2019-04-14T08:18:26Z</time>
      </trkpt>
      <trkpt lat="44.43163" lon="1.35076">
        <ele>189</ele>
        <time>2019-04-14T08:18:32Z</time>
      </trkpt>
      <trkpt lat="44.43161" lon="1.35077">
        <ele>189</ele>
        <time>2019-04-14T08:18:33Z</time>
      </trkpt>
      <trkpt lat="44.43156" lon="1.3508">
        <ele>189</ele>
        <time>2019-04-14T08:18:35Z</time>
      </trkpt>
      <trkpt lat="44.4315" lon="1.3508">
        <ele>189</ele>
        <time>2019-04-14T08:18:37Z</time>
      </trkpt>
      <trkpt lat="44.43145" lon="1.35081">
        <ele>189</ele>
        <time>2019-04-14T08:18:39Z</time>
      </trkpt>
      <trkpt lat="44.43142" lon="1.35081">
        <ele>189</ele>
        <time>2019-04-14T08:18:40Z</time>
      </trkpt>
      <trkpt lat="44.43129" lon="1.35085">
        <ele>190</ele>
        <time>2019-04-14T08:18:45Z</time>
      </trkpt>
      <trkpt lat="44.43121" lon="1.35083">
        <ele>191</ele>
        <time>2019-04-14T08:18:49Z</time>
      </trkpt>
      <trkpt lat="44.43119" lon="1.35082">
        <ele>192</ele>
        <time>2019-04-14T08:18:50Z</time>
      </trkpt>
      <trkpt lat="44.43117" lon="1.35083">
        <ele>193</ele>
        <time>2019-04-14T08:18:51Z</time>
      </trkpt>
      <trkpt lat="44.4311" lon="1.35087">
        <ele>194</ele>
        <time>2019-04-14T08:18:55Z</time>
      </trkpt>
      <trkpt lat="44.43108" lon="1.35088">
        <ele>194</ele>
        <time>2019-04-14T08:18:56Z</time>
      </trkpt>
      <trkpt lat="44.43099" lon="1.35094">
        <ele>194</ele>
        <time>2019-04-14T08:19:01Z</time>
      </trkpt>
      <trkpt lat="44.4309" lon="1.35103">
        <ele>194</ele>
        <time>2019-04-14T08:19:06Z</time>
      </trkpt>
      <trkpt lat="44.43087" lon="1.35105">
        <ele>194</ele>
        <time>2019-04-14T08:19:07Z</time>
      </trkpt>
      <trkpt lat="44.43075" lon="1.35115">
        <ele>195</ele>
        <time>2019-04-14T08:19:12Z</time>
      </trkpt>
      <trkpt lat="44.43066" lon="1.35127">
        <ele>195</ele>
        <time>2019-04-14T08:19:17Z</time>
      </trkpt>
      <trkpt lat="44.43055" lon="1.35136">
        <ele>194</ele>
        <time>2019-04-14T08:19:21Z</time>
      </trkpt>
      <trkpt lat="44.43053" lon="1.35137">
        <ele>195</ele>
        <time>2019-04-14T08:19:22Z</time>
      </trkpt>
      <trkpt lat="44.43047" lon="1.35143">
        <ele>195</ele>
        <time>2019-04-14T08:19:25Z</time>
      </trkpt>
      <trkpt lat="44.43045" lon="1.35144">
        <ele>195</ele>
        <time>2019-04-14T08:19:26Z</time>
      </trkpt>
      <trkpt lat="44.43043" lon="1.35146">
        <ele>196</ele>
        <time>2019-04-14T08:19:27Z</time>
      </trkpt>
      <trkpt lat="44.4304" lon="1.35153">
        <ele>196</ele>
        <time>2019-04-14T08:19:29Z</time>
      </trkpt>
      <trkpt lat="44.43033" lon="1.3516">
        <ele>196</ele>
        <time>2019-04-14T08:19:33Z</time>
      </trkpt>
      <trkpt lat="44.4303" lon="1.35164">
        <ele>196</ele>
        <time>2019-04-14T08:19:35Z</time>
      </trkpt>
      <trkpt lat="44.43026" lon="1.35169">
        <ele>196</ele>
        <time>2019-04-14T08:19:37Z</time>
      </trkpt>
      <trkpt lat="44.43017" lon="1.35179">
        <ele>196</ele>
        <time>2019-04-14T08:19:41Z</time>
      </trkpt>
      <trkpt lat="44.4301" lon="1.35189">
        <ele>196</ele>
        <time>2019-04-14T08:19:46Z</time>
      </trkpt>
      <trkpt lat="44.43002" lon="1.35199">
        <ele>196</ele>
        <time>2019-04-14T08:19:50Z</time>
      </trkpt>
      <trkpt lat="44.42999" lon="1.352">
        <ele>196</ele>
        <time>2019-04-14T08:19:51Z</time>
      </trkpt>
      <trkpt lat="44.42989" lon="1.35206">
        <ele>197</ele>
        <time>2019-04-14T08:19:55Z</time>
      </trkpt>
      <trkpt lat="44.4298" lon="1.35211">
        <ele>198</ele>
        <time>2019-04-14T08:19:59Z</time>
      </trkpt>
      <trkpt lat="44.42978" lon="1.35213">
        <ele>199</ele>
        <time>2019-04-14T08:20:00Z</time>
      </trkpt>
      <trkpt lat="44.42971" lon="1.35223">
        <ele>200</ele>
        <time>2019-04-14T08:20:04Z</time>
      </trkpt>
      <trkpt lat="44.42969" lon="1.35226">
        <ele>200</ele>
        <time>2019-04-14T08:20:05Z</time>
      </trkpt>
      <trkpt lat="44.4296" lon="1.3524">
        <ele>199</ele>
        <time>2019-04-14T08:20:10Z</time>
      </trkpt>
      <trkpt lat="44.42958" lon="1.35242">
        <ele>199</ele>
        <time>2019-04-14T08:20:11Z</time>
      </trkpt>
      <trkpt lat="44.42949" lon="1.35248">
        <ele>200</ele>
        <time>2019-04-14T08:20:15Z</time>
      </trkpt>
      <trkpt lat="44.42945" lon="1.35253">
        <ele>201</ele>
        <time>2019-04-14T08:20:18Z</time>
      </trkpt>
      <trkpt lat="44.42942" lon="1.35257">
        <ele>201</ele>
        <time>2019-04-14T08:20:20Z</time>
      </trkpt>
      <trkpt lat="44.42939" lon="1.35263">
        <ele>201</ele>
        <time>2019-04-14T08:20:22Z</time>
      </trkpt>
      <trkpt lat="44.42936" lon="1.35267">
        <ele>201</ele>
        <time>2019-04-14T08:20:23Z</time>
      </trkpt>
      <trkpt lat="44.42934" lon="1.35269">
        <ele>201</ele>
        <time>2019-04-14T08:20:24Z</time>
      </trkpt>
      <trkpt lat="44.42925" lon="1.35284">
        <ele>201</ele>
        <time>2019-04-14T08:20:29Z</time>
      </trkpt>
      <trkpt lat="44.42914" lon="1.35295">
        <ele>202</ele>
        <time>2019-04-14T08:20:34Z</time>
      </trkpt>
      <trkpt lat="44.42905" lon="1.35305">
        <ele>202</ele>
        <time>2019-04-14T08:20:38Z</time>
      </trkpt>
      <trkpt lat="44.42901" lon="1.35309">
        <ele>202</ele>
        <time>2019-04-14T08:20:40Z</time>
      </trkpt>
      <trkpt lat="44.42897" lon="1.35314">
        <ele>202</ele>
        <time>2019-04-14T08:20:42Z</time>
      </trkpt>
      <trkpt lat="44.42892" lon="1.35319">
        <ele>202</ele>
        <time>2019-04-14T08:20:44Z</time>
      </trkpt>
      <trkpt lat="44.4288" lon="1.35326">
        <ele>202</ele>
        <time>2019-04-14T08:20:49Z</time>
      </trkpt>
      <trkpt lat="44.42868" lon="1.35325">
        <ele>203</ele>
        <time>2019-04-14T08:20:54Z</time>
      </trkpt>
      <trkpt lat="44.42858" lon="1.35323">
        <ele>203</ele>
        <time>2019-04-14T08:20:59Z</time>
      </trkpt>
      <trkpt lat="44.42848" lon="1.35321">
        <ele>203</ele>
        <time>2019-04-14T08:21:04Z</time>
      </trkpt>
      <trkpt lat="44.42844" lon="1.35317">
        <ele>203</ele>
        <time>2019-04-14T08:21:07Z</time>
      </trkpt>
      <trkpt lat="44.42839" lon="1.35315">
        <ele>204</ele>
        <time>2019-04-14T08:21:09Z</time>
      </trkpt>
      <trkpt lat="44.42828" lon="1.35307">
        <ele>204</ele>
        <time>2019-04-14T08:21:13Z</time>
      </trkpt>
      <trkpt lat="44.42819" lon="1.35301">
        <ele>203</ele>
        <time>2019-04-14T08:21:17Z</time>
      </trkpt>
      <trkpt lat="44.42811" lon="1.35297">
        <ele>203</ele>
        <time>2019-04-14T08:21:20Z</time>
      </trkpt>
      <trkpt lat="44.42809" lon="1.35295">
        <ele>203</ele>
        <time>2019-04-14T08:21:21Z</time>
      </trkpt>
      <trkpt lat="44.42801" lon="1.35287">
        <ele>203</ele>
        <time>2019-04-14T08:21:25Z</time>
      </trkpt>
      <trkpt lat="44.42799" lon="1.35284">
        <ele>203</ele>
        <time>2019-04-14T08:21:26Z</time>
      </trkpt>
      <trkpt lat="44.42794" lon="1.35279">
        <ele>204</ele>
        <time>2019-04-14T08:21:29Z</time>
      </trkpt>
      <trkpt lat="44.42793" lon="1.35278">
        <ele>204</ele>
        <time>2019-04-14T08:21:30Z</time>
      </trkpt>
      <trkpt lat="44.42791" lon="1.35277">
        <ele>204</ele>
        <time>2019-04-14T08:21:31Z</time>
      </trkpt>
      <trkpt lat="44.42784" lon="1.35271">
        <ele>204</ele>
        <time>2019-04-14T08:21:37Z</time>
      </trkpt>
      <trkpt lat="44.42783" lon="1.3527">
        <ele>204</ele>
        <time>2019-04-14T08:21:39Z</time>
      </trkpt>
      <trkpt lat="44.42783" lon="1.35268">
        <ele>205</ele>
        <time>2019-04-14T08:21:53Z</time>
      </trkpt>
      <trkpt lat="44.42786" lon="1.35267">
        <ele>205</ele>
        <time>2019-04-14T08:21:56Z</time>
      </trkpt>
      <trkpt lat="44.42789" lon="1.35268">
        <ele>205</ele>
        <time>2019-04-14T08:21:58Z</time>
      </trkpt>
      <trkpt lat="44.42796" lon="1.35271">
        <ele>206</ele>
        <time>2019-04-14T08:22:02Z</time>
      </trkpt>
      <trkpt lat="44.42799" lon="1.35273">
        <ele>207</ele>
        <time>2019-04-14T08:22:04Z</time>
      </trkpt>
      <trkpt lat="44.42806" lon="1.35275">
        <ele>207</ele>
        <time>2019-04-14T08:22:08Z</time>
      </trkpt>
      <trkpt lat="44.42808" lon="1.35276">
        <ele>208</ele>
        <time>2019-04-14T08:22:09Z</time>
      </trkpt>
      <trkpt lat="44.42815" lon="1.3528">
        <ele>209</ele>
        <time>2019-04-14T08:22:13Z</time>
      </trkpt>
      <trkpt lat="44.42816" lon="1.35281">
        <ele>209</ele>
        <time>2019-04-14T08:22:14Z</time>
      </trkpt>
      <trkpt lat="44.42823" lon="1.35284">
        <ele>210</ele>
        <time>2019-04-14T08:22:18Z</time>
      </trkpt>
      <trkpt lat="44.42826" lon="1.35285">
        <ele>211</ele>
        <time>2019-04-14T08:22:20Z</time>
      </trkpt>
      <trkpt lat="44.42828" lon="1.35286">
        <ele>212</ele>
        <time>2019-04-14T08:22:22Z</time>
      </trkpt>
      <trkpt lat="44.42834" lon="1.35289">
        <ele>213</ele>
        <time>2019-04-14T08:22:26Z</time>
      </trkpt>
      <trkpt lat="44.42835" lon="1.35289">
        <ele>213</ele>
        <time>2019-04-14T08:22:27Z</time>
      </trkpt>
      <trkpt lat="44.42842" lon="1.35292">
        <ele>214</ele>
        <time>2019-04-14T08:22:31Z</time>
      </trkpt>
      <trkpt lat="44.42846" lon="1.35294">
        <ele>215</ele>
        <time>2019-04-14T08:22:34Z</time>
      </trkpt>
      <trkpt lat="44.42847" lon="1.35294">
        <ele>215</ele>
        <time>2019-04-14T08:22:35Z</time>
      </trkpt>
      <trkpt lat="44.42853" lon="1.35295">
        <ele>216</ele>
        <time>2019-04-14T08:22:40Z</time>
      </trkpt>
      <trkpt lat="44.42855" lon="1.35293">
        <ele>217</ele>
        <time>2019-04-14T08:22:42Z</time>
      </trkpt>
      <trkpt lat="44.42854" lon="1.35292">
        <ele>217</ele>
        <time>2019-04-14T08:22:43Z</time>
      </trkpt>
      <trkpt lat="44.42853" lon="1.35291">
        <ele>217</ele>
        <time>2019-04-14T08:22:44Z</time>
      </trkpt>
      <trkpt lat="44.42851" lon="1.35289">
        <ele>218</ele>
        <time>2019-04-14T08:22:46Z</time>
      </trkpt>
      <trkpt lat="44.4285" lon="1.35288">
        <ele>218</ele>
        <time>2019-04-14T08:22:47Z</time>
      </trkpt>
      <trkpt lat="44.42849" lon="1.35285">
        <ele>218</ele>
        <time>2019-04-14T08:22:49Z</time>
      </trkpt>
      <trkpt lat="44.42846" lon="1.35281">
        <ele>219</ele>
        <time>2019-04-14T08:22:52Z</time>
      </trkpt>
      <trkpt lat="44.42844" lon="1.35277">
        <ele>220</ele>
        <time>2019-04-14T08:22:55Z</time>
      </trkpt>
      <trkpt lat="44.42843" lon="1.35275">
        <ele>220</ele>
        <time>2019-04-14T08:22:57Z</time>
      </trkpt>
      <trkpt lat="44.42842" lon="1.35272">
        <ele>221</ele>
        <time>2019-04-14T08:22:59Z</time>
      </trkpt>
      <trkpt lat="44.42841" lon="1.35271">
        <ele>221</ele>
        <time>2019-04-14T08:23:00Z</time>
      </trkpt>
      <trkpt lat="44.42838" lon="1.35268">
        <ele>221</ele>
        <time>2019-04-14T08:23:02Z</time>
      </trkpt>
      <trkpt lat="44.42836" lon="1.35265">
        <ele>222</ele>
        <time>2019-04-14T08:23:04Z</time>
      </trkpt>
      <trkpt lat="44.42831" lon="1.35257">
        <ele>223</ele>
        <time>2019-04-14T08:23:09Z</time>
      </trkpt>
      <trkpt lat="44.42824" lon="1.35248">
        <ele>224</ele>
        <time>2019-04-14T08:23:15Z</time>
      </trkpt>
      <trkpt lat="44.42822" lon="1.35246">
        <ele>224</ele>
        <time>2019-04-14T08:23:17Z</time>
      </trkpt>
      <trkpt lat="44.42818" lon="1.3524">
        <ele>225</ele>
        <time>2019-04-14T08:23:21Z</time>
      </trkpt>
      <trkpt lat="44.42816" lon="1.35234">
        <ele>226</ele>
        <time>2019-04-14T08:23:24Z</time>
      </trkpt>
      <trkpt lat="44.42812" lon="1.35228">
        <ele>228</ele>
        <time>2019-04-14T08:23:29Z</time>
      </trkpt>
      <trkpt lat="44.42806" lon="1.35219">
        <ele>229</ele>
        <time>2019-04-14T08:23:35Z</time>
      </trkpt>
      <trkpt lat="44.42805" lon="1.35218">
        <ele>229</ele>
        <time>2019-04-14T08:23:36Z</time>
      </trkpt>
      <trkpt lat="44.42802" lon="1.35212">
        <ele>230</ele>
        <time>2019-04-14T08:23:40Z</time>
      </trkpt>
      <trkpt lat="44.428" lon="1.35209">
        <ele>230</ele>
        <time>2019-04-14T08:23:42Z</time>
      </trkpt>
      <trkpt lat="44.42798" lon="1.35206">
        <ele>231</ele>
        <time>2019-04-14T08:23:44Z</time>
      </trkpt>
      <trkpt lat="44.42794" lon="1.35201">
        <ele>232</ele>
        <time>2019-04-14T08:23:49Z</time>
      </trkpt>
      <trkpt lat="44.4279" lon="1.35194">
        <ele>234</ele>
        <time>2019-04-14T08:23:54Z</time>
      </trkpt>
      <trkpt lat="44.42789" lon="1.35192">
        <ele>234</ele>
        <time>2019-04-14T08:23:56Z</time>
      </trkpt>
      <trkpt lat="44.42789" lon="1.35191">
        <ele>235</ele>
        <time>2019-04-14T08:23:58Z</time>
      </trkpt>
      <trkpt lat="44.42786" lon="1.35187">
        <ele>235</ele>
        <time>2019-04-14T08:24:05Z</time>
      </trkpt>
      <trkpt lat="44.42784" lon="1.35185">
        <ele>236</ele>
        <time>2019-04-14T08:24:07Z</time>
      </trkpt>
      <trkpt lat="44.42784" lon="1.35185">
        <ele>236</ele>
        <time>2019-04-14T08:24:08Z</time>
      </trkpt>
      <trkpt lat="44.42779" lon="1.35181">
        <ele>237</ele>
        <time>2019-04-14T08:24:13Z</time>
      </trkpt>
      <trkpt lat="44.42775" lon="1.35177">
        <ele>237</ele>
        <time>2019-04-14T08:24:16Z</time>
      </trkpt>
      <trkpt lat="44.42772" lon="1.35173">
        <ele>238</ele>
        <time>2019-04-14T08:24:20Z</time>
      </trkpt>
      <trkpt lat="44.42768" lon="1.35169">
        <ele>240</ele>
        <time>2019-04-14T08:24:24Z</time>
      </trkpt>
      <trkpt lat="44.42767" lon="1.35168">
        <ele>240</ele>
        <time>2019-04-14T08:24:25Z</time>
      </trkpt>
      <trkpt lat="44.42765" lon="1.35166">
        <ele>241</ele>
        <time>2019-04-14T08:24:27Z</time>
      </trkpt>
      <trkpt lat="44.42761" lon="1.35162">
        <ele>242</ele>
        <time>2019-04-14T08:24:32Z</time>
      </trkpt>
      <trkpt lat="44.4276" lon="1.35161">
        <ele>242</ele>
        <time>2019-04-14T08:24:33Z</time>
      </trkpt>
      <trkpt lat="44.42757" lon="1.35157">
        <ele>243</ele>
        <time>2019-04-14T08:24:37Z</time>
      </trkpt>
      <trkpt lat="44.42754" lon="1.35154">
        <ele>244</ele>
        <time>2019-04-14T08:24:40Z</time>
      </trkpt>
      <trkpt lat="44.42752" lon="1.35153">
        <ele>245</ele>
        <time>2019-04-14T08:24:42Z</time>
      </trkpt>
      <trkpt lat="44.42747" lon="1.35149">
        <ele>246</ele>
        <time>2019-04-14T08:24:47Z</time>
      </trkpt>
      <trkpt lat="44.42745" lon="1.35148">
        <ele>246</ele>
        <time>2019-04-14T08:24:48Z</time>
      </trkpt>
      <trkpt lat="44.4274" lon="1.35145">
        <ele>247</ele>
        <time>2019-04-14T08:24:54Z</time>
      </trkpt>
      <trkpt lat="44.42738" lon="1.35143">
        <ele>247</ele>
        <time>2019-04-14T08:24:56Z</time>
      </trkpt>
      <trkpt lat="44.42733" lon="1.3514">
        <ele>248</ele>
        <time>2019-04-14T08:25:00Z</time>
      </trkpt>
      <trkpt lat="44.42728" lon="1.35137">
        <ele>249</ele>
        <time>2019-04-14T08:25:05Z</time>
      </trkpt>
      <trkpt lat="44.42726" lon="1.35136">
        <ele>249</ele>
        <time>2019-04-14T08:25:07Z</time>
      </trkpt>
      <trkpt lat="44.42723" lon="1.35133">
        <ele>250</ele>
        <time>2019-04-14T08:25:11Z</time>
      </trkpt>
      <trkpt lat="44.42722" lon="1.35132">
        <ele>250</ele>
        <time>2019-04-14T08:25:12Z</time>
      </trkpt>
      <trkpt lat="44.42717" lon="1.35129">
        <ele>252</ele>
        <time>2019-04-14T08:25:17Z</time>
      </trkpt>
      <trkpt lat="44.42713" lon="1.35127">
        <ele>253</ele>
        <time>2019-04-14T08:25:21Z</time>
      </trkpt>
      <trkpt lat="44.42711" lon="1.35125">
        <ele>253</ele>
        <time>2019-04-14T08:25:23Z</time>
      </trkpt>
      <trkpt lat="44.42709" lon="1.35124">
        <ele>254</ele>
        <time>2019-04-14T08:25:25Z</time>
      </trkpt>
      <trkpt lat="44.42708" lon="1.35124">
        <ele>255</ele>
        <time>2019-04-14T08:25:26Z</time>
      </trkpt>
      <trkpt lat="44.42707" lon="1.35123">
        <ele>256</ele>
        <time>2019-04-14T08:25:29Z</time>
      </trkpt>
      <trkpt lat="44.42706" lon="1.35122">
        <ele>256</ele>
        <time>2019-04-14T08:25:31Z</time>
      </trkpt>
      <trkpt lat="44.42706" lon="1.35119">
        <ele>257</ele>
        <time>2019-04-14T08:25:36Z</time>
      </trkpt>
      <trkpt lat="44.42706" lon="1.35118">
        <ele>257</ele>
        <time>2019-04-14T08:25:38Z</time>
      </trkpt>
      <trkpt lat="44.4271" lon="1.35117">
        <ele>258</ele>
        <time>2019-04-14T08:25:43Z</time>
      </trkpt>
      <trkpt lat="44.42711" lon="1.35117">
        <ele>258</ele>
        <time>2019-04-14T08:25:44Z</time>
      </trkpt>
      <trkpt lat="44.42711" lon="1.35117">
        <ele>259</ele>
        <time>2019-04-14T08:25:46Z</time>
      </trkpt>
      <trkpt lat="44.42714" lon="1.35117">
        <ele>259</ele>
        <time>2019-04-14T08:25:53Z</time>
      </trkpt>
      <trkpt lat="44.42715" lon="1.35117">
        <ele>259</ele>
        <time>2019-04-14T08:25:54Z</time>
      </trkpt>
      <trkpt lat="44.42719" lon="1.35116">
        <ele>259</ele>
        <time>2019-04-14T08:25:57Z</time>
      </trkpt>
      <trkpt lat="44.42723" lon="1.35116">
        <ele>260</ele>
        <time>2019-04-14T08:26:00Z</time>
      </trkpt>
      <trkpt lat="44.42726" lon="1.35115">
        <ele>260</ele>
        <time>2019-04-14T08:26:02Z</time>
      </trkpt>
      <trkpt lat="44.42732" lon="1.35115">
        <ele>261</ele>
        <time>2019-04-14T08:26:06Z</time>
      </trkpt>
      <trkpt lat="44.42737" lon="1.35115">
        <ele>262</ele>
        <time>2019-04-14T08:26:09Z</time>
      </trkpt>
      <trkpt lat="44.42739" lon="1.35114">
        <ele>262</ele>
        <time>2019-04-14T08:26:11Z</time>
      </trkpt>
      <trkpt lat="44.42747" lon="1.35114">
        <ele>264</ele>
        <time>2019-04-14T08:26:16Z</time>
      </trkpt>
      <trkpt lat="44.42748" lon="1.35114">
        <ele>264</ele>
        <time>2019-04-14T08:26:17Z</time>
      </trkpt>
      <trkpt lat="44.42756" lon="1.35114">
        <ele>265</ele>
        <time>2019-04-14T08:26:22Z</time>
      </trkpt>
      <trkpt lat="44.42759" lon="1.35114">
        <ele>265</ele>
        <time>2019-04-14T08:26:24Z</time>
      </trkpt>
      <trkpt lat="44.42763" lon="1.35114">
        <ele>266</ele>
        <time>2019-04-14T08:26:27Z</time>
      </trkpt>
      <trkpt lat="44.4277" lon="1.35115">
        <ele>267</ele>
        <time>2019-04-14T08:26:32Z</time>
      </trkpt>
      <trkpt lat="44.42771" lon="1.35115">
        <ele>268</ele>
        <time>2019-04-14T08:26:33Z</time>
      </trkpt>
      <trkpt lat="44.42775" lon="1.35115">
        <ele>268</ele>
        <time>2019-04-14T08:26:36Z</time>
      </trkpt>
      <trkpt lat="44.42781" lon="1.35115">
        <ele>269</ele>
        <time>2019-04-14T08:26:40Z</time>
      </trkpt>
      <trkpt lat="44.42782" lon="1.35115">
        <ele>270</ele>
        <time>2019-04-14T08:26:41Z</time>
      </trkpt>
      <trkpt lat="44.42788" lon="1.35115">
        <ele>271</ele>
        <time>2019-04-14T08:26:45Z</time>
      </trkpt>
      <trkpt lat="44.42792" lon="1.35114">
        <ele>272</ele>
        <time>2019-04-14T08:26:48Z</time>
      </trkpt>
      <trkpt lat="44.42797" lon="1.35114">
        <ele>273</ele>
        <time>2019-04-14T08:26:52Z</time>
      </trkpt>
      <trkpt lat="44.42803" lon="1.35114">
        <ele>274</ele>
        <time>2019-04-14T08:26:56Z</time>
      </trkpt>
      <trkpt lat="44.42811" lon="1.35115">
        <ele>275</ele>
        <time>2019-04-14T08:27:02Z</time>
      </trkpt>
      <trkpt lat="44.42812" lon="1.35116">
        <ele>276</ele>
        <time>2019-04-14T08:27:03Z</time>
      </trkpt>
      <trkpt lat="44.42814" lon="1.35115">
        <ele>276</ele>
        <time>2019-04-14T08:27:05Z</time>
      </trkpt>
      <trkpt lat="44.42816" lon="1.35112">
        <ele>277</ele>
        <time>2019-04-14T08:27:08Z</time>
      </trkpt>
      <trkpt lat="44.42812" lon="1.35106">
        <ele>278</ele>
        <time>2019-04-14T08:27:14Z</time>
      </trkpt>
      <trkpt lat="44.42811" lon="1.35105">
        <ele>278</ele>
        <time>2019-04-14T08:27:15Z</time>
      </trkpt>
      <trkpt lat="44.42812" lon="1.35094">
        <ele>278</ele>
        <time>2019-04-14T08:27:21Z</time>
      </trkpt>
      <trkpt lat="44.42813" lon="1.3509">
        <ele>279</ele>
        <time>2019-04-14T08:27:23Z</time>
      </trkpt>
      <trkpt lat="44.42816" lon="1.35084">
        <ele>279</ele>
        <time>2019-04-14T08:27:27Z</time>
      </trkpt>
      <trkpt lat="44.42813" lon="1.35078">
        <ele>280</ele>
        <time>2019-04-14T08:27:31Z</time>
      </trkpt>
      <trkpt lat="44.42803" lon="1.35073">
        <ele>280</ele>
        <time>2019-04-14T08:27:37Z</time>
      </trkpt>
      <trkpt lat="44.42796" lon="1.3507">
        <ele>281</ele>
        <time>2019-04-14T08:27:41Z</time>
      </trkpt>
      <trkpt lat="44.42794" lon="1.35069">
        <ele>281</ele>
        <time>2019-04-14T08:27:42Z</time>
      </trkpt>
      <trkpt lat="44.42782" lon="1.35064">
        <ele>282</ele>
        <time>2019-04-14T08:27:48Z</time>
      </trkpt>
      <trkpt lat="44.42775" lon="1.35061">
        <ele>283</ele>
        <time>2019-04-14T08:27:52Z</time>
      </trkpt>
      <trkpt lat="44.42773" lon="1.35061">
        <ele>283</ele>
        <time>2019-04-14T08:27:53Z</time>
      </trkpt>
      <trkpt lat="44.42764" lon="1.35057">
        <ele>284</ele>
        <time>2019-04-14T08:27:58Z</time>
      </trkpt>
      <trkpt lat="44.4276" lon="1.35055">
        <ele>284</ele>
        <time>2019-04-14T08:28:00Z</time>
      </trkpt>
      <trkpt lat="44.42756" lon="1.35053">
        <ele>285</ele>
        <time>2019-04-14T08:28:02Z</time>
      </trkpt>
      <trkpt lat="44.42748" lon="1.35049">
        <ele>286</ele>
        <time>2019-04-14T08:28:07Z</time>
      </trkpt>
      <trkpt lat="44.42747" lon="1.35048">
        <ele>286</ele>
        <time>2019-04-14T08:28:08Z</time>
      </trkpt>
      <trkpt lat="44.4274" lon="1.35044">
        <ele>287</ele>
        <time>2019-04-14T08:28:12Z</time>
      </trkpt>
      <trkpt lat="44.42737" lon="1.35042">
        <ele>288</ele>
        <time>2019-04-14T08:28:14Z</time>
      </trkpt>
      <trkpt lat="44.42733" lon="1.3504">
        <ele>288</ele>
        <time>2019-04-14T08:28:17Z</time>
      </trkpt>
      <trkpt lat="44.42728" lon="1.35038">
        <ele>289</ele>
        <time>2019-04-14T08:28:20Z</time>
      </trkpt>
      <trkpt lat="44.42727" lon="1.35037">
        <ele>290</ele>
        <time>2019-04-14T08:28:21Z</time>
      </trkpt>
      <trkpt lat="44.42719" lon="1.35035">
        <ele>291</ele>
        <time>2019-04-14T08:28:26Z</time>
      </trkpt>
      <trkpt lat="44.42717" lon="1.35035">
        <ele>291</ele>
        <time>2019-04-14T08:28:27Z</time>
      </trkpt>
      <trkpt lat="44.42707" lon="1.35031">
        <ele>292</ele>
        <time>2019-04-14T08:28:33Z</time>
      </trkpt>
      <trkpt lat="44.42699" lon="1.35028">
        <ele>293</ele>
        <time>2019-04-14T08:28:38Z</time>
      </trkpt>
      <trkpt lat="44.42693" lon="1.35027">
        <ele>294</ele>
        <time>2019-04-14T08:28:41Z</time>
      </trkpt>
      <trkpt lat="44.42691" lon="1.35026">
        <ele>294</ele>
        <time>2019-04-14T08:28:42Z</time>
      </trkpt>
      <trkpt lat="44.4269" lon="1.35026">
        <ele>294</ele>
        <time>2019-04-14T08:28:43Z</time>
      </trkpt>
      <trkpt lat="44.42684" lon="1.35024">
        <ele>295</ele>
        <time>2019-04-14T08:28:46Z</time>
      </trkpt>
      <trkpt lat="44.42683" lon="1.35024">
        <ele>295</ele>
        <time>2019-04-14T08:28:47Z</time>
      </trkpt>
      <trkpt lat="44.42672" lon="1.35024">
        <ele>297</ele>
        <time>2019-04-14T08:28:53Z</time>
      </trkpt>
      <trkpt lat="44.42662" lon="1.35024">
        <ele>298</ele>
        <time>2019-04-14T08:28:59Z</time>
      </trkpt>
      <trkpt lat="44.42661" lon="1.35024">
        <ele>298</ele>
        <time>2019-04-14T08:29:00Z</time>
      </trkpt>
      <trkpt lat="44.42652" lon="1.35023">
        <ele>299</ele>
        <time>2019-04-14T08:29:05Z</time>
      </trkpt>
      <trkpt lat="44.42647" lon="1.35023">
        <ele>300</ele>
        <time>2019-04-14T08:29:08Z</time>
      </trkpt>
      <trkpt lat="44.42645" lon="1.35023">
        <ele>301</ele>
        <time>2019-04-14T08:29:09Z</time>
      </trkpt>
      <trkpt lat="44.42636" lon="1.35023">
        <ele>302</ele>
        <time>2019-04-14T08:29:14Z</time>
      </trkpt>
      <trkpt lat="44.42631" lon="1.35022">
        <ele>302</ele>
        <time>2019-04-14T08:29:17Z</time>
      </trkpt>
      <trkpt lat="44.42627" lon="1.35022">
        <ele>303</ele>
        <time>2019-04-14T08:29:19Z</time>
      </trkpt>
      <trkpt lat="44.42619" lon="1.35021">
        <ele>304</ele>
        <time>2019-04-14T08:29:24Z</time>
      </trkpt>
      <trkpt lat="44.42615" lon="1.35021">
        <ele>304</ele>
        <time>2019-04-14T08:29:26Z</time>
      </trkpt>
      <trkpt lat="44.4261" lon="1.35022">
        <ele>305</ele>
        <time>2019-04-14T08:29:29Z</time>
      </trkpt>
      <trkpt lat="44.42603" lon="1.35021">
        <ele>306</ele>
        <time>2019-04-14T08:29:33Z</time>
      </trkpt>
      <trkpt lat="44.42598" lon="1.35021">
        <ele>306</ele>
        <time>2019-04-14T08:29:36Z</time>
      </trkpt>
      <trkpt lat="44.42591" lon="1.3502">
        <ele>307</ele>
        <time>2019-04-14T08:29:40Z</time>
      </trkpt>
      <trkpt lat="44.42587" lon="1.3502">
        <ele>307</ele>
        <time>2019-04-14T08:29:43Z</time>
      </trkpt>
      <trkpt lat="44.42578" lon="1.3502">
        <ele>309</ele>
        <time>2019-04-14T08:29:48Z</time>
      </trkpt>
      <trkpt lat="44.42565" lon="1.3502">
        <ele>310</ele>
        <time>2019-04-14T08:29:55Z</time>
      </trkpt>
      <trkpt lat="44.42563" lon="1.35019">
        <ele>310</ele>
        <time>2019-04-14T08:29:56Z</time>
      </trkpt>
      <trkpt lat="44.42561" lon="1.35017">
        <ele>311</ele>
        <time>2019-04-14T08:29:58Z</time>
      </trkpt>
      <trkpt lat="44.4256" lon="1.35012">
        <ele>311</ele>
        <time>2019-04-14T08:30:00Z</time>
      </trkpt>
      <trkpt lat="44.4256" lon="1.3501">
        <ele>311</ele>
        <time>2019-04-14T08:30:01Z</time>
      </trkpt>
      <trkpt lat="44.42557" lon="1.34992">
        <ele>312</ele>
        <time>2019-04-14T08:30:07Z</time>
      </trkpt>
      <trkpt lat="44.42556" lon="1.34986">
        <ele>312</ele>
        <time>2019-04-14T08:30:09Z</time>
      </trkpt>
      <trkpt lat="44.42551" lon="1.34959">
        <ele>313</ele>
        <time>2019-04-14T08:30:17Z</time>
      </trkpt>
      <trkpt lat="44.42543" lon="1.34922">
        <ele>313</ele>
        <time>2019-04-14T08:30:25Z</time>
      </trkpt>
      <trkpt lat="44.42531" lon="1.34886">
        <ele>312</ele>
        <time>2019-04-14T08:30:32Z</time>
      </trkpt>
      <trkpt lat="44.42525" lon="1.34881">
        <ele>312</ele>
        <time>2019-04-14T08:30:34Z</time>
      </trkpt>
      <trkpt lat="44.42522" lon="1.34881">
        <ele>312</ele>
        <time>2019-04-14T08:30:35Z</time>
      </trkpt>
      <trkpt lat="44.42512" lon="1.34884">
        <ele>314</ele>
        <time>2019-04-14T08:30:39Z</time>
      </trkpt>
      <trkpt lat="44.42505" lon="1.34886">
        <ele>315</ele>
        <time>2019-04-14T08:30:42Z</time>
      </trkpt>
      <trkpt lat="44.42503" lon="1.34887">
        <ele>315</ele>
        <time>2019-04-14T08:30:43Z</time>
      </trkpt>
      <trkpt lat="44.42494" lon="1.3489">
        <ele>316</ele>
        <time>2019-04-14T08:30:47Z</time>
      </trkpt>
      <trkpt lat="44.4249" lon="1.34888">
        <ele>316</ele>
        <time>2019-04-14T08:30:49Z</time>
      </trkpt>
      <trkpt lat="44.42489" lon="1.34886">
        <ele>317</ele>
        <time>2019-04-14T08:30:50Z</time>
      </trkpt>
      <trkpt lat="44.42488" lon="1.34884">
        <ele>317</ele>
        <time>2019-04-14T08:30:51Z</time>
      </trkpt>
      <trkpt lat="44.42482" lon="1.34868">
        <ele>318</ele>
        <time>2019-04-14T08:30:57Z</time>
      </trkpt>
      <trkpt lat="44.42477" lon="1.34852">
        <ele>319</ele>
        <time>2019-04-14T08:31:03Z</time>
      </trkpt>
      <trkpt lat="44.42476" lon="1.3485">
        <ele>319</ele>
        <time>2019-04-14T08:31:04Z</time>
      </trkpt>
      <trkpt lat="44.42473" lon="1.34841">
        <ele>320</ele>
        <time>2019-04-14T08:31:08Z</time>
      </trkpt>
      <trkpt lat="44.42471" lon="1.34835">
        <ele>321</ele>
        <time>2019-04-14T08:31:11Z</time>
      </trkpt>
      <trkpt lat="44.4247" lon="1.34833">
        <ele>322</ele>
        <time>2019-04-14T08:31:12Z</time>
      </trkpt>
      <trkpt lat="44.42467" lon="1.34827">
        <ele>323</ele>
        <time>2019-04-14T08:31:15Z</time>
      </trkpt>
      <trkpt lat="44.42461" lon="1.34821">
        <ele>323</ele>
        <time>2019-04-14T08:31:19Z</time>
      </trkpt>
      <trkpt lat="44.42458" lon="1.34821">
        <ele>324</ele>
        <time>2019-04-14T08:31:21Z</time>
      </trkpt>
      <trkpt lat="44.42453" lon="1.34826">
        <ele>324</ele>
        <time>2019-04-14T08:31:24Z</time>
      </trkpt>
      <trkpt lat="44.42451" lon="1.34829">
        <ele>324</ele>
        <time>2019-04-14T08:31:25Z</time>
      </trkpt>
      <trkpt lat="44.42439" lon="1.34851">
        <ele>325</ele>
        <time>2019-04-14T08:31:32Z</time>
      </trkpt>
      <trkpt lat="44.42428" lon="1.34872">
        <ele>325</ele>
        <time>2019-04-14T08:31:38Z</time>
      </trkpt>
      <trkpt lat="44.42424" lon="1.34878">
        <ele>325</ele>
        <time>2019-04-14T08:31:40Z</time>
      </trkpt>
      <trkpt lat="44.4241" lon="1.34902">
        <ele>325</ele>
        <time>2019-04-14T08:31:47Z</time>
      </trkpt>
      <trkpt lat="44.42404" lon="1.34904">
        <ele>325</ele>
        <time>2019-04-14T08:31:49Z</time>
      </trkpt>
      <trkpt lat="44.42401" lon="1.34902">
        <ele>325</ele>
        <time>2019-04-14T08:31:50Z</time>
      </trkpt>
      <trkpt lat="44.42396" lon="1.34893">
        <ele>325</ele>
        <time>2019-04-14T08:31:53Z</time>
      </trkpt>
      <trkpt lat="44.42394" lon="1.34884">
        <ele>325</ele>
        <time>2019-04-14T08:31:55Z</time>
      </trkpt>
      <trkpt lat="44.42392" lon="1.34875">
        <ele>324</ele>
        <time>2019-04-14T08:31:58Z</time>
      </trkpt>
      <trkpt lat="44.42389" lon="1.34872">
        <ele>324</ele>
        <time>2019-04-14T08:31:59Z</time>
      </trkpt>
      <trkpt lat="44.42384" lon="1.34865">
        <ele>324</ele>
        <time>2019-04-14T08:32:01Z</time>
      </trkpt>
      <trkpt lat="44.42384" lon="1.3486">
        <ele>323</ele>
        <time>2019-04-14T08:32:02Z</time>
      </trkpt>
      <trkpt lat="44.42387" lon="1.3485">
        <ele>322</ele>
        <time>2019-04-14T08:32:05Z</time>
      </trkpt>
      <trkpt lat="44.42395" lon="1.34841">
        <ele>322</ele>
        <time>2019-04-14T08:32:09Z</time>
      </trkpt>
      <trkpt lat="44.42402" lon="1.34834">
        <ele>323</ele>
        <time>2019-04-14T08:32:13Z</time>
      </trkpt>
      <trkpt lat="44.42408" lon="1.34825">
        <ele>323</ele>
        <time>2019-04-14T08:32:17Z</time>
      </trkpt>
      <trkpt lat="44.42406" lon="1.3482">
        <ele>323</ele>
        <time>2019-04-14T08:32:20Z</time>
      </trkpt>
      <trkpt lat="44.42404" lon="1.34811">
        <ele>322</ele>
        <time>2019-04-14T08:32:23Z</time>
      </trkpt>
      <trkpt lat="44.42408" lon="1.348">
        <ele>322</ele>
        <time>2019-04-14T08:32:27Z</time>
      </trkpt>
      <trkpt lat="44.42413" lon="1.34792">
        <ele>322</ele>
        <time>2019-04-14T08:32:30Z</time>
      </trkpt>
      <trkpt lat="44.42415" lon="1.3479">
        <ele>322</ele>
        <time>2019-04-14T08:32:31Z</time>
      </trkpt>
      <trkpt lat="44.4242" lon="1.34782">
        <ele>323</ele>
        <time>2019-04-14T08:32:34Z</time>
      </trkpt>
      <trkpt lat="44.42426" lon="1.34777">
        <ele>323</ele>
        <time>2019-04-14T08:32:37Z</time>
      </trkpt>
      <trkpt lat="44.42428" lon="1.34777">
        <ele>323</ele>
        <time>2019-04-14T08:32:38Z</time>
      </trkpt>
      <trkpt lat="44.42429" lon="1.34777">
        <ele>323</ele>
        <time>2019-04-14T08:32:39Z</time>
      </trkpt>
      <trkpt lat="44.4243" lon="1.34776">
        <ele>324</ele>
        <time>2019-04-14T08:32:40Z</time>
      </trkpt>
      <trkpt lat="44.42431" lon="1.34763">
        <ele>324</ele>
        <time>2019-04-14T08:32:44Z</time>
      </trkpt>
      <trkpt lat="44.4243" lon="1.34754">
        <ele>323</ele>
        <time>2019-04-14T08:32:47Z</time>
      </trkpt>
      <trkpt lat="44.4243" lon="1.3475">
        <ele>323</ele>
        <time>2019-04-14T08:32:48Z</time>
      </trkpt>
      <trkpt lat="44.42429" lon="1.34746">
        <ele>323</ele>
        <time>2019-04-14T08:32:49Z</time>
      </trkpt>
      <trkpt lat="44.42427" lon="1.34742">
        <ele>322</ele>
        <time>2019-04-14T08:32:50Z</time>
      </trkpt>
      <trkpt lat="44.42425" lon="1.34739">
        <ele>322</ele>
        <time>2019-04-14T08:32:51Z</time>
      </trkpt>
      <trkpt lat="44.42427" lon="1.34731">
        <ele>321</ele>
        <time>2019-04-14T08:32:53Z</time>
      </trkpt>
      <trkpt lat="44.42428" lon="1.34727">
        <ele>320</ele>
        <time>2019-04-14T08:32:54Z</time>
      </trkpt>
      <trkpt lat="44.4243" lon="1.34719">
        <ele>320</ele>
        <time>2019-04-14T08:32:56Z</time>
      </trkpt>
      <trkpt lat="44.42429" lon="1.34715">
        <ele>319</ele>
        <time>2019-04-14T08:32:57Z</time>
      </trkpt>
      <trkpt lat="44.42431" lon="1.34709">
        <ele>319</ele>
        <time>2019-04-14T08:32:59Z</time>
      </trkpt>
      <trkpt lat="44.42435" lon="1.34705">
        <ele>318</ele>
        <time>2019-04-14T08:33:01Z</time>
      </trkpt>
      <trkpt lat="44.42438" lon="1.347">
        <ele>318</ele>
        <time>2019-04-14T08:33:03Z</time>
      </trkpt>
      <trkpt lat="44.42444" lon="1.34695">
        <ele>318</ele>
        <time>2019-04-14T08:33:06Z</time>
      </trkpt>
      <trkpt lat="44.42453" lon="1.34685">
        <ele>319</ele>
        <time>2019-04-14T08:33:11Z</time>
      </trkpt>
      <trkpt lat="44.42459" lon="1.34682">
        <ele>319</ele>
        <time>2019-04-14T08:33:14Z</time>
      </trkpt>
      <trkpt lat="44.42461" lon="1.3468">
        <ele>320</ele>
        <time>2019-04-14T08:33:15Z</time>
      </trkpt>
      <trkpt lat="44.42467" lon="1.34672">
        <ele>320</ele>
        <time>2019-04-14T08:33:18Z</time>
      </trkpt>
      <trkpt lat="44.42466" lon="1.34666">
        <ele>320</ele>
        <time>2019-04-14T08:33:20Z</time>
      </trkpt>
      <trkpt lat="44.42465" lon="1.34655">
        <ele>319</ele>
        <time>2019-04-14T08:33:23Z</time>
      </trkpt>
      <trkpt lat="44.42466" lon="1.34653">
        <ele>319</ele>
        <time>2019-04-14T08:33:24Z</time>
      </trkpt>
      <trkpt lat="44.42468" lon="1.34651">
        <ele>318</ele>
        <time>2019-04-14T08:33:25Z</time>
      </trkpt>
      <trkpt lat="44.4247" lon="1.34649">
        <ele>318</ele>
        <time>2019-04-14T08:33:26Z</time>
      </trkpt>
      <trkpt lat="44.4248" lon="1.34633">
        <ele>317</ele>
        <time>2019-04-14T08:33:31Z</time>
      </trkpt>
      <trkpt lat="44.42485" lon="1.34613">
        <ele>316</ele>
        <time>2019-04-14T08:33:35Z</time>
      </trkpt>
      <trkpt lat="44.42487" lon="1.34605">
        <ele>315</ele>
        <time>2019-04-14T08:33:37Z</time>
      </trkpt>
      <trkpt lat="44.42488" lon="1.34601">
        <ele>314</ele>
        <time>2019-04-14T08:33:39Z</time>
      </trkpt>
      <trkpt lat="44.42486" lon="1.34592">
        <ele>313</ele>
        <time>2019-04-14T08:33:42Z</time>
      </trkpt>
      <trkpt lat="44.42487" lon="1.34589">
        <ele>312</ele>
        <time>2019-04-14T08:33:43Z</time>
      </trkpt>
      <trkpt lat="44.42488" lon="1.34585">
        <ele>312</ele>
        <time>2019-04-14T08:33:44Z</time>
      </trkpt>
      <trkpt lat="44.4249" lon="1.34581">
        <ele>311</ele>
        <time>2019-04-14T08:33:45Z</time>
      </trkpt>
      <trkpt lat="44.42493" lon="1.34578">
        <ele>311</ele>
        <time>2019-04-14T08:33:46Z</time>
      </trkpt>
      <trkpt lat="44.42494" lon="1.34575">
        <ele>311</ele>
        <time>2019-04-14T08:33:47Z</time>
      </trkpt>
      <trkpt lat="44.42494" lon="1.34569">
        <ele>310</ele>
        <time>2019-04-14T08:33:49Z</time>
      </trkpt>
      <trkpt lat="44.42494" lon="1.34566">
        <ele>310</ele>
        <time>2019-04-14T08:33:50Z</time>
      </trkpt>
      <trkpt lat="44.42497" lon="1.34561">
        <ele>309</ele>
        <time>2019-04-14T08:33:52Z</time>
      </trkpt>
      <trkpt lat="44.425" lon="1.34548">
        <ele>308</ele>
        <time>2019-04-14T08:33:55Z</time>
      </trkpt>
      <trkpt lat="44.42503" lon="1.34543">
        <ele>307</ele>
        <time>2019-04-14T08:33:56Z</time>
      </trkpt>
      <trkpt lat="44.42506" lon="1.34538">
        <ele>306</ele>
        <time>2019-04-14T08:33:57Z</time>
      </trkpt>
      <trkpt lat="44.42511" lon="1.34531">
        <ele>305</ele>
        <time>2019-04-14T08:33:59Z</time>
      </trkpt>
      <trkpt lat="44.42514" lon="1.34529">
        <ele>304</ele>
        <time>2019-04-14T08:34:00Z</time>
      </trkpt>
      <trkpt lat="44.42515" lon="1.34528">
        <ele>303</ele>
        <time>2019-04-14T08:34:01Z</time>
      </trkpt>
      <trkpt lat="44.42519" lon="1.34529">
        <ele>303</ele>
        <time>2019-04-14T08:34:03Z</time>
      </trkpt>
      <trkpt lat="44.42521" lon="1.34529">
        <ele>304</ele>
        <time>2019-04-14T08:34:04Z</time>
      </trkpt>
      <trkpt lat="44.42527" lon="1.34528">
        <ele>304</ele>
        <time>2019-04-14T08:34:06Z</time>
      </trkpt>
      <trkpt lat="44.42533" lon="1.34527">
        <ele>305</ele>
        <time>2019-04-14T08:34:08Z</time>
      </trkpt>
      <trkpt lat="44.4254" lon="1.3453">
        <ele>305</ele>
        <time>2019-04-14T08:34:11Z</time>
      </trkpt>
      <trkpt lat="44.42542" lon="1.34529">
        <ele>305</ele>
        <time>2019-04-14T08:34:12Z</time>
      </trkpt>
      <trkpt lat="44.42554" lon="1.34533">
        <ele>306</ele>
        <time>2019-04-14T08:34:17Z</time>
      </trkpt>
      <trkpt lat="44.42564" lon="1.3454">
        <ele>306</ele>
        <time>2019-04-14T08:34:22Z</time>
      </trkpt>
      <trkpt lat="44.42566" lon="1.34541">
        <ele>306</ele>
        <time>2019-04-14T08:34:23Z</time>
      </trkpt>
      <trkpt lat="44.42572" lon="1.34539">
        <ele>306</ele>
        <time>2019-04-14T08:34:25Z</time>
      </trkpt>
      <trkpt lat="44.42584" lon="1.34531">
        <ele>304</ele>
        <time>2019-04-14T08:34:29Z</time>
      </trkpt>
      <trkpt lat="44.42587" lon="1.34533">
        <ele>304</ele>
        <time>2019-04-14T08:34:30Z</time>
      </trkpt>
      <trkpt lat="44.42589" lon="1.34534">
        <ele>303</ele>
        <time>2019-04-14T08:34:31Z</time>
      </trkpt>
      <trkpt lat="44.42594" lon="1.34532">
        <ele>302</ele>
        <time>2019-04-14T08:34:33Z</time>
      </trkpt>
      <trkpt lat="44.42598" lon="1.3453">
        <ele>302</ele>
        <time>2019-04-14T08:34:35Z</time>
      </trkpt>
      <trkpt lat="44.42602" lon="1.34533">
        <ele>301</ele>
        <time>2019-04-14T08:34:37Z</time>
      </trkpt>
      <trkpt lat="44.42607" lon="1.34548">
        <ele>301</ele>
        <time>2019-04-14T08:34:41Z</time>
      </trkpt>
      <trkpt lat="44.42612" lon="1.34553">
        <ele>302</ele>
        <time>2019-04-14T08:34:44Z</time>
      </trkpt>
      <trkpt lat="44.42619" lon="1.34547">
        <ele>302</ele>
        <time>2019-04-14T08:34:46Z</time>
      </trkpt>
      <trkpt lat="44.42623" lon="1.34545">
        <ele>302</ele>
        <time>2019-04-14T08:34:47Z</time>
      </trkpt>
      <trkpt lat="44.42632" lon="1.34543">
        <ele>300</ele>
        <time>2019-04-14T08:34:49Z</time>
      </trkpt>
      <trkpt lat="44.42637" lon="1.34545">
        <ele>299</ele>
        <time>2019-04-14T08:34:50Z</time>
      </trkpt>
      <trkpt lat="44.42641" lon="1.34546">
        <ele>298</ele>
        <time>2019-04-14T08:34:51Z</time>
      </trkpt>
      <trkpt lat="44.42647" lon="1.34548">
        <ele>296</ele>
        <time>2019-04-14T08:34:53Z</time>
      </trkpt>
      <trkpt lat="44.4265" lon="1.3455">
        <ele>295</ele>
        <time>2019-04-14T08:34:54Z</time>
      </trkpt>
      <trkpt lat="44.42654" lon="1.34553">
        <ele>295</ele>
        <time>2019-04-14T08:34:55Z</time>
      </trkpt>
      <trkpt lat="44.42658" lon="1.34562">
        <ele>294</ele>
        <time>2019-04-14T08:34:57Z</time>
      </trkpt>
      <trkpt lat="44.42661" lon="1.34578">
        <ele>293</ele>
        <time>2019-04-14T08:35:01Z</time>
      </trkpt>
      <trkpt lat="44.42672" lon="1.34595">
        <ele>293</ele>
        <time>2019-04-14T08:35:06Z</time>
      </trkpt>
      <trkpt lat="44.42693" lon="1.34615">
        <ele>293</ele>
        <time>2019-04-14T08:35:12Z</time>
      </trkpt>
      <trkpt lat="44.4271" lon="1.34635">
        <ele>293</ele>
        <time>2019-04-14T08:35:18Z</time>
      </trkpt>
      <trkpt lat="44.42716" lon="1.34643">
        <ele>293</ele>
        <time>2019-04-14T08:35:20Z</time>
      </trkpt>
      <trkpt lat="44.42719" lon="1.34649">
        <ele>293</ele>
        <time>2019-04-14T08:35:22Z</time>
      </trkpt>
      <trkpt lat="44.42721" lon="1.34649">
        <ele>292</ele>
        <time>2019-04-14T08:35:23Z</time>
      </trkpt>
      <trkpt lat="44.4273" lon="1.34652">
        <ele>292</ele>
        <time>2019-04-14T08:35:26Z</time>
      </trkpt>
      <trkpt lat="44.42739" lon="1.34658">
        <ele>291</ele>
        <time>2019-04-14T08:35:29Z</time>
      </trkpt>
      <trkpt lat="44.4274" lon="1.3466">
        <ele>291</ele>
        <time>2019-04-14T08:35:30Z</time>
      </trkpt>
      <trkpt lat="44.42745" lon="1.34673">
        <ele>290</ele>
        <time>2019-04-14T08:35:34Z</time>
      </trkpt>
      <trkpt lat="44.42751" lon="1.34679">
        <ele>290</ele>
        <time>2019-04-14T08:35:36Z</time>
      </trkpt>
      <trkpt lat="44.42753" lon="1.34687">
        <ele>289</ele>
        <time>2019-04-14T08:35:38Z</time>
      </trkpt>
      <trkpt lat="44.42753" lon="1.34691">
        <ele>289</ele>
        <time>2019-04-14T08:35:39Z</time>
      </trkpt>
      <trkpt lat="44.42751" lon="1.34702">
        <ele>288</ele>
        <time>2019-04-14T08:35:42Z</time>
      </trkpt>
      <trkpt lat="44.42745" lon="1.34711">
        <ele>288</ele>
        <time>2019-04-14T08:35:46Z</time>
      </trkpt>
      <trkpt lat="44.42742" lon="1.34706">
        <ele>289</ele>
        <time>2019-04-14T08:35:49Z</time>
      </trkpt>
      <trkpt lat="44.4274" lon="1.34704">
        <ele>290</ele>
        <time>2019-04-14T08:35:51Z</time>
      </trkpt>
      <trkpt lat="44.42738" lon="1.34704">
        <ele>290</ele>
        <time>2019-04-14T08:35:52Z</time>
      </trkpt>
      <trkpt lat="44.42735" lon="1.34703">
        <ele>291</ele>
        <time>2019-04-14T08:35:54Z</time>
      </trkpt>
      <trkpt lat="44.42731" lon="1.34702">
        <ele>291</ele>
        <time>2019-04-14T08:35:56Z</time>
      </trkpt>
      <trkpt lat="44.42727" lon="1.34701">
        <ele>292</ele>
        <time>2019-04-14T08:35:58Z</time>
      </trkpt>
      <trkpt lat="44.4272" lon="1.347">
        <ele>294</ele>
        <time>2019-04-14T08:36:01Z</time>
      </trkpt>
      <trkpt lat="44.42716" lon="1.347">
        <ele>294</ele>
        <time>2019-04-14T08:36:03Z</time>
      </trkpt>
      <trkpt lat="44.42714" lon="1.347">
        <ele>295</ele>
        <time>2019-04-14T08:36:04Z</time>
      </trkpt>
      <trkpt lat="44.42711" lon="1.34705">
        <ele>295</ele>
        <time>2019-04-14T08:36:06Z</time>
      </trkpt>
      <trkpt lat="44.42709" lon="1.34706">
        <ele>295</ele>
        <time>2019-04-14T08:36:07Z</time>
      </trkpt>
      <trkpt lat="44.42699" lon="1.34707">
        <ele>296</ele>
        <time>2019-04-14T08:36:11Z</time>
      </trkpt>
      <trkpt lat="44.42695" lon="1.34707">
        <ele>297</ele>
        <time>2019-04-14T08:36:14Z</time>
      </trkpt>
      <trkpt lat="44.42691" lon="1.34708">
        <ele>297</ele>
        <time>2019-04-14T08:36:16Z</time>
      </trkpt>
      <trkpt lat="44.42687" lon="1.34712">
        <ele>298</ele>
        <time>2019-04-14T08:36:18Z</time>
      </trkpt>
      <trkpt lat="44.42681" lon="1.34717">
        <ele>299</ele>
        <time>2019-04-14T08:36:21Z</time>
      </trkpt>
      <trkpt lat="44.42675" lon="1.34718">
        <ele>299</ele>
        <time>2019-04-14T08:36:24Z</time>
      </trkpt>
      <trkpt lat="44.42672" lon="1.34719">
        <ele>300</ele>
        <time>2019-04-14T08:36:26Z</time>
      </trkpt>
      <trkpt lat="44.42666" lon="1.3472">
        <ele>300</ele>
        <time>2019-04-14T08:36:29Z</time>
      </trkpt>
      <trkpt lat="44.4266" lon="1.34719">
        <ele>301</ele>
        <time>2019-04-14T08:36:32Z</time>
      </trkpt>
      <trkpt lat="44.42658" lon="1.34723">
        <ele>301</ele>
        <time>2019-04-14T08:36:34Z</time>
      </trkpt>
      <trkpt lat="44.42654" lon="1.34731">
        <ele>301</ele>
        <time>2019-04-14T08:36:37Z</time>
      </trkpt>
      <trkpt lat="44.42643" lon="1.34741">
        <ele>302</ele>
        <time>2019-04-14T08:36:42Z</time>
      </trkpt>
      <trkpt lat="44.4263" lon="1.34753">
        <ele>302</ele>
        <time>2019-04-14T08:36:48Z</time>
      </trkpt>
      <trkpt lat="44.42626" lon="1.34756">
        <ele>302</ele>
        <time>2019-04-14T08:36:50Z</time>
      </trkpt>
      <trkpt lat="44.42616" lon="1.34765">
        <ele>303</ele>
        <time>2019-04-14T08:36:54Z</time>
      </trkpt>
      <trkpt lat="44.42608" lon="1.3477">
        <ele>304</ele>
        <time>2019-04-14T08:36:58Z</time>
      </trkpt>
      <trkpt lat="44.42596" lon="1.34781">
        <ele>304</ele>
        <time>2019-04-14T08:37:03Z</time>
      </trkpt>
      <trkpt lat="44.42589" lon="1.34786">
        <ele>305</ele>
        <time>2019-04-14T08:37:06Z</time>
      </trkpt>
      <trkpt lat="44.42588" lon="1.34788">
        <ele>305</ele>
        <time>2019-04-14T08:37:07Z</time>
      </trkpt>
      <trkpt lat="44.42587" lon="1.3479">
        <ele>305</ele>
        <time>2019-04-14T08:37:08Z</time>
      </trkpt>
      <trkpt lat="44.42585" lon="1.34803">
        <ele>305</ele>
        <time>2019-04-14T08:37:12Z</time>
      </trkpt>
      <trkpt lat="44.42585" lon="1.34807">
        <ele>305</ele>
        <time>2019-04-14T08:37:13Z</time>
      </trkpt>
      <trkpt lat="44.42583" lon="1.34818">
        <ele>305</ele>
        <time>2019-04-14T08:37:16Z</time>
      </trkpt>
      <trkpt lat="44.42585" lon="1.34829">
        <ele>305</ele>
        <time>2019-04-14T08:37:18Z</time>
      </trkpt>
      <trkpt lat="44.42589" lon="1.34843">
        <ele>304</ele>
        <time>2019-04-14T08:37:20Z</time>
      </trkpt>
      <trkpt lat="44.42595" lon="1.34855">
        <ele>303</ele>
        <time>2019-04-14T08:37:22Z</time>
      </trkpt>
      <trkpt lat="44.42599" lon="1.3486">
        <ele>303</ele>
        <time>2019-04-14T08:37:23Z</time>
      </trkpt>
      <trkpt lat="44.42605" lon="1.34863">
        <ele>302</ele>
        <time>2019-04-14T08:37:25Z</time>
      </trkpt>
      <trkpt lat="44.4261" lon="1.34867">
        <ele>302</ele>
        <time>2019-04-14T08:37:27Z</time>
      </trkpt>
      <trkpt lat="44.42619" lon="1.34877">
        <ele>301</ele>
        <time>2019-04-14T08:37:31Z</time>
      </trkpt>
      <trkpt lat="44.42621" lon="1.34879">
        <ele>301</ele>
        <time>2019-04-14T08:37:32Z</time>
      </trkpt>
      <trkpt lat="44.42633" lon="1.34889">
        <ele>302</ele>
        <time>2019-04-14T08:37:37Z</time>
      </trkpt>
      <trkpt lat="44.42646" lon="1.34899">
        <ele>301</ele>
        <time>2019-04-14T08:37:42Z</time>
      </trkpt>
      <trkpt lat="44.42655" lon="1.34915">
        <ele>300</ele>
        <time>2019-04-14T08:37:47Z</time>
      </trkpt>
      <trkpt lat="44.42661" lon="1.34924">
        <ele>300</ele>
        <time>2019-04-14T08:37:50Z</time>
      </trkpt>
      <trkpt lat="44.42667" lon="1.3493">
        <ele>300</ele>
        <time>2019-04-14T08:37:52Z</time>
      </trkpt>
      <trkpt lat="44.42672" lon="1.34938">
        <ele>299</ele>
        <time>2019-04-14T08:37:54Z</time>
      </trkpt>
      <trkpt lat="44.42679" lon="1.34935">
        <ele>299</ele>
        <time>2019-04-14T08:37:57Z</time>
      </trkpt>
      <trkpt lat="44.42686" lon="1.34935">
        <ele>297</ele>
        <time>2019-04-14T08:38:00Z</time>
      </trkpt>
      <trkpt lat="44.4269" lon="1.34937">
        <ele>297</ele>
        <time>2019-04-14T08:38:01Z</time>
      </trkpt>
      <trkpt lat="44.42698" lon="1.34941">
        <ele>296</ele>
        <time>2019-04-14T08:38:03Z</time>
      </trkpt>
      <trkpt lat="44.42709" lon="1.34948">
        <ele>295</ele>
        <time>2019-04-14T08:38:06Z</time>
      </trkpt>
      <trkpt lat="44.42713" lon="1.3495">
        <ele>294</ele>
        <time>2019-04-14T08:38:07Z</time>
      </trkpt>
      <trkpt lat="44.42715" lon="1.34952">
        <ele>294</ele>
        <time>2019-04-14T08:38:08Z</time>
      </trkpt>
      <trkpt lat="44.42717" lon="1.34959">
        <ele>292</ele>
        <time>2019-04-14T08:38:10Z</time>
      </trkpt>
      <trkpt lat="44.4272" lon="1.34974">
        <ele>292</ele>
        <time>2019-04-14T08:38:14Z</time>
      </trkpt>
      <trkpt lat="44.42722" lon="1.34984">
        <ele>292</ele>
        <time>2019-04-14T08:38:17Z</time>
      </trkpt>
      <trkpt lat="44.42727" lon="1.35005">
        <ele>292</ele>
        <time>2019-04-14T08:38:22Z</time>
      </trkpt>
      <trkpt lat="44.42732" lon="1.35014">
        <ele>291</ele>
        <time>2019-04-14T08:38:24Z</time>
      </trkpt>
      <trkpt lat="44.42738" lon="1.35015">
        <ele>291</ele>
        <time>2019-04-14T08:38:26Z</time>
      </trkpt>
      <trkpt lat="44.42744" lon="1.35017">
        <ele>289</ele>
        <time>2019-04-14T08:38:28Z</time>
      </trkpt>
      <trkpt lat="44.42747" lon="1.35018">
        <ele>288</ele>
        <time>2019-04-14T08:38:29Z</time>
      </trkpt>
      <trkpt lat="44.4275" lon="1.35017">
        <ele>287</ele>
        <time>2019-04-14T08:38:30Z</time>
      </trkpt>
      <trkpt lat="44.42755" lon="1.35015">
        <ele>286</ele>
        <time>2019-04-14T08:38:32Z</time>
      </trkpt>
      <trkpt lat="44.42757" lon="1.35014">
        <ele>286</ele>
        <time>2019-04-14T08:38:33Z</time>
      </trkpt>
      <trkpt lat="44.42758" lon="1.35013">
        <ele>285</ele>
        <time>2019-04-14T08:38:34Z</time>
      </trkpt>
      <trkpt lat="44.42759" lon="1.35006">
        <ele>284</ele>
        <time>2019-04-14T08:38:36Z</time>
      </trkpt>
      <trkpt lat="44.42759" lon="1.35002">
        <ele>284</ele>
        <time>2019-04-14T08:38:37Z</time>
      </trkpt>
      <trkpt lat="44.42763" lon="1.34997">
        <ele>284</ele>
        <time>2019-04-14T08:38:39Z</time>
      </trkpt>
      <trkpt lat="44.42768" lon="1.34998">
        <ele>283</ele>
        <time>2019-04-14T08:38:41Z</time>
      </trkpt>
      <trkpt lat="44.42771" lon="1.35">
        <ele>282</ele>
        <time>2019-04-14T08:38:42Z</time>
      </trkpt>
      <trkpt lat="44.42773" lon="1.35002">
        <ele>281</ele>
        <time>2019-04-14T08:38:43Z</time>
      </trkpt>
      <trkpt lat="44.42774" lon="1.35005">
        <ele>281</ele>
        <time>2019-04-14T08:38:44Z</time>
      </trkpt>
      <trkpt lat="44.42775" lon="1.35007">
        <ele>280</ele>
        <time>2019-04-14T08:38:45Z</time>
      </trkpt>
      <trkpt lat="44.42774" lon="1.3501">
        <ele>280</ele>
        <time>2019-04-14T08:38:47Z</time>
      </trkpt>
      <trkpt lat="44.42777" lon="1.35015">
        <ele>281</ele>
        <time>2019-04-14T08:38:49Z</time>
      </trkpt>
      <trkpt lat="44.42779" lon="1.35021">
        <ele>281</ele>
        <time>2019-04-14T08:38:52Z</time>
      </trkpt>
      <trkpt lat="44.4278" lon="1.35021">
        <ele>281</ele>
        <time>2019-04-14T08:38:53Z</time>
      </trkpt>
      <trkpt lat="44.42782" lon="1.35022">
        <ele>281</ele>
        <time>2019-04-14T08:38:55Z</time>
      </trkpt>
      <trkpt lat="44.42788" lon="1.35024">
        <ele>281</ele>
        <time>2019-04-14T08:38:58Z</time>
      </trkpt>
      <trkpt lat="44.42794" lon="1.35035">
        <ele>280</ele>
        <time>2019-04-14T08:39:02Z</time>
      </trkpt>
      <trkpt lat="44.42801" lon="1.35044">
        <ele>280</ele>
        <time>2019-04-14T08:39:05Z</time>
      </trkpt>
      <trkpt lat="44.42805" lon="1.35051">
        <ele>280</ele>
        <time>2019-04-14T08:39:07Z</time>
      </trkpt>
      <trkpt lat="44.4281" lon="1.35054">
        <ele>280</ele>
        <time>2019-04-14T08:39:09Z</time>
      </trkpt>
      <trkpt lat="44.42815" lon="1.35053">
        <ele>280</ele>
        <time>2019-04-14T08:39:11Z</time>
      </trkpt>
      <trkpt lat="44.42818" lon="1.35053">
        <ele>279</ele>
        <time>2019-04-14T08:39:12Z</time>
      </trkpt>
      <trkpt lat="44.42821" lon="1.35053">
        <ele>279</ele>
        <time>2019-04-14T08:39:13Z</time>
      </trkpt>
      <trkpt lat="44.42824" lon="1.35052">
        <ele>278</ele>
        <time>2019-04-14T08:39:14Z</time>
      </trkpt>
      <trkpt lat="44.42827" lon="1.35051">
        <ele>278</ele>
        <time>2019-04-14T08:39:15Z</time>
      </trkpt>
      <trkpt lat="44.42834" lon="1.35052">
        <ele>277</ele>
        <time>2019-04-14T08:39:17Z</time>
      </trkpt>
      <trkpt lat="44.42847" lon="1.35057">
        <ele>276</ele>
        <time>2019-04-14T08:39:20Z</time>
      </trkpt>
      <trkpt lat="44.42851" lon="1.35059">
        <ele>275</ele>
        <time>2019-04-14T08:39:21Z</time>
      </trkpt>
      <trkpt lat="44.42855" lon="1.35059">
        <ele>275</ele>
        <time>2019-04-14T08:39:22Z</time>
      </trkpt>
      <trkpt lat="44.42864" lon="1.35055">
        <ele>274</ele>
        <time>2019-04-14T08:39:24Z</time>
      </trkpt>
      <trkpt lat="44.42868" lon="1.35054">
        <ele>273</ele>
        <time>2019-04-14T08:39:25Z</time>
      </trkpt>
      <trkpt lat="44.42876" lon="1.35051">
        <ele>272</ele>
        <time>2019-04-14T08:39:27Z</time>
      </trkpt>
      <trkpt lat="44.42881" lon="1.35051">
        <ele>271</ele>
        <time>2019-04-14T08:39:28Z</time>
      </trkpt>
      <trkpt lat="44.42884" lon="1.35052">
        <ele>270</ele>
        <time>2019-04-14T08:39:29Z</time>
      </trkpt>
      <trkpt lat="44.42892" lon="1.3505">
        <ele>269</ele>
        <time>2019-04-14T08:39:31Z</time>
      </trkpt>
      <trkpt lat="44.42897" lon="1.35041">
        <ele>268</ele>
        <time>2019-04-14T08:39:34Z</time>
      </trkpt>
      <trkpt lat="44.42901" lon="1.35039">
        <ele>266</ele>
        <time>2019-04-14T08:39:36Z</time>
      </trkpt>
      <trkpt lat="44.42906" lon="1.35039">
        <ele>265</ele>
        <time>2019-04-14T08:39:38Z</time>
      </trkpt>
      <trkpt lat="44.42909" lon="1.3504">
        <ele>265</ele>
        <time>2019-04-14T08:39:39Z</time>
      </trkpt>
      <trkpt lat="44.42919" lon="1.35036">
        <ele>264</ele>
        <time>2019-04-14T08:39:42Z</time>
      </trkpt>
      <trkpt lat="44.42926" lon="1.35032">
        <ele>262</ele>
        <time>2019-04-14T08:39:44Z</time>
      </trkpt>
      <trkpt lat="44.42932" lon="1.35034">
        <ele>260</ele>
        <time>2019-04-14T08:39:46Z</time>
      </trkpt>
      <trkpt lat="44.4294" lon="1.35036">
        <ele>259</ele>
        <time>2019-04-14T08:39:49Z</time>
      </trkpt>
      <trkpt lat="44.42943" lon="1.35029">
        <ele>258</ele>
        <time>2019-04-14T08:39:52Z</time>
      </trkpt>
      <trkpt lat="44.42944" lon="1.35027">
        <ele>257</ele>
        <time>2019-04-14T08:39:53Z</time>
      </trkpt>
      <trkpt lat="44.42948" lon="1.35025">
        <ele>256</ele>
        <time>2019-04-14T08:39:56Z</time>
      </trkpt>
      <trkpt lat="44.4295" lon="1.35025">
        <ele>256</ele>
        <time>2019-04-14T08:39:57Z</time>
      </trkpt>
      <trkpt lat="44.42951" lon="1.35026">
        <ele>256</ele>
        <time>2019-04-14T08:39:58Z</time>
      </trkpt>
      <trkpt lat="44.42955" lon="1.35025">
        <ele>255</ele>
        <time>2019-04-14T08:40:00Z</time>
      </trkpt>
      <trkpt lat="44.42957" lon="1.35023">
        <ele>255</ele>
        <time>2019-04-14T08:40:01Z</time>
      </trkpt>
      <trkpt lat="44.42961" lon="1.35022">
        <ele>255</ele>
        <time>2019-04-14T08:40:02Z</time>
      </trkpt>
      <trkpt lat="44.42964" lon="1.35021">
        <ele>255</ele>
        <time>2019-04-14T08:40:03Z</time>
      </trkpt>
      <trkpt lat="44.42968" lon="1.3502">
        <ele>254</ele>
        <time>2019-04-14T08:40:04Z</time>
      </trkpt>
      <trkpt lat="44.42972" lon="1.35019">
        <ele>253</ele>
        <time>2019-04-14T08:40:05Z</time>
      </trkpt>
      <trkpt lat="44.42975" lon="1.35018">
        <ele>252</ele>
        <time>2019-04-14T08:40:06Z</time>
      </trkpt>
      <trkpt lat="44.42987" lon="1.35017">
        <ele>251</ele>
        <time>2019-04-14T08:40:09Z</time>
      </trkpt>
      <trkpt lat="44.42991" lon="1.35015">
        <ele>250</ele>
        <time>2019-04-14T08:40:10Z</time>
      </trkpt>
      <trkpt lat="44.42995" lon="1.35013">
        <ele>249</ele>
        <time>2019-04-14T08:40:11Z</time>
      </trkpt>
      <trkpt lat="44.43004" lon="1.3501">
        <ele>248</ele>
        <time>2019-04-14T08:40:13Z</time>
      </trkpt>
      <trkpt lat="44.43008" lon="1.35009">
        <ele>248</ele>
        <time>2019-04-14T08:40:14Z</time>
      </trkpt>
      <trkpt lat="44.43016" lon="1.35002">
        <ele>247</ele>
        <time>2019-04-14T08:40:16Z</time>
      </trkpt>
      <trkpt lat="44.43023" lon="1.34995">
        <ele>245</ele>
        <time>2019-04-14T08:40:18Z</time>
      </trkpt>
      <trkpt lat="44.43026" lon="1.34993">
        <ele>244</ele>
        <time>2019-04-14T08:40:19Z</time>
      </trkpt>
      <trkpt lat="44.43029" lon="1.34991">
        <ele>243</ele>
        <time>2019-04-14T08:40:20Z</time>
      </trkpt>
      <trkpt lat="44.43032" lon="1.34988">
        <ele>242</ele>
        <time>2019-04-14T08:40:21Z</time>
      </trkpt>
      <trkpt lat="44.43034" lon="1.34984">
        <ele>241</ele>
        <time>2019-04-14T08:40:22Z</time>
      </trkpt>
      <trkpt lat="44.43036" lon="1.34982">
        <ele>240</ele>
        <time>2019-04-14T08:40:23Z</time>
      </trkpt>
      <trkpt lat="44.43042" lon="1.34981">
        <ele>238</ele>
        <time>2019-04-14T08:40:25Z</time>
      </trkpt>
      <trkpt lat="44.43048" lon="1.34983">
        <ele>237</ele>
        <time>2019-04-14T08:40:27Z</time>
      </trkpt>
      <trkpt lat="44.43051" lon="1.34985">
        <ele>237</ele>
        <time>2019-04-14T08:40:28Z</time>
      </trkpt>
      <trkpt lat="44.43055" lon="1.34989">
        <ele>237</ele>
        <time>2019-04-14T08:40:30Z</time>
      </trkpt>
      <trkpt lat="44.43068" lon="1.34984">
        <ele>236</ele>
        <time>2019-04-14T08:40:34Z</time>
      </trkpt>
      <trkpt lat="44.43071" lon="1.3498">
        <ele>235</ele>
        <time>2019-04-14T08:40:35Z</time>
      </trkpt>
      <trkpt lat="44.43073" lon="1.34977">
        <ele>234</ele>
        <time>2019-04-14T08:40:36Z</time>
      </trkpt>
      <trkpt lat="44.43075" lon="1.34975">
        <ele>233</ele>
        <time>2019-04-14T08:40:37Z</time>
      </trkpt>
      <trkpt lat="44.43077" lon="1.34974">
        <ele>232</ele>
        <time>2019-04-14T08:40:38Z</time>
      </trkpt>
      <trkpt lat="44.43084" lon="1.34975">
        <ele>230</ele>
        <time>2019-04-14T08:40:40Z</time>
      </trkpt>
      <trkpt lat="44.43087" lon="1.34977">
        <ele>230</ele>
        <time>2019-04-14T08:40:41Z</time>
      </trkpt>
      <trkpt lat="44.43091" lon="1.34979">
        <ele>229</ele>
        <time>2019-04-14T08:40:42Z</time>
      </trkpt>
      <trkpt lat="44.43098" lon="1.34983">
        <ele>228</ele>
        <time>2019-04-14T08:40:44Z</time>
      </trkpt>
      <trkpt lat="44.43101" lon="1.34986">
        <ele>227</ele>
        <time>2019-04-14T08:40:45Z</time>
      </trkpt>
      <trkpt lat="44.43104" lon="1.34987">
        <ele>226</ele>
        <time>2019-04-14T08:40:46Z</time>
      </trkpt>
      <trkpt lat="44.4311" lon="1.34988">
        <ele>224</ele>
        <time>2019-04-14T08:40:48Z</time>
      </trkpt>
      <trkpt lat="44.43116" lon="1.34993">
        <ele>223</ele>
        <time>2019-04-14T08:40:50Z</time>
      </trkpt>
      <trkpt lat="44.43123" lon="1.34996">
        <ele>221</ele>
        <time>2019-04-14T08:40:52Z</time>
      </trkpt>
      <trkpt lat="44.43128" lon="1.34992">
        <ele>220</ele>
        <time>2019-04-14T08:40:54Z</time>
      </trkpt>
      <trkpt lat="44.4313" lon="1.3499">
        <ele>219</ele>
        <time>2019-04-14T08:40:55Z</time>
      </trkpt>
      <trkpt lat="44.43132" lon="1.34991">
        <ele>218</ele>
        <time>2019-04-14T08:40:56Z</time>
      </trkpt>
      <trkpt lat="44.43135" lon="1.34995">
        <ele>216</ele>
        <time>2019-04-14T08:40:58Z</time>
      </trkpt>
      <trkpt lat="44.4314" lon="1.34998">
        <ele>215</ele>
        <time>2019-04-14T08:41:01Z</time>
      </trkpt>
      <trkpt lat="44.43144" lon="1.34992">
        <ele>214</ele>
        <time>2019-04-14T08:41:05Z</time>
      </trkpt>
      <trkpt lat="44.43143" lon="1.34988">
        <ele>212</ele>
        <time>2019-04-14T08:41:07Z</time>
      </trkpt>
      <trkpt lat="44.43143" lon="1.34984">
        <ele>211</ele>
        <time>2019-04-14T08:41:09Z</time>
      </trkpt>
      <trkpt lat="44.43147" lon="1.3498">
        <ele>211</ele>
        <time>2019-04-14T08:41:11Z</time>
      </trkpt>
      <trkpt lat="44.4315" lon="1.34977">
        <ele>210</ele>
        <time>2019-04-14T08:41:13Z</time>
      </trkpt>
      <trkpt lat="44.43151" lon="1.34977">
        <ele>208</ele>
        <time>2019-04-14T08:41:14Z</time>
      </trkpt>
      <trkpt lat="44.43154" lon="1.34978">
        <ele>207</ele>
        <time>2019-04-14T08:41:16Z</time>
      </trkpt>
      <trkpt lat="44.43155" lon="1.3498">
        <ele>206</ele>
        <time>2019-04-14T08:41:17Z</time>
      </trkpt>
      <trkpt lat="44.43157" lon="1.34985">
        <ele>206</ele>
        <time>2019-04-14T08:41:19Z</time>
      </trkpt>
      <trkpt lat="44.4316" lon="1.34985">
        <ele>205</ele>
        <time>2019-04-14T08:41:21Z</time>
      </trkpt>
      <trkpt lat="44.43162" lon="1.34983">
        <ele>205</ele>
        <time>2019-04-14T08:41:22Z</time>
      </trkpt>
      <trkpt lat="44.43167" lon="1.34976">
        <ele>203</ele>
        <time>2019-04-14T08:41:24Z</time>
      </trkpt>
      <trkpt lat="44.43168" lon="1.34974">
        <ele>203</ele>
        <time>2019-04-14T08:41:25Z</time>
      </trkpt>
      <trkpt lat="44.4317" lon="1.34972">
        <ele>202</ele>
        <time>2019-04-14T08:41:26Z</time>
      </trkpt>
      <trkpt lat="44.43172" lon="1.34973">
        <ele>201</ele>
        <time>2019-04-14T08:41:27Z</time>
      </trkpt>
      <trkpt lat="44.43174" lon="1.34975">
        <ele>199</ele>
        <time>2019-04-14T08:41:29Z</time>
      </trkpt>
      <trkpt lat="44.43182" lon="1.3498">
        <ele>198</ele>
        <time>2019-04-14T08:41:33Z</time>
      </trkpt>
      <trkpt lat="44.43183" lon="1.34982">
        <ele>197</ele>
        <time>2019-04-14T08:41:34Z</time>
      </trkpt>
      <trkpt lat="44.43184" lon="1.34984">
        <ele>196</ele>
        <time>2019-04-14T08:41:35Z</time>
      </trkpt>
      <trkpt lat="44.43193" lon="1.34991">
        <ele>195</ele>
        <time>2019-04-14T08:41:38Z</time>
      </trkpt>
      <trkpt lat="44.432" lon="1.34997">
        <ele>194</ele>
        <time>2019-04-14T08:41:40Z</time>
      </trkpt>
      <trkpt lat="44.43203" lon="1.34999">
        <ele>193</ele>
        <time>2019-04-14T08:41:41Z</time>
      </trkpt>
      <trkpt lat="44.43206" lon="1.34998">
        <ele>193</ele>
        <time>2019-04-14T08:41:42Z</time>
      </trkpt>
      <trkpt lat="44.43212" lon="1.34995">
        <ele>192</ele>
        <time>2019-04-14T08:41:44Z</time>
      </trkpt>
      <trkpt lat="44.43219" lon="1.34995">
        <ele>190</ele>
        <time>2019-04-14T08:41:46Z</time>
      </trkpt>
      <trkpt lat="44.43226" lon="1.35">
        <ele>189</ele>
        <time>2019-04-14T08:41:49Z</time>
      </trkpt>
      <trkpt lat="44.43229" lon="1.35002">
        <ele>189</ele>
        <time>2019-04-14T08:41:50Z</time>
      </trkpt>
      <trkpt lat="44.43232" lon="1.35004">
        <ele>189</ele>
        <time>2019-04-14T08:41:51Z</time>
      </trkpt>
      <trkpt lat="44.43239" lon="1.35012">
        <ele>188</ele>
        <time>2019-04-14T08:41:54Z</time>
      </trkpt>
      <trkpt lat="44.43244" lon="1.35014">
        <ele>188</ele>
        <time>2019-04-14T08:41:57Z</time>
      </trkpt>
      <trkpt lat="44.43243" lon="1.35009">
        <ele>187</ele>
        <time>2019-04-14T08:42:00Z</time>
      </trkpt>
      <trkpt lat="44.43241" lon="1.35007">
        <ele>187</ele>
        <time>2019-04-14T08:42:01Z</time>
      </trkpt>
      <trkpt lat="44.43236" lon="1.35003">
        <ele>186</ele>
        <time>2019-04-14T08:42:04Z</time>
      </trkpt>
      <trkpt lat="44.43232" lon="1.34998">
        <ele>186</ele>
        <time>2019-04-14T08:42:07Z</time>
      </trkpt>
      <trkpt lat="44.4323" lon="1.34996">
        <ele>187</ele>
        <time>2019-04-14T08:42:08Z</time>
      </trkpt>
      <trkpt lat="44.43222" lon="1.34985">
        <ele>187</ele>
        <time>2019-04-14T08:42:12Z</time>
      </trkpt>
      <trkpt lat="44.43215" lon="1.34979">
        <ele>188</ele>
        <time>2019-04-14T08:42:15Z</time>
      </trkpt>
      <trkpt lat="44.43213" lon="1.34976">
        <ele>188</ele>
        <time>2019-04-14T08:42:16Z</time>
      </trkpt>
      <trkpt lat="44.43205" lon="1.34963">
        <ele>189</ele>
        <time>2019-04-14T08:42:20Z</time>
      </trkpt>
      <trkpt lat="44.43204" lon="1.34958">
        <ele>189</ele>
        <time>2019-04-14T08:42:21Z</time>
      </trkpt>
      <trkpt lat="44.43193" lon="1.34936">
        <ele>188</ele>
        <time>2019-04-14T08:42:26Z</time>
      </trkpt>
      <trkpt lat="44.43182" lon="1.34917">
        <ele>188</ele>
        <time>2019-04-14T08:42:30Z</time>
      </trkpt>
      <trkpt lat="44.43174" lon="1.34899">
        <ele>188</ele>
        <time>2019-04-14T08:42:34Z</time>
      </trkpt>
      <trkpt lat="44.4317" lon="1.34891">
        <ele>189</ele>
        <time>2019-04-14T08:42:36Z</time>
      </trkpt>
      <trkpt lat="44.43164" lon="1.3488">
        <ele>189</ele>
        <time>2019-04-14T08:42:38Z</time>
      </trkpt>
      <trkpt lat="44.43151" lon="1.34863">
        <ele>189</ele>
        <time>2019-04-14T08:42:42Z</time>
      </trkpt>
      <trkpt lat="44.43137" lon="1.34853">
        <ele>189</ele>
        <time>2019-04-14T08:42:46Z</time>
      </trkpt>
      <trkpt lat="44.43125" lon="1.34841">
        <ele>190</ele>
        <time>2019-04-14T08:42:50Z</time>
      </trkpt>
      <trkpt lat="44.4312" lon="1.34832">
        <ele>190</ele>
        <time>2019-04-14T08:42:52Z</time>
      </trkpt>
      <trkpt lat="44.43116" lon="1.34824">
        <ele>190</ele>
        <time>2019-04-14T08:42:54Z</time>
      </trkpt>
      <trkpt lat="44.43114" lon="1.34821">
        <ele>190</ele>
        <time>2019-04-14T08:42:55Z</time>
      </trkpt>
      <trkpt lat="44.43112" lon="1.3481">
        <ele>191</ele>
        <time>2019-04-14T08:42:58Z</time>
      </trkpt>
      <trkpt lat="44.43107" lon="1.34795">
        <ele>190</ele>
        <time>2019-04-14T08:43:02Z</time>
      </trkpt>
      <trkpt lat="44.43105" lon="1.34787">
        <ele>190</ele>
        <time>2019-04-14T08:43:04Z</time>
      </trkpt>
      <trkpt lat="44.43102" lon="1.34776">
        <ele>190</ele>
        <time>2019-04-14T08:43:06Z</time>
      </trkpt>
      <trkpt lat="44.43096" lon="1.34758">
        <ele>190</ele>
        <time>2019-04-14T08:43:10Z</time>
      </trkpt>
      <trkpt lat="44.43088" lon="1.34741">
        <ele>191</ele>
        <time>2019-04-14T08:43:14Z</time>
      </trkpt>
      <trkpt lat="44.4308" lon="1.34715">
        <ele>191</ele>
        <time>2019-04-14T08:43:19Z</time>
      </trkpt>
      <trkpt lat="44.43077" lon="1.34707">
        <ele>191</ele>
        <time>2019-04-14T08:43:21Z</time>
      </trkpt>
      <trkpt lat="44.43073" lon="1.34701">
        <ele>191</ele>
        <time>2019-04-14T08:43:23Z</time>
      </trkpt>
      <trkpt lat="44.43072" lon="1.34698">
        <ele>191</ele>
        <time>2019-04-14T08:43:24Z</time>
      </trkpt>
      <trkpt lat="44.43068" lon="1.3469">
        <ele>192</ele>
        <time>2019-04-14T08:43:26Z</time>
      </trkpt>
      <trkpt lat="44.43064" lon="1.34685">
        <ele>192</ele>
        <time>2019-04-14T08:43:28Z</time>
      </trkpt>
      <trkpt lat="44.43056" lon="1.34672">
        <ele>192</ele>
        <time>2019-04-14T08:43:32Z</time>
      </trkpt>
      <trkpt lat="44.43045" lon="1.34652">
        <ele>192</ele>
        <time>2019-04-14T08:43:37Z</time>
      </trkpt>
      <trkpt lat="44.43037" lon="1.34634">
        <ele>192</ele>
        <time>2019-04-14T08:43:42Z</time>
      </trkpt>
      <trkpt lat="44.4303" lon="1.3462">
        <ele>192</ele>
        <time>2019-04-14T08:43:46Z</time>
      </trkpt>
      <trkpt lat="44.43022" lon="1.34603">
        <ele>193</ele>
        <time>2019-04-14T08:43:50Z</time>
      </trkpt>
      <trkpt lat="44.4302" lon="1.346">
        <ele>193</ele>
        <time>2019-04-14T08:43:51Z</time>
      </trkpt>
      <trkpt lat="44.43016" lon="1.34593">
        <ele>193</ele>
        <time>2019-04-14T08:43:53Z</time>
      </trkpt>
      <trkpt lat="44.43006" lon="1.34575">
        <ele>193</ele>
        <time>2019-04-14T08:43:58Z</time>
      </trkpt>
      <trkpt lat="44.42997" lon="1.34557">
        <ele>194</ele>
        <time>2019-04-14T08:44:02Z</time>
      </trkpt>
      <trkpt lat="44.42986" lon="1.34538">
        <ele>194</ele>
        <time>2019-04-14T08:44:07Z</time>
      </trkpt>
      <trkpt lat="44.42976" lon="1.3452">
        <ele>195</ele>
        <time>2019-04-14T08:44:11Z</time>
      </trkpt>
      <trkpt lat="44.42974" lon="1.34516">
        <ele>195</ele>
        <time>2019-04-14T08:44:12Z</time>
      </trkpt>
      <trkpt lat="44.4297" lon="1.34507">
        <ele>195</ele>
        <time>2019-04-14T08:44:14Z</time>
      </trkpt>
      <trkpt lat="44.42967" lon="1.34502">
        <ele>195</ele>
        <time>2019-04-14T08:44:15Z</time>
      </trkpt>
      <trkpt lat="44.42958" lon="1.34485">
        <ele>195</ele>
        <time>2019-04-14T08:44:19Z</time>
      </trkpt>
      <trkpt lat="44.42948" lon="1.34472">
        <ele>196</ele>
        <time>2019-04-14T08:44:23Z</time>
      </trkpt>
      <trkpt lat="44.42944" lon="1.34469">
        <ele>196</ele>
        <time>2019-04-14T08:44:24Z</time>
      </trkpt>
      <trkpt lat="44.42933" lon="1.34456">
        <ele>196</ele>
        <time>2019-04-14T08:44:28Z</time>
      </trkpt>
      <trkpt lat="44.42919" lon="1.3444">
        <ele>196</ele>
        <time>2019-04-14T08:44:33Z</time>
      </trkpt>
      <trkpt lat="44.42917" lon="1.34436">
        <ele>197</ele>
        <time>2019-04-14T08:44:34Z</time>
      </trkpt>
      <trkpt lat="44.42909" lon="1.34427">
        <ele>197</ele>
        <time>2019-04-14T08:44:37Z</time>
      </trkpt>
      <trkpt lat="44.42902" lon="1.3442">
        <ele>198</ele>
        <time>2019-04-14T08:44:40Z</time>
      </trkpt>
      <trkpt lat="44.429" lon="1.34417">
        <ele>198</ele>
        <time>2019-04-14T08:44:41Z</time>
      </trkpt>
      <trkpt lat="44.42897" lon="1.34413">
        <ele>198</ele>
        <time>2019-04-14T08:44:42Z</time>
      </trkpt>
      <trkpt lat="44.42886" lon="1.34402">
        <ele>198</ele>
        <time>2019-04-14T08:44:45Z</time>
      </trkpt>
      <trkpt lat="44.42876" lon="1.3439">
        <ele>198</ele>
        <time>2019-04-14T08:44:49Z</time>
      </trkpt>
      <trkpt lat="44.42864" lon="1.34374">
        <ele>198</ele>
        <time>2019-04-14T08:44:53Z</time>
      </trkpt>
      <trkpt lat="44.42846" lon="1.34361">
        <ele>199</ele>
        <time>2019-04-14T08:44:59Z</time>
      </trkpt>
      <trkpt lat="44.4284" lon="1.34356">
        <ele>199</ele>
        <time>2019-04-14T08:45:01Z</time>
      </trkpt>
      <trkpt lat="44.42835" lon="1.3435">
        <ele>199</ele>
        <time>2019-04-14T08:45:03Z</time>
      </trkpt>
      <trkpt lat="44.4282" lon="1.34336">
        <ele>199</ele>
        <time>2019-04-14T08:45:08Z</time>
      </trkpt>
      <trkpt lat="44.42813" lon="1.34326">
        <ele>200</ele>
        <time>2019-04-14T08:45:12Z</time>
      </trkpt>
      <trkpt lat="44.42802" lon="1.34317">
        <ele>200</ele>
        <time>2019-04-14T08:45:15Z</time>
      </trkpt>
      <trkpt lat="44.42799" lon="1.34314">
        <ele>201</ele>
        <time>2019-04-14T08:45:16Z</time>
      </trkpt>
      <trkpt lat="44.42789" lon="1.34301">
        <ele>201</ele>
        <time>2019-04-14T08:45:20Z</time>
      </trkpt>
      <trkpt lat="44.42785" lon="1.34297">
        <ele>202</ele>
        <time>2019-04-14T08:45:21Z</time>
      </trkpt>
      <trkpt lat="44.42773" lon="1.34283">
        <ele>202</ele>
        <time>2019-04-14T08:45:26Z</time>
      </trkpt>
      <trkpt lat="44.42759" lon="1.34271">
        <ele>202</ele>
        <time>2019-04-14T08:45:31Z</time>
      </trkpt>
      <trkpt lat="44.42751" lon="1.34264">
        <ele>203</ele>
        <time>2019-04-14T08:45:35Z</time>
      </trkpt>
      <trkpt lat="44.42747" lon="1.34261">
        <ele>203</ele>
        <time>2019-04-14T08:45:37Z</time>
      </trkpt>
      <trkpt lat="44.4274" lon="1.34259">
        <ele>203</ele>
        <time>2019-04-14T08:45:39Z</time>
      </trkpt>
      <trkpt lat="44.42722" lon="1.3425">
        <ele>203</ele>
        <time>2019-04-14T08:45:45Z</time>
      </trkpt>
      <trkpt lat="44.4272" lon="1.34249">
        <ele>203</ele>
        <time>2019-04-14T08:45:46Z</time>
      </trkpt>
      <trkpt lat="44.42708" lon="1.34243">
        <ele>203</ele>
        <time>2019-04-14T08:45:51Z</time>
      </trkpt>
      <trkpt lat="44.42705" lon="1.34242">
        <ele>203</ele>
        <time>2019-04-14T08:45:52Z</time>
      </trkpt>
      <trkpt lat="44.42699" lon="1.34239">
        <ele>203</ele>
        <time>2019-04-14T08:45:54Z</time>
      </trkpt>
      <trkpt lat="44.42693" lon="1.34236">
        <ele>204</ele>
        <time>2019-04-14T08:45:56Z</time>
      </trkpt>
      <trkpt lat="44.42689" lon="1.34233">
        <ele>204</ele>
        <time>2019-04-14T08:45:58Z</time>
      </trkpt>
      <trkpt lat="44.42686" lon="1.34233">
        <ele>204</ele>
        <time>2019-04-14T08:45:59Z</time>
      </trkpt>
      <trkpt lat="44.4268" lon="1.34229">
        <ele>204</ele>
        <time>2019-04-14T08:46:02Z</time>
      </trkpt>
      <trkpt lat="44.42669" lon="1.34224">
        <ele>204</ele>
        <time>2019-04-14T08:46:05Z</time>
      </trkpt>
      <trkpt lat="44.42662" lon="1.3422">
        <ele>204</ele>
        <time>2019-04-14T08:46:07Z</time>
      </trkpt>
      <trkpt lat="44.42654" lon="1.34217">
        <ele>204</ele>
        <time>2019-04-14T08:46:10Z</time>
      </trkpt>
      <trkpt lat="44.42642" lon="1.34213">
        <ele>205</ele>
        <time>2019-04-14T08:46:14Z</time>
      </trkpt>
      <trkpt lat="44.42629" lon="1.34208">
        <ele>205</ele>
        <time>2019-04-14T08:46:18Z</time>
      </trkpt>
      <trkpt lat="44.42619" lon="1.34206">
        <ele>205</ele>
        <time>2019-04-14T08:46:21Z</time>
      </trkpt>
      <trkpt lat="44.42612" lon="1.34205">
        <ele>206</ele>
        <time>2019-04-14T08:46:23Z</time>
      </trkpt>
      <trkpt lat="44.42595" lon="1.34202">
        <ele>206</ele>
        <time>2019-04-14T08:46:28Z</time>
      </trkpt>
      <trkpt lat="44.42587" lon="1.34206">
        <ele>207</ele>
        <time>2019-04-14T08:46:31Z</time>
      </trkpt>
      <trkpt lat="44.42585" lon="1.34205">
        <ele>207</ele>
        <time>2019-04-14T08:46:32Z</time>
      </trkpt>
      <trkpt lat="44.42578" lon="1.34207">
        <ele>208</ele>
        <time>2019-04-14T08:46:35Z</time>
      </trkpt>
      <trkpt lat="44.42576" lon="1.34207">
        <ele>208</ele>
        <time>2019-04-14T08:46:36Z</time>
      </trkpt>
      <trkpt lat="44.42563" lon="1.34204">
        <ele>209</ele>
        <time>2019-04-14T08:46:41Z</time>
      </trkpt>
      <trkpt lat="44.42557" lon="1.34204">
        <ele>209</ele>
        <time>2019-04-14T08:46:43Z</time>
      </trkpt>
      <trkpt lat="44.42546" lon="1.34204">
        <ele>209</ele>
        <time>2019-04-14T08:46:47Z</time>
      </trkpt>
      <trkpt lat="44.42529" lon="1.34206">
        <ele>210</ele>
        <time>2019-04-14T08:46:53Z</time>
      </trkpt>
      <trkpt lat="44.42514" lon="1.34209">
        <ele>210</ele>
        <time>2019-04-14T08:46:58Z</time>
      </trkpt>
      <trkpt lat="44.42504" lon="1.34215">
        <ele>210</ele>
        <time>2019-04-14T08:47:02Z</time>
      </trkpt>
      <trkpt lat="44.42491" lon="1.34217">
        <ele>210</ele>
        <time>2019-04-14T08:47:06Z</time>
      </trkpt>
      <trkpt lat="44.42489" lon="1.3422">
        <ele>210</ele>
        <time>2019-04-14T08:47:07Z</time>
      </trkpt>
      <trkpt lat="44.42483" lon="1.34224">
        <ele>210</ele>
        <time>2019-04-14T08:47:09Z</time>
      </trkpt>
      <trkpt lat="44.42466" lon="1.34232">
        <ele>210</ele>
        <time>2019-04-14T08:47:15Z</time>
      </trkpt>
      <trkpt lat="44.42464" lon="1.34233">
        <ele>210</ele>
        <time>2019-04-14T08:47:16Z</time>
      </trkpt>
      <trkpt lat="44.42464" lon="1.34232">
        <ele>209</ele>
        <time>2019-04-14T08:47:18Z</time>
      </trkpt>
      <trkpt lat="44.42462" lon="1.34236">
        <ele>209</ele>
        <time>2019-04-14T08:47:23Z</time>
      </trkpt>
      <trkpt lat="44.42459" lon="1.3424">
        <ele>209</ele>
        <time>2019-04-14T08:47:25Z</time>
      </trkpt>
      <trkpt lat="44.42449" lon="1.34254">
        <ele>209</ele>
        <time>2019-04-14T08:47:30Z</time>
      </trkpt>
      <trkpt lat="44.4244" lon="1.34263">
        <ele>210</ele>
        <time>2019-04-14T08:47:34Z</time>
      </trkpt>
      <trkpt lat="44.42431" lon="1.34274">
        <ele>209</ele>
        <time>2019-04-14T08:47:38Z</time>
      </trkpt>
      <trkpt lat="44.42429" lon="1.34288">
        <ele>210</ele>
        <time>2019-04-14T08:47:42Z</time>
      </trkpt>
      <trkpt lat="44.42425" lon="1.34293">
        <ele>211</ele>
        <time>2019-04-14T08:47:44Z</time>
      </trkpt>
      <trkpt lat="44.42422" lon="1.34298">
        <ele>211</ele>
        <time>2019-04-14T08:47:46Z</time>
      </trkpt>
      <trkpt lat="44.42419" lon="1.343">
        <ele>212</ele>
        <time>2019-04-14T08:47:48Z</time>
      </trkpt>
      <trkpt lat="44.42417" lon="1.34302">
        <ele>212</ele>
        <time>2019-04-14T08:47:49Z</time>
      </trkpt>
      <trkpt lat="44.42415" lon="1.34304">
        <ele>212</ele>
        <time>2019-04-14T08:47:50Z</time>
      </trkpt>
      <trkpt lat="44.42408" lon="1.34308">
        <ele>212</ele>
        <time>2019-04-14T08:47:53Z</time>
      </trkpt>
      <trkpt lat="44.42406" lon="1.3431">
        <ele>212</ele>
        <time>2019-04-14T08:47:54Z</time>
      </trkpt>
      <trkpt lat="44.424" lon="1.34313">
        <ele>212</ele>
        <time>2019-04-14T08:47:57Z</time>
      </trkpt>
      <trkpt lat="44.42395" lon="1.34312">
        <ele>212</ele>
        <time>2019-04-14T08:47:59Z</time>
      </trkpt>
      <trkpt lat="44.42388" lon="1.34317">
        <ele>212</ele>
        <time>2019-04-14T08:48:03Z</time>
      </trkpt>
      <trkpt lat="44.42382" lon="1.34326">
        <ele>212</ele>
        <time>2019-04-14T08:48:07Z</time>
      </trkpt>
      <trkpt lat="44.42371" lon="1.34333">
        <ele>212</ele>
        <time>2019-04-14T08:48:12Z</time>
      </trkpt>
      <trkpt lat="44.4237" lon="1.34334">
        <ele>212</ele>
        <time>2019-04-14T08:48:13Z</time>
      </trkpt>
      <trkpt lat="44.42366" lon="1.34338">
        <ele>212</ele>
        <time>2019-04-14T08:48:15Z</time>
      </trkpt>
      <trkpt lat="44.42364" lon="1.3434">
        <ele>213</ele>
        <time>2019-04-14T08:48:16Z</time>
      </trkpt>
      <trkpt lat="44.42358" lon="1.34335">
        <ele>213</ele>
        <time>2019-04-14T08:48:19Z</time>
      </trkpt>
      <trkpt lat="44.42358" lon="1.3433">
        <ele>212</ele>
        <time>2019-04-14T08:48:20Z</time>
      </trkpt>
      <trkpt lat="44.42359" lon="1.34314">
        <ele>212</ele>
        <time>2019-04-14T08:48:24Z</time>
      </trkpt>
      <trkpt lat="44.42361" lon="1.3431">
        <ele>211</ele>
        <time>2019-04-14T08:48:25Z</time>
      </trkpt>
      <trkpt lat="44.42363" lon="1.34307">
        <ele>211</ele>
        <time>2019-04-14T08:48:26Z</time>
      </trkpt>
      <trkpt lat="44.42372" lon="1.34299">
        <ele>212</ele>
        <time>2019-04-14T08:48:29Z</time>
      </trkpt>
      <trkpt lat="44.42388" lon="1.34285">
        <ele>212</ele>
        <time>2019-04-14T08:48:34Z</time>
      </trkpt>
      <trkpt lat="44.42392" lon="1.34282">
        <ele>212</ele>
        <time>2019-04-14T08:48:35Z</time>
      </trkpt>
      <trkpt lat="44.42408" lon="1.34268">
        <ele>212</ele>
        <time>2019-04-14T08:48:39Z</time>
      </trkpt>
      <trkpt lat="44.42421" lon="1.34256">
        <ele>211</ele>
        <time>2019-04-14T08:48:42Z</time>
      </trkpt>
      <trkpt lat="44.42428" lon="1.34246">
        <ele>211</ele>
        <time>2019-04-14T08:48:44Z</time>
      </trkpt>
      <trkpt lat="44.42432" lon="1.34241">
        <ele>210</ele>
        <time>2019-04-14T08:48:45Z</time>
      </trkpt>
      <trkpt lat="44.42445" lon="1.34217">
        <ele>210</ele>
        <time>2019-04-14T08:48:49Z</time>
      </trkpt>
      <trkpt lat="44.42449" lon="1.34212">
        <ele>210</ele>
        <time>2019-04-14T08:48:50Z</time>
      </trkpt>
      <trkpt lat="44.42453" lon="1.34207">
        <ele>209</ele>
        <time>2019-04-14T08:48:51Z</time>
      </trkpt>
      <trkpt lat="44.42475" lon="1.34182">
        <ele>209</ele>
        <time>2019-04-14T08:48:56Z</time>
      </trkpt>
      <trkpt lat="44.42479" lon="1.34177">
        <ele>209</ele>
        <time>2019-04-14T08:48:57Z</time>
      </trkpt>
      <trkpt lat="44.42492" lon="1.34163">
        <ele>209</ele>
        <time>2019-04-14T08:49:00Z</time>
      </trkpt>
      <trkpt lat="44.42498" lon="1.34154">
        <ele>209</ele>
        <time>2019-04-14T08:49:02Z</time>
      </trkpt>
      <trkpt lat="44.42502" lon="1.3415">
        <ele>209</ele>
        <time>2019-04-14T08:49:03Z</time>
      </trkpt>
      <trkpt lat="44.42522" lon="1.34147">
        <ele>209</ele>
        <time>2019-04-14T08:49:07Z</time>
      </trkpt>
      <trkpt lat="44.42555" lon="1.34148">
        <ele>209</ele>
        <time>2019-04-14T08:49:13Z</time>
      </trkpt>
      <trkpt lat="44.42584" lon="1.34145">
        <ele>208</ele>
        <time>2019-04-14T08:49:18Z</time>
      </trkpt>
      <trkpt lat="44.42597" lon="1.34144">
        <ele>208</ele>
        <time>2019-04-14T08:49:20Z</time>
      </trkpt>
      <trkpt lat="44.42631" lon="1.3414">
        <ele>207</ele>
        <time>2019-04-14T08:49:25Z</time>
      </trkpt>
      <trkpt lat="44.42657" lon="1.34138">
        <ele>206</ele>
        <time>2019-04-14T08:49:29Z</time>
      </trkpt>
      <trkpt lat="44.42662" lon="1.34136">
        <ele>206</ele>
        <time>2019-04-14T08:49:30Z</time>
      </trkpt>
      <trkpt lat="44.42667" lon="1.34135">
        <ele>206</ele>
        <time>2019-04-14T08:49:31Z</time>
      </trkpt>
      <trkpt lat="44.42678" lon="1.34135">
        <ele>206</ele>
        <time>2019-04-14T08:49:34Z</time>
      </trkpt>
      <trkpt lat="44.42685" lon="1.34135">
        <ele>207</ele>
        <time>2019-04-14T08:49:37Z</time>
      </trkpt>
      <trkpt lat="44.42692" lon="1.34136">
        <ele>208</ele>
        <time>2019-04-14T08:49:40Z</time>
      </trkpt>
      <trkpt lat="44.42699" lon="1.34136">
        <ele>209</ele>
        <time>2019-04-14T08:49:43Z</time>
      </trkpt>
      <trkpt lat="44.42703" lon="1.34135">
        <ele>209</ele>
        <time>2019-04-14T08:49:45Z</time>
      </trkpt>
      <trkpt lat="44.42705" lon="1.34135">
        <ele>209</ele>
        <time>2019-04-14T08:49:46Z</time>
      </trkpt>
      <trkpt lat="44.42711" lon="1.34135">
        <ele>210</ele>
        <time>2019-04-14T08:49:49Z</time>
      </trkpt>
      <trkpt lat="44.42716" lon="1.34134">
        <ele>211</ele>
        <time>2019-04-14T08:49:52Z</time>
      </trkpt>
      <trkpt lat="44.42718" lon="1.34134">
        <ele>211</ele>
        <time>2019-04-14T08:49:53Z</time>
      </trkpt>
      <trkpt lat="44.42723" lon="1.34134">
        <ele>213</ele>
        <time>2019-04-14T08:49:56Z</time>
      </trkpt>
      <trkpt lat="44.42728" lon="1.34134">
        <ele>214</ele>
        <time>2019-04-14T08:49:59Z</time>
      </trkpt>
      <trkpt lat="44.42732" lon="1.34134">
        <ele>214</ele>
        <time>2019-04-14T08:50:01Z</time>
      </trkpt>
      <trkpt lat="44.42735" lon="1.34134">
        <ele>215</ele>
        <time>2019-04-14T08:50:04Z</time>
      </trkpt>
      <trkpt lat="44.4274" lon="1.34135">
        <ele>216</ele>
        <time>2019-04-14T08:50:07Z</time>
      </trkpt>
      <trkpt lat="44.42745" lon="1.34136">
        <ele>217</ele>
        <time>2019-04-14T08:50:11Z</time>
      </trkpt>
      <trkpt lat="44.42747" lon="1.34136">
        <ele>217</ele>
        <time>2019-04-14T08:50:13Z</time>
      </trkpt>
      <trkpt lat="44.42752" lon="1.34138">
        <ele>218</ele>
        <time>2019-04-14T08:50:16Z</time>
      </trkpt>
      <trkpt lat="44.42756" lon="1.34139">
        <ele>219</ele>
        <time>2019-04-14T08:50:19Z</time>
      </trkpt>
      <trkpt lat="44.42763" lon="1.34139">
        <ele>220</ele>
        <time>2019-04-14T08:50:24Z</time>
      </trkpt>
      <trkpt lat="44.4277" lon="1.3414">
        <ele>221</ele>
        <time>2019-04-14T08:50:29Z</time>
      </trkpt>
      <trkpt lat="44.42774" lon="1.34141">
        <ele>222</ele>
        <time>2019-04-14T08:50:32Z</time>
      </trkpt>
      <trkpt lat="44.4278" lon="1.34142">
        <ele>223</ele>
        <time>2019-04-14T08:50:37Z</time>
      </trkpt>
      <trkpt lat="44.42785" lon="1.34144">
        <ele>224</ele>
        <time>2019-04-14T08:50:41Z</time>
      </trkpt>
      <trkpt lat="44.42793" lon="1.34149">
        <ele>226</ele>
        <time>2019-04-14T08:50:48Z</time>
      </trkpt>
      <trkpt lat="44.42794" lon="1.3415">
        <ele>226</ele>
        <time>2019-04-14T08:50:49Z</time>
      </trkpt>
      <trkpt lat="44.42797" lon="1.34152">
        <ele>227</ele>
        <time>2019-04-14T08:50:52Z</time>
      </trkpt>
      <trkpt lat="44.42804" lon="1.34156">
        <ele>228</ele>
        <time>2019-04-14T08:50:58Z</time>
      </trkpt>
      <trkpt lat="44.42805" lon="1.34157">
        <ele>228</ele>
        <time>2019-04-14T08:50:59Z</time>
      </trkpt>
      <trkpt lat="44.42808" lon="1.34158">
        <ele>229</ele>
        <time>2019-04-14T08:51:02Z</time>
      </trkpt>
      <trkpt lat="44.42812" lon="1.3416">
        <ele>230</ele>
        <time>2019-04-14T08:51:05Z</time>
      </trkpt>
      <trkpt lat="44.42813" lon="1.3416">
        <ele>230</ele>
        <time>2019-04-14T08:51:06Z</time>
      </trkpt>
      <trkpt lat="44.42819" lon="1.34165">
        <ele>231</ele>
        <time>2019-04-14T08:51:12Z</time>
      </trkpt>
      <trkpt lat="44.42822" lon="1.34167">
        <ele>232</ele>
        <time>2019-04-14T08:51:15Z</time>
      </trkpt>
      <trkpt lat="44.42823" lon="1.34168">
        <ele>232</ele>
        <time>2019-04-14T08:51:16Z</time>
      </trkpt>
      <trkpt lat="44.42825" lon="1.34169">
        <ele>233</ele>
        <time>2019-04-14T08:51:18Z</time>
      </trkpt>
      <trkpt lat="44.42826" lon="1.34169">
        <ele>233</ele>
        <time>2019-04-14T08:51:19Z</time>
      </trkpt>
      <trkpt lat="44.42827" lon="1.3417">
        <ele>233</ele>
        <time>2019-04-14T08:51:20Z</time>
      </trkpt>
      <trkpt lat="44.42831" lon="1.34173">
        <ele>234</ele>
        <time>2019-04-14T08:51:24Z</time>
      </trkpt>
      <trkpt lat="44.42834" lon="1.34175">
        <ele>235</ele>
        <time>2019-04-14T08:51:27Z</time>
      </trkpt>
      <trkpt lat="44.42836" lon="1.34176">
        <ele>235</ele>
        <time>2019-04-14T08:51:29Z</time>
      </trkpt>
      <trkpt lat="44.42837" lon="1.34177">
        <ele>236</ele>
        <time>2019-04-14T08:51:30Z</time>
      </trkpt>
      <trkpt lat="44.42839" lon="1.34178">
        <ele>236</ele>
        <time>2019-04-14T08:51:32Z</time>
      </trkpt>
      <trkpt lat="44.42841" lon="1.34178">
        <ele>237</ele>
        <time>2019-04-14T08:51:33Z</time>
      </trkpt>
      <trkpt lat="44.42845" lon="1.3418">
        <ele>237</ele>
        <time>2019-04-14T08:51:37Z</time>
      </trkpt>
      <trkpt lat="44.42846" lon="1.34181">
        <ele>238</ele>
        <time>2019-04-14T08:51:38Z</time>
      </trkpt>
      <trkpt lat="44.42848" lon="1.34182">
        <ele>238</ele>
        <time>2019-04-14T08:51:40Z</time>
      </trkpt>
      <trkpt lat="44.42853" lon="1.34183">
        <ele>240</ele>
        <time>2019-04-14T08:51:44Z</time>
      </trkpt>
      <trkpt lat="44.42855" lon="1.34184">
        <ele>240</ele>
        <time>2019-04-14T08:51:46Z</time>
      </trkpt>
      <trkpt lat="44.42857" lon="1.34185">
        <ele>241</ele>
        <time>2019-04-14T08:51:48Z</time>
      </trkpt>
      <trkpt lat="44.42858" lon="1.34185">
        <ele>241</ele>
        <time>2019-04-14T08:51:49Z</time>
      </trkpt>
      <trkpt lat="44.42863" lon="1.34186">
        <ele>242</ele>
        <time>2019-04-14T08:51:53Z</time>
      </trkpt>
      <trkpt lat="44.42868" lon="1.34188">
        <ele>243</ele>
        <time>2019-04-14T08:51:58Z</time>
      </trkpt>
      <trkpt lat="44.42869" lon="1.34188">
        <ele>243</ele>
        <time>2019-04-14T08:51:59Z</time>
      </trkpt>
      <trkpt lat="44.42875" lon="1.34188">
        <ele>244</ele>
        <time>2019-04-14T08:52:04Z</time>
      </trkpt>
      <trkpt lat="44.42878" lon="1.34188">
        <ele>245</ele>
        <time>2019-04-14T08:52:07Z</time>
      </trkpt>
      <trkpt lat="44.42881" lon="1.34187">
        <ele>245</ele>
        <time>2019-04-14T08:52:10Z</time>
      </trkpt>
      <trkpt lat="44.42884" lon="1.34186">
        <ele>245</ele>
        <time>2019-04-14T08:52:13Z</time>
      </trkpt>
      <trkpt lat="44.42892" lon="1.34183">
        <ele>246</ele>
        <time>2019-04-14T08:52:19Z</time>
      </trkpt>
      <trkpt lat="44.42893" lon="1.34182">
        <ele>246</ele>
        <time>2019-04-14T08:52:20Z</time>
      </trkpt>
      <trkpt lat="44.42897" lon="1.34179">
        <ele>247</ele>
        <time>2019-04-14T08:52:24Z</time>
      </trkpt>
      <trkpt lat="44.429" lon="1.34178">
        <ele>248</ele>
        <time>2019-04-14T08:52:26Z</time>
      </trkpt>
      <trkpt lat="44.42903" lon="1.34173">
        <ele>248</ele>
        <time>2019-04-14T08:52:30Z</time>
      </trkpt>
      <trkpt lat="44.42905" lon="1.34172">
        <ele>248</ele>
        <time>2019-04-14T08:52:31Z</time>
      </trkpt>
      <trkpt lat="44.42906" lon="1.34168">
        <ele>249</ele>
        <time>2019-04-14T08:52:33Z</time>
      </trkpt>
      <trkpt lat="44.42909" lon="1.34163">
        <ele>250</ele>
        <time>2019-04-14T08:52:36Z</time>
      </trkpt>
      <trkpt lat="44.42913" lon="1.34156">
        <ele>250</ele>
        <time>2019-04-14T08:52:40Z</time>
      </trkpt>
      <trkpt lat="44.42914" lon="1.34153">
        <ele>251</ele>
        <time>2019-04-14T08:52:42Z</time>
      </trkpt>
      <trkpt lat="44.42917" lon="1.34147">
        <ele>252</ele>
        <time>2019-04-14T08:52:46Z</time>
      </trkpt>
      <trkpt lat="44.42922" lon="1.34137">
        <ele>253</ele>
        <time>2019-04-14T08:52:52Z</time>
      </trkpt>
      <trkpt lat="44.42923" lon="1.34132">
        <ele>254</ele>
        <time>2019-04-14T08:52:55Z</time>
      </trkpt>
      <trkpt lat="44.42924" lon="1.3413">
        <ele>254</ele>
        <time>2019-04-14T08:52:56Z</time>
      </trkpt>
      <trkpt lat="44.42926" lon="1.34124">
        <ele>255</ele>
        <time>2019-04-14T08:53:00Z</time>
      </trkpt>
      <trkpt lat="44.42928" lon="1.34121">
        <ele>256</ele>
        <time>2019-04-14T08:53:02Z</time>
      </trkpt>
      <trkpt lat="44.42929" lon="1.34116">
        <ele>256</ele>
        <time>2019-04-14T08:53:05Z</time>
      </trkpt>
      <trkpt lat="44.4293" lon="1.34115">
        <ele>256</ele>
        <time>2019-04-14T08:53:06Z</time>
      </trkpt>
      <trkpt lat="44.42931" lon="1.34111">
        <ele>257</ele>
        <time>2019-04-14T08:53:08Z</time>
      </trkpt>
      <trkpt lat="44.42933" lon="1.34109">
        <ele>257</ele>
        <time>2019-04-14T08:53:10Z</time>
      </trkpt>
      <trkpt lat="44.42935" lon="1.34104">
        <ele>258</ele>
        <time>2019-04-14T08:53:13Z</time>
      </trkpt>
      <trkpt lat="44.42936" lon="1.341">
        <ele>258</ele>
        <time>2019-04-14T08:53:15Z</time>
      </trkpt>
      <trkpt lat="44.42937" lon="1.34099">
        <ele>258</ele>
        <time>2019-04-14T08:53:16Z</time>
      </trkpt>
      <trkpt lat="44.42939" lon="1.34095">
        <ele>259</ele>
        <time>2019-04-14T08:53:19Z</time>
      </trkpt>
      <trkpt lat="44.4294" lon="1.34091">
        <ele>260</ele>
        <time>2019-04-14T08:53:21Z</time>
      </trkpt>
      <trkpt lat="44.42942" lon="1.34087">
        <ele>261</ele>
        <time>2019-04-14T08:53:24Z</time>
      </trkpt>
      <trkpt lat="44.42945" lon="1.34082">
        <ele>261</ele>
        <time>2019-04-14T08:53:28Z</time>
      </trkpt>
      <trkpt lat="44.42946" lon="1.34078">
        <ele>262</ele>
        <time>2019-04-14T08:53:30Z</time>
      </trkpt>
      <trkpt lat="44.4295" lon="1.34072">
        <ele>263</ele>
        <time>2019-04-14T08:53:34Z</time>
      </trkpt>
      <trkpt lat="44.4295" lon="1.34071">
        <ele>263</ele>
        <time>2019-04-14T08:53:35Z</time>
      </trkpt>
      <trkpt lat="44.42953" lon="1.34066">
        <ele>264</ele>
        <time>2019-04-14T08:53:38Z</time>
      </trkpt>
      <trkpt lat="44.42956" lon="1.34062">
        <ele>264</ele>
        <time>2019-04-14T08:53:41Z</time>
      </trkpt>
      <trkpt lat="44.42956" lon="1.34062">
        <ele>265</ele>
        <time>2019-04-14T08:53:42Z</time>
      </trkpt>
      <trkpt lat="44.42958" lon="1.34059">
        <ele>265</ele>
        <time>2019-04-14T08:53:44Z</time>
      </trkpt>
      <trkpt lat="44.42963" lon="1.34054">
        <ele>266</ele>
        <time>2019-04-14T08:53:49Z</time>
      </trkpt>
      <trkpt lat="44.42964" lon="1.34053">
        <ele>266</ele>
        <time>2019-04-14T08:53:50Z</time>
      </trkpt>
      <trkpt lat="44.42968" lon="1.34049">
        <ele>267</ele>
        <time>2019-04-14T08:53:54Z</time>
      </trkpt>
      <trkpt lat="44.42971" lon="1.34045">
        <ele>268</ele>
        <time>2019-04-14T08:53:57Z</time>
      </trkpt>
      <trkpt lat="44.42973" lon="1.34043">
        <ele>268</ele>
        <time>2019-04-14T08:53:59Z</time>
      </trkpt>
      <trkpt lat="44.42977" lon="1.34036">
        <ele>269</ele>
        <time>2019-04-14T08:54:05Z</time>
      </trkpt>
      <trkpt lat="44.42982" lon="1.3403">
        <ele>270</ele>
        <time>2019-04-14T08:54:11Z</time>
      </trkpt>
      <trkpt lat="44.42983" lon="1.34029">
        <ele>270</ele>
        <time>2019-04-14T08:54:12Z</time>
      </trkpt>
      <trkpt lat="44.42983" lon="1.34028">
        <ele>271</ele>
        <time>2019-04-14T08:54:13Z</time>
      </trkpt>
      <trkpt lat="44.42985" lon="1.34025">
        <ele>271</ele>
        <time>2019-04-14T08:54:16Z</time>
      </trkpt>
      <trkpt lat="44.42985" lon="1.34024">
        <ele>272</ele>
        <time>2019-04-14T08:54:17Z</time>
      </trkpt>
      <trkpt lat="44.42988" lon="1.3402">
        <ele>273</ele>
        <time>2019-04-14T08:54:20Z</time>
      </trkpt>
      <trkpt lat="44.4299" lon="1.34015">
        <ele>273</ele>
        <time>2019-04-14T08:54:24Z</time>
      </trkpt>
      <trkpt lat="44.42992" lon="1.34012">
        <ele>274</ele>
        <time>2019-04-14T08:54:26Z</time>
      </trkpt>
      <trkpt lat="44.42996" lon="1.34005">
        <ele>274</ele>
        <time>2019-04-14T08:54:31Z</time>
      </trkpt>
      <trkpt lat="44.42998" lon="1.34004">
        <ele>275</ele>
        <time>2019-04-14T08:54:32Z</time>
      </trkpt>
      <trkpt lat="44.42998" lon="1.34003">
        <ele>275</ele>
        <time>2019-04-14T08:54:33Z</time>
      </trkpt>
      <trkpt lat="44.43002" lon="1.33997">
        <ele>276</ele>
        <time>2019-04-14T08:54:37Z</time>
      </trkpt>
      <trkpt lat="44.43003" lon="1.33994">
        <ele>276</ele>
        <time>2019-04-14T08:54:39Z</time>
      </trkpt>
      <trkpt lat="44.43004" lon="1.33989">
        <ele>277</ele>
        <time>2019-04-14T08:54:42Z</time>
      </trkpt>
      <trkpt lat="44.43005" lon="1.33987">
        <ele>277</ele>
        <time>2019-04-14T08:54:44Z</time>
      </trkpt>
      <trkpt lat="44.43007" lon="1.33983">
        <ele>278</ele>
        <time>2019-04-14T08:54:47Z</time>
      </trkpt>
      <trkpt lat="44.43009" lon="1.33979">
        <ele>278</ele>
        <time>2019-04-14T08:54:49Z</time>
      </trkpt>
      <trkpt lat="44.43009" lon="1.33977">
        <ele>278</ele>
        <time>2019-04-14T08:54:50Z</time>
      </trkpt>
      <trkpt lat="44.43013" lon="1.33967">
        <ele>279</ele>
        <time>2019-04-14T08:54:55Z</time>
      </trkpt>
      <trkpt lat="44.43016" lon="1.33959">
        <ele>280</ele>
        <time>2019-04-14T08:55:01Z</time>
      </trkpt>
      <trkpt lat="44.43018" lon="1.33952">
        <ele>281</ele>
        <time>2019-04-14T08:55:07Z</time>
      </trkpt>
      <trkpt lat="44.43018" lon="1.33951">
        <ele>281</ele>
        <time>2019-04-14T08:55:08Z</time>
      </trkpt>
      <trkpt lat="44.43017" lon="1.33949">
        <ele>282</ele>
        <time>2019-04-14T08:55:10Z</time>
      </trkpt>
      <trkpt lat="44.43016" lon="1.33949">
        <ele>282</ele>
        <time>2019-04-14T08:55:12Z</time>
      </trkpt>
      <trkpt lat="44.43013" lon="1.33949">
        <ele>283</ele>
        <time>2019-04-14T08:55:18Z</time>
      </trkpt>
      <trkpt lat="44.43012" lon="1.33949">
        <ele>283</ele>
        <time>2019-04-14T08:55:20Z</time>
      </trkpt>
      <trkpt lat="44.43009" lon="1.3395">
        <ele>284</ele>
        <time>2019-04-14T08:55:25Z</time>
      </trkpt>
      <trkpt lat="44.43006" lon="1.33952">
        <ele>285</ele>
        <time>2019-04-14T08:55:30Z</time>
      </trkpt>
      <trkpt lat="44.43005" lon="1.33952">
        <ele>286</ele>
        <time>2019-04-14T08:55:31Z</time>
      </trkpt>
      <trkpt lat="44.43003" lon="1.33953">
        <ele>286</ele>
        <time>2019-04-14T08:55:35Z</time>
      </trkpt>
      <trkpt lat="44.43003" lon="1.33953">
        <ele>286</ele>
        <time>2019-04-14T08:55:36Z</time>
      </trkpt>
      <trkpt lat="44.43001" lon="1.33954">
        <ele>287</ele>
        <time>2019-04-14T08:55:38Z</time>
      </trkpt>
      <trkpt lat="44.43" lon="1.33955">
        <ele>287</ele>
        <time>2019-04-14T08:55:39Z</time>
      </trkpt>
      <trkpt lat="44.42999" lon="1.33956">
        <ele>287</ele>
        <time>2019-04-14T08:55:41Z</time>
      </trkpt>
      <trkpt lat="44.42994" lon="1.33959">
        <ele>287</ele>
        <time>2019-04-14T08:55:45Z</time>
      </trkpt>
      <trkpt lat="44.42991" lon="1.33962">
        <ele>288</ele>
        <time>2019-04-14T08:55:48Z</time>
      </trkpt>
      <trkpt lat="44.4299" lon="1.33963">
        <ele>288</ele>
        <time>2019-04-14T08:55:49Z</time>
      </trkpt>
      <trkpt lat="44.42989" lon="1.33964">
        <ele>288</ele>
        <time>2019-04-14T08:55:50Z</time>
      </trkpt>
      <trkpt lat="44.42984" lon="1.33969">
        <ele>290</ele>
        <time>2019-04-14T08:55:54Z</time>
      </trkpt>
      <trkpt lat="44.42974" lon="1.33974">
        <ele>290</ele>
        <time>2019-04-14T08:56:00Z</time>
      </trkpt>
      <trkpt lat="44.4297" lon="1.33974">
        <ele>291</ele>
        <time>2019-04-14T08:56:03Z</time>
      </trkpt>
      <trkpt lat="44.42965" lon="1.33974">
        <ele>292</ele>
        <time>2019-04-14T08:56:06Z</time>
      </trkpt>
      <trkpt lat="44.42962" lon="1.33974">
        <ele>293</ele>
        <time>2019-04-14T08:56:09Z</time>
      </trkpt>
      <trkpt lat="44.4296" lon="1.33973">
        <ele>293</ele>
        <time>2019-04-14T08:56:10Z</time>
      </trkpt>
      <trkpt lat="44.42957" lon="1.33973">
        <ele>294</ele>
        <time>2019-04-14T08:56:13Z</time>
      </trkpt>
      <trkpt lat="44.42953" lon="1.33975">
        <ele>295</ele>
        <time>2019-04-14T08:56:16Z</time>
      </trkpt>
      <trkpt lat="44.42951" lon="1.33976">
        <ele>295</ele>
        <time>2019-04-14T08:56:18Z</time>
      </trkpt>
      <trkpt lat="44.42945" lon="1.33979">
        <ele>296</ele>
        <time>2019-04-14T08:56:22Z</time>
      </trkpt>
      <trkpt lat="44.42944" lon="1.33979">
        <ele>296</ele>
        <time>2019-04-14T08:56:23Z</time>
      </trkpt>
      <trkpt lat="44.42943" lon="1.3398">
        <ele>296</ele>
        <time>2019-04-14T08:56:24Z</time>
      </trkpt>
      <trkpt lat="44.42936" lon="1.33979">
        <ele>297</ele>
        <time>2019-04-14T08:56:29Z</time>
      </trkpt>
      <trkpt lat="44.42934" lon="1.33978">
        <ele>298</ele>
        <time>2019-04-14T08:56:31Z</time>
      </trkpt>
      <trkpt lat="44.42933" lon="1.33977">
        <ele>298</ele>
        <time>2019-04-14T08:56:32Z</time>
      </trkpt>
      <trkpt lat="44.4293" lon="1.33978">
        <ele>299</ele>
        <time>2019-04-14T08:56:35Z</time>
      </trkpt>
      <trkpt lat="44.42921" lon="1.33978">
        <ele>300</ele>
        <time>2019-04-14T08:56:42Z</time>
      </trkpt>
      <trkpt lat="44.4292" lon="1.33977">
        <ele>300</ele>
        <time>2019-04-14T08:56:43Z</time>
      </trkpt>
      <trkpt lat="44.4291" lon="1.33976">
        <ele>301</ele>
        <time>2019-04-14T08:56:50Z</time>
      </trkpt>
      <trkpt lat="44.42908" lon="1.33975">
        <ele>301</ele>
        <time>2019-04-14T08:56:52Z</time>
      </trkpt>
      <trkpt lat="44.42905" lon="1.33973">
        <ele>301</ele>
        <time>2019-04-14T08:56:55Z</time>
      </trkpt>
      <trkpt lat="44.42903" lon="1.33969">
        <ele>301</ele>
        <time>2019-04-14T08:56:57Z</time>
      </trkpt>
      <trkpt lat="44.42902" lon="1.33966">
        <ele>302</ele>
        <time>2019-04-14T08:56:59Z</time>
      </trkpt>
      <trkpt lat="44.429" lon="1.3396">
        <ele>302</ele>
        <time>2019-04-14T08:57:03Z</time>
      </trkpt>
      <trkpt lat="44.42899" lon="1.33949">
        <ele>303</ele>
        <time>2019-04-14T08:57:08Z</time>
      </trkpt>
      <trkpt lat="44.42896" lon="1.33945">
        <ele>303</ele>
        <time>2019-04-14T08:57:10Z</time>
      </trkpt>
      <trkpt lat="44.42887" lon="1.33931">
        <ele>303</ele>
        <time>2019-04-14T08:57:16Z</time>
      </trkpt>
      <trkpt lat="44.42871" lon="1.33905">
        <ele>303</ele>
        <time>2019-04-14T08:57:25Z</time>
      </trkpt>
      <trkpt lat="44.4287" lon="1.33902">
        <ele>303</ele>
        <time>2019-04-14T08:57:26Z</time>
      </trkpt>
      <trkpt lat="44.42861" lon="1.33883">
        <ele>304</ele>
        <time>2019-04-14T08:57:33Z</time>
      </trkpt>
      <trkpt lat="44.42855" lon="1.33872">
        <ele>305</ele>
        <time>2019-04-14T08:57:38Z</time>
      </trkpt>
      <trkpt lat="44.42852" lon="1.33867">
        <ele>305</ele>
        <time>2019-04-14T08:57:40Z</time>
      </trkpt>
      <trkpt lat="44.42851" lon="1.3386">
        <ele>306</ele>
        <time>2019-04-14T08:57:43Z</time>
      </trkpt>
      <trkpt lat="44.42851" lon="1.33858">
        <ele>306</ele>
        <time>2019-04-14T08:57:44Z</time>
      </trkpt>
      <trkpt lat="44.42848" lon="1.33852">
        <ele>307</ele>
        <time>2019-04-14T08:57:47Z</time>
      </trkpt>
      <trkpt lat="44.42845" lon="1.33851">
        <ele>307</ele>
        <time>2019-04-14T08:57:48Z</time>
      </trkpt>
      <trkpt lat="44.42843" lon="1.3385">
        <ele>307</ele>
        <time>2019-04-14T08:57:49Z</time>
      </trkpt>
      <trkpt lat="44.42828" lon="1.33844">
        <ele>306</ele>
        <time>2019-04-14T08:57:53Z</time>
      </trkpt>
      <trkpt lat="44.42814" lon="1.33826">
        <ele>306</ele>
        <time>2019-04-14T08:57:58Z</time>
      </trkpt>
      <trkpt lat="44.42813" lon="1.33823">
        <ele>305</ele>
        <time>2019-04-14T08:57:59Z</time>
      </trkpt>
      <trkpt lat="44.42813" lon="1.33816">
        <ele>306</ele>
        <time>2019-04-14T08:58:02Z</time>
      </trkpt>
      <trkpt lat="44.42815" lon="1.33811">
        <ele>307</ele>
        <time>2019-04-14T08:58:05Z</time>
      </trkpt>
      <trkpt lat="44.42816" lon="1.33808">
        <ele>308</ele>
        <time>2019-04-14T08:58:07Z</time>
      </trkpt>
      <trkpt lat="44.42816" lon="1.33802">
        <ele>310</ele>
        <time>2019-04-14T08:58:10Z</time>
      </trkpt>
      <trkpt lat="44.42814" lon="1.338">
        <ele>310</ele>
        <time>2019-04-14T08:58:11Z</time>
      </trkpt>
      <trkpt lat="44.42805" lon="1.33801">
        <ele>310</ele>
        <time>2019-04-14T08:58:15Z</time>
      </trkpt>
      <trkpt lat="44.42795" lon="1.33801">
        <ele>308</ele>
        <time>2019-04-14T08:58:18Z</time>
      </trkpt>
      <trkpt lat="44.4279" lon="1.33796">
        <ele>307</ele>
        <time>2019-04-14T08:58:20Z</time>
      </trkpt>
      <trkpt lat="44.42786" lon="1.3379">
        <ele>306</ele>
        <time>2019-04-14T08:58:22Z</time>
      </trkpt>
      <trkpt lat="44.42783" lon="1.33788">
        <ele>307</ele>
        <time>2019-04-14T08:58:23Z</time>
      </trkpt>
      <trkpt lat="44.42777" lon="1.33789">
        <ele>307</ele>
        <time>2019-04-14T08:58:25Z</time>
      </trkpt>
      <trkpt lat="44.42768" lon="1.33791">
        <ele>306</ele>
        <time>2019-04-14T08:58:27Z</time>
      </trkpt>
      <trkpt lat="44.42764" lon="1.33791">
        <ele>306</ele>
        <time>2019-04-14T08:58:28Z</time>
      </trkpt>
      <trkpt lat="44.42761" lon="1.33789">
        <ele>305</ele>
        <time>2019-04-14T08:58:29Z</time>
      </trkpt>
      <trkpt lat="44.42756" lon="1.33779">
        <ele>304</ele>
        <time>2019-04-14T08:58:32Z</time>
      </trkpt>
      <trkpt lat="44.42755" lon="1.33776">
        <ele>304</ele>
        <time>2019-04-14T08:58:33Z</time>
      </trkpt>
      <trkpt lat="44.4275" lon="1.33757">
        <ele>305</ele>
        <time>2019-04-14T08:58:39Z</time>
      </trkpt>
      <trkpt lat="44.42743" lon="1.33748">
        <ele>305</ele>
        <time>2019-04-14T08:58:42Z</time>
      </trkpt>
      <trkpt lat="44.42739" lon="1.33744">
        <ele>305</ele>
        <time>2019-04-14T08:58:43Z</time>
      </trkpt>
      <trkpt lat="44.42727" lon="1.33727">
        <ele>303</ele>
        <time>2019-04-14T08:58:46Z</time>
      </trkpt>
      <trkpt lat="44.42722" lon="1.3372">
        <ele>303</ele>
        <time>2019-04-14T08:58:47Z</time>
      </trkpt>
      <trkpt lat="44.42718" lon="1.33714">
        <ele>302</ele>
        <time>2019-04-14T08:58:48Z</time>
      </trkpt>
      <trkpt lat="44.42712" lon="1.33704">
        <ele>302</ele>
        <time>2019-04-14T08:58:50Z</time>
      </trkpt>
      <trkpt lat="44.42704" lon="1.33687">
        <ele>303</ele>
        <time>2019-04-14T08:58:55Z</time>
      </trkpt>
      <trkpt lat="44.427" lon="1.33676">
        <ele>304</ele>
        <time>2019-04-14T08:58:59Z</time>
      </trkpt>
      <trkpt lat="44.42697" lon="1.33672">
        <ele>304</ele>
        <time>2019-04-14T08:59:01Z</time>
      </trkpt>
      <trkpt lat="44.42696" lon="1.33665">
        <ele>304</ele>
        <time>2019-04-14T08:59:03Z</time>
      </trkpt>
      <trkpt lat="44.42697" lon="1.33658">
        <ele>305</ele>
        <time>2019-04-14T08:59:05Z</time>
      </trkpt>
      <trkpt lat="44.427" lon="1.33655">
        <ele>306</ele>
        <time>2019-04-14T08:59:07Z</time>
      </trkpt>
      <trkpt lat="44.42703" lon="1.33653">
        <ele>307</ele>
        <time>2019-04-14T08:59:09Z</time>
      </trkpt>
      <trkpt lat="44.42704" lon="1.33652">
        <ele>307</ele>
        <time>2019-04-14T08:59:10Z</time>
      </trkpt>
      <trkpt lat="44.4271" lon="1.33651">
        <ele>308</ele>
        <time>2019-04-14T08:59:14Z</time>
      </trkpt>
      <trkpt lat="44.42713" lon="1.3365">
        <ele>308</ele>
        <time>2019-04-14T08:59:16Z</time>
      </trkpt>
      <trkpt lat="44.42717" lon="1.33648">
        <ele>309</ele>
        <time>2019-04-14T08:59:19Z</time>
      </trkpt>
      <trkpt lat="44.42721" lon="1.3364">
        <ele>311</ele>
        <time>2019-04-14T08:59:23Z</time>
      </trkpt>
      <trkpt lat="44.42718" lon="1.33631">
        <ele>312</ele>
        <time>2019-04-14T08:59:27Z</time>
      </trkpt>
      <trkpt lat="44.42717" lon="1.33626">
        <ele>312</ele>
        <time>2019-04-14T08:59:29Z</time>
      </trkpt>
      <trkpt lat="44.42716" lon="1.33624">
        <ele>312</ele>
        <time>2019-04-14T08:59:30Z</time>
      </trkpt>
      <trkpt lat="44.4271" lon="1.33616">
        <ele>312</ele>
        <time>2019-04-14T08:59:33Z</time>
      </trkpt>
      <trkpt lat="44.42705" lon="1.33606">
        <ele>312</ele>
        <time>2019-04-14T08:59:36Z</time>
      </trkpt>
      <trkpt lat="44.42702" lon="1.33599">
        <ele>312</ele>
        <time>2019-04-14T08:59:38Z</time>
      </trkpt>
      <trkpt lat="44.42698" lon="1.33585">
        <ele>312</ele>
        <time>2019-04-14T08:59:42Z</time>
      </trkpt>
      <trkpt lat="44.4269" lon="1.33572">
        <ele>313</ele>
        <time>2019-04-14T08:59:46Z</time>
      </trkpt>
      <trkpt lat="44.42688" lon="1.33568">
        <ele>313</ele>
        <time>2019-04-14T08:59:47Z</time>
      </trkpt>
      <trkpt lat="44.42688" lon="1.33553">
        <ele>313</ele>
        <time>2019-04-14T08:59:51Z</time>
      </trkpt>
      <trkpt lat="44.42689" lon="1.33551">
        <ele>314</ele>
        <time>2019-04-14T08:59:52Z</time>
      </trkpt>
      <trkpt lat="44.42691" lon="1.33545">
        <ele>314</ele>
        <time>2019-04-14T08:59:54Z</time>
      </trkpt>
      <trkpt lat="44.42695" lon="1.33538">
        <ele>315</ele>
        <time>2019-04-14T08:59:57Z</time>
      </trkpt>
      <trkpt lat="44.42696" lon="1.33536">
        <ele>315</ele>
        <time>2019-04-14T08:59:58Z</time>
      </trkpt>
      <trkpt lat="44.427" lon="1.33528">
        <ele>316</ele>
        <time>2019-04-14T09:00:02Z</time>
      </trkpt>
      <trkpt lat="44.42702" lon="1.33526">
        <ele>317</ele>
        <time>2019-04-14T09:00:03Z</time>
      </trkpt>
      <trkpt lat="44.42705" lon="1.33525">
        <ele>317</ele>
        <time>2019-04-14T09:00:05Z</time>
      </trkpt>
      <trkpt lat="44.42711" lon="1.3352">
        <ele>318</ele>
        <time>2019-04-14T09:00:09Z</time>
      </trkpt>
      <trkpt lat="44.42714" lon="1.33508">
        <ele>319</ele>
        <time>2019-04-14T09:00:14Z</time>
      </trkpt>
      <trkpt lat="44.42716" lon="1.33504">
        <ele>320</ele>
        <time>2019-04-14T09:00:16Z</time>
      </trkpt>
      <trkpt lat="44.42718" lon="1.33496">
        <ele>320</ele>
        <time>2019-04-14T09:00:19Z</time>
      </trkpt>
      <trkpt lat="44.42721" lon="1.33486">
        <ele>321</ele>
        <time>2019-04-14T09:00:23Z</time>
      </trkpt>
      <trkpt lat="44.42723" lon="1.3348">
        <ele>321</ele>
        <time>2019-04-14T09:00:25Z</time>
      </trkpt>
      <trkpt lat="44.42731" lon="1.3347">
        <ele>322</ele>
        <time>2019-04-14T09:00:30Z</time>
      </trkpt>
      <trkpt lat="44.42733" lon="1.33468">
        <ele>322</ele>
        <time>2019-04-14T09:00:31Z</time>
      </trkpt>
      <trkpt lat="44.42741" lon="1.33458">
        <ele>323</ele>
        <time>2019-04-14T09:00:36Z</time>
      </trkpt>
      <trkpt lat="44.42744" lon="1.33453">
        <ele>324</ele>
        <time>2019-04-14T09:00:38Z</time>
      </trkpt>
      <trkpt lat="44.42753" lon="1.33441">
        <ele>324</ele>
        <time>2019-04-14T09:00:44Z</time>
      </trkpt>
      <trkpt lat="44.42754" lon="1.33438">
        <ele>324</ele>
        <time>2019-04-14T09:00:45Z</time>
      </trkpt>
      <trkpt lat="44.42754" lon="1.33427">
        <ele>324</ele>
        <time>2019-04-14T09:00:49Z</time>
      </trkpt>
      <trkpt lat="44.42746" lon="1.33418">
        <ele>324</ele>
        <time>2019-04-14T09:00:53Z</time>
      </trkpt>
      <trkpt lat="44.42743" lon="1.33414">
        <ele>323</ele>
        <time>2019-04-14T09:00:55Z</time>
      </trkpt>
      <trkpt lat="44.42741" lon="1.33413">
        <ele>323</ele>
        <time>2019-04-14T09:00:57Z</time>
      </trkpt>
      <trkpt lat="44.42741" lon="1.33413">
        <ele>323</ele>
        <time>2019-04-14T09:00:58Z</time>
      </trkpt>
      <trkpt lat="44.42739" lon="1.33412">
        <ele>323</ele>
        <time>2019-04-14T09:01:00Z</time>
      </trkpt>
      <trkpt lat="44.42735" lon="1.33407">
        <ele>323</ele>
        <time>2019-04-14T09:01:03Z</time>
      </trkpt>
      <trkpt lat="44.42724" lon="1.33404">
        <ele>322</ele>
        <time>2019-04-14T09:01:07Z</time>
      </trkpt>
      <trkpt lat="44.42716" lon="1.33401">
        <ele>321</ele>
        <time>2019-04-14T09:01:11Z</time>
      </trkpt>
      <trkpt lat="44.42711" lon="1.33399">
        <ele>320</ele>
        <time>2019-04-14T09:01:13Z</time>
      </trkpt>
      <trkpt lat="44.42709" lon="1.33397">
        <ele>320</ele>
        <time>2019-04-14T09:01:14Z</time>
      </trkpt>
      <trkpt lat="44.42706" lon="1.33396">
        <ele>320</ele>
        <time>2019-04-14T09:01:15Z</time>
      </trkpt>
      <trkpt lat="44.42704" lon="1.33396">
        <ele>320</ele>
        <time>2019-04-14T09:01:16Z</time>
      </trkpt>
      <trkpt lat="44.42702" lon="1.33394">
        <ele>319</ele>
        <time>2019-04-14T09:01:17Z</time>
      </trkpt>
      <trkpt lat="44.42697" lon="1.33392">
        <ele>319</ele>
        <time>2019-04-14T09:01:20Z</time>
      </trkpt>
      <trkpt lat="44.42695" lon="1.33394">
        <ele>318</ele>
        <time>2019-04-14T09:01:21Z</time>
      </trkpt>
      <trkpt lat="44.4269" lon="1.33399">
        <ele>318</ele>
        <time>2019-04-14T09:01:23Z</time>
      </trkpt>
      <trkpt lat="44.42686" lon="1.334">
        <ele>318</ele>
        <time>2019-04-14T09:01:24Z</time>
      </trkpt>
      <trkpt lat="44.42683" lon="1.33402">
        <ele>317</ele>
        <time>2019-04-14T09:01:25Z</time>
      </trkpt>
      <trkpt lat="44.42675" lon="1.33403">
        <ele>316</ele>
        <time>2019-04-14T09:01:27Z</time>
      </trkpt>
      <trkpt lat="44.42672" lon="1.33405">
        <ele>316</ele>
        <time>2019-04-14T09:01:28Z</time>
      </trkpt>
      <trkpt lat="44.4267" lon="1.33408">
        <ele>315</ele>
        <time>2019-04-14T09:01:29Z</time>
      </trkpt>
      <trkpt lat="44.42665" lon="1.33412">
        <ele>313</ele>
        <time>2019-04-14T09:01:31Z</time>
      </trkpt>
      <trkpt lat="44.42658" lon="1.33415">
        <ele>312</ele>
        <time>2019-04-14T09:01:33Z</time>
      </trkpt>
      <trkpt lat="44.42649" lon="1.3342">
        <ele>310</ele>
        <time>2019-04-14T09:01:35Z</time>
      </trkpt>
      <trkpt lat="44.42638" lon="1.33423">
        <ele>309</ele>
        <time>2019-04-14T09:01:37Z</time>
      </trkpt>
      <trkpt lat="44.42629" lon="1.3342">
        <ele>307</ele>
        <time>2019-04-14T09:01:39Z</time>
      </trkpt>
      <trkpt lat="44.42626" lon="1.33419">
        <ele>306</ele>
        <time>2019-04-14T09:01:40Z</time>
      </trkpt>
      <trkpt lat="44.42623" lon="1.33419">
        <ele>305</ele>
        <time>2019-04-14T09:01:41Z</time>
      </trkpt>
      <trkpt lat="44.42617" lon="1.33424">
        <ele>305</ele>
        <time>2019-04-14T09:01:43Z</time>
      </trkpt>
      <trkpt lat="44.42609" lon="1.33429">
        <ele>304</ele>
        <time>2019-04-14T09:01:46Z</time>
      </trkpt>
      <trkpt lat="44.42598" lon="1.33438">
        <ele>305</ele>
        <time>2019-04-14T09:01:51Z</time>
      </trkpt>
      <trkpt lat="44.42596" lon="1.3344">
        <ele>305</ele>
        <time>2019-04-14T09:01:52Z</time>
      </trkpt>
      <trkpt lat="44.42588" lon="1.33442">
        <ele>306</ele>
        <time>2019-04-14T09:01:55Z</time>
      </trkpt>
      <trkpt lat="44.42586" lon="1.33443">
        <ele>306</ele>
        <time>2019-04-14T09:01:56Z</time>
      </trkpt>
      <trkpt lat="44.42578" lon="1.33442">
        <ele>308</ele>
        <time>2019-04-14T09:02:00Z</time>
      </trkpt>
      <trkpt lat="44.42576" lon="1.33441">
        <ele>308</ele>
        <time>2019-04-14T09:02:01Z</time>
      </trkpt>
      <trkpt lat="44.4257" lon="1.33444">
        <ele>309</ele>
        <time>2019-04-14T09:02:04Z</time>
      </trkpt>
      <trkpt lat="44.42568" lon="1.33445">
        <ele>309</ele>
        <time>2019-04-14T09:02:05Z</time>
      </trkpt>
      <trkpt lat="44.42567" lon="1.33447">
        <ele>309</ele>
        <time>2019-04-14T09:02:06Z</time>
      </trkpt>
      <trkpt lat="44.42559" lon="1.33455">
        <ele>310</ele>
        <time>2019-04-14T09:02:10Z</time>
      </trkpt>
      <trkpt lat="44.42557" lon="1.33457">
        <ele>310</ele>
        <time>2019-04-14T09:02:11Z</time>
      </trkpt>
      <trkpt lat="44.42553" lon="1.33462">
        <ele>311</ele>
        <time>2019-04-14T09:02:16Z</time>
      </trkpt>
      <trkpt lat="44.42553" lon="1.33464">
        <ele>311</ele>
        <time>2019-04-14T09:02:29Z</time>
      </trkpt>
      <trkpt lat="44.42551" lon="1.3347">
        <ele>311</ele>
        <time>2019-04-14T09:02:32Z</time>
      </trkpt>
      <trkpt lat="44.4255" lon="1.33472">
        <ele>311</ele>
        <time>2019-04-14T09:02:33Z</time>
      </trkpt>
      <trkpt lat="44.42544" lon="1.33476">
        <ele>311</ele>
        <time>2019-04-14T09:02:36Z</time>
      </trkpt>
      <trkpt lat="44.42543" lon="1.33475">
        <ele>311</ele>
        <time>2019-04-14T09:02:38Z</time>
      </trkpt>
      <trkpt lat="44.42541" lon="1.33475">
        <ele>312</ele>
        <time>2019-04-14T09:02:43Z</time>
      </trkpt>
      <trkpt lat="44.42541" lon="1.33474">
        <ele>312</ele>
        <time>2019-04-14T09:02:44Z</time>
      </trkpt>
      <trkpt lat="44.42538" lon="1.33472">
        <ele>313</ele>
        <time>2019-04-14T09:02:49Z</time>
      </trkpt>
      <trkpt lat="44.42537" lon="1.33472">
        <ele>313</ele>
        <time>2019-04-14T09:02:51Z</time>
      </trkpt>
      <trkpt lat="44.42536" lon="1.33471">
        <ele>313</ele>
        <time>2019-04-14T09:02:53Z</time>
      </trkpt>
      <trkpt lat="44.42534" lon="1.33473">
        <ele>314</ele>
        <time>2019-04-14T09:02:58Z</time>
      </trkpt>
      <trkpt lat="44.42533" lon="1.33473">
        <ele>314</ele>
        <time>2019-04-14T09:02:59Z</time>
      </trkpt>
      <trkpt lat="44.42526" lon="1.33471">
        <ele>315</ele>
        <time>2019-04-14T09:03:05Z</time>
      </trkpt>
      <trkpt lat="44.42523" lon="1.33469">
        <ele>315</ele>
        <time>2019-04-14T09:03:08Z</time>
      </trkpt>
      <trkpt lat="44.42523" lon="1.33466">
        <ele>316</ele>
        <time>2019-04-14T09:03:10Z</time>
      </trkpt>
      <trkpt lat="44.42525" lon="1.33457">
        <ele>316</ele>
        <time>2019-04-14T09:03:15Z</time>
      </trkpt>
      <trkpt lat="44.42524" lon="1.33455">
        <ele>316</ele>
        <time>2019-04-14T09:03:16Z</time>
      </trkpt>
      <trkpt lat="44.42521" lon="1.33454">
        <ele>316</ele>
        <time>2019-04-14T09:03:18Z</time>
      </trkpt>
      <trkpt lat="44.42516" lon="1.3345">
        <ele>317</ele>
        <time>2019-04-14T09:03:21Z</time>
      </trkpt>
      <trkpt lat="44.42513" lon="1.33447">
        <ele>317</ele>
        <time>2019-04-14T09:03:23Z</time>
      </trkpt>
      <trkpt lat="44.42507" lon="1.33441">
        <ele>317</ele>
        <time>2019-04-14T09:03:27Z</time>
      </trkpt>
      <trkpt lat="44.4249" lon="1.33424">
        <ele>318</ele>
        <time>2019-04-14T09:03:36Z</time>
      </trkpt>
      <trkpt lat="44.42474" lon="1.33411">
        <ele>318</ele>
        <time>2019-04-14T09:03:44Z</time>
      </trkpt>
      <trkpt lat="44.4247" lon="1.33408">
        <ele>318</ele>
        <time>2019-04-14T09:03:46Z</time>
      </trkpt>
      <trkpt lat="44.42455" lon="1.33396">
        <ele>319</ele>
        <time>2019-04-14T09:03:53Z</time>
      </trkpt>
      <trkpt lat="44.42453" lon="1.33395">
        <ele>319</ele>
        <time>2019-04-14T09:03:54Z</time>
      </trkpt>
      <trkpt lat="44.42439" lon="1.33385">
        <ele>320</ele>
        <time>2019-04-14T09:04:01Z</time>
      </trkpt>
      <trkpt lat="44.42437" lon="1.33384">
        <ele>321</ele>
        <time>2019-04-14T09:04:02Z</time>
      </trkpt>
      <trkpt lat="44.42431" lon="1.33381">
        <ele>322</ele>
        <time>2019-04-14T09:04:05Z</time>
      </trkpt>
      <trkpt lat="44.42424" lon="1.33375">
        <ele>323</ele>
        <time>2019-04-14T09:04:09Z</time>
      </trkpt>
      <trkpt lat="44.42415" lon="1.33369">
        <ele>323</ele>
        <time>2019-04-14T09:04:14Z</time>
      </trkpt>
      <trkpt lat="44.4241" lon="1.33364">
        <ele>324</ele>
        <time>2019-04-14T09:04:17Z</time>
      </trkpt>
      <trkpt lat="44.42409" lon="1.3336">
        <ele>324</ele>
        <time>2019-04-14T09:04:19Z</time>
      </trkpt>
      <trkpt lat="44.42405" lon="1.33337">
        <ele>325</ele>
        <time>2019-04-14T09:04:27Z</time>
      </trkpt>
      <trkpt lat="44.42402" lon="1.33314">
        <ele>326</ele>
        <time>2019-04-14T09:04:35Z</time>
      </trkpt>
      <trkpt lat="44.42401" lon="1.33305">
        <ele>327</ele>
        <time>2019-04-14T09:04:38Z</time>
      </trkpt>
      <trkpt lat="44.42397" lon="1.33285">
        <ele>328</ele>
        <time>2019-04-14T09:04:45Z</time>
      </trkpt>
      <trkpt lat="44.4239" lon="1.33272">
        <ele>329</ele>
        <time>2019-04-14T09:04:50Z</time>
      </trkpt>
      <trkpt lat="44.42388" lon="1.3327">
        <ele>329</ele>
        <time>2019-04-14T09:04:51Z</time>
      </trkpt>
      <trkpt lat="44.42384" lon="1.33254">
        <ele>330</ele>
        <time>2019-04-14T09:04:56Z</time>
      </trkpt>
      <trkpt lat="44.42387" lon="1.33244">
        <ele>330</ele>
        <time>2019-04-14T09:05:00Z</time>
      </trkpt>
      <trkpt lat="44.42388" lon="1.33239">
        <ele>331</ele>
        <time>2019-04-14T09:05:02Z</time>
      </trkpt>
      <trkpt lat="44.42392" lon="1.33226">
        <ele>331</ele>
        <time>2019-04-14T09:05:08Z</time>
      </trkpt>
      <trkpt lat="44.42393" lon="1.33224">
        <ele>331</ele>
        <time>2019-04-14T09:05:09Z</time>
      </trkpt>
      <trkpt lat="44.424" lon="1.3321">
        <ele>332</ele>
        <time>2019-04-14T09:05:15Z</time>
      </trkpt>
      <trkpt lat="44.42401" lon="1.33208">
        <ele>332</ele>
        <time>2019-04-14T09:05:16Z</time>
      </trkpt>
      <trkpt lat="44.42408" lon="1.33188">
        <ele>333</ele>
        <time>2019-04-14T09:05:23Z</time>
      </trkpt>
      <trkpt lat="44.42409" lon="1.33185">
        <ele>333</ele>
        <time>2019-04-14T09:05:24Z</time>
      </trkpt>
      <trkpt lat="44.42418" lon="1.3316">
        <ele>333</ele>
        <time>2019-04-14T09:05:31Z</time>
      </trkpt>
      <trkpt lat="44.42434" lon="1.33123">
        <ele>333</ele>
        <time>2019-04-14T09:05:40Z</time>
      </trkpt>
      <trkpt lat="44.42454" lon="1.33075">
        <ele>333</ele>
        <time>2019-04-14T09:05:49Z</time>
      </trkpt>
      <trkpt lat="44.42459" lon="1.33065">
        <ele>332</ele>
        <time>2019-04-14T09:05:51Z</time>
      </trkpt>
      <trkpt lat="44.42471" lon="1.33048">
        <ele>331</ele>
        <time>2019-04-14T09:05:55Z</time>
      </trkpt>
      <trkpt lat="44.42476" lon="1.33039">
        <ele>331</ele>
        <time>2019-04-14T09:05:57Z</time>
      </trkpt>
      <trkpt lat="44.42487" lon="1.33018">
        <ele>330</ele>
        <time>2019-04-14T09:06:01Z</time>
      </trkpt>
      <trkpt lat="44.42489" lon="1.33012">
        <ele>330</ele>
        <time>2019-04-14T09:06:02Z</time>
      </trkpt>
      <trkpt lat="44.42494" lon="1.32993">
        <ele>329</ele>
        <time>2019-04-14T09:06:06Z</time>
      </trkpt>
      <trkpt lat="44.42493" lon="1.32989">
        <ele>329</ele>
        <time>2019-04-14T09:06:07Z</time>
      </trkpt>
      <trkpt lat="44.42487" lon="1.32975">
        <ele>330</ele>
        <time>2019-04-14T09:06:11Z</time>
      </trkpt>
      <trkpt lat="44.42483" lon="1.32967">
        <ele>330</ele>
        <time>2019-04-14T09:06:13Z</time>
      </trkpt>
      <trkpt lat="44.42467" lon="1.32939">
        <ele>329</ele>
        <time>2019-04-14T09:06:18Z</time>
      </trkpt>
      <trkpt lat="44.42452" lon="1.32909">
        <ele>327</ele>
        <time>2019-04-14T09:06:22Z</time>
      </trkpt>
      <trkpt lat="44.42444" lon="1.32892">
        <ele>327</ele>
        <time>2019-04-14T09:06:24Z</time>
      </trkpt>
      <trkpt lat="44.4244" lon="1.32883">
        <ele>326</ele>
        <time>2019-04-14T09:06:25Z</time>
      </trkpt>
      <trkpt lat="44.42433" lon="1.32863">
        <ele>324</ele>
        <time>2019-04-14T09:06:27Z</time>
      </trkpt>
      <trkpt lat="44.4243" lon="1.32854">
        <ele>324</ele>
        <time>2019-04-14T09:06:28Z</time>
      </trkpt>
      <trkpt lat="44.42426" lon="1.32845">
        <ele>323</ele>
        <time>2019-04-14T09:06:29Z</time>
      </trkpt>
      <trkpt lat="44.42421" lon="1.32838">
        <ele>323</ele>
        <time>2019-04-14T09:06:30Z</time>
      </trkpt>
      <trkpt lat="44.42413" lon="1.32828">
        <ele>323</ele>
        <time>2019-04-14T09:06:32Z</time>
      </trkpt>
      <trkpt lat="44.42411" lon="1.32827">
        <ele>323</ele>
        <time>2019-04-14T09:06:33Z</time>
      </trkpt>
      <trkpt lat="44.42411" lon="1.32828">
        <ele>323</ele>
        <time>2019-04-14T09:06:34Z</time>
      </trkpt>
      <trkpt lat="44.42416" lon="1.32832">
        <ele>323</ele>
        <time>2019-04-14T09:06:39Z</time>
      </trkpt>
      <trkpt lat="44.42428" lon="1.32849">
        <ele>323</ele>
        <time>2019-04-14T09:06:44Z</time>
      </trkpt>
      <trkpt lat="44.42431" lon="1.32857">
        <ele>323</ele>
        <time>2019-04-14T09:06:46Z</time>
      </trkpt>
      <trkpt lat="44.42429" lon="1.32865">
        <ele>323</ele>
        <time>2019-04-14T09:06:48Z</time>
      </trkpt>
      <trkpt lat="44.42422" lon="1.32884">
        <ele>321</ele>
        <time>2019-04-14T09:06:52Z</time>
      </trkpt>
      <trkpt lat="44.42419" lon="1.32893">
        <ele>320</ele>
        <time>2019-04-14T09:06:54Z</time>
      </trkpt>
      <trkpt lat="44.42412" lon="1.32893">
        <ele>319</ele>
        <time>2019-04-14T09:06:56Z</time>
      </trkpt>
      <trkpt lat="44.42409" lon="1.3289">
        <ele>319</ele>
        <time>2019-04-14T09:06:57Z</time>
      </trkpt>
      <trkpt lat="44.42406" lon="1.32887">
        <ele>319</ele>
        <time>2019-04-14T09:06:58Z</time>
      </trkpt>
      <trkpt lat="44.42403" lon="1.32883">
        <ele>318</ele>
        <time>2019-04-14T09:06:59Z</time>
      </trkpt>
      <trkpt lat="44.42398" lon="1.32877">
        <ele>318</ele>
        <time>2019-04-14T09:07:01Z</time>
      </trkpt>
      <trkpt lat="44.42392" lon="1.32873">
        <ele>318</ele>
        <time>2019-04-14T09:07:04Z</time>
      </trkpt>
      <trkpt lat="44.42389" lon="1.32875">
        <ele>319</ele>
        <time>2019-04-14T09:07:06Z</time>
      </trkpt>
      <trkpt lat="44.42381" lon="1.32882">
        <ele>320</ele>
        <time>2019-04-14T09:07:09Z</time>
      </trkpt>
      <trkpt lat="44.4237" lon="1.32894">
        <ele>319</ele>
        <time>2019-04-14T09:07:13Z</time>
      </trkpt>
      <trkpt lat="44.42364" lon="1.329">
        <ele>320</ele>
        <time>2019-04-14T09:07:15Z</time>
      </trkpt>
      <trkpt lat="44.42343" lon="1.32917">
        <ele>320</ele>
        <time>2019-04-14T09:07:22Z</time>
      </trkpt>
      <trkpt lat="44.4234" lon="1.32919">
        <ele>320</ele>
        <time>2019-04-14T09:07:23Z</time>
      </trkpt>
      <trkpt lat="44.42316" lon="1.32938">
        <ele>320</ele>
        <time>2019-04-14T09:07:31Z</time>
      </trkpt>
      <trkpt lat="44.42292" lon="1.32962">
        <ele>319</ele>
        <time>2019-04-14T09:07:37Z</time>
      </trkpt>
      <trkpt lat="44.42283" lon="1.32973">
        <ele>319</ele>
        <time>2019-04-14T09:07:39Z</time>
      </trkpt>
      <trkpt lat="44.42278" lon="1.32977">
        <ele>318</ele>
        <time>2019-04-14T09:07:40Z</time>
      </trkpt>
      <trkpt lat="44.42273" lon="1.32979">
        <ele>318</ele>
        <time>2019-04-14T09:07:41Z</time>
      </trkpt>
      <trkpt lat="44.42268" lon="1.32978">
        <ele>317</ele>
        <time>2019-04-14T09:07:42Z</time>
      </trkpt>
      <trkpt lat="44.42264" lon="1.32975">
        <ele>316</ele>
        <time>2019-04-14T09:07:43Z</time>
      </trkpt>
      <trkpt lat="44.42261" lon="1.3297">
        <ele>315</ele>
        <time>2019-04-14T09:07:44Z</time>
      </trkpt>
      <trkpt lat="44.42257" lon="1.3296">
        <ele>315</ele>
        <time>2019-04-14T09:07:46Z</time>
      </trkpt>
      <trkpt lat="44.42254" lon="1.32958">
        <ele>314</ele>
        <time>2019-04-14T09:07:47Z</time>
      </trkpt>
      <trkpt lat="44.42241" lon="1.32962">
        <ele>313</ele>
        <time>2019-04-14T09:07:51Z</time>
      </trkpt>
      <trkpt lat="44.42238" lon="1.32963">
        <ele>313</ele>
        <time>2019-04-14T09:07:52Z</time>
      </trkpt>
      <trkpt lat="44.42233" lon="1.32965">
        <ele>313</ele>
        <time>2019-04-14T09:07:55Z</time>
      </trkpt>
      <trkpt lat="44.42232" lon="1.32966">
        <ele>313</ele>
        <time>2019-04-14T09:07:56Z</time>
      </trkpt>
      <trkpt lat="44.4223" lon="1.32965">
        <ele>314</ele>
        <time>2019-04-14T09:07:59Z</time>
      </trkpt>
      <trkpt lat="44.4223" lon="1.32965">
        <ele>314</ele>
        <time>2019-04-14T09:08:01Z</time>
      </trkpt>
      <trkpt lat="44.42228" lon="1.32965">
        <ele>314</ele>
        <time>2019-04-14T09:08:03Z</time>
      </trkpt>
      <trkpt lat="44.42226" lon="1.32964">
        <ele>314</ele>
        <time>2019-04-14T09:08:06Z</time>
      </trkpt>
      <trkpt lat="44.42225" lon="1.32964">
        <ele>314</ele>
        <time>2019-04-14T09:08:07Z</time>
      </trkpt>
      <trkpt lat="44.42223" lon="1.32962">
        <ele>315</ele>
        <time>2019-04-14T09:08:11Z</time>
      </trkpt>
      <trkpt lat="44.4222" lon="1.32961">
        <ele>315</ele>
        <time>2019-04-14T09:08:13Z</time>
      </trkpt>
      <trkpt lat="44.42219" lon="1.32962">
        <ele>316</ele>
        <time>2019-04-14T09:08:14Z</time>
      </trkpt>
      <trkpt lat="44.42218" lon="1.32972">
        <ele>316</ele>
        <time>2019-04-14T09:08:17Z</time>
      </trkpt>
      <trkpt lat="44.42217" lon="1.32985">
        <ele>316</ele>
        <time>2019-04-14T09:08:21Z</time>
      </trkpt>
      <trkpt lat="44.42213" lon="1.32993">
        <ele>315</ele>
        <time>2019-04-14T09:08:25Z</time>
      </trkpt>
      <trkpt lat="44.42213" lon="1.33006">
        <ele>315</ele>
        <time>2019-04-14T09:08:28Z</time>
      </trkpt>
      <trkpt lat="44.42212" lon="1.33019">
        <ele>315</ele>
        <time>2019-04-14T09:08:31Z</time>
      </trkpt>
      <trkpt lat="44.42211" lon="1.33022">
        <ele>315</ele>
        <time>2019-04-14T09:08:32Z</time>
      </trkpt>
      <trkpt lat="44.4221" lon="1.33027">
        <ele>315</ele>
        <time>2019-04-14T09:08:34Z</time>
      </trkpt>
      <trkpt lat="44.4221" lon="1.33034">
        <ele>315</ele>
        <time>2019-04-14T09:08:36Z</time>
      </trkpt>
      <trkpt lat="44.42206" lon="1.33049">
        <ele>315</ele>
        <time>2019-04-14T09:08:40Z</time>
      </trkpt>
      <trkpt lat="44.42204" lon="1.33061">
        <ele>315</ele>
        <time>2019-04-14T09:08:44Z</time>
      </trkpt>
      <trkpt lat="44.42206" lon="1.33077">
        <ele>314</ele>
        <time>2019-04-14T09:08:48Z</time>
      </trkpt>
      <trkpt lat="44.42205" lon="1.3308">
        <ele>313</ele>
        <time>2019-04-14T09:08:49Z</time>
      </trkpt>
      <trkpt lat="44.42202" lon="1.33091">
        <ele>313</ele>
        <time>2019-04-14T09:08:53Z</time>
      </trkpt>
      <trkpt lat="44.42198" lon="1.33096">
        <ele>314</ele>
        <time>2019-04-14T09:08:56Z</time>
      </trkpt>
      <trkpt lat="44.42194" lon="1.33099">
        <ele>315</ele>
        <time>2019-04-14T09:08:58Z</time>
      </trkpt>
      <trkpt lat="44.4219" lon="1.33103">
        <ele>315</ele>
        <time>2019-04-14T09:09:00Z</time>
      </trkpt>
      <trkpt lat="44.42186" lon="1.33111">
        <ele>316</ele>
        <time>2019-04-14T09:09:03Z</time>
      </trkpt>
      <trkpt lat="44.42184" lon="1.33126">
        <ele>316</ele>
        <time>2019-04-14T09:09:07Z</time>
      </trkpt>
      <trkpt lat="44.42181" lon="1.33139">
        <ele>316</ele>
        <time>2019-04-14T09:09:11Z</time>
      </trkpt>
      <trkpt lat="44.42178" lon="1.33154">
        <ele>315</ele>
        <time>2019-04-14T09:09:15Z</time>
      </trkpt>
      <trkpt lat="44.42172" lon="1.33167">
        <ele>315</ele>
        <time>2019-04-14T09:09:19Z</time>
      </trkpt>
      <trkpt lat="44.4217" lon="1.33171">
        <ele>314</ele>
        <time>2019-04-14T09:09:21Z</time>
      </trkpt>
      <trkpt lat="44.42168" lon="1.33177">
        <ele>314</ele>
        <time>2019-04-14T09:09:23Z</time>
      </trkpt>
      <trkpt lat="44.42168" lon="1.33192">
        <ele>314</ele>
        <time>2019-04-14T09:09:27Z</time>
      </trkpt>
      <trkpt lat="44.42166" lon="1.33215">
        <ele>314</ele>
        <time>2019-04-14T09:09:32Z</time>
      </trkpt>
      <trkpt lat="44.42166" lon="1.3324">
        <ele>315</ele>
        <time>2019-04-14T09:09:38Z</time>
      </trkpt>
      <trkpt lat="44.42162" lon="1.33255">
        <ele>316</ele>
        <time>2019-04-14T09:09:43Z</time>
      </trkpt>
      <trkpt lat="44.42161" lon="1.33258">
        <ele>316</ele>
        <time>2019-04-14T09:09:44Z</time>
      </trkpt>
      <trkpt lat="44.42157" lon="1.33263">
        <ele>317</ele>
        <time>2019-04-14T09:09:47Z</time>
      </trkpt>
      <trkpt lat="44.42155" lon="1.33265">
        <ele>317</ele>
        <time>2019-04-14T09:09:48Z</time>
      </trkpt>
      <trkpt lat="44.42152" lon="1.33271">
        <ele>318</ele>
        <time>2019-04-14T09:09:50Z</time>
      </trkpt>
      <trkpt lat="44.4215" lon="1.33283">
        <ele>319</ele>
        <time>2019-04-14T09:09:53Z</time>
      </trkpt>
      <trkpt lat="44.42148" lon="1.33293">
        <ele>319</ele>
        <time>2019-04-14T09:09:56Z</time>
      </trkpt>
      <trkpt lat="44.42145" lon="1.33297">
        <ele>320</ele>
        <time>2019-04-14T09:09:58Z</time>
      </trkpt>
      <trkpt lat="44.4214" lon="1.33303">
        <ele>320</ele>
        <time>2019-04-14T09:10:01Z</time>
      </trkpt>
      <trkpt lat="44.42136" lon="1.33309">
        <ele>321</ele>
        <time>2019-04-14T09:10:04Z</time>
      </trkpt>
      <trkpt lat="44.42133" lon="1.33314">
        <ele>322</ele>
        <time>2019-04-14T09:10:06Z</time>
      </trkpt>
      <trkpt lat="44.42125" lon="1.33321">
        <ele>323</ele>
        <time>2019-04-14T09:10:11Z</time>
      </trkpt>
      <trkpt lat="44.42127" lon="1.33335">
        <ele>324</ele>
        <time>2019-04-14T09:10:15Z</time>
      </trkpt>
      <trkpt lat="44.4213" lon="1.3336">
        <ele>322</ele>
        <time>2019-04-14T09:10:20Z</time>
      </trkpt>
      <trkpt lat="44.42129" lon="1.33368">
        <ele>322</ele>
        <time>2019-04-14T09:10:22Z</time>
      </trkpt>
      <trkpt lat="44.42128" lon="1.33373">
        <ele>321</ele>
        <time>2019-04-14T09:10:24Z</time>
      </trkpt>
      <trkpt lat="44.42128" lon="1.33374">
        <ele>321</ele>
        <time>2019-04-14T09:10:26Z</time>
      </trkpt>
      <trkpt lat="44.42128" lon="1.33374">
        <ele>321</ele>
        <time>2019-04-14T09:10:27Z</time>
      </trkpt>
      <trkpt lat="44.42128" lon="1.33379">
        <ele>320</ele>
        <time>2019-04-14T09:12:06Z</time>
      </trkpt>
      <trkpt lat="44.42129" lon="1.33382">
        <ele>320</ele>
        <time>2019-04-14T09:12:07Z</time>
      </trkpt>
      <trkpt lat="44.4213" lon="1.3339">
        <ele>320</ele>
        <time>2019-04-14T09:12:09Z</time>
      </trkpt>
      <trkpt lat="44.42131" lon="1.33394">
        <ele>319</ele>
        <time>2019-04-14T09:12:10Z</time>
      </trkpt>
      <trkpt lat="44.42135" lon="1.33402">
        <ele>318</ele>
        <time>2019-04-14T09:12:12Z</time>
      </trkpt>
      <trkpt lat="44.42137" lon="1.33409">
        <ele>317</ele>
        <time>2019-04-14T09:12:14Z</time>
      </trkpt>
      <trkpt lat="44.42137" lon="1.33413">
        <ele>316</ele>
        <time>2019-04-14T09:12:15Z</time>
      </trkpt>
      <trkpt lat="44.42135" lon="1.3342">
        <ele>316</ele>
        <time>2019-04-14T09:12:17Z</time>
      </trkpt>
      <trkpt lat="44.42133" lon="1.33423">
        <ele>315</ele>
        <time>2019-04-14T09:12:18Z</time>
      </trkpt>
      <trkpt lat="44.42129" lon="1.3343">
        <ele>314</ele>
        <time>2019-04-14T09:12:20Z</time>
      </trkpt>
      <trkpt lat="44.42127" lon="1.33438">
        <ele>313</ele>
        <time>2019-04-14T09:12:22Z</time>
      </trkpt>
      <trkpt lat="44.42127" lon="1.33447">
        <ele>311</ele>
        <time>2019-04-14T09:12:24Z</time>
      </trkpt>
      <trkpt lat="44.42127" lon="1.33456">
        <ele>310</ele>
        <time>2019-04-14T09:12:26Z</time>
      </trkpt>
      <trkpt lat="44.42128" lon="1.3346">
        <ele>309</ele>
        <time>2019-04-14T09:12:27Z</time>
      </trkpt>
      <trkpt lat="44.42127" lon="1.33463">
        <ele>309</ele>
        <time>2019-04-14T09:12:28Z</time>
      </trkpt>
      <trkpt lat="44.42127" lon="1.33471">
        <ele>308</ele>
        <time>2019-04-14T09:12:30Z</time>
      </trkpt>
      <trkpt lat="44.42126" lon="1.33475">
        <ele>306</ele>
        <time>2019-04-14T09:12:31Z</time>
      </trkpt>
      <trkpt lat="44.42125" lon="1.3348">
        <ele>305</ele>
        <time>2019-04-14T09:12:32Z</time>
      </trkpt>
      <trkpt lat="44.42124" lon="1.33484">
        <ele>304</ele>
        <time>2019-04-14T09:12:33Z</time>
      </trkpt>
      <trkpt lat="44.42124" lon="1.33492">
        <ele>302</ele>
        <time>2019-04-14T09:12:35Z</time>
      </trkpt>
      <trkpt lat="44.42125" lon="1.33501">
        <ele>301</ele>
        <time>2019-04-14T09:12:37Z</time>
      </trkpt>
      <trkpt lat="44.42125" lon="1.33513">
        <ele>300</ele>
        <time>2019-04-14T09:12:39Z</time>
      </trkpt>
      <trkpt lat="44.42124" lon="1.3353">
        <ele>298</ele>
        <time>2019-04-14T09:12:42Z</time>
      </trkpt>
      <trkpt lat="44.42124" lon="1.33541">
        <ele>297</ele>
        <time>2019-04-14T09:12:44Z</time>
      </trkpt>
      <trkpt lat="44.42125" lon="1.33552">
        <ele>295</ele>
        <time>2019-04-14T09:12:46Z</time>
      </trkpt>
      <trkpt lat="44.42126" lon="1.33559">
        <ele>293</ele>
        <time>2019-04-14T09:12:48Z</time>
      </trkpt>
      <trkpt lat="44.42127" lon="1.33563">
        <ele>292</ele>
        <time>2019-04-14T09:12:50Z</time>
      </trkpt>
      <trkpt lat="44.42127" lon="1.33564">
        <ele>291</ele>
        <time>2019-04-14T09:12:52Z</time>
      </trkpt>
      <trkpt lat="44.42129" lon="1.33567">
        <ele>291</ele>
        <time>2019-04-14T09:13:48Z</time>
      </trkpt>
      <trkpt lat="44.42131" lon="1.33579">
        <ele>289</ele>
        <time>2019-04-14T09:13:51Z</time>
      </trkpt>
      <trkpt lat="44.42132" lon="1.33583">
        <ele>288</ele>
        <time>2019-04-14T09:13:52Z</time>
      </trkpt>
      <trkpt lat="44.42132" lon="1.33588">
        <ele>287</ele>
        <time>2019-04-14T09:13:53Z</time>
      </trkpt>
      <trkpt lat="44.42134" lon="1.33598">
        <ele>285</ele>
        <time>2019-04-14T09:13:55Z</time>
      </trkpt>
      <trkpt lat="44.42134" lon="1.33603">
        <ele>284</ele>
        <time>2019-04-14T09:13:56Z</time>
      </trkpt>
      <trkpt lat="44.42136" lon="1.33614">
        <ele>282</ele>
        <time>2019-04-14T09:13:58Z</time>
      </trkpt>
      <trkpt lat="44.42137" lon="1.33619">
        <ele>281</ele>
        <time>2019-04-14T09:13:59Z</time>
      </trkpt>
      <trkpt lat="44.42138" lon="1.33624">
        <ele>280</ele>
        <time>2019-04-14T09:14:00Z</time>
      </trkpt>
      <trkpt lat="44.4214" lon="1.33629">
        <ele>279</ele>
        <time>2019-04-14T09:14:01Z</time>
      </trkpt>
      <trkpt lat="44.42142" lon="1.3364">
        <ele>278</ele>
        <time>2019-04-14T09:14:03Z</time>
      </trkpt>
      <trkpt lat="44.42143" lon="1.33647">
        <ele>276</ele>
        <time>2019-04-14T09:14:04Z</time>
      </trkpt>
      <trkpt lat="44.42144" lon="1.33653">
        <ele>275</ele>
        <time>2019-04-14T09:14:05Z</time>
      </trkpt>
      <trkpt lat="44.42148" lon="1.33667">
        <ele>273</ele>
        <time>2019-04-14T09:14:07Z</time>
      </trkpt>
      <trkpt lat="44.4215" lon="1.33673">
        <ele>272</ele>
        <time>2019-04-14T09:14:08Z</time>
      </trkpt>
      <trkpt lat="44.42152" lon="1.33679">
        <ele>270</ele>
        <time>2019-04-14T09:14:09Z</time>
      </trkpt>
      <trkpt lat="44.42154" lon="1.33684">
        <ele>269</ele>
        <time>2019-04-14T09:14:10Z</time>
      </trkpt>
      <trkpt lat="44.42156" lon="1.33689">
        <ele>268</ele>
        <time>2019-04-14T09:14:11Z</time>
      </trkpt>
      <trkpt lat="44.42158" lon="1.33695">
        <ele>267</ele>
        <time>2019-04-14T09:14:12Z</time>
      </trkpt>
      <trkpt lat="44.42159" lon="1.337">
        <ele>265</ele>
        <time>2019-04-14T09:14:13Z</time>
      </trkpt>
      <trkpt lat="44.42161" lon="1.33705">
        <ele>264</ele>
        <time>2019-04-14T09:14:14Z</time>
      </trkpt>
      <trkpt lat="44.42163" lon="1.33708">
        <ele>263</ele>
        <time>2019-04-14T09:14:15Z</time>
      </trkpt>
      <trkpt lat="44.42164" lon="1.33712">
        <ele>262</ele>
        <time>2019-04-14T09:14:16Z</time>
      </trkpt>
      <trkpt lat="44.42165" lon="1.33716">
        <ele>261</ele>
        <time>2019-04-14T09:14:17Z</time>
      </trkpt>
      <trkpt lat="44.42168" lon="1.33723">
        <ele>259</ele>
        <time>2019-04-14T09:14:19Z</time>
      </trkpt>
      <trkpt lat="44.4217" lon="1.33727">
        <ele>258</ele>
        <time>2019-04-14T09:14:20Z</time>
      </trkpt>
      <trkpt lat="44.4217" lon="1.33731">
        <ele>257</ele>
        <time>2019-04-14T09:14:21Z</time>
      </trkpt>
      <trkpt lat="44.42169" lon="1.33739">
        <ele>255</ele>
        <time>2019-04-14T09:14:23Z</time>
      </trkpt>
      <trkpt lat="44.4217" lon="1.33743">
        <ele>254</ele>
        <time>2019-04-14T09:14:24Z</time>
      </trkpt>
      <trkpt lat="44.42171" lon="1.33748">
        <ele>253</ele>
        <time>2019-04-14T09:14:25Z</time>
      </trkpt>
      <trkpt lat="44.42172" lon="1.33753">
        <ele>252</ele>
        <time>2019-04-14T09:14:26Z</time>
      </trkpt>
      <trkpt lat="44.42175" lon="1.33758">
        <ele>251</ele>
        <time>2019-04-14T09:14:27Z</time>
      </trkpt>
      <trkpt lat="44.42177" lon="1.33762">
        <ele>250</ele>
        <time>2019-04-14T09:14:28Z</time>
      </trkpt>
      <trkpt lat="44.42178" lon="1.33766">
        <ele>250</ele>
        <time>2019-04-14T09:14:29Z</time>
      </trkpt>
      <trkpt lat="44.4218" lon="1.3377">
        <ele>248</ele>
        <time>2019-04-14T09:14:30Z</time>
      </trkpt>
      <trkpt lat="44.42181" lon="1.33774">
        <ele>246</ele>
        <time>2019-04-14T09:14:31Z</time>
      </trkpt>
      <trkpt lat="44.42184" lon="1.33778">
        <ele>245</ele>
        <time>2019-04-14T09:14:32Z</time>
      </trkpt>
      <trkpt lat="44.42186" lon="1.33781">
        <ele>244</ele>
        <time>2019-04-14T09:14:33Z</time>
      </trkpt>
      <trkpt lat="44.42189" lon="1.33785">
        <ele>244</ele>
        <time>2019-04-14T09:14:34Z</time>
      </trkpt>
      <trkpt lat="44.42192" lon="1.33794">
        <ele>242</ele>
        <time>2019-04-14T09:14:36Z</time>
      </trkpt>
      <trkpt lat="44.42192" lon="1.33798">
        <ele>241</ele>
        <time>2019-04-14T09:14:37Z</time>
      </trkpt>
      <trkpt lat="44.42194" lon="1.33801">
        <ele>240</ele>
        <time>2019-04-14T09:14:38Z</time>
      </trkpt>
      <trkpt lat="44.42197" lon="1.33804">
        <ele>237</ele>
        <time>2019-04-14T09:14:39Z</time>
      </trkpt>
      <trkpt lat="44.422" lon="1.33805">
        <ele>236</ele>
        <time>2019-04-14T09:14:40Z</time>
      </trkpt>
      <trkpt lat="44.42203" lon="1.3381">
        <ele>234</ele>
        <time>2019-04-14T09:14:42Z</time>
      </trkpt>
      <trkpt lat="44.42204" lon="1.33814">
        <ele>233</ele>
        <time>2019-04-14T09:14:43Z</time>
      </trkpt>
      <trkpt lat="44.42205" lon="1.33819">
        <ele>233</ele>
        <time>2019-04-14T09:14:44Z</time>
      </trkpt>
      <trkpt lat="44.42206" lon="1.33825">
        <ele>232</ele>
        <time>2019-04-14T09:14:45Z</time>
      </trkpt>
      <trkpt lat="44.42208" lon="1.33829">
        <ele>230</ele>
        <time>2019-04-14T09:14:46Z</time>
      </trkpt>
      <trkpt lat="44.42211" lon="1.33833">
        <ele>229</ele>
        <time>2019-04-14T09:14:47Z</time>
      </trkpt>
      <trkpt lat="44.42217" lon="1.3384">
        <ele>227</ele>
        <time>2019-04-14T09:14:49Z</time>
      </trkpt>
      <trkpt lat="44.42219" lon="1.33844">
        <ele>227</ele>
        <time>2019-04-14T09:14:50Z</time>
      </trkpt>
      <trkpt lat="44.42222" lon="1.33848">
        <ele>226</ele>
        <time>2019-04-14T09:14:51Z</time>
      </trkpt>
      <trkpt lat="44.42224" lon="1.33853">
        <ele>224</ele>
        <time>2019-04-14T09:14:52Z</time>
      </trkpt>
      <trkpt lat="44.42228" lon="1.33861">
        <ele>223</ele>
        <time>2019-04-14T09:14:54Z</time>
      </trkpt>
      <trkpt lat="44.42232" lon="1.33864">
        <ele>222</ele>
        <time>2019-04-14T09:14:55Z</time>
      </trkpt>
      <trkpt lat="44.42235" lon="1.33867">
        <ele>221</ele>
        <time>2019-04-14T09:14:56Z</time>
      </trkpt>
      <trkpt lat="44.42239" lon="1.33876">
        <ele>220</ele>
        <time>2019-04-14T09:14:58Z</time>
      </trkpt>
      <trkpt lat="44.4224" lon="1.33893">
        <ele>219</ele>
        <time>2019-04-14T09:15:01Z</time>
      </trkpt>
      <trkpt lat="44.4224" lon="1.33899">
        <ele>218</ele>
        <time>2019-04-14T09:15:02Z</time>
      </trkpt>
      <trkpt lat="44.4224" lon="1.33904">
        <ele>217</ele>
        <time>2019-04-14T09:15:03Z</time>
      </trkpt>
      <trkpt lat="44.42236" lon="1.33906">
        <ele>216</ele>
        <time>2019-04-14T09:15:05Z</time>
      </trkpt>
      <trkpt lat="44.42232" lon="1.339">
        <ele>215</ele>
        <time>2019-04-14T09:15:08Z</time>
      </trkpt>
      <trkpt lat="44.4223" lon="1.33898">
        <ele>215</ele>
        <time>2019-04-14T09:15:09Z</time>
      </trkpt>
      <trkpt lat="44.42223" lon="1.33891">
        <ele>215</ele>
        <time>2019-04-14T09:15:12Z</time>
      </trkpt>
      <trkpt lat="44.4222" lon="1.33889">
        <ele>215</ele>
        <time>2019-04-14T09:15:13Z</time>
      </trkpt>
      <trkpt lat="44.42206" lon="1.33874">
        <ele>214</ele>
        <time>2019-04-14T09:15:18Z</time>
      </trkpt>
      <trkpt lat="44.4219" lon="1.3386">
        <ele>215</ele>
        <time>2019-04-14T09:15:23Z</time>
      </trkpt>
      <trkpt lat="44.42179" lon="1.3385">
        <ele>216</ele>
        <time>2019-04-14T09:15:27Z</time>
      </trkpt>
      <trkpt lat="44.42176" lon="1.33848">
        <ele>216</ele>
        <time>2019-04-14T09:15:28Z</time>
      </trkpt>
      <trkpt lat="44.42161" lon="1.33838">
        <ele>217</ele>
        <time>2019-04-14T09:15:33Z</time>
      </trkpt>
      <trkpt lat="44.42158" lon="1.33835">
        <ele>217</ele>
        <time>2019-04-14T09:15:34Z</time>
      </trkpt>
      <trkpt lat="44.42145" lon="1.33828">
        <ele>217</ele>
        <time>2019-04-14T09:15:38Z</time>
      </trkpt>
      <trkpt lat="44.42127" lon="1.33816">
        <ele>218</ele>
        <time>2019-04-14T09:15:44Z</time>
      </trkpt>
      <trkpt lat="44.42113" lon="1.33799">
        <ele>218</ele>
        <time>2019-04-14T09:15:50Z</time>
      </trkpt>
      <trkpt lat="44.42105" lon="1.33783">
        <ele>218</ele>
        <time>2019-04-14T09:15:54Z</time>
      </trkpt>
      <trkpt lat="44.42099" lon="1.33767">
        <ele>218</ele>
        <time>2019-04-14T09:15:58Z</time>
      </trkpt>
      <trkpt lat="44.42098" lon="1.33763">
        <ele>218</ele>
        <time>2019-04-14T09:15:59Z</time>
      </trkpt>
      <trkpt lat="44.42095" lon="1.33755">
        <ele>219</ele>
        <time>2019-04-14T09:16:02Z</time>
      </trkpt>
      <trkpt lat="44.42091" lon="1.33745">
        <ele>219</ele>
        <time>2019-04-14T09:16:05Z</time>
      </trkpt>
      <trkpt lat="44.42088" lon="1.33739">
        <ele>220</ele>
        <time>2019-04-14T09:16:07Z</time>
      </trkpt>
      <trkpt lat="44.42079" lon="1.33724">
        <ele>221</ele>
        <time>2019-04-14T09:16:11Z</time>
      </trkpt>
      <trkpt lat="44.42077" lon="1.33721">
        <ele>221</ele>
        <time>2019-04-14T09:16:12Z</time>
      </trkpt>
      <trkpt lat="44.42064" lon="1.33704">
        <ele>221</ele>
        <time>2019-04-14T09:16:17Z</time>
      </trkpt>
      <trkpt lat="44.42048" lon="1.3369">
        <ele>221</ele>
        <time>2019-04-14T09:16:22Z</time>
      </trkpt>
      <trkpt lat="44.42034" lon="1.33673">
        <ele>221</ele>
        <time>2019-04-14T09:16:27Z</time>
      </trkpt>
      <trkpt lat="44.42024" lon="1.33658">
        <ele>222</ele>
        <time>2019-04-14T09:16:32Z</time>
      </trkpt>
      <trkpt lat="44.42016" lon="1.33631">
        <ele>222</ele>
        <time>2019-04-14T09:16:38Z</time>
      </trkpt>
      <trkpt lat="44.42016" lon="1.33627">
        <ele>222</ele>
        <time>2019-04-14T09:16:39Z</time>
      </trkpt>
      <trkpt lat="44.42012" lon="1.33601">
        <ele>222</ele>
        <time>2019-04-14T09:16:44Z</time>
      </trkpt>
      <trkpt lat="44.42008" lon="1.33585">
        <ele>223</ele>
        <time>2019-04-14T09:16:48Z</time>
      </trkpt>
      <trkpt lat="44.42005" lon="1.33574">
        <ele>224</ele>
        <time>2019-04-14T09:16:51Z</time>
      </trkpt>
      <trkpt lat="44.42002" lon="1.33567">
        <ele>224</ele>
        <time>2019-04-14T09:16:53Z</time>
      </trkpt>
      <trkpt lat="44.41999" lon="1.33559">
        <ele>225</ele>
        <time>2019-04-14T09:16:56Z</time>
      </trkpt>
      <trkpt lat="44.41998" lon="1.33555">
        <ele>225</ele>
        <time>2019-04-14T09:16:57Z</time>
      </trkpt>
      <trkpt lat="44.41987" lon="1.33534">
        <ele>225</ele>
        <time>2019-04-14T09:17:02Z</time>
      </trkpt>
      <trkpt lat="44.41979" lon="1.33517">
        <ele>225</ele>
        <time>2019-04-14T09:17:06Z</time>
      </trkpt>
      <trkpt lat="44.41972" lon="1.33498">
        <ele>226</ele>
        <time>2019-04-14T09:17:11Z</time>
      </trkpt>
      <trkpt lat="44.41965" lon="1.3348">
        <ele>227</ele>
        <time>2019-04-14T09:17:16Z</time>
      </trkpt>
      <trkpt lat="44.41963" lon="1.33477">
        <ele>227</ele>
        <time>2019-04-14T09:17:17Z</time>
      </trkpt>
      <trkpt lat="44.41949" lon="1.33459">
        <ele>227</ele>
        <time>2019-04-14T09:17:23Z</time>
      </trkpt>
      <trkpt lat="44.41935" lon="1.33443">
        <ele>228</ele>
        <time>2019-04-14T09:17:28Z</time>
      </trkpt>
      <trkpt lat="44.41932" lon="1.3344">
        <ele>228</ele>
        <time>2019-04-14T09:17:29Z</time>
      </trkpt>
      <trkpt lat="44.41922" lon="1.33426">
        <ele>228</ele>
        <time>2019-04-14T09:17:33Z</time>
      </trkpt>
      <trkpt lat="44.41912" lon="1.33413">
        <ele>229</ele>
        <time>2019-04-14T09:17:38Z</time>
      </trkpt>
      <trkpt lat="44.4191" lon="1.3341">
        <ele>229</ele>
        <time>2019-04-14T09:17:39Z</time>
      </trkpt>
      <trkpt lat="44.41905" lon="1.33403">
        <ele>230</ele>
        <time>2019-04-14T09:17:42Z</time>
      </trkpt>
      <trkpt lat="44.419" lon="1.33398">
        <ele>230</ele>
        <time>2019-04-14T09:17:44Z</time>
      </trkpt>
      <trkpt lat="44.41888" lon="1.33382">
        <ele>231</ele>
        <time>2019-04-14T09:17:49Z</time>
      </trkpt>
      <trkpt lat="44.41871" lon="1.33365">
        <ele>231</ele>
        <time>2019-04-14T09:17:55Z</time>
      </trkpt>
      <trkpt lat="44.41861" lon="1.33356">
        <ele>232</ele>
        <time>2019-04-14T09:17:59Z</time>
      </trkpt>
      <trkpt lat="44.41859" lon="1.33353">
        <ele>232</ele>
        <time>2019-04-14T09:18:00Z</time>
      </trkpt>
      <trkpt lat="44.41849" lon="1.33345">
        <ele>232</ele>
        <time>2019-04-14T09:18:04Z</time>
      </trkpt>
      <trkpt lat="44.41838" lon="1.33334">
        <ele>232</ele>
        <time>2019-04-14T09:18:08Z</time>
      </trkpt>
      <trkpt lat="44.41823" lon="1.33325">
        <ele>232</ele>
        <time>2019-04-14T09:18:14Z</time>
      </trkpt>
      <trkpt lat="44.41813" lon="1.33323">
        <ele>233</ele>
        <time>2019-04-14T09:18:17Z</time>
      </trkpt>
      <trkpt lat="44.41808" lon="1.33324">
        <ele>233</ele>
        <time>2019-04-14T09:18:19Z</time>
      </trkpt>
      <trkpt lat="44.418" lon="1.33327">
        <ele>234</ele>
        <time>2019-04-14T09:18:22Z</time>
      </trkpt>
      <trkpt lat="44.41794" lon="1.33328">
        <ele>234</ele>
        <time>2019-04-14T09:18:24Z</time>
      </trkpt>
      <trkpt lat="44.41783" lon="1.33335">
        <ele>235</ele>
        <time>2019-04-14T09:18:29Z</time>
      </trkpt>
      <trkpt lat="44.4178" lon="1.33336">
        <ele>235</ele>
        <time>2019-04-14T09:18:30Z</time>
      </trkpt>
      <trkpt lat="44.41773" lon="1.33345">
        <ele>236</ele>
        <time>2019-04-14T09:18:34Z</time>
      </trkpt>
      <trkpt lat="44.41764" lon="1.33352">
        <ele>236</ele>
        <time>2019-04-14T09:18:38Z</time>
      </trkpt>
      <trkpt lat="44.41757" lon="1.33356">
        <ele>237</ele>
        <time>2019-04-14T09:18:41Z</time>
      </trkpt>
      <trkpt lat="44.41749" lon="1.33363">
        <ele>237</ele>
        <time>2019-04-14T09:18:45Z</time>
      </trkpt>
      <trkpt lat="44.41746" lon="1.33364">
        <ele>238</ele>
        <time>2019-04-14T09:18:46Z</time>
      </trkpt>
      <trkpt lat="44.41736" lon="1.33374">
        <ele>239</ele>
        <time>2019-04-14T09:18:51Z</time>
      </trkpt>
      <trkpt lat="44.41725" lon="1.3338">
        <ele>239</ele>
        <time>2019-04-14T09:18:56Z</time>
      </trkpt>
      <trkpt lat="44.41723" lon="1.33382">
        <ele>240</ele>
        <time>2019-04-14T09:18:57Z</time>
      </trkpt>
      <trkpt lat="44.41712" lon="1.33391">
        <ele>241</ele>
        <time>2019-04-14T09:19:02Z</time>
      </trkpt>
      <trkpt lat="44.4171" lon="1.33392">
        <ele>241</ele>
        <time>2019-04-14T09:19:03Z</time>
      </trkpt>
      <trkpt lat="44.417" lon="1.33399">
        <ele>242</ele>
        <time>2019-04-14T09:19:07Z</time>
      </trkpt>
      <trkpt lat="44.41699" lon="1.334">
        <ele>242</ele>
        <time>2019-04-14T09:19:08Z</time>
      </trkpt>
      <trkpt lat="44.41697" lon="1.33402">
        <ele>242</ele>
        <time>2019-04-14T09:19:09Z</time>
      </trkpt>
      <trkpt lat="44.41689" lon="1.33406">
        <ele>242</ele>
        <time>2019-04-14T09:19:12Z</time>
      </trkpt>
      <trkpt lat="44.41679" lon="1.33411">
        <ele>243</ele>
        <time>2019-04-14T09:19:16Z</time>
      </trkpt>
      <trkpt lat="44.41672" lon="1.33414">
        <ele>244</ele>
        <time>2019-04-14T09:19:19Z</time>
      </trkpt>
      <trkpt lat="44.41664" lon="1.33417">
        <ele>244</ele>
        <time>2019-04-14T09:19:22Z</time>
      </trkpt>
      <trkpt lat="44.4166" lon="1.33419">
        <ele>245</ele>
        <time>2019-04-14T09:19:24Z</time>
      </trkpt>
      <trkpt lat="44.41653" lon="1.33421">
        <ele>246</ele>
        <time>2019-04-14T09:19:27Z</time>
      </trkpt>
      <trkpt lat="44.41646" lon="1.33424">
        <ele>247</ele>
        <time>2019-04-14T09:19:30Z</time>
      </trkpt>
      <trkpt lat="44.41645" lon="1.33425">
        <ele>247</ele>
        <time>2019-04-14T09:19:31Z</time>
      </trkpt>
      <trkpt lat="44.41633" lon="1.33427">
        <ele>247</ele>
        <time>2019-04-14T09:19:36Z</time>
      </trkpt>
      <trkpt lat="44.41629" lon="1.33427">
        <ele>248</ele>
        <time>2019-04-14T09:19:38Z</time>
      </trkpt>
      <trkpt lat="44.41622" lon="1.33426">
        <ele>248</ele>
        <time>2019-04-14T09:19:41Z</time>
      </trkpt>
      <trkpt lat="44.41615" lon="1.33425">
        <ele>249</ele>
        <time>2019-04-14T09:19:44Z</time>
      </trkpt>
      <trkpt lat="44.4161" lon="1.33424">
        <ele>249</ele>
        <time>2019-04-14T09:19:46Z</time>
      </trkpt>
      <trkpt lat="44.41596" lon="1.33422">
        <ele>250</ele>
        <time>2019-04-14T09:19:52Z</time>
      </trkpt>
      <trkpt lat="44.41592" lon="1.33418">
        <ele>250</ele>
        <time>2019-04-14T09:19:54Z</time>
      </trkpt>
      <trkpt lat="44.41581" lon="1.33413">
        <ele>251</ele>
        <time>2019-04-14T09:19:59Z</time>
      </trkpt>
      <trkpt lat="44.41579" lon="1.33412">
        <ele>251</ele>
        <time>2019-04-14T09:20:00Z</time>
      </trkpt>
      <trkpt lat="44.41568" lon="1.33405">
        <ele>253</ele>
        <time>2019-04-14T09:20:05Z</time>
      </trkpt>
      <trkpt lat="44.41555" lon="1.33394">
        <ele>254</ele>
        <time>2019-04-14T09:20:12Z</time>
      </trkpt>
      <trkpt lat="44.41543" lon="1.33387">
        <ele>255</ele>
        <time>2019-04-14T09:20:18Z</time>
      </trkpt>
      <trkpt lat="44.41539" lon="1.33385">
        <ele>255</ele>
        <time>2019-04-14T09:20:20Z</time>
      </trkpt>
      <trkpt lat="44.41533" lon="1.33381">
        <ele>256</ele>
        <time>2019-04-14T09:20:23Z</time>
      </trkpt>
      <trkpt lat="44.4153" lon="1.33379">
        <ele>256</ele>
        <time>2019-04-14T09:20:25Z</time>
      </trkpt>
      <trkpt lat="44.41522" lon="1.33374">
        <ele>257</ele>
        <time>2019-04-14T09:20:30Z</time>
      </trkpt>
      <trkpt lat="44.4151" lon="1.33365">
        <ele>258</ele>
        <time>2019-04-14T09:20:36Z</time>
      </trkpt>
      <trkpt lat="44.41497" lon="1.33358">
        <ele>259</ele>
        <time>2019-04-14T09:20:42Z</time>
      </trkpt>
      <trkpt lat="44.41494" lon="1.33356">
        <ele>259</ele>
        <time>2019-04-14T09:20:44Z</time>
      </trkpt>
      <trkpt lat="44.41486" lon="1.33352">
        <ele>260</ele>
        <time>2019-04-14T09:20:48Z</time>
      </trkpt>
      <trkpt lat="44.41481" lon="1.3335">
        <ele>260</ele>
        <time>2019-04-14T09:20:51Z</time>
      </trkpt>
      <trkpt lat="44.41477" lon="1.33349">
        <ele>261</ele>
        <time>2019-04-14T09:20:53Z</time>
      </trkpt>
      <trkpt lat="44.41467" lon="1.33346">
        <ele>262</ele>
        <time>2019-04-14T09:20:58Z</time>
      </trkpt>
      <trkpt lat="44.41456" lon="1.33341">
        <ele>263</ele>
        <time>2019-04-14T09:21:04Z</time>
      </trkpt>
      <trkpt lat="44.41452" lon="1.33341">
        <ele>263</ele>
        <time>2019-04-14T09:21:06Z</time>
      </trkpt>
      <trkpt lat="44.41442" lon="1.33337">
        <ele>264</ele>
        <time>2019-04-14T09:21:11Z</time>
      </trkpt>
      <trkpt lat="44.4143" lon="1.33327">
        <ele>265</ele>
        <time>2019-04-14T09:21:17Z</time>
      </trkpt>
      <trkpt lat="44.41428" lon="1.33326">
        <ele>266</ele>
        <time>2019-04-14T09:21:18Z</time>
      </trkpt>
      <trkpt lat="44.41421" lon="1.3332">
        <ele>266</ele>
        <time>2019-04-14T09:21:22Z</time>
      </trkpt>
      <trkpt lat="44.41414" lon="1.33314">
        <ele>267</ele>
        <time>2019-04-14T09:21:26Z</time>
      </trkpt>
      <trkpt lat="44.41413" lon="1.33313">
        <ele>267</ele>
        <time>2019-04-14T09:21:27Z</time>
      </trkpt>
      <trkpt lat="44.41408" lon="1.3331">
        <ele>268</ele>
        <time>2019-04-14T09:21:30Z</time>
      </trkpt>
      <trkpt lat="44.41405" lon="1.33308">
        <ele>268</ele>
        <time>2019-04-14T09:21:32Z</time>
      </trkpt>
      <trkpt lat="44.414" lon="1.33306">
        <ele>269</ele>
        <time>2019-04-14T09:21:35Z</time>
      </trkpt>
      <trkpt lat="44.41398" lon="1.33305">
        <ele>269</ele>
        <time>2019-04-14T09:21:36Z</time>
      </trkpt>
      <trkpt lat="44.41395" lon="1.33304">
        <ele>270</ele>
        <time>2019-04-14T09:21:38Z</time>
      </trkpt>
      <trkpt lat="44.41389" lon="1.33299">
        <ele>270</ele>
        <time>2019-04-14T09:21:42Z</time>
      </trkpt>
      <trkpt lat="44.41388" lon="1.33297">
        <ele>270</ele>
        <time>2019-04-14T09:21:43Z</time>
      </trkpt>
      <trkpt lat="44.4138" lon="1.33289">
        <ele>271</ele>
        <time>2019-04-14T09:21:49Z</time>
      </trkpt>
      <trkpt lat="44.41373" lon="1.33281">
        <ele>272</ele>
        <time>2019-04-14T09:21:54Z</time>
      </trkpt>
      <trkpt lat="44.41368" lon="1.33277">
        <ele>272</ele>
        <time>2019-04-14T09:21:57Z</time>
      </trkpt>
      <trkpt lat="44.41364" lon="1.33274">
        <ele>273</ele>
        <time>2019-04-14T09:22:00Z</time>
      </trkpt>
      <trkpt lat="44.41359" lon="1.33272">
        <ele>274</ele>
        <time>2019-04-14T09:22:03Z</time>
      </trkpt>
      <trkpt lat="44.41354" lon="1.33269">
        <ele>274</ele>
        <time>2019-04-14T09:22:06Z</time>
      </trkpt>
      <trkpt lat="44.41352" lon="1.33269">
        <ele>275</ele>
        <time>2019-04-14T09:22:08Z</time>
      </trkpt>
      <trkpt lat="44.41347" lon="1.33268">
        <ele>275</ele>
        <time>2019-04-14T09:22:11Z</time>
      </trkpt>
      <trkpt lat="44.41341" lon="1.33266">
        <ele>276</ele>
        <time>2019-04-14T09:22:15Z</time>
      </trkpt>
      <trkpt lat="44.41336" lon="1.33265">
        <ele>276</ele>
        <time>2019-04-14T09:22:18Z</time>
      </trkpt>
      <trkpt lat="44.41328" lon="1.33263">
        <ele>277</ele>
        <time>2019-04-14T09:22:22Z</time>
      </trkpt>
      <trkpt lat="44.41323" lon="1.33262">
        <ele>278</ele>
        <time>2019-04-14T09:22:25Z</time>
      </trkpt>
      <trkpt lat="44.4132" lon="1.33261">
        <ele>278</ele>
        <time>2019-04-14T09:22:27Z</time>
      </trkpt>
      <trkpt lat="44.41315" lon="1.33261">
        <ele>278</ele>
        <time>2019-04-14T09:22:30Z</time>
      </trkpt>
      <trkpt lat="44.41314" lon="1.33261">
        <ele>278</ele>
        <time>2019-04-14T09:22:31Z</time>
      </trkpt>
      <trkpt lat="44.41307" lon="1.33259">
        <ele>279</ele>
        <time>2019-04-14T09:22:35Z</time>
      </trkpt>
      <trkpt lat="44.41306" lon="1.33258">
        <ele>280</ele>
        <time>2019-04-14T09:22:36Z</time>
      </trkpt>
      <trkpt lat="44.41302" lon="1.33257">
        <ele>281</ele>
        <time>2019-04-14T09:22:38Z</time>
      </trkpt>
      <trkpt lat="44.41297" lon="1.33253">
        <ele>281</ele>
        <time>2019-04-14T09:22:41Z</time>
      </trkpt>
      <trkpt lat="44.41288" lon="1.33251">
        <ele>281</ele>
        <time>2019-04-14T09:22:47Z</time>
      </trkpt>
      <trkpt lat="44.41284" lon="1.33251">
        <ele>282</ele>
        <time>2019-04-14T09:22:49Z</time>
      </trkpt>
      <trkpt lat="44.41282" lon="1.33253">
        <ele>282</ele>
        <time>2019-04-14T09:22:50Z</time>
      </trkpt>
      <trkpt lat="44.41279" lon="1.33255">
        <ele>282</ele>
        <time>2019-04-14T09:22:52Z</time>
      </trkpt>
      <trkpt lat="44.41276" lon="1.33256">
        <ele>283</ele>
        <time>2019-04-14T09:22:56Z</time>
      </trkpt>
      <trkpt lat="44.41275" lon="1.33256">
        <ele>283</ele>
        <time>2019-04-14T09:22:57Z</time>
      </trkpt>
      <trkpt lat="44.41266" lon="1.33257">
        <ele>284</ele>
        <time>2019-04-14T09:23:05Z</time>
      </trkpt>
      <trkpt lat="44.41264" lon="1.33257">
        <ele>284</ele>
        <time>2019-04-14T09:23:06Z</time>
      </trkpt>
      <trkpt lat="44.41258" lon="1.33257">
        <ele>285</ele>
        <time>2019-04-14T09:23:10Z</time>
      </trkpt>
      <trkpt lat="44.41249" lon="1.33258">
        <ele>286</ele>
        <time>2019-04-14T09:23:17Z</time>
      </trkpt>
      <trkpt lat="44.41244" lon="1.33258">
        <ele>286</ele>
        <time>2019-04-14T09:23:19Z</time>
      </trkpt>
      <trkpt lat="44.41233" lon="1.33258">
        <ele>287</ele>
        <time>2019-04-14T09:23:25Z</time>
      </trkpt>
      <trkpt lat="44.41227" lon="1.33256">
        <ele>287</ele>
        <time>2019-04-14T09:23:27Z</time>
      </trkpt>
      <trkpt lat="44.41218" lon="1.33255">
        <ele>288</ele>
        <time>2019-04-14T09:23:31Z</time>
      </trkpt>
      <trkpt lat="44.41205" lon="1.33254">
        <ele>289</ele>
        <time>2019-04-14T09:23:38Z</time>
      </trkpt>
      <trkpt lat="44.41203" lon="1.33253">
        <ele>289</ele>
        <time>2019-04-14T09:23:39Z</time>
      </trkpt>
      <trkpt lat="44.41202" lon="1.33253">
        <ele>290</ele>
        <time>2019-04-14T09:23:40Z</time>
      </trkpt>
      <trkpt lat="44.41196" lon="1.33253">
        <ele>290</ele>
        <time>2019-04-14T09:23:43Z</time>
      </trkpt>
      <trkpt lat="44.41192" lon="1.33251">
        <ele>290</ele>
        <time>2019-04-14T09:23:45Z</time>
      </trkpt>
      <trkpt lat="44.4119" lon="1.33251">
        <ele>291</ele>
        <time>2019-04-14T09:23:46Z</time>
      </trkpt>
      <trkpt lat="44.41183" lon="1.33251">
        <ele>291</ele>
        <time>2019-04-14T09:23:49Z</time>
      </trkpt>
      <trkpt lat="44.41182" lon="1.33251">
        <ele>291</ele>
        <time>2019-04-14T09:23:50Z</time>
      </trkpt>
      <trkpt lat="44.4118" lon="1.33251">
        <ele>291</ele>
        <time>2019-04-14T09:23:51Z</time>
      </trkpt>
      <trkpt lat="44.41177" lon="1.33251">
        <ele>292</ele>
        <time>2019-04-14T09:23:53Z</time>
      </trkpt>
      <trkpt lat="44.4117" lon="1.3325">
        <ele>293</ele>
        <time>2019-04-14T09:23:57Z</time>
      </trkpt>
      <trkpt lat="44.4116" lon="1.3325">
        <ele>293</ele>
        <time>2019-04-14T09:24:02Z</time>
      </trkpt>
      <trkpt lat="44.41159" lon="1.3325">
        <ele>294</ele>
        <time>2019-04-14T09:24:03Z</time>
      </trkpt>
      <trkpt lat="44.4115" lon="1.33251">
        <ele>295</ele>
        <time>2019-04-14T09:24:07Z</time>
      </trkpt>
      <trkpt lat="44.41148" lon="1.33251">
        <ele>295</ele>
        <time>2019-04-14T09:24:08Z</time>
      </trkpt>
      <trkpt lat="44.41138" lon="1.33256">
        <ele>295</ele>
        <time>2019-04-14T09:24:13Z</time>
      </trkpt>
      <trkpt lat="44.41134" lon="1.33257">
        <ele>296</ele>
        <time>2019-04-14T09:24:15Z</time>
      </trkpt>
      <trkpt lat="44.41125" lon="1.33262">
        <ele>296</ele>
        <time>2019-04-14T09:24:20Z</time>
      </trkpt>
      <trkpt lat="44.4112" lon="1.33264">
        <ele>297</ele>
        <time>2019-04-14T09:24:23Z</time>
      </trkpt>
      <trkpt lat="44.41113" lon="1.33268">
        <ele>297</ele>
        <time>2019-04-14T09:24:27Z</time>
      </trkpt>
      <trkpt lat="44.41111" lon="1.33269">
        <ele>298</ele>
        <time>2019-04-14T09:24:28Z</time>
      </trkpt>
      <trkpt lat="44.41102" lon="1.33274">
        <ele>299</ele>
        <time>2019-04-14T09:24:33Z</time>
      </trkpt>
      <trkpt lat="44.41093" lon="1.3328">
        <ele>300</ele>
        <time>2019-04-14T09:24:39Z</time>
      </trkpt>
      <trkpt lat="44.41092" lon="1.33281">
        <ele>300</ele>
        <time>2019-04-14T09:24:40Z</time>
      </trkpt>
      <trkpt lat="44.41086" lon="1.33285">
        <ele>301</ele>
        <time>2019-04-14T09:24:44Z</time>
      </trkpt>
      <trkpt lat="44.41083" lon="1.33287">
        <ele>301</ele>
        <time>2019-04-14T09:24:46Z</time>
      </trkpt>
      <trkpt lat="44.41074" lon="1.33293">
        <ele>302</ele>
        <time>2019-04-14T09:24:53Z</time>
      </trkpt>
      <trkpt lat="44.41067" lon="1.33301">
        <ele>303</ele>
        <time>2019-04-14T09:24:57Z</time>
      </trkpt>
      <trkpt lat="44.41064" lon="1.33305">
        <ele>304</ele>
        <time>2019-04-14T09:24:59Z</time>
      </trkpt>
      <trkpt lat="44.41061" lon="1.33308">
        <ele>304</ele>
        <time>2019-04-14T09:25:01Z</time>
      </trkpt>
      <trkpt lat="44.41057" lon="1.33314">
        <ele>305</ele>
        <time>2019-04-14T09:25:04Z</time>
      </trkpt>
      <trkpt lat="44.4105" lon="1.33322">
        <ele>305</ele>
        <time>2019-04-14T09:25:09Z</time>
      </trkpt>
      <trkpt lat="44.41048" lon="1.33324">
        <ele>305</ele>
        <time>2019-04-14T09:25:10Z</time>
      </trkpt>
      <trkpt lat="44.4104" lon="1.33336">
        <ele>306</ele>
        <time>2019-04-14T09:25:16Z</time>
      </trkpt>
      <trkpt lat="44.41038" lon="1.3334">
        <ele>307</ele>
        <time>2019-04-14T09:25:18Z</time>
      </trkpt>
      <trkpt lat="44.41036" lon="1.33344">
        <ele>307</ele>
        <time>2019-04-14T09:25:20Z</time>
      </trkpt>
      <trkpt lat="44.41029" lon="1.33354">
        <ele>308</ele>
        <time>2019-04-14T09:25:25Z</time>
      </trkpt>
      <trkpt lat="44.41025" lon="1.3336">
        <ele>308</ele>
        <time>2019-04-14T09:25:28Z</time>
      </trkpt>
      <trkpt lat="44.41022" lon="1.33366">
        <ele>309</ele>
        <time>2019-04-14T09:25:31Z</time>
      </trkpt>
      <trkpt lat="44.41017" lon="1.33374">
        <ele>310</ele>
        <time>2019-04-14T09:25:35Z</time>
      </trkpt>
      <trkpt lat="44.41013" lon="1.33383">
        <ele>310</ele>
        <time>2019-04-14T09:25:39Z</time>
      </trkpt>
      <trkpt lat="44.41011" lon="1.33387">
        <ele>310</ele>
        <time>2019-04-14T09:25:41Z</time>
      </trkpt>
      <trkpt lat="44.41008" lon="1.33395">
        <ele>311</ele>
        <time>2019-04-14T09:25:44Z</time>
      </trkpt>
      <trkpt lat="44.41002" lon="1.33409">
        <ele>312</ele>
        <time>2019-04-14T09:25:50Z</time>
      </trkpt>
      <trkpt lat="44.41001" lon="1.33415">
        <ele>312</ele>
        <time>2019-04-14T09:25:52Z</time>
      </trkpt>
      <trkpt lat="44.40997" lon="1.33427">
        <ele>313</ele>
        <time>2019-04-14T09:25:57Z</time>
      </trkpt>
      <trkpt lat="44.40996" lon="1.33431">
        <ele>313</ele>
        <time>2019-04-14T09:25:59Z</time>
      </trkpt>
      <trkpt lat="44.40992" lon="1.3344">
        <ele>314</ele>
        <time>2019-04-14T09:26:03Z</time>
      </trkpt>
      <trkpt lat="44.4099" lon="1.33446">
        <ele>314</ele>
        <time>2019-04-14T09:26:06Z</time>
      </trkpt>
      <trkpt lat="44.40987" lon="1.33453">
        <ele>315</ele>
        <time>2019-04-14T09:26:09Z</time>
      </trkpt>
      <trkpt lat="44.40983" lon="1.33465">
        <ele>315</ele>
        <time>2019-04-14T09:26:14Z</time>
      </trkpt>
      <trkpt lat="44.40979" lon="1.33474">
        <ele>316</ele>
        <time>2019-04-14T09:26:18Z</time>
      </trkpt>
      <trkpt lat="44.40975" lon="1.33484">
        <ele>317</ele>
        <time>2019-04-14T09:26:22Z</time>
      </trkpt>
      <trkpt lat="44.40974" lon="1.33486">
        <ele>317</ele>
        <time>2019-04-14T09:26:23Z</time>
      </trkpt>
      <trkpt lat="44.40971" lon="1.33495">
        <ele>318</ele>
        <time>2019-04-14T09:26:27Z</time>
      </trkpt>
      <trkpt lat="44.4097" lon="1.33497">
        <ele>318</ele>
        <time>2019-04-14T09:26:28Z</time>
      </trkpt>
      <trkpt lat="44.40966" lon="1.33507">
        <ele>319</ele>
        <time>2019-04-14T09:26:33Z</time>
      </trkpt>
      <trkpt lat="44.40965" lon="1.3351">
        <ele>319</ele>
        <time>2019-04-14T09:26:34Z</time>
      </trkpt>
      <trkpt lat="44.40957" lon="1.33523">
        <ele>320</ele>
        <time>2019-04-14T09:26:40Z</time>
      </trkpt>
      <trkpt lat="44.40953" lon="1.3353">
        <ele>320</ele>
        <time>2019-04-14T09:26:43Z</time>
      </trkpt>
      <trkpt lat="44.40942" lon="1.33542">
        <ele>321</ele>
        <time>2019-04-14T09:26:50Z</time>
      </trkpt>
      <trkpt lat="44.40937" lon="1.33548">
        <ele>321</ele>
        <time>2019-04-14T09:26:53Z</time>
      </trkpt>
      <trkpt lat="44.40926" lon="1.33557">
        <ele>322</ele>
        <time>2019-04-14T09:26:59Z</time>
      </trkpt>
      <trkpt lat="44.40921" lon="1.33561">
        <ele>322</ele>
        <time>2019-04-14T09:27:02Z</time>
      </trkpt>
      <trkpt lat="44.40911" lon="1.33567">
        <ele>323</ele>
        <time>2019-04-14T09:27:07Z</time>
      </trkpt>
      <trkpt lat="44.40909" lon="1.33568">
        <ele>323</ele>
        <time>2019-04-14T09:27:08Z</time>
      </trkpt>
      <trkpt lat="44.40891" lon="1.33577">
        <ele>324</ele>
        <time>2019-04-14T09:27:16Z</time>
      </trkpt>
      <trkpt lat="44.40889" lon="1.33578">
        <ele>324</ele>
        <time>2019-04-14T09:27:17Z</time>
      </trkpt>
      <trkpt lat="44.40879" lon="1.33584">
        <ele>325</ele>
        <time>2019-04-14T09:27:22Z</time>
      </trkpt>
      <trkpt lat="44.4087" lon="1.33591">
        <ele>326</ele>
        <time>2019-04-14T09:27:26Z</time>
      </trkpt>
      <trkpt lat="44.40864" lon="1.33596">
        <ele>326</ele>
        <time>2019-04-14T09:27:29Z</time>
      </trkpt>
      <trkpt lat="44.40851" lon="1.33607">
        <ele>327</ele>
        <time>2019-04-14T09:27:36Z</time>
      </trkpt>
      <trkpt lat="44.40848" lon="1.33609">
        <ele>327</ele>
        <time>2019-04-14T09:27:38Z</time>
      </trkpt>
      <trkpt lat="44.40837" lon="1.3362">
        <ele>328</ele>
        <time>2019-04-14T09:27:44Z</time>
      </trkpt>
      <trkpt lat="44.40826" lon="1.33631">
        <ele>328</ele>
        <time>2019-04-14T09:27:50Z</time>
      </trkpt>
      <trkpt lat="44.4082" lon="1.33636">
        <ele>329</ele>
        <time>2019-04-14T09:27:53Z</time>
      </trkpt>
      <trkpt lat="44.40816" lon="1.3364">
        <ele>329</ele>
        <time>2019-04-14T09:27:55Z</time>
      </trkpt>
      <trkpt lat="44.40807" lon="1.33649">
        <ele>330</ele>
        <time>2019-04-14T09:28:00Z</time>
      </trkpt>
      <trkpt lat="44.40804" lon="1.33653">
        <ele>330</ele>
        <time>2019-04-14T09:28:02Z</time>
      </trkpt>
      <trkpt lat="44.40798" lon="1.33663">
        <ele>331</ele>
        <time>2019-04-14T09:28:06Z</time>
      </trkpt>
      <trkpt lat="44.40793" lon="1.33674">
        <ele>331</ele>
        <time>2019-04-14T09:28:10Z</time>
      </trkpt>
      <trkpt lat="44.40791" lon="1.3368">
        <ele>331</ele>
        <time>2019-04-14T09:28:12Z</time>
      </trkpt>
      <trkpt lat="44.40783" lon="1.33691">
        <ele>332</ele>
        <time>2019-04-14T09:28:17Z</time>
      </trkpt>
      <trkpt lat="44.40779" lon="1.33694">
        <ele>333</ele>
        <time>2019-04-14T09:28:19Z</time>
      </trkpt>
      <trkpt lat="44.40773" lon="1.33693">
        <ele>333</ele>
        <time>2019-04-14T09:28:22Z</time>
      </trkpt>
      <trkpt lat="44.4077" lon="1.3369">
        <ele>334</ele>
        <time>2019-04-14T09:28:24Z</time>
      </trkpt>
      <trkpt lat="44.40762" lon="1.33684">
        <ele>334</ele>
        <time>2019-04-14T09:28:28Z</time>
      </trkpt>
      <trkpt lat="44.40754" lon="1.33677">
        <ele>335</ele>
        <time>2019-04-14T09:28:32Z</time>
      </trkpt>
      <trkpt lat="44.40739" lon="1.33665">
        <ele>335</ele>
        <time>2019-04-14T09:28:39Z</time>
      </trkpt>
      <trkpt lat="44.40722" lon="1.33649">
        <ele>336</ele>
        <time>2019-04-14T09:28:47Z</time>
      </trkpt>
      <trkpt lat="44.40704" lon="1.33632">
        <ele>337</ele>
        <time>2019-04-14T09:28:55Z</time>
      </trkpt>
      <trkpt lat="44.4069" lon="1.3362">
        <ele>338</ele>
        <time>2019-04-14T09:29:01Z</time>
      </trkpt>
      <trkpt lat="44.40686" lon="1.33616">
        <ele>339</ele>
        <time>2019-04-14T09:29:03Z</time>
      </trkpt>
      <trkpt lat="44.40681" lon="1.3361">
        <ele>339</ele>
        <time>2019-04-14T09:29:06Z</time>
      </trkpt>
      <trkpt lat="44.40673" lon="1.33604">
        <ele>340</ele>
        <time>2019-04-14T09:29:10Z</time>
      </trkpt>
      <trkpt lat="44.4067" lon="1.336">
        <ele>340</ele>
        <time>2019-04-14T09:29:12Z</time>
      </trkpt>
      <trkpt lat="44.40668" lon="1.33593">
        <ele>341</ele>
        <time>2019-04-14T09:29:15Z</time>
      </trkpt>
      <trkpt lat="44.40668" lon="1.33591">
        <ele>342</ele>
        <time>2019-04-14T09:29:16Z</time>
      </trkpt>
      <trkpt lat="44.40674" lon="1.33577">
        <ele>342</ele>
        <time>2019-04-14T09:29:21Z</time>
      </trkpt>
      <trkpt lat="44.40675" lon="1.33575">
        <ele>343</ele>
        <time>2019-04-14T09:29:22Z</time>
      </trkpt>
      <trkpt lat="44.40683" lon="1.33557">
        <ele>343</ele>
        <time>2019-04-14T09:29:29Z</time>
      </trkpt>
      <trkpt lat="44.40686" lon="1.3355">
        <ele>344</ele>
        <time>2019-04-14T09:29:32Z</time>
      </trkpt>
      <trkpt lat="44.40684" lon="1.33542">
        <ele>344</ele>
        <time>2019-04-14T09:29:37Z</time>
      </trkpt>
      <trkpt lat="44.4068" lon="1.33537">
        <ele>344</ele>
        <time>2019-04-14T09:29:42Z</time>
      </trkpt>
      <trkpt lat="44.40679" lon="1.33536">
        <ele>344</ele>
        <time>2019-04-14T09:29:43Z</time>
      </trkpt>
      <trkpt lat="44.40675" lon="1.33533">
        <ele>345</ele>
        <time>2019-04-14T09:29:46Z</time>
      </trkpt>
      <trkpt lat="44.40674" lon="1.33533">
        <ele>345</ele>
        <time>2019-04-14T09:29:48Z</time>
      </trkpt>
      <trkpt lat="44.40673" lon="1.33532">
        <ele>343</ele>
        <time>2019-04-14T09:38:06Z</time>
      </trkpt>
      <trkpt lat="44.40673" lon="1.33532">
        <ele>343</ele>
        <time>2019-04-14T09:38:08Z</time>
      </trkpt>
      <trkpt lat="44.40675" lon="1.33533">
        <ele>344</ele>
        <time>2019-04-14T09:38:13Z</time>
      </trkpt>
      <trkpt lat="44.40676" lon="1.33534">
        <ele>344</ele>
        <time>2019-04-14T09:38:14Z</time>
      </trkpt>
      <trkpt lat="44.4068" lon="1.33541">
        <ele>344</ele>
        <time>2019-04-14T09:38:17Z</time>
      </trkpt>
      <trkpt lat="44.40681" lon="1.33548">
        <ele>344</ele>
        <time>2019-04-14T09:38:19Z</time>
      </trkpt>
      <trkpt lat="44.40675" lon="1.33551">
        <ele>343</ele>
        <time>2019-04-14T09:38:22Z</time>
      </trkpt>
      <trkpt lat="44.40668" lon="1.33543">
        <ele>343</ele>
        <time>2019-04-14T09:38:26Z</time>
      </trkpt>
      <trkpt lat="44.40666" lon="1.33541">
        <ele>343</ele>
        <time>2019-04-14T09:38:27Z</time>
      </trkpt>
      <trkpt lat="44.40653" lon="1.33525">
        <ele>343</ele>
        <time>2019-04-14T09:38:33Z</time>
      </trkpt>
      <trkpt lat="44.40635" lon="1.33505">
        <ele>342</ele>
        <time>2019-04-14T09:38:38Z</time>
      </trkpt>
      <trkpt lat="44.40626" lon="1.33497">
        <ele>342</ele>
        <time>2019-04-14T09:38:40Z</time>
      </trkpt>
      <trkpt lat="44.40612" lon="1.33483">
        <ele>341</ele>
        <time>2019-04-14T09:38:44Z</time>
      </trkpt>
      <trkpt lat="44.406" lon="1.33466">
        <ele>343</ele>
        <time>2019-04-14T09:38:50Z</time>
      </trkpt>
      <trkpt lat="44.40597" lon="1.33455">
        <ele>344</ele>
        <time>2019-04-14T09:38:53Z</time>
      </trkpt>
      <trkpt lat="44.40597" lon="1.33451">
        <ele>344</ele>
        <time>2019-04-14T09:38:54Z</time>
      </trkpt>
      <trkpt lat="44.40599" lon="1.33446">
        <ele>344</ele>
        <time>2019-04-14T09:38:55Z</time>
      </trkpt>
      <trkpt lat="44.40611" lon="1.33424">
        <ele>344</ele>
        <time>2019-04-14T09:39:00Z</time>
      </trkpt>
      <trkpt lat="44.4062" lon="1.33409">
        <ele>345</ele>
        <time>2019-04-14T09:39:04Z</time>
      </trkpt>
      <trkpt lat="44.40628" lon="1.33385">
        <ele>346</ele>
        <time>2019-04-14T09:39:09Z</time>
      </trkpt>
      <trkpt lat="44.40631" lon="1.33375">
        <ele>346</ele>
        <time>2019-04-14T09:39:11Z</time>
      </trkpt>
      <trkpt lat="44.40637" lon="1.33367">
        <ele>346</ele>
        <time>2019-04-14T09:39:13Z</time>
      </trkpt>
      <trkpt lat="44.40645" lon="1.33351">
        <ele>346</ele>
        <time>2019-04-14T09:39:17Z</time>
      </trkpt>
      <trkpt lat="44.40651" lon="1.33342">
        <ele>346</ele>
        <time>2019-04-14T09:39:21Z</time>
      </trkpt>
      <trkpt lat="44.40655" lon="1.33339">
        <ele>346</ele>
        <time>2019-04-14T09:39:24Z</time>
      </trkpt>
      <trkpt lat="44.40656" lon="1.3333">
        <ele>346</ele>
        <time>2019-04-14T09:39:27Z</time>
      </trkpt>
      <trkpt lat="44.40659" lon="1.33317">
        <ele>346</ele>
        <time>2019-04-14T09:39:31Z</time>
      </trkpt>
      <trkpt lat="44.40659" lon="1.33313">
        <ele>346</ele>
        <time>2019-04-14T09:39:32Z</time>
      </trkpt>
      <trkpt lat="44.40662" lon="1.33309">
        <ele>346</ele>
        <time>2019-04-14T09:39:34Z</time>
      </trkpt>
      <trkpt lat="44.40667" lon="1.33298">
        <ele>345</ele>
        <time>2019-04-14T09:39:38Z</time>
      </trkpt>
      <trkpt lat="44.4067" lon="1.33297">
        <ele>345</ele>
        <time>2019-04-14T09:39:39Z</time>
      </trkpt>
      <trkpt lat="44.40671" lon="1.33297">
        <ele>345</ele>
        <time>2019-04-14T09:39:40Z</time>
      </trkpt>
      <trkpt lat="44.40674" lon="1.33297">
        <ele>346</ele>
        <time>2019-04-14T09:39:42Z</time>
      </trkpt>
      <trkpt lat="44.4068" lon="1.33291">
        <ele>346</ele>
        <time>2019-04-14T09:39:46Z</time>
      </trkpt>
      <trkpt lat="44.40682" lon="1.33288">
        <ele>346</ele>
        <time>2019-04-14T09:39:47Z</time>
      </trkpt>
      <trkpt lat="44.40688" lon="1.33281">
        <ele>347</ele>
        <time>2019-04-14T09:39:51Z</time>
      </trkpt>
      <trkpt lat="44.40691" lon="1.3328">
        <ele>347</ele>
        <time>2019-04-14T09:39:52Z</time>
      </trkpt>
      <trkpt lat="44.40695" lon="1.33272">
        <ele>347</ele>
        <time>2019-04-14T09:39:55Z</time>
      </trkpt>
      <trkpt lat="44.40705" lon="1.33251">
        <ele>348</ele>
        <time>2019-04-14T09:40:01Z</time>
      </trkpt>
      <trkpt lat="44.40705" lon="1.33247">
        <ele>348</ele>
        <time>2019-04-14T09:40:02Z</time>
      </trkpt>
      <trkpt lat="44.40701" lon="1.33235">
        <ele>347</ele>
        <time>2019-04-14T09:40:05Z</time>
      </trkpt>
      <trkpt lat="44.40701" lon="1.33225">
        <ele>347</ele>
        <time>2019-04-14T09:40:07Z</time>
      </trkpt>
      <trkpt lat="44.40703" lon="1.33221">
        <ele>346</ele>
        <time>2019-04-14T09:40:08Z</time>
      </trkpt>
      <trkpt lat="44.40712" lon="1.33198">
        <ele>347</ele>
        <time>2019-04-14T09:40:12Z</time>
      </trkpt>
      <trkpt lat="44.40715" lon="1.33193">
        <ele>347</ele>
        <time>2019-04-14T09:40:13Z</time>
      </trkpt>
      <trkpt lat="44.40724" lon="1.33178">
        <ele>346</ele>
        <time>2019-04-14T09:40:16Z</time>
      </trkpt>
      <trkpt lat="44.40733" lon="1.33166">
        <ele>346</ele>
        <time>2019-04-14T09:40:19Z</time>
      </trkpt>
      <trkpt lat="44.40742" lon="1.33152">
        <ele>346</ele>
        <time>2019-04-14T09:40:23Z</time>
      </trkpt>
      <trkpt lat="44.40735" lon="1.33139">
        <ele>346</ele>
        <time>2019-04-14T09:40:26Z</time>
      </trkpt>
      <trkpt lat="44.4073" lon="1.33134">
        <ele>345</ele>
        <time>2019-04-14T09:40:27Z</time>
      </trkpt>
      <trkpt lat="44.40725" lon="1.33129">
        <ele>345</ele>
        <time>2019-04-14T09:40:28Z</time>
      </trkpt>
      <trkpt lat="44.40719" lon="1.33124">
        <ele>344</ele>
        <time>2019-04-14T09:40:29Z</time>
      </trkpt>
      <trkpt lat="44.40713" lon="1.33119">
        <ele>343</ele>
        <time>2019-04-14T09:40:30Z</time>
      </trkpt>
      <trkpt lat="44.407" lon="1.33109">
        <ele>343</ele>
        <time>2019-04-14T09:40:32Z</time>
      </trkpt>
      <trkpt lat="44.40694" lon="1.33104">
        <ele>342</ele>
        <time>2019-04-14T09:40:33Z</time>
      </trkpt>
      <trkpt lat="44.4069" lon="1.33099">
        <ele>342</ele>
        <time>2019-04-14T09:40:34Z</time>
      </trkpt>
      <trkpt lat="44.40688" lon="1.33092">
        <ele>341</ele>
        <time>2019-04-14T09:40:35Z</time>
      </trkpt>
      <trkpt lat="44.4069" lon="1.33078">
        <ele>339</ele>
        <time>2019-04-14T09:40:37Z</time>
      </trkpt>
      <trkpt lat="44.40699" lon="1.33059">
        <ele>338</ele>
        <time>2019-04-14T09:40:40Z</time>
      </trkpt>
      <trkpt lat="44.40706" lon="1.33047">
        <ele>338</ele>
        <time>2019-04-14T09:40:42Z</time>
      </trkpt>
      <trkpt lat="44.40726" lon="1.3303">
        <ele>339</ele>
        <time>2019-04-14T09:40:47Z</time>
      </trkpt>
      <trkpt lat="44.40743" lon="1.33025">
        <ele>339</ele>
        <time>2019-04-14T09:40:51Z</time>
      </trkpt>
      <trkpt lat="44.40751" lon="1.33023">
        <ele>339</ele>
        <time>2019-04-14T09:40:53Z</time>
      </trkpt>
      <trkpt lat="44.4076" lon="1.33021">
        <ele>339</ele>
        <time>2019-04-14T09:40:55Z</time>
      </trkpt>
      <trkpt lat="44.40787" lon="1.33017">
        <ele>339</ele>
        <time>2019-04-14T09:41:01Z</time>
      </trkpt>
      <trkpt lat="44.40797" lon="1.33016">
        <ele>340</ele>
        <time>2019-04-14T09:41:03Z</time>
      </trkpt>
      <trkpt lat="44.40806" lon="1.33016">
        <ele>340</ele>
        <time>2019-04-14T09:41:05Z</time>
      </trkpt>
      <trkpt lat="44.40815" lon="1.33019">
        <ele>340</ele>
        <time>2019-04-14T09:41:07Z</time>
      </trkpt>
      <trkpt lat="44.40822" lon="1.33025">
        <ele>340</ele>
        <time>2019-04-14T09:41:09Z</time>
      </trkpt>
      <trkpt lat="44.40831" lon="1.33032">
        <ele>341</ele>
        <time>2019-04-14T09:41:12Z</time>
      </trkpt>
      <trkpt lat="44.40834" lon="1.33035">
        <ele>341</ele>
        <time>2019-04-14T09:41:13Z</time>
      </trkpt>
      <trkpt lat="44.40843" lon="1.33042">
        <ele>342</ele>
        <time>2019-04-14T09:41:16Z</time>
      </trkpt>
      <trkpt lat="44.40851" lon="1.33048">
        <ele>343</ele>
        <time>2019-04-14T09:41:19Z</time>
      </trkpt>
      <trkpt lat="44.40853" lon="1.33049">
        <ele>343</ele>
        <time>2019-04-14T09:41:20Z</time>
      </trkpt>
      <trkpt lat="44.40868" lon="1.33049">
        <ele>343</ele>
        <time>2019-04-14T09:41:25Z</time>
      </trkpt>
      <trkpt lat="44.40882" lon="1.33038">
        <ele>343</ele>
        <time>2019-04-14T09:41:30Z</time>
      </trkpt>
      <trkpt lat="44.4089" lon="1.33023">
        <ele>342</ele>
        <time>2019-04-14T09:41:34Z</time>
      </trkpt>
      <trkpt lat="44.40893" lon="1.33016">
        <ele>341</ele>
        <time>2019-04-14T09:41:36Z</time>
      </trkpt>
      <trkpt lat="44.40895" lon="1.3301">
        <ele>340</ele>
        <time>2019-04-14T09:41:38Z</time>
      </trkpt>
      <trkpt lat="44.40889" lon="1.33004">
        <ele>340</ele>
        <time>2019-04-14T09:41:41Z</time>
      </trkpt>
      <trkpt lat="44.40885" lon="1.32995">
        <ele>341</ele>
        <time>2019-04-14T09:41:44Z</time>
      </trkpt>
      <trkpt lat="44.40885" lon="1.32992">
        <ele>341</ele>
        <time>2019-04-14T09:41:45Z</time>
      </trkpt>
      <trkpt lat="44.40885" lon="1.32979">
        <ele>342</ele>
        <time>2019-04-14T09:41:49Z</time>
      </trkpt>
      <trkpt lat="44.40886" lon="1.32975">
        <ele>342</ele>
        <time>2019-04-14T09:41:50Z</time>
      </trkpt>
      <trkpt lat="44.40887" lon="1.32972">
        <ele>342</ele>
        <time>2019-04-14T09:41:51Z</time>
      </trkpt>
      <trkpt lat="44.40894" lon="1.3296">
        <ele>343</ele>
        <time>2019-04-14T09:41:55Z</time>
      </trkpt>
      <trkpt lat="44.40895" lon="1.32956">
        <ele>343</ele>
        <time>2019-04-14T09:41:56Z</time>
      </trkpt>
      <trkpt lat="44.40896" lon="1.32952">
        <ele>343</ele>
        <time>2019-04-14T09:41:57Z</time>
      </trkpt>
      <trkpt lat="44.40899" lon="1.32943">
        <ele>344</ele>
        <time>2019-04-14T09:42:00Z</time>
      </trkpt>
      <trkpt lat="44.409" lon="1.32937">
        <ele>345</ele>
        <time>2019-04-14T09:42:02Z</time>
      </trkpt>
      <trkpt lat="44.40901" lon="1.32934">
        <ele>345</ele>
        <time>2019-04-14T09:42:03Z</time>
      </trkpt>
      <trkpt lat="44.40902" lon="1.32931">
        <ele>346</ele>
        <time>2019-04-14T09:42:04Z</time>
      </trkpt>
      <trkpt lat="44.40902" lon="1.32923">
        <ele>346</ele>
        <time>2019-04-14T09:42:06Z</time>
      </trkpt>
      <trkpt lat="44.40902" lon="1.32918">
        <ele>346</ele>
        <time>2019-04-14T09:42:07Z</time>
      </trkpt>
      <trkpt lat="44.40902" lon="1.32898">
        <ele>347</ele>
        <time>2019-04-14T09:42:12Z</time>
      </trkpt>
      <trkpt lat="44.40904" lon="1.3288">
        <ele>347</ele>
        <time>2019-04-14T09:42:17Z</time>
      </trkpt>
      <trkpt lat="44.40908" lon="1.32876">
        <ele>347</ele>
        <time>2019-04-14T09:42:19Z</time>
      </trkpt>
      <trkpt lat="44.40908" lon="1.32869">
        <ele>347</ele>
        <time>2019-04-14T09:42:21Z</time>
      </trkpt>
      <trkpt lat="44.40907" lon="1.3286">
        <ele>347</ele>
        <time>2019-04-14T09:42:23Z</time>
      </trkpt>
      <trkpt lat="44.40907" lon="1.32845">
        <ele>348</ele>
        <time>2019-04-14T09:42:26Z</time>
      </trkpt>
      <trkpt lat="44.40907" lon="1.32827">
        <ele>347</ele>
        <time>2019-04-14T09:42:30Z</time>
      </trkpt>
      <trkpt lat="44.40905" lon="1.32823">
        <ele>347</ele>
        <time>2019-04-14T09:42:31Z</time>
      </trkpt>
      <trkpt lat="44.40898" lon="1.32809">
        <ele>346</ele>
        <time>2019-04-14T09:42:34Z</time>
      </trkpt>
      <trkpt lat="44.40896" lon="1.32804">
        <ele>345</ele>
        <time>2019-04-14T09:42:35Z</time>
      </trkpt>
      <trkpt lat="44.40896" lon="1.328">
        <ele>345</ele>
        <time>2019-04-14T09:42:36Z</time>
      </trkpt>
      <trkpt lat="44.40902" lon="1.32783">
        <ele>345</ele>
        <time>2019-04-14T09:42:40Z</time>
      </trkpt>
      <trkpt lat="44.40904" lon="1.32779">
        <ele>345</ele>
        <time>2019-04-14T09:42:41Z</time>
      </trkpt>
      <trkpt lat="44.40909" lon="1.32777">
        <ele>345</ele>
        <time>2019-04-14T09:42:43Z</time>
      </trkpt>
      <trkpt lat="44.40915" lon="1.32788">
        <ele>345</ele>
        <time>2019-04-14T09:42:47Z</time>
      </trkpt>
      <trkpt lat="44.40916" lon="1.32791">
        <ele>345</ele>
        <time>2019-04-14T09:42:48Z</time>
      </trkpt>
      <trkpt lat="44.40926" lon="1.32805">
        <ele>347</ele>
        <time>2019-04-14T09:42:53Z</time>
      </trkpt>
      <trkpt lat="44.40935" lon="1.3281">
        <ele>348</ele>
        <time>2019-04-14T09:42:57Z</time>
      </trkpt>
      <trkpt lat="44.40938" lon="1.32811">
        <ele>348</ele>
        <time>2019-04-14T09:42:58Z</time>
      </trkpt>
      <trkpt lat="44.40957" lon="1.32809">
        <ele>348</ele>
        <time>2019-04-14T09:43:04Z</time>
      </trkpt>
      <trkpt lat="44.40975" lon="1.328">
        <ele>348</ele>
        <time>2019-04-14T09:43:09Z</time>
      </trkpt>
      <trkpt lat="44.40975" lon="1.32787">
        <ele>348</ele>
        <time>2019-04-14T09:43:12Z</time>
      </trkpt>
      <trkpt lat="44.40974" lon="1.32773">
        <ele>347</ele>
        <time>2019-04-14T09:43:16Z</time>
      </trkpt>
      <trkpt lat="44.4098" lon="1.32757">
        <ele>347</ele>
        <time>2019-04-14T09:43:20Z</time>
      </trkpt>
      <trkpt lat="44.40984" lon="1.32751">
        <ele>347</ele>
        <time>2019-04-14T09:43:23Z</time>
      </trkpt>
      <trkpt lat="44.40986" lon="1.32744">
        <ele>346</ele>
        <time>2019-04-14T09:43:25Z</time>
      </trkpt>
      <trkpt lat="44.40989" lon="1.32729">
        <ele>346</ele>
        <time>2019-04-14T09:43:28Z</time>
      </trkpt>
      <trkpt lat="44.40989" lon="1.32718">
        <ele>346</ele>
        <time>2019-04-14T09:43:30Z</time>
      </trkpt>
      <trkpt lat="44.40987" lon="1.32706">
        <ele>345</ele>
        <time>2019-04-14T09:43:32Z</time>
      </trkpt>
      <trkpt lat="44.40986" lon="1.32699">
        <ele>344</ele>
        <time>2019-04-14T09:43:33Z</time>
      </trkpt>
      <trkpt lat="44.40989" lon="1.32689">
        <ele>344</ele>
        <time>2019-04-14T09:43:35Z</time>
      </trkpt>
      <trkpt lat="44.40988" lon="1.32676">
        <ele>343</ele>
        <time>2019-04-14T09:43:38Z</time>
      </trkpt>
      <trkpt lat="44.40995" lon="1.32663">
        <ele>343</ele>
        <time>2019-04-14T09:43:42Z</time>
      </trkpt>
      <trkpt lat="44.40998" lon="1.3266">
        <ele>343</ele>
        <time>2019-04-14T09:43:43Z</time>
      </trkpt>
      <trkpt lat="44.41014" lon="1.32646">
        <ele>342</ele>
        <time>2019-04-14T09:43:48Z</time>
      </trkpt>
      <trkpt lat="44.41024" lon="1.3263">
        <ele>341</ele>
        <time>2019-04-14T09:43:52Z</time>
      </trkpt>
      <trkpt lat="44.41036" lon="1.32614">
        <ele>341</ele>
        <time>2019-04-14T09:43:56Z</time>
      </trkpt>
      <trkpt lat="44.41037" lon="1.3261">
        <ele>340</ele>
        <time>2019-04-14T09:43:57Z</time>
      </trkpt>
      <trkpt lat="44.41037" lon="1.32606">
        <ele>340</ele>
        <time>2019-04-14T09:43:58Z</time>
      </trkpt>
      <trkpt lat="44.4103" lon="1.32599">
        <ele>339</ele>
        <time>2019-04-14T09:44:00Z</time>
      </trkpt>
      <trkpt lat="44.41027" lon="1.32595">
        <ele>339</ele>
        <time>2019-04-14T09:44:01Z</time>
      </trkpt>
      <trkpt lat="44.41023" lon="1.32591">
        <ele>339</ele>
        <time>2019-04-14T09:44:02Z</time>
      </trkpt>
      <trkpt lat="44.41019" lon="1.32582">
        <ele>338</ele>
        <time>2019-04-14T09:44:04Z</time>
      </trkpt>
      <trkpt lat="44.4102" lon="1.32577">
        <ele>338</ele>
        <time>2019-04-14T09:44:05Z</time>
      </trkpt>
      <trkpt lat="44.41026" lon="1.32556">
        <ele>337</ele>
        <time>2019-04-14T09:44:09Z</time>
      </trkpt>
      <trkpt lat="44.41025" lon="1.32537">
        <ele>336</ele>
        <time>2019-04-14T09:44:12Z</time>
      </trkpt>
      <trkpt lat="44.41026" lon="1.32531">
        <ele>336</ele>
        <time>2019-04-14T09:44:13Z</time>
      </trkpt>
      <trkpt lat="44.41027" lon="1.32524">
        <ele>335</ele>
        <time>2019-04-14T09:44:14Z</time>
      </trkpt>
      <trkpt lat="44.41028" lon="1.32517">
        <ele>335</ele>
        <time>2019-04-14T09:44:15Z</time>
      </trkpt>
      <trkpt lat="44.41031" lon="1.32511">
        <ele>334</ele>
        <time>2019-04-14T09:44:16Z</time>
      </trkpt>
      <trkpt lat="44.41035" lon="1.32508">
        <ele>334</ele>
        <time>2019-04-14T09:44:17Z</time>
      </trkpt>
      <trkpt lat="44.4104" lon="1.32503">
        <ele>333</ele>
        <time>2019-04-14T09:44:19Z</time>
      </trkpt>
      <trkpt lat="44.41043" lon="1.32489">
        <ele>333</ele>
        <time>2019-04-14T09:44:22Z</time>
      </trkpt>
      <trkpt lat="44.4105" lon="1.32472">
        <ele>333</ele>
        <time>2019-04-14T09:44:26Z</time>
      </trkpt>
      <trkpt lat="44.41052" lon="1.32466">
        <ele>332</ele>
        <time>2019-04-14T09:44:27Z</time>
      </trkpt>
      <trkpt lat="44.41054" lon="1.32456">
        <ele>332</ele>
        <time>2019-04-14T09:44:29Z</time>
      </trkpt>
      <trkpt lat="44.41063" lon="1.32444">
        <ele>332</ele>
        <time>2019-04-14T09:44:33Z</time>
      </trkpt>
      <trkpt lat="44.41061" lon="1.32435">
        <ele>333</ele>
        <time>2019-04-14T09:44:36Z</time>
      </trkpt>
      <trkpt lat="44.41052" lon="1.32433">
        <ele>333</ele>
        <time>2019-04-14T09:44:39Z</time>
      </trkpt>
      <trkpt lat="44.41047" lon="1.32422">
        <ele>331</ele>
        <time>2019-04-14T09:44:42Z</time>
      </trkpt>
      <trkpt lat="44.41045" lon="1.32402">
        <ele>331</ele>
        <time>2019-04-14T09:44:46Z</time>
      </trkpt>
      <trkpt lat="44.41035" lon="1.32387">
        <ele>330</ele>
        <time>2019-04-14T09:44:50Z</time>
      </trkpt>
      <trkpt lat="44.41035" lon="1.32376">
        <ele>330</ele>
        <time>2019-04-14T09:44:53Z</time>
      </trkpt>
      <trkpt lat="44.41037" lon="1.32369">
        <ele>329</ele>
        <time>2019-04-14T09:44:55Z</time>
      </trkpt>
      <trkpt lat="44.41038" lon="1.32365">
        <ele>329</ele>
        <time>2019-04-14T09:44:57Z</time>
      </trkpt>
      <trkpt lat="44.41038" lon="1.32362">
        <ele>329</ele>
        <time>2019-04-14T09:44:58Z</time>
      </trkpt>
      <trkpt lat="44.41042" lon="1.32352">
        <ele>329</ele>
        <time>2019-04-14T09:45:01Z</time>
      </trkpt>
      <trkpt lat="44.41049" lon="1.32335">
        <ele>329</ele>
        <time>2019-04-14T09:45:05Z</time>
      </trkpt>
      <trkpt lat="44.4105" lon="1.32331">
        <ele>329</ele>
        <time>2019-04-14T09:45:06Z</time>
      </trkpt>
      <trkpt lat="44.41052" lon="1.32322">
        <ele>329</ele>
        <time>2019-04-14T09:45:08Z</time>
      </trkpt>
      <trkpt lat="44.41057" lon="1.32301">
        <ele>329</ele>
        <time>2019-04-14T09:45:12Z</time>
      </trkpt>
      <trkpt lat="44.41063" lon="1.32265">
        <ele>328</ele>
        <time>2019-04-14T09:45:17Z</time>
      </trkpt>
      <trkpt lat="44.41066" lon="1.32258">
        <ele>328</ele>
        <time>2019-04-14T09:45:18Z</time>
      </trkpt>
      <trkpt lat="44.41078" lon="1.32244">
        <ele>327</ele>
        <time>2019-04-14T09:45:21Z</time>
      </trkpt>
      <trkpt lat="44.41082" lon="1.32241">
        <ele>327</ele>
        <time>2019-04-14T09:45:22Z</time>
      </trkpt>
      <trkpt lat="44.41111" lon="1.32216">
        <ele>328</ele>
        <time>2019-04-14T09:45:29Z</time>
      </trkpt>
      <trkpt lat="44.41134" lon="1.32201">
        <ele>328</ele>
        <time>2019-04-14T09:45:34Z</time>
      </trkpt>
      <trkpt lat="44.41154" lon="1.32191">
        <ele>328</ele>
        <time>2019-04-14T09:45:38Z</time>
      </trkpt>
      <trkpt lat="44.41183" lon="1.32182">
        <ele>328</ele>
        <time>2019-04-14T09:45:44Z</time>
      </trkpt>
      <trkpt lat="44.41188" lon="1.32182">
        <ele>328</ele>
        <time>2019-04-14T09:45:45Z</time>
      </trkpt>
      <trkpt lat="44.41213" lon="1.32186">
        <ele>329</ele>
        <time>2019-04-14T09:45:50Z</time>
      </trkpt>
      <trkpt lat="44.41223" lon="1.32189">
        <ele>329</ele>
        <time>2019-04-14T09:45:52Z</time>
      </trkpt>
      <trkpt lat="44.41262" lon="1.32209">
        <ele>329</ele>
        <time>2019-04-14T09:46:00Z</time>
      </trkpt>
      <trkpt lat="44.41306" lon="1.32237">
        <ele>329</ele>
        <time>2019-04-14T09:46:09Z</time>
      </trkpt>
      <trkpt lat="44.41339" lon="1.32257">
        <ele>329</ele>
        <time>2019-04-14T09:46:16Z</time>
      </trkpt>
      <trkpt lat="44.41357" lon="1.32269">
        <ele>329</ele>
        <time>2019-04-14T09:46:20Z</time>
      </trkpt>
      <trkpt lat="44.41372" lon="1.32272">
        <ele>329</ele>
        <time>2019-04-14T09:46:23Z</time>
      </trkpt>
      <trkpt lat="44.41396" lon="1.32266">
        <ele>329</ele>
        <time>2019-04-14T09:46:28Z</time>
      </trkpt>
      <trkpt lat="44.41409" lon="1.32258">
        <ele>329</ele>
        <time>2019-04-14T09:46:33Z</time>
      </trkpt>
      <trkpt lat="44.41411" lon="1.32258">
        <ele>329</ele>
        <time>2019-04-14T09:46:34Z</time>
      </trkpt>
      <trkpt lat="44.41413" lon="1.32256">
        <ele>329</ele>
        <time>2019-04-14T09:46:36Z</time>
      </trkpt>
      <trkpt lat="44.41411" lon="1.32253">
        <ele>329</ele>
        <time>2019-04-14T09:46:39Z</time>
      </trkpt>
      <trkpt lat="44.41402" lon="1.32258">
        <ele>329</ele>
        <time>2019-04-14T09:46:44Z</time>
      </trkpt>
      <trkpt lat="44.41399" lon="1.32259">
        <ele>329</ele>
        <time>2019-04-14T09:46:45Z</time>
      </trkpt>
      <trkpt lat="44.41388" lon="1.32264">
        <ele>329</ele>
        <time>2019-04-14T09:46:51Z</time>
      </trkpt>
      <trkpt lat="44.41384" lon="1.32265">
        <ele>329</ele>
        <time>2019-04-14T09:46:53Z</time>
      </trkpt>
      <trkpt lat="44.41374" lon="1.32269">
        <ele>329</ele>
        <time>2019-04-14T09:47:00Z</time>
      </trkpt>
      <trkpt lat="44.41373" lon="1.32271">
        <ele>329</ele>
        <time>2019-04-14T09:47:01Z</time>
      </trkpt>
      <trkpt lat="44.41373" lon="1.32273">
        <ele>329</ele>
        <time>2019-04-14T09:47:04Z</time>
      </trkpt>
      <trkpt lat="44.41374" lon="1.32275">
        <ele>329</ele>
        <time>2019-04-14T09:47:16Z</time>
      </trkpt>
      <trkpt lat="44.41377" lon="1.32276">
        <ele>329</ele>
        <time>2019-04-14T09:47:17Z</time>
      </trkpt>
      <trkpt lat="44.4138" lon="1.32272">
        <ele>329</ele>
        <time>2019-04-14T09:47:20Z</time>
      </trkpt>
      <trkpt lat="44.41388" lon="1.32267">
        <ele>329</ele>
        <time>2019-04-14T09:47:24Z</time>
      </trkpt>
      <trkpt lat="44.41405" lon="1.32259">
        <ele>329</ele>
        <time>2019-04-14T09:47:29Z</time>
      </trkpt>
      <trkpt lat="44.41409" lon="1.32258">
        <ele>330</ele>
        <time>2019-04-14T09:47:30Z</time>
      </trkpt>
      <trkpt lat="44.4142" lon="1.32253">
        <ele>329</ele>
        <time>2019-04-14T09:47:33Z</time>
      </trkpt>
      <trkpt lat="44.41434" lon="1.32249">
        <ele>329</ele>
        <time>2019-04-14T09:47:37Z</time>
      </trkpt>
      <trkpt lat="44.41446" lon="1.32249">
        <ele>329</ele>
        <time>2019-04-14T09:47:40Z</time>
      </trkpt>
      <trkpt lat="44.4145" lon="1.32249">
        <ele>329</ele>
        <time>2019-04-14T09:47:41Z</time>
      </trkpt>
      <trkpt lat="44.41478" lon="1.32252">
        <ele>329</ele>
        <time>2019-04-14T09:47:47Z</time>
      </trkpt>
      <trkpt lat="44.41511" lon="1.32261">
        <ele>328</ele>
        <time>2019-04-14T09:47:54Z</time>
      </trkpt>
      <trkpt lat="44.41521" lon="1.32263">
        <ele>328</ele>
        <time>2019-04-14T09:47:56Z</time>
      </trkpt>
      <trkpt lat="44.41527" lon="1.32269">
        <ele>328</ele>
        <time>2019-04-14T09:47:58Z</time>
      </trkpt>
      <trkpt lat="44.41532" lon="1.32281">
        <ele>327</ele>
        <time>2019-04-14T09:48:01Z</time>
      </trkpt>
      <trkpt lat="44.41537" lon="1.32285">
        <ele>326</ele>
        <time>2019-04-14T09:48:03Z</time>
      </trkpt>
      <trkpt lat="44.41546" lon="1.32289">
        <ele>326</ele>
        <time>2019-04-14T09:48:06Z</time>
      </trkpt>
      <trkpt lat="44.4156" lon="1.32293">
        <ele>327</ele>
        <time>2019-04-14T09:48:10Z</time>
      </trkpt>
      <trkpt lat="44.41563" lon="1.32295">
        <ele>327</ele>
        <time>2019-04-14T09:48:11Z</time>
      </trkpt>
      <trkpt lat="44.41576" lon="1.323">
        <ele>328</ele>
        <time>2019-04-14T09:48:14Z</time>
      </trkpt>
      <trkpt lat="44.41584" lon="1.32302">
        <ele>328</ele>
        <time>2019-04-14T09:48:16Z</time>
      </trkpt>
      <trkpt lat="44.41588" lon="1.32303">
        <ele>328</ele>
        <time>2019-04-14T09:48:17Z</time>
      </trkpt>
      <trkpt lat="44.416" lon="1.3231">
        <ele>329</ele>
        <time>2019-04-14T09:48:21Z</time>
      </trkpt>
      <trkpt lat="44.41616" lon="1.32323">
        <ele>330</ele>
        <time>2019-04-14T09:48:26Z</time>
      </trkpt>
      <trkpt lat="44.41619" lon="1.32326">
        <ele>330</ele>
        <time>2019-04-14T09:48:27Z</time>
      </trkpt>
      <trkpt lat="44.41624" lon="1.32339">
        <ele>330</ele>
        <time>2019-04-14T09:48:30Z</time>
      </trkpt>
      <trkpt lat="44.41639" lon="1.32363">
        <ele>329</ele>
        <time>2019-04-14T09:48:35Z</time>
      </trkpt>
      <trkpt lat="44.41642" lon="1.32365">
        <ele>329</ele>
        <time>2019-04-14T09:48:36Z</time>
      </trkpt>
      <trkpt lat="44.41645" lon="1.32366">
        <ele>328</ele>
        <time>2019-04-14T09:48:37Z</time>
      </trkpt>
      <trkpt lat="44.41647" lon="1.32367">
        <ele>328</ele>
        <time>2019-04-14T09:48:38Z</time>
      </trkpt>
      <trkpt lat="44.4166" lon="1.32369">
        <ele>328</ele>
        <time>2019-04-14T09:48:43Z</time>
      </trkpt>
      <trkpt lat="44.4167" lon="1.32371">
        <ele>329</ele>
        <time>2019-04-14T09:48:47Z</time>
      </trkpt>
      <trkpt lat="44.41673" lon="1.32374">
        <ele>329</ele>
        <time>2019-04-14T09:48:48Z</time>
      </trkpt>
      <trkpt lat="44.41678" lon="1.32383">
        <ele>329</ele>
        <time>2019-04-14T09:48:50Z</time>
      </trkpt>
      <trkpt lat="44.4168" lon="1.32389">
        <ele>329</ele>
        <time>2019-04-14T09:48:51Z</time>
      </trkpt>
      <trkpt lat="44.41691" lon="1.32407">
        <ele>328</ele>
        <time>2019-04-14T09:48:54Z</time>
      </trkpt>
      <trkpt lat="44.417" lon="1.32426">
        <ele>328</ele>
        <time>2019-04-14T09:48:56Z</time>
      </trkpt>
      <trkpt lat="44.41703" lon="1.3243">
        <ele>326</ele>
        <time>2019-04-14T09:48:58Z</time>
      </trkpt>
      <trkpt lat="44.41706" lon="1.32433">
        <ele>326</ele>
        <time>2019-04-14T09:48:59Z</time>
      </trkpt>
      <trkpt lat="44.4171" lon="1.32437">
        <ele>325</ele>
        <time>2019-04-14T09:49:00Z</time>
      </trkpt>
      <trkpt lat="44.41713" lon="1.32441">
        <ele>324</ele>
        <time>2019-04-14T09:49:01Z</time>
      </trkpt>
      <trkpt lat="44.41719" lon="1.32442">
        <ele>323</ele>
        <time>2019-04-14T09:49:03Z</time>
      </trkpt>
      <trkpt lat="44.41729" lon="1.32432">
        <ele>322</ele>
        <time>2019-04-14T09:49:06Z</time>
      </trkpt>
      <trkpt lat="44.41732" lon="1.32429">
        <ele>322</ele>
        <time>2019-04-14T09:49:07Z</time>
      </trkpt>
      <trkpt lat="44.41735" lon="1.32425">
        <ele>322</ele>
        <time>2019-04-14T09:49:08Z</time>
      </trkpt>
      <trkpt lat="44.41744" lon="1.32413">
        <ele>323</ele>
        <time>2019-04-14T09:49:11Z</time>
      </trkpt>
      <trkpt lat="44.41746" lon="1.3241">
        <ele>323</ele>
        <time>2019-04-14T09:49:12Z</time>
      </trkpt>
      <trkpt lat="44.41751" lon="1.32411">
        <ele>324</ele>
        <time>2019-04-14T09:49:14Z</time>
      </trkpt>
      <trkpt lat="44.4176" lon="1.32411">
        <ele>324</ele>
        <time>2019-04-14T09:49:17Z</time>
      </trkpt>
      <trkpt lat="44.41764" lon="1.3241">
        <ele>324</ele>
        <time>2019-04-14T09:49:18Z</time>
      </trkpt>
      <trkpt lat="44.41776" lon="1.32408">
        <ele>324</ele>
        <time>2019-04-14T09:49:22Z</time>
      </trkpt>
      <trkpt lat="44.41779" lon="1.32409">
        <ele>325</ele>
        <time>2019-04-14T09:49:23Z</time>
      </trkpt>
      <trkpt lat="44.41785" lon="1.32414">
        <ele>325</ele>
        <time>2019-04-14T09:49:25Z</time>
      </trkpt>
      <trkpt lat="44.41787" lon="1.32416">
        <ele>325</ele>
        <time>2019-04-14T09:49:26Z</time>
      </trkpt>
      <trkpt lat="44.41791" lon="1.32422">
        <ele>325</ele>
        <time>2019-04-14T09:49:28Z</time>
      </trkpt>
      <trkpt lat="44.41795" lon="1.32425">
        <ele>325</ele>
        <time>2019-04-14T09:49:30Z</time>
      </trkpt>
      <trkpt lat="44.41799" lon="1.32431">
        <ele>325</ele>
        <time>2019-04-14T09:49:32Z</time>
      </trkpt>
      <trkpt lat="44.41809" lon="1.32437">
        <ele>325</ele>
        <time>2019-04-14T09:49:35Z</time>
      </trkpt>
      <trkpt lat="44.41815" lon="1.32443">
        <ele>325</ele>
        <time>2019-04-14T09:49:38Z</time>
      </trkpt>
      <trkpt lat="44.4182" lon="1.32446">
        <ele>325</ele>
        <time>2019-04-14T09:49:40Z</time>
      </trkpt>
      <trkpt lat="44.41829" lon="1.32455">
        <ele>324</ele>
        <time>2019-04-14T09:49:42Z</time>
      </trkpt>
      <trkpt lat="44.41832" lon="1.32457">
        <ele>323</ele>
        <time>2019-04-14T09:49:44Z</time>
      </trkpt>
      <trkpt lat="44.41838" lon="1.32462">
        <ele>322</ele>
        <time>2019-04-14T09:49:46Z</time>
      </trkpt>
      <trkpt lat="44.41845" lon="1.32468">
        <ele>321</ele>
        <time>2019-04-14T09:49:48Z</time>
      </trkpt>
      <trkpt lat="44.41853" lon="1.32479">
        <ele>322</ele>
        <time>2019-04-14T09:49:52Z</time>
      </trkpt>
      <trkpt lat="44.41858" lon="1.32486">
        <ele>323</ele>
        <time>2019-04-14T09:49:55Z</time>
      </trkpt>
      <trkpt lat="44.41861" lon="1.32492">
        <ele>323</ele>
        <time>2019-04-14T09:49:57Z</time>
      </trkpt>
      <trkpt lat="44.41863" lon="1.32498">
        <ele>324</ele>
        <time>2019-04-14T09:49:58Z</time>
      </trkpt>
      <trkpt lat="44.41865" lon="1.32501">
        <ele>324</ele>
        <time>2019-04-14T09:49:59Z</time>
      </trkpt>
      <trkpt lat="44.41865" lon="1.32508">
        <ele>325</ele>
        <time>2019-04-14T09:50:02Z</time>
      </trkpt>
      <trkpt lat="44.41858" lon="1.32527">
        <ele>324</ele>
        <time>2019-04-14T09:50:06Z</time>
      </trkpt>
      <trkpt lat="44.41857" lon="1.32536">
        <ele>324</ele>
        <time>2019-04-14T09:50:08Z</time>
      </trkpt>
      <trkpt lat="44.41859" lon="1.32545">
        <ele>323</ele>
        <time>2019-04-14T09:50:10Z</time>
      </trkpt>
      <trkpt lat="44.41861" lon="1.32549">
        <ele>323</ele>
        <time>2019-04-14T09:50:11Z</time>
      </trkpt>
      <trkpt lat="44.41863" lon="1.32551">
        <ele>322</ele>
        <time>2019-04-14T09:50:12Z</time>
      </trkpt>
      <trkpt lat="44.41875" lon="1.32559">
        <ele>322</ele>
        <time>2019-04-14T09:50:17Z</time>
      </trkpt>
      <trkpt lat="44.41878" lon="1.32557">
        <ele>322</ele>
        <time>2019-04-14T09:50:18Z</time>
      </trkpt>
      <trkpt lat="44.41887" lon="1.32548">
        <ele>323</ele>
        <time>2019-04-14T09:50:23Z</time>
      </trkpt>
      <trkpt lat="44.41888" lon="1.32545">
        <ele>324</ele>
        <time>2019-04-14T09:50:25Z</time>
      </trkpt>
      <trkpt lat="44.41892" lon="1.32541">
        <ele>325</ele>
        <time>2019-04-14T09:50:27Z</time>
      </trkpt>
      <trkpt lat="44.41896" lon="1.32536">
        <ele>326</ele>
        <time>2019-04-14T09:50:29Z</time>
      </trkpt>
      <trkpt lat="44.41897" lon="1.32536">
        <ele>326</ele>
        <time>2019-04-14T09:50:30Z</time>
      </trkpt>
      <trkpt lat="44.419" lon="1.32541">
        <ele>327</ele>
        <time>2019-04-14T09:50:33Z</time>
      </trkpt>
      <trkpt lat="44.41902" lon="1.32543">
        <ele>327</ele>
        <time>2019-04-14T09:50:34Z</time>
      </trkpt>
      <trkpt lat="44.41908" lon="1.32547">
        <ele>326</ele>
        <time>2019-04-14T09:50:36Z</time>
      </trkpt>
      <trkpt lat="44.41918" lon="1.32555">
        <ele>326</ele>
        <time>2019-04-14T09:50:41Z</time>
      </trkpt>
      <trkpt lat="44.41933" lon="1.3257">
        <ele>326</ele>
        <time>2019-04-14T09:50:46Z</time>
      </trkpt>
      <trkpt lat="44.41936" lon="1.32573">
        <ele>325</ele>
        <time>2019-04-14T09:50:47Z</time>
      </trkpt>
      <trkpt lat="44.41944" lon="1.32583">
        <ele>325</ele>
        <time>2019-04-14T09:50:50Z</time>
      </trkpt>
      <trkpt lat="44.41951" lon="1.32587">
        <ele>325</ele>
        <time>2019-04-14T09:50:52Z</time>
      </trkpt>
      <trkpt lat="44.41971" lon="1.32604">
        <ele>326</ele>
        <time>2019-04-14T09:50:58Z</time>
      </trkpt>
      <trkpt lat="44.4198" lon="1.32617">
        <ele>327</ele>
        <time>2019-04-14T09:51:02Z</time>
      </trkpt>
      <trkpt lat="44.41985" lon="1.32623">
        <ele>327</ele>
        <time>2019-04-14T09:51:04Z</time>
      </trkpt>
      <trkpt lat="44.41994" lon="1.32635">
        <ele>328</ele>
        <time>2019-04-14T09:51:08Z</time>
      </trkpt>
      <trkpt lat="44.42003" lon="1.32643">
        <ele>329</ele>
        <time>2019-04-14T09:51:12Z</time>
      </trkpt>
      <trkpt lat="44.42004" lon="1.32648">
        <ele>330</ele>
        <time>2019-04-14T09:51:14Z</time>
      </trkpt>
      <trkpt lat="44.42002" lon="1.32655">
        <ele>330</ele>
        <time>2019-04-14T09:51:16Z</time>
      </trkpt>
      <trkpt lat="44.41999" lon="1.32664">
        <ele>330</ele>
        <time>2019-04-14T09:51:18Z</time>
      </trkpt>
      <trkpt lat="44.41993" lon="1.32689">
        <ele>329</ele>
        <time>2019-04-14T09:51:24Z</time>
      </trkpt>
      <trkpt lat="44.41982" lon="1.32712">
        <ele>329</ele>
        <time>2019-04-14T09:51:30Z</time>
      </trkpt>
      <trkpt lat="44.41972" lon="1.32736">
        <ele>329</ele>
        <time>2019-04-14T09:51:37Z</time>
      </trkpt>
      <trkpt lat="44.41959" lon="1.32754">
        <ele>329</ele>
        <time>2019-04-14T09:51:42Z</time>
      </trkpt>
      <trkpt lat="44.41951" lon="1.32759">
        <ele>329</ele>
        <time>2019-04-14T09:51:44Z</time>
      </trkpt>
      <trkpt lat="44.41947" lon="1.32769">
        <ele>328</ele>
        <time>2019-04-14T09:51:46Z</time>
      </trkpt>
      <trkpt lat="44.41944" lon="1.32778">
        <ele>328</ele>
        <time>2019-04-14T09:51:48Z</time>
      </trkpt>
      <trkpt lat="44.41944" lon="1.32786">
        <ele>327</ele>
        <time>2019-04-14T09:51:50Z</time>
      </trkpt>
      <trkpt lat="44.41942" lon="1.32799">
        <ele>327</ele>
        <time>2019-04-14T09:51:53Z</time>
      </trkpt>
      <trkpt lat="44.4194" lon="1.32802">
        <ele>328</ele>
        <time>2019-04-14T09:51:55Z</time>
      </trkpt>
      <trkpt lat="44.41937" lon="1.32812">
        <ele>327</ele>
        <time>2019-04-14T09:51:56Z</time>
      </trkpt>
      <trkpt lat="44.41936" lon="1.32824">
        <ele>327</ele>
        <time>2019-04-14T09:51:58Z</time>
      </trkpt>
      <trkpt lat="44.41936" lon="1.32834">
        <ele>327</ele>
        <time>2019-04-14T09:52:00Z</time>
      </trkpt>
      <trkpt lat="44.4194" lon="1.32841">
        <ele>327</ele>
        <time>2019-04-14T09:52:02Z</time>
      </trkpt>
      <trkpt lat="44.41941" lon="1.32848">
        <ele>327</ele>
        <time>2019-04-14T09:52:04Z</time>
      </trkpt>
      <trkpt lat="44.41941" lon="1.32857">
        <ele>328</ele>
        <time>2019-04-14T09:52:06Z</time>
      </trkpt>
      <trkpt lat="44.41944" lon="1.32893">
        <ele>329</ele>
        <time>2019-04-14T09:52:15Z</time>
      </trkpt>
      <trkpt lat="44.41947" lon="1.32921">
        <ele>329</ele>
        <time>2019-04-14T09:52:21Z</time>
      </trkpt>
      <trkpt lat="44.41947" lon="1.32938">
        <ele>329</ele>
        <time>2019-04-14T09:52:24Z</time>
      </trkpt>
      <trkpt lat="44.4195" lon="1.3294">
        <ele>329</ele>
        <time>2019-04-14T09:52:26Z</time>
      </trkpt>
      <trkpt lat="44.41953" lon="1.32944">
        <ele>329</ele>
        <time>2019-04-14T09:52:28Z</time>
      </trkpt>
      <trkpt lat="44.41955" lon="1.32948">
        <ele>330</ele>
        <time>2019-04-14T09:52:30Z</time>
      </trkpt>
      <trkpt lat="44.4196" lon="1.3297">
        <ele>330</ele>
        <time>2019-04-14T09:52:35Z</time>
      </trkpt>
      <trkpt lat="44.41967" lon="1.32973">
        <ele>330</ele>
        <time>2019-04-14T09:52:38Z</time>
      </trkpt>
      <trkpt lat="44.41972" lon="1.32971">
        <ele>330</ele>
        <time>2019-04-14T09:52:40Z</time>
      </trkpt>
      <trkpt lat="44.41983" lon="1.32969">
        <ele>331</ele>
        <time>2019-04-14T09:52:44Z</time>
      </trkpt>
      <trkpt lat="44.41994" lon="1.32963">
        <ele>331</ele>
        <time>2019-04-14T09:52:49Z</time>
      </trkpt>
      <trkpt lat="44.42006" lon="1.32957">
        <ele>332</ele>
        <time>2019-04-14T09:52:52Z</time>
      </trkpt>
      <trkpt lat="44.42031" lon="1.32948">
        <ele>331</ele>
        <time>2019-04-14T09:53:00Z</time>
      </trkpt>
      <trkpt lat="44.42056" lon="1.32939">
        <ele>330</ele>
        <time>2019-04-14T09:53:06Z</time>
      </trkpt>
      <trkpt lat="44.42075" lon="1.32933">
        <ele>329</ele>
        <time>2019-04-14T09:53:10Z</time>
      </trkpt>
      <trkpt lat="44.42084" lon="1.32934">
        <ele>329</ele>
        <time>2019-04-14T09:53:12Z</time>
      </trkpt>
      <trkpt lat="44.42093" lon="1.32936">
        <ele>329</ele>
        <time>2019-04-14T09:53:14Z</time>
      </trkpt>
      <trkpt lat="44.42103" lon="1.32934">
        <ele>328</ele>
        <time>2019-04-14T09:53:16Z</time>
      </trkpt>
      <trkpt lat="44.42113" lon="1.3293">
        <ele>328</ele>
        <time>2019-04-14T09:53:19Z</time>
      </trkpt>
      <trkpt lat="44.42122" lon="1.32922">
        <ele>327</ele>
        <time>2019-04-14T09:53:20Z</time>
      </trkpt>
      <trkpt lat="44.4213" lon="1.32911">
        <ele>327</ele>
        <time>2019-04-14T09:53:22Z</time>
      </trkpt>
      <trkpt lat="44.42137" lon="1.329">
        <ele>326</ele>
        <time>2019-04-14T09:53:24Z</time>
      </trkpt>
      <trkpt lat="44.42145" lon="1.32888">
        <ele>326</ele>
        <time>2019-04-14T09:53:26Z</time>
      </trkpt>
      <trkpt lat="44.42154" lon="1.32878">
        <ele>326</ele>
        <time>2019-04-14T09:53:28Z</time>
      </trkpt>
      <trkpt lat="44.42165" lon="1.3287">
        <ele>326</ele>
        <time>2019-04-14T09:53:31Z</time>
      </trkpt>
      <trkpt lat="44.42177" lon="1.32864">
        <ele>325</ele>
        <time>2019-04-14T09:53:33Z</time>
      </trkpt>
      <trkpt lat="44.422" lon="1.32851">
        <ele>324</ele>
        <time>2019-04-14T09:53:36Z</time>
      </trkpt>
      <trkpt lat="44.42211" lon="1.32845">
        <ele>324</ele>
        <time>2019-04-14T09:53:38Z</time>
      </trkpt>
      <trkpt lat="44.4222" lon="1.3284">
        <ele>324</ele>
        <time>2019-04-14T09:53:40Z</time>
      </trkpt>
      <trkpt lat="44.42229" lon="1.32838">
        <ele>323</ele>
        <time>2019-04-14T09:53:43Z</time>
      </trkpt>
      <trkpt lat="44.42238" lon="1.32835">
        <ele>323</ele>
        <time>2019-04-14T09:53:44Z</time>
      </trkpt>
      <trkpt lat="44.42246" lon="1.32831">
        <ele>323</ele>
        <time>2019-04-14T09:53:46Z</time>
      </trkpt>
      <trkpt lat="44.42254" lon="1.32826">
        <ele>323</ele>
        <time>2019-04-14T09:53:48Z</time>
      </trkpt>
      <trkpt lat="44.4226" lon="1.32818">
        <ele>324</ele>
        <time>2019-04-14T09:53:50Z</time>
      </trkpt>
      <trkpt lat="44.42265" lon="1.328">
        <ele>325</ele>
        <time>2019-04-14T09:53:55Z</time>
      </trkpt>
      <trkpt lat="44.42267" lon="1.3279">
        <ele>326</ele>
        <time>2019-04-14T09:53:57Z</time>
      </trkpt>
      <trkpt lat="44.42273" lon="1.32758">
        <ele>326</ele>
        <time>2019-04-14T09:54:02Z</time>
      </trkpt>
      <trkpt lat="44.42276" lon="1.32717">
        <ele>326</ele>
        <time>2019-04-14T09:54:09Z</time>
      </trkpt>
      <trkpt lat="44.4228" lon="1.32688">
        <ele>326</ele>
        <time>2019-04-14T09:54:12Z</time>
      </trkpt>
      <trkpt lat="44.4228" lon="1.3267">
        <ele>326</ele>
        <time>2019-04-14T09:54:14Z</time>
      </trkpt>
      <trkpt lat="44.42279" lon="1.32651">
        <ele>325</ele>
        <time>2019-04-14T09:54:16Z</time>
      </trkpt>
      <trkpt lat="44.42277" lon="1.32641">
        <ele>324</ele>
        <time>2019-04-14T09:54:18Z</time>
      </trkpt>
      <trkpt lat="44.42275" lon="1.32632">
        <ele>324</ele>
        <time>2019-04-14T09:54:19Z</time>
      </trkpt>
      <trkpt lat="44.42256" lon="1.32608">
        <ele>324</ele>
        <time>2019-04-14T09:54:22Z</time>
      </trkpt>
      <trkpt lat="44.42229" lon="1.32577">
        <ele>325</ele>
        <time>2019-04-14T09:54:29Z</time>
      </trkpt>
      <trkpt lat="44.42207" lon="1.3255">
        <ele>325</ele>
        <time>2019-04-14T09:54:35Z</time>
      </trkpt>
      <trkpt lat="44.42205" lon="1.32545">
        <ele>326</ele>
        <time>2019-04-14T09:54:37Z</time>
      </trkpt>
      <trkpt lat="44.42202" lon="1.32532">
        <ele>327</ele>
        <time>2019-04-14T09:54:40Z</time>
      </trkpt>
      <trkpt lat="44.42198" lon="1.3252">
        <ele>327</ele>
        <time>2019-04-14T09:54:42Z</time>
      </trkpt>
      <trkpt lat="44.42196" lon="1.32512">
        <ele>327</ele>
        <time>2019-04-14T09:54:45Z</time>
      </trkpt>
      <trkpt lat="44.42189" lon="1.32495">
        <ele>327</ele>
        <time>2019-04-14T09:54:49Z</time>
      </trkpt>
      <trkpt lat="44.42173" lon="1.32466">
        <ele>327</ele>
        <time>2019-04-14T09:54:53Z</time>
      </trkpt>
      <trkpt lat="44.42168" lon="1.32461">
        <ele>327</ele>
        <time>2019-04-14T09:54:54Z</time>
      </trkpt>
      <trkpt lat="44.4216" lon="1.32449">
        <ele>326</ele>
        <time>2019-04-14T09:54:56Z</time>
      </trkpt>
      <trkpt lat="44.42152" lon="1.32438">
        <ele>324</ele>
        <time>2019-04-14T09:54:58Z</time>
      </trkpt>
      <trkpt lat="44.42148" lon="1.32432">
        <ele>324</ele>
        <time>2019-04-14T09:54:59Z</time>
      </trkpt>
      <trkpt lat="44.42144" lon="1.32427">
        <ele>323</ele>
        <time>2019-04-14T09:55:01Z</time>
      </trkpt>
      <trkpt lat="44.42137" lon="1.32418">
        <ele>322</ele>
        <time>2019-04-14T09:55:02Z</time>
      </trkpt>
      <trkpt lat="44.42133" lon="1.32413">
        <ele>320</ele>
        <time>2019-04-14T09:55:04Z</time>
      </trkpt>
      <trkpt lat="44.42132" lon="1.3241">
        <ele>319</ele>
        <time>2019-04-14T09:55:05Z</time>
      </trkpt>
      <trkpt lat="44.42133" lon="1.32406">
        <ele>318</ele>
        <time>2019-04-14T09:55:06Z</time>
      </trkpt>
      <trkpt lat="44.42137" lon="1.32401">
        <ele>317</ele>
        <time>2019-04-14T09:55:08Z</time>
      </trkpt>
      <trkpt lat="44.42143" lon="1.32393">
        <ele>317</ele>
        <time>2019-04-14T09:55:11Z</time>
      </trkpt>
      <trkpt lat="44.42151" lon="1.32385">
        <ele>319</ele>
        <time>2019-04-14T09:55:14Z</time>
      </trkpt>
      <trkpt lat="44.42158" lon="1.32378">
        <ele>319</ele>
        <time>2019-04-14T09:55:17Z</time>
      </trkpt>
      <trkpt lat="44.4216" lon="1.32376">
        <ele>320</ele>
        <time>2019-04-14T09:55:19Z</time>
      </trkpt>
      <trkpt lat="44.42168" lon="1.32368">
        <ele>321</ele>
        <time>2019-04-14T09:55:22Z</time>
      </trkpt>
      <trkpt lat="44.42172" lon="1.32363">
        <ele>322</ele>
        <time>2019-04-14T09:55:25Z</time>
      </trkpt>
      <trkpt lat="44.4219" lon="1.32339">
        <ele>323</ele>
        <time>2019-04-14T09:55:33Z</time>
      </trkpt>
      <trkpt lat="44.42195" lon="1.32333">
        <ele>323</ele>
        <time>2019-04-14T09:55:34Z</time>
      </trkpt>
      <trkpt lat="44.42199" lon="1.32328">
        <ele>324</ele>
        <time>2019-04-14T09:55:36Z</time>
      </trkpt>
      <trkpt lat="44.4221" lon="1.32315">
        <ele>324</ele>
        <time>2019-04-14T09:55:41Z</time>
      </trkpt>
      <trkpt lat="44.42223" lon="1.32302">
        <ele>325</ele>
        <time>2019-04-14T09:55:47Z</time>
      </trkpt>
      <trkpt lat="44.4223" lon="1.32295">
        <ele>325</ele>
        <time>2019-04-14T09:55:51Z</time>
      </trkpt>
      <trkpt lat="44.42245" lon="1.32281">
        <ele>326</ele>
        <time>2019-04-14T09:55:57Z</time>
      </trkpt>
      <trkpt lat="44.42253" lon="1.32274">
        <ele>326</ele>
        <time>2019-04-14T09:55:59Z</time>
      </trkpt>
      <trkpt lat="44.42267" lon="1.3226">
        <ele>327</ele>
        <time>2019-04-14T09:56:05Z</time>
      </trkpt>
      <trkpt lat="44.42284" lon="1.32243">
        <ele>328</ele>
        <time>2019-04-14T09:56:12Z</time>
      </trkpt>
      <trkpt lat="44.42292" lon="1.32234">
        <ele>328</ele>
        <time>2019-04-14T09:56:16Z</time>
      </trkpt>
      <trkpt lat="44.42297" lon="1.3223">
        <ele>329</ele>
        <time>2019-04-14T09:56:18Z</time>
      </trkpt>
      <trkpt lat="44.42306" lon="1.32221">
        <ele>330</ele>
        <time>2019-04-14T09:56:22Z</time>
      </trkpt>
      <trkpt lat="44.4231" lon="1.32217">
        <ele>330</ele>
        <time>2019-04-14T09:56:24Z</time>
      </trkpt>
      <trkpt lat="44.42319" lon="1.3221">
        <ele>331</ele>
        <time>2019-04-14T09:56:28Z</time>
      </trkpt>
      <trkpt lat="44.42333" lon="1.32195">
        <ele>331</ele>
        <time>2019-04-14T09:56:34Z</time>
      </trkpt>
      <trkpt lat="44.42338" lon="1.3219">
        <ele>332</ele>
        <time>2019-04-14T09:56:36Z</time>
      </trkpt>
      <trkpt lat="44.42364" lon="1.32162">
        <ele>333</ele>
        <time>2019-04-14T09:56:46Z</time>
      </trkpt>
      <trkpt lat="44.4238" lon="1.32142">
        <ele>333</ele>
        <time>2019-04-14T09:56:52Z</time>
      </trkpt>
      <trkpt lat="44.42392" lon="1.32128">
        <ele>333</ele>
        <time>2019-04-14T09:56:57Z</time>
      </trkpt>
      <trkpt lat="44.42412" lon="1.32101">
        <ele>333</ele>
        <time>2019-04-14T09:57:04Z</time>
      </trkpt>
      <trkpt lat="44.42427" lon="1.3208">
        <ele>334</ele>
        <time>2019-04-14T09:57:10Z</time>
      </trkpt>
      <trkpt lat="44.42452" lon="1.32052">
        <ele>333</ele>
        <time>2019-04-14T09:57:19Z</time>
      </trkpt>
      <trkpt lat="44.42476" lon="1.3203">
        <ele>334</ele>
        <time>2019-04-14T09:57:26Z</time>
      </trkpt>
      <trkpt lat="44.42495" lon="1.32017">
        <ele>334</ele>
        <time>2019-04-14T09:57:33Z</time>
      </trkpt>
      <trkpt lat="44.42509" lon="1.32007">
        <ele>334</ele>
        <time>2019-04-14T09:57:36Z</time>
      </trkpt>
      <trkpt lat="44.42541" lon="1.31989">
        <ele>333</ele>
        <time>2019-04-14T09:57:45Z</time>
      </trkpt>
      <trkpt lat="44.42549" lon="1.31983">
        <ele>333</ele>
        <time>2019-04-14T09:57:46Z</time>
      </trkpt>
      <trkpt lat="44.42565" lon="1.31968">
        <ele>333</ele>
        <time>2019-04-14T09:57:51Z</time>
      </trkpt>
      <trkpt lat="44.42582" lon="1.3195">
        <ele>331</ele>
        <time>2019-04-14T09:57:55Z</time>
      </trkpt>
      <trkpt lat="44.42591" lon="1.31938">
        <ele>330</ele>
        <time>2019-04-14T09:57:57Z</time>
      </trkpt>
      <trkpt lat="44.42601" lon="1.31924">
        <ele>330</ele>
        <time>2019-04-14T09:57:58Z</time>
      </trkpt>
      <trkpt lat="44.42611" lon="1.31911">
        <ele>329</ele>
        <time>2019-04-14T09:58:01Z</time>
      </trkpt>
      <trkpt lat="44.42621" lon="1.31897">
        <ele>328</ele>
        <time>2019-04-14T09:58:03Z</time>
      </trkpt>
      <trkpt lat="44.4263" lon="1.31884">
        <ele>328</ele>
        <time>2019-04-14T09:58:04Z</time>
      </trkpt>
      <trkpt lat="44.4264" lon="1.31873">
        <ele>327</ele>
        <time>2019-04-14T09:58:06Z</time>
      </trkpt>
      <trkpt lat="44.42651" lon="1.31864">
        <ele>327</ele>
        <time>2019-04-14T09:58:08Z</time>
      </trkpt>
      <trkpt lat="44.42667" lon="1.31849">
        <ele>326</ele>
        <time>2019-04-14T09:58:11Z</time>
      </trkpt>
      <trkpt lat="44.42674" lon="1.31843">
        <ele>325</ele>
        <time>2019-04-14T09:58:13Z</time>
      </trkpt>
      <trkpt lat="44.42687" lon="1.31832">
        <ele>324</ele>
        <time>2019-04-14T09:58:15Z</time>
      </trkpt>
      <trkpt lat="44.42706" lon="1.31813">
        <ele>323</ele>
        <time>2019-04-14T09:58:17Z</time>
      </trkpt>
      <trkpt lat="44.42713" lon="1.31805">
        <ele>323</ele>
        <time>2019-04-14T09:58:18Z</time>
      </trkpt>
      <trkpt lat="44.42723" lon="1.31791">
        <ele>321</ele>
        <time>2019-04-14T09:58:20Z</time>
      </trkpt>
      <trkpt lat="44.42731" lon="1.31781">
        <ele>320</ele>
        <time>2019-04-14T09:58:22Z</time>
      </trkpt>
      <trkpt lat="44.42734" lon="1.31778">
        <ele>318</ele>
        <time>2019-04-14T09:58:23Z</time>
      </trkpt>
      <trkpt lat="44.42737" lon="1.31778">
        <ele>317</ele>
        <time>2019-04-14T09:58:24Z</time>
      </trkpt>
      <trkpt lat="44.4274" lon="1.31783">
        <ele>316</ele>
        <time>2019-04-14T09:58:26Z</time>
      </trkpt>
      <trkpt lat="44.42739" lon="1.3179">
        <ele>315</ele>
        <time>2019-04-14T09:58:28Z</time>
      </trkpt>
      <trkpt lat="44.42735" lon="1.31799">
        <ele>315</ele>
        <time>2019-04-14T09:58:30Z</time>
      </trkpt>
      <trkpt lat="44.42732" lon="1.31809">
        <ele>315</ele>
        <time>2019-04-14T09:58:33Z</time>
      </trkpt>
      <trkpt lat="44.42729" lon="1.3182">
        <ele>315</ele>
        <time>2019-04-14T09:58:34Z</time>
      </trkpt>
      <trkpt lat="44.42724" lon="1.31843">
        <ele>316</ele>
        <time>2019-04-14T09:58:38Z</time>
      </trkpt>
      <trkpt lat="44.42722" lon="1.31855">
        <ele>316</ele>
        <time>2019-04-14T09:58:40Z</time>
      </trkpt>
      <trkpt lat="44.42722" lon="1.31861">
        <ele>316</ele>
        <time>2019-04-14T09:58:41Z</time>
      </trkpt>
      <trkpt lat="44.42721" lon="1.31879">
        <ele>316</ele>
        <time>2019-04-14T09:58:44Z</time>
      </trkpt>
      <trkpt lat="44.42721" lon="1.31891">
        <ele>317</ele>
        <time>2019-04-14T09:58:46Z</time>
      </trkpt>
      <trkpt lat="44.42721" lon="1.31896">
        <ele>317</ele>
        <time>2019-04-14T09:58:47Z</time>
      </trkpt>
      <trkpt lat="44.42722" lon="1.31923">
        <ele>318</ele>
        <time>2019-04-14T09:58:52Z</time>
      </trkpt>
      <trkpt lat="44.42723" lon="1.31933">
        <ele>318</ele>
        <time>2019-04-14T09:58:54Z</time>
      </trkpt>
      <trkpt lat="44.42723" lon="1.31954">
        <ele>319</ele>
        <time>2019-04-14T09:58:58Z</time>
      </trkpt>
      <trkpt lat="44.42723" lon="1.31974">
        <ele>320</ele>
        <time>2019-04-14T09:59:02Z</time>
      </trkpt>
      <trkpt lat="44.42724" lon="1.31994">
        <ele>321</ele>
        <time>2019-04-14T09:59:06Z</time>
      </trkpt>
      <trkpt lat="44.42722" lon="1.32013">
        <ele>322</ele>
        <time>2019-04-14T09:59:10Z</time>
      </trkpt>
      <trkpt lat="44.42723" lon="1.32036">
        <ele>323</ele>
        <time>2019-04-14T09:59:16Z</time>
      </trkpt>
      <trkpt lat="44.42733" lon="1.32048">
        <ele>323</ele>
        <time>2019-04-14T09:59:21Z</time>
      </trkpt>
      <trkpt lat="44.4274" lon="1.32051">
        <ele>323</ele>
        <time>2019-04-14T09:59:22Z</time>
      </trkpt>
      <trkpt lat="44.42745" lon="1.32056">
        <ele>322</ele>
        <time>2019-04-14T09:59:24Z</time>
      </trkpt>
      <trkpt lat="44.42745" lon="1.32065">
        <ele>322</ele>
        <time>2019-04-14T09:59:26Z</time>
      </trkpt>
      <trkpt lat="44.42745" lon="1.32077">
        <ele>321</ele>
        <time>2019-04-14T09:59:28Z</time>
      </trkpt>
      <trkpt lat="44.42745" lon="1.32089">
        <ele>321</ele>
        <time>2019-04-14T09:59:30Z</time>
      </trkpt>
      <trkpt lat="44.42739" lon="1.32096">
        <ele>320</ele>
        <time>2019-04-14T09:59:32Z</time>
      </trkpt>
      <trkpt lat="44.42733" lon="1.32103">
        <ele>319</ele>
        <time>2019-04-14T09:59:34Z</time>
      </trkpt>
      <trkpt lat="44.42729" lon="1.32113">
        <ele>319</ele>
        <time>2019-04-14T09:59:36Z</time>
      </trkpt>
      <trkpt lat="44.42723" lon="1.32124">
        <ele>319</ele>
        <time>2019-04-14T09:59:38Z</time>
      </trkpt>
      <trkpt lat="44.42716" lon="1.32136">
        <ele>318</ele>
        <time>2019-04-14T09:59:40Z</time>
      </trkpt>
      <trkpt lat="44.42713" lon="1.32143">
        <ele>318</ele>
        <time>2019-04-14T09:59:41Z</time>
      </trkpt>
      <trkpt lat="44.42709" lon="1.32149">
        <ele>317</ele>
        <time>2019-04-14T09:59:42Z</time>
      </trkpt>
      <trkpt lat="44.42706" lon="1.32165">
        <ele>316</ele>
        <time>2019-04-14T09:59:44Z</time>
      </trkpt>
      <trkpt lat="44.42705" lon="1.32173">
        <ele>315</ele>
        <time>2019-04-14T09:59:45Z</time>
      </trkpt>
      <trkpt lat="44.42705" lon="1.32181">
        <ele>314</ele>
        <time>2019-04-14T09:59:46Z</time>
      </trkpt>
      <trkpt lat="44.42704" lon="1.32197">
        <ele>313</ele>
        <time>2019-04-14T09:59:48Z</time>
      </trkpt>
      <trkpt lat="44.42701" lon="1.32211">
        <ele>313</ele>
        <time>2019-04-14T09:59:50Z</time>
      </trkpt>
      <trkpt lat="44.42699" lon="1.32217">
        <ele>312</ele>
        <time>2019-04-14T09:59:51Z</time>
      </trkpt>
      <trkpt lat="44.42698" lon="1.32223">
        <ele>312</ele>
        <time>2019-04-14T09:59:52Z</time>
      </trkpt>
      <trkpt lat="44.42697" lon="1.32231">
        <ele>311</ele>
        <time>2019-04-14T09:59:54Z</time>
      </trkpt>
      <trkpt lat="44.427" lon="1.32238">
        <ele>311</ele>
        <time>2019-04-14T09:59:58Z</time>
      </trkpt>
      <trkpt lat="44.42701" lon="1.3224">
        <ele>310</ele>
        <time>2019-04-14T09:59:59Z</time>
      </trkpt>
      <trkpt lat="44.42714" lon="1.32253">
        <ele>310</ele>
        <time>2019-04-14T10:00:05Z</time>
      </trkpt>
      <trkpt lat="44.42716" lon="1.32255">
        <ele>309</ele>
        <time>2019-04-14T10:00:06Z</time>
      </trkpt>
      <trkpt lat="44.42719" lon="1.32263">
        <ele>309</ele>
        <time>2019-04-14T10:00:10Z</time>
      </trkpt>
      <trkpt lat="44.42723" lon="1.32272">
        <ele>311</ele>
        <time>2019-04-14T10:00:14Z</time>
      </trkpt>
      <trkpt lat="44.42724" lon="1.32283">
        <ele>311</ele>
        <time>2019-04-14T10:00:18Z</time>
      </trkpt>
      <trkpt lat="44.42724" lon="1.3229">
        <ele>312</ele>
        <time>2019-04-14T10:00:21Z</time>
      </trkpt>
      <trkpt lat="44.42724" lon="1.32298">
        <ele>313</ele>
        <time>2019-04-14T10:00:24Z</time>
      </trkpt>
      <trkpt lat="44.42722" lon="1.32309">
        <ele>314</ele>
        <time>2019-04-14T10:00:29Z</time>
      </trkpt>
      <trkpt lat="44.42722" lon="1.32311">
        <ele>314</ele>
        <time>2019-04-14T10:00:30Z</time>
      </trkpt>
      <trkpt lat="44.4272" lon="1.32325">
        <ele>315</ele>
        <time>2019-04-14T10:00:35Z</time>
      </trkpt>
      <trkpt lat="44.42719" lon="1.32327">
        <ele>315</ele>
        <time>2019-04-14T10:00:36Z</time>
      </trkpt>
      <trkpt lat="44.42716" lon="1.32329">
        <ele>316</ele>
        <time>2019-04-14T10:00:38Z</time>
      </trkpt>
      <trkpt lat="44.42715" lon="1.3233">
        <ele>316</ele>
        <time>2019-04-14T10:00:39Z</time>
      </trkpt>
      <trkpt lat="44.42712" lon="1.32334">
        <ele>317</ele>
        <time>2019-04-14T10:00:42Z</time>
      </trkpt>
      <trkpt lat="44.42709" lon="1.32347">
        <ele>318</ele>
        <time>2019-04-14T10:00:48Z</time>
      </trkpt>
      <trkpt lat="44.42706" lon="1.32355">
        <ele>319</ele>
        <time>2019-04-14T10:00:52Z</time>
      </trkpt>
      <trkpt lat="44.42706" lon="1.32359">
        <ele>319</ele>
        <time>2019-04-14T10:00:54Z</time>
      </trkpt>
      <trkpt lat="44.42707" lon="1.32364">
        <ele>320</ele>
        <time>2019-04-14T10:00:56Z</time>
      </trkpt>
      <trkpt lat="44.42712" lon="1.32374">
        <ele>319</ele>
        <time>2019-04-14T10:01:01Z</time>
      </trkpt>
      <trkpt lat="44.4272" lon="1.32383">
        <ele>318</ele>
        <time>2019-04-14T10:01:04Z</time>
      </trkpt>
      <trkpt lat="44.42724" lon="1.32386">
        <ele>317</ele>
        <time>2019-04-14T10:01:06Z</time>
      </trkpt>
      <trkpt lat="44.42727" lon="1.32387">
        <ele>316</ele>
        <time>2019-04-14T10:01:08Z</time>
      </trkpt>
      <trkpt lat="44.42728" lon="1.32388">
        <ele>316</ele>
        <time>2019-04-14T10:01:09Z</time>
      </trkpt>
      <trkpt lat="44.4273" lon="1.32389">
        <ele>315</ele>
        <time>2019-04-14T10:01:10Z</time>
      </trkpt>
      <trkpt lat="44.42732" lon="1.32393">
        <ele>315</ele>
        <time>2019-04-14T10:01:13Z</time>
      </trkpt>
      <trkpt lat="44.42736" lon="1.32397">
        <ele>314</ele>
        <time>2019-04-14T10:01:15Z</time>
      </trkpt>
      <trkpt lat="44.42743" lon="1.32404">
        <ele>315</ele>
        <time>2019-04-14T10:01:20Z</time>
      </trkpt>
      <trkpt lat="44.42744" lon="1.32403">
        <ele>316</ele>
        <time>2019-04-14T10:01:21Z</time>
      </trkpt>
      <trkpt lat="44.42755" lon="1.32398">
        <ele>315</ele>
        <time>2019-04-14T10:01:26Z</time>
      </trkpt>
      <trkpt lat="44.42759" lon="1.32395">
        <ele>315</ele>
        <time>2019-04-14T10:01:28Z</time>
      </trkpt>
      <trkpt lat="44.42765" lon="1.32392">
        <ele>314</ele>
        <time>2019-04-14T10:01:30Z</time>
      </trkpt>
      <trkpt lat="44.4277" lon="1.32388">
        <ele>313</ele>
        <time>2019-04-14T10:01:33Z</time>
      </trkpt>
      <trkpt lat="44.42774" lon="1.32385">
        <ele>313</ele>
        <time>2019-04-14T10:01:34Z</time>
      </trkpt>
      <trkpt lat="44.42778" lon="1.32384">
        <ele>312</ele>
        <time>2019-04-14T10:01:36Z</time>
      </trkpt>
      <trkpt lat="44.42788" lon="1.32384">
        <ele>313</ele>
        <time>2019-04-14T10:01:43Z</time>
      </trkpt>
      <trkpt lat="44.42795" lon="1.32384">
        <ele>313</ele>
        <time>2019-04-14T10:01:46Z</time>
      </trkpt>
      <trkpt lat="44.42798" lon="1.32382">
        <ele>313</ele>
        <time>2019-04-14T10:01:47Z</time>
      </trkpt>
      <trkpt lat="44.42806" lon="1.32377">
        <ele>314</ele>
        <time>2019-04-14T10:01:50Z</time>
      </trkpt>
      <trkpt lat="44.42811" lon="1.32376">
        <ele>313</ele>
        <time>2019-04-14T10:01:52Z</time>
      </trkpt>
      <trkpt lat="44.42824" lon="1.32372">
        <ele>314</ele>
        <time>2019-04-14T10:01:59Z</time>
      </trkpt>
      <trkpt lat="44.42826" lon="1.32372">
        <ele>314</ele>
        <time>2019-04-14T10:02:00Z</time>
      </trkpt>
      <trkpt lat="44.42833" lon="1.3237">
        <ele>314</ele>
        <time>2019-04-14T10:02:04Z</time>
      </trkpt>
      <trkpt lat="44.42842" lon="1.32362">
        <ele>314</ele>
        <time>2019-04-14T10:02:08Z</time>
      </trkpt>
      <trkpt lat="44.42854" lon="1.32356">
        <ele>313</ele>
        <time>2019-04-14T10:02:13Z</time>
      </trkpt>
      <trkpt lat="44.42871" lon="1.32342">
        <ele>312</ele>
        <time>2019-04-14T10:02:17Z</time>
      </trkpt>
      <trkpt lat="44.42874" lon="1.3234">
        <ele>311</ele>
        <time>2019-04-14T10:02:19Z</time>
      </trkpt>
      <trkpt lat="44.42881" lon="1.32338">
        <ele>310</ele>
        <time>2019-04-14T10:02:20Z</time>
      </trkpt>
      <trkpt lat="44.42883" lon="1.32338">
        <ele>310</ele>
        <time>2019-04-14T10:02:22Z</time>
      </trkpt>
      <trkpt lat="44.42884" lon="1.32338">
        <ele>310</ele>
        <time>2019-04-14T10:02:23Z</time>
      </trkpt>
      <trkpt lat="44.42884" lon="1.32338">
        <ele>310</ele>
        <time>2019-04-14T10:02:25Z</time>
      </trkpt>
      <trkpt lat="44.42886" lon="1.32339">
        <ele>310</ele>
        <time>2019-04-14T10:02:26Z</time>
      </trkpt>
      <trkpt lat="44.42887" lon="1.3234">
        <ele>310</ele>
        <time>2019-04-14T10:02:28Z</time>
      </trkpt>
      <trkpt lat="44.42888" lon="1.32341">
        <ele>311</ele>
        <time>2019-04-14T10:02:29Z</time>
      </trkpt>
      <trkpt lat="44.4289" lon="1.32342">
        <ele>311</ele>
        <time>2019-04-14T10:02:30Z</time>
      </trkpt>
      <trkpt lat="44.42896" lon="1.32345">
        <ele>312</ele>
        <time>2019-04-14T10:02:35Z</time>
      </trkpt>
      <trkpt lat="44.42902" lon="1.3235">
        <ele>313</ele>
        <time>2019-04-14T10:02:40Z</time>
      </trkpt>
      <trkpt lat="44.42904" lon="1.32351">
        <ele>314</ele>
        <time>2019-04-14T10:02:43Z</time>
      </trkpt>
      <trkpt lat="44.42904" lon="1.32353">
        <ele>314</ele>
        <time>2019-04-14T10:02:45Z</time>
      </trkpt>
      <trkpt lat="44.42908" lon="1.32352">
        <ele>314</ele>
        <time>2019-04-14T10:02:51Z</time>
      </trkpt>
      <trkpt lat="44.42913" lon="1.32351">
        <ele>314</ele>
        <time>2019-04-14T10:02:53Z</time>
      </trkpt>
      <trkpt lat="44.42915" lon="1.32352">
        <ele>313</ele>
        <time>2019-04-14T10:02:54Z</time>
      </trkpt>
      <trkpt lat="44.42919" lon="1.32355">
        <ele>313</ele>
        <time>2019-04-14T10:02:57Z</time>
      </trkpt>
      <trkpt lat="44.42922" lon="1.32357">
        <ele>313</ele>
        <time>2019-04-14T10:02:59Z</time>
      </trkpt>
      <trkpt lat="44.42926" lon="1.32359">
        <ele>313</ele>
        <time>2019-04-14T10:03:02Z</time>
      </trkpt>
      <trkpt lat="44.42933" lon="1.32357">
        <ele>313</ele>
        <time>2019-04-14T10:03:06Z</time>
      </trkpt>
      <trkpt lat="44.42936" lon="1.32357">
        <ele>312</ele>
        <time>2019-04-14T10:03:08Z</time>
      </trkpt>
      <trkpt lat="44.4294" lon="1.32358">
        <ele>312</ele>
        <time>2019-04-14T10:03:10Z</time>
      </trkpt>
      <trkpt lat="44.42943" lon="1.32361">
        <ele>311</ele>
        <time>2019-04-14T10:03:13Z</time>
      </trkpt>
      <trkpt lat="44.4295" lon="1.32371">
        <ele>311</ele>
        <time>2019-04-14T10:03:17Z</time>
      </trkpt>
      <trkpt lat="44.42951" lon="1.32373">
        <ele>311</ele>
        <time>2019-04-14T10:03:18Z</time>
      </trkpt>
      <trkpt lat="44.42954" lon="1.32377">
        <ele>310</ele>
        <time>2019-04-14T10:03:20Z</time>
      </trkpt>
      <trkpt lat="44.42955" lon="1.3238">
        <ele>310</ele>
        <time>2019-04-14T10:03:22Z</time>
      </trkpt>
      <trkpt lat="44.42957" lon="1.32382">
        <ele>310</ele>
        <time>2019-04-14T10:03:24Z</time>
      </trkpt>
      <trkpt lat="44.42957" lon="1.32386">
        <ele>310</ele>
        <time>2019-04-14T10:03:27Z</time>
      </trkpt>
      <trkpt lat="44.42958" lon="1.32386">
        <ele>310</ele>
        <time>2019-04-14T10:03:29Z</time>
      </trkpt>
      <trkpt lat="44.42958" lon="1.32387">
        <ele>310</ele>
        <time>2019-04-14T10:03:31Z</time>
      </trkpt>
      <trkpt lat="44.42958" lon="1.32389">
        <ele>310</ele>
        <time>2019-04-14T10:03:33Z</time>
      </trkpt>
      <trkpt lat="44.42959" lon="1.32391">
        <ele>310</ele>
        <time>2019-04-14T10:03:36Z</time>
      </trkpt>
      <trkpt lat="44.4296" lon="1.32393">
        <ele>311</ele>
        <time>2019-04-14T10:03:42Z</time>
      </trkpt>
      <trkpt lat="44.4296" lon="1.32396">
        <ele>311</ele>
        <time>2019-04-14T10:03:44Z</time>
      </trkpt>
      <trkpt lat="44.42961" lon="1.32404">
        <ele>311</ele>
        <time>2019-04-14T10:03:48Z</time>
      </trkpt>
      <trkpt lat="44.42965" lon="1.32421">
        <ele>311</ele>
        <time>2019-04-14T10:03:55Z</time>
      </trkpt>
      <trkpt lat="44.42966" lon="1.32426">
        <ele>311</ele>
        <time>2019-04-14T10:03:57Z</time>
      </trkpt>
      <trkpt lat="44.42969" lon="1.32444">
        <ele>312</ele>
        <time>2019-04-14T10:04:02Z</time>
      </trkpt>
      <trkpt lat="44.42971" lon="1.32465">
        <ele>312</ele>
        <time>2019-04-14T10:04:09Z</time>
      </trkpt>
      <trkpt lat="44.42969" lon="1.32473">
        <ele>312</ele>
        <time>2019-04-14T10:04:12Z</time>
      </trkpt>
      <trkpt lat="44.42968" lon="1.32479">
        <ele>313</ele>
        <time>2019-04-14T10:04:15Z</time>
      </trkpt>
      <trkpt lat="44.42965" lon="1.3249">
        <ele>315</ele>
        <time>2019-04-14T10:04:20Z</time>
      </trkpt>
      <trkpt lat="44.42965" lon="1.32498">
        <ele>315</ele>
        <time>2019-04-14T10:04:23Z</time>
      </trkpt>
      <trkpt lat="44.42965" lon="1.32507">
        <ele>316</ele>
        <time>2019-04-14T10:04:26Z</time>
      </trkpt>
      <trkpt lat="44.42964" lon="1.32516">
        <ele>316</ele>
        <time>2019-04-14T10:04:30Z</time>
      </trkpt>
      <trkpt lat="44.42965" lon="1.3252">
        <ele>317</ele>
        <time>2019-04-14T10:04:32Z</time>
      </trkpt>
      <trkpt lat="44.4297" lon="1.32528">
        <ele>317</ele>
        <time>2019-04-14T10:04:35Z</time>
      </trkpt>
      <trkpt lat="44.42982" lon="1.32538">
        <ele>316</ele>
        <time>2019-04-14T10:04:39Z</time>
      </trkpt>
      <trkpt lat="44.42986" lon="1.3254">
        <ele>315</ele>
        <time>2019-04-14T10:04:40Z</time>
      </trkpt>
      <trkpt lat="44.42994" lon="1.32542">
        <ele>314</ele>
        <time>2019-04-14T10:04:42Z</time>
      </trkpt>
      <trkpt lat="44.43002" lon="1.3254">
        <ele>313</ele>
        <time>2019-04-14T10:04:44Z</time>
      </trkpt>
      <trkpt lat="44.43006" lon="1.32539">
        <ele>313</ele>
        <time>2019-04-14T10:04:45Z</time>
      </trkpt>
      <trkpt lat="44.4301" lon="1.32539">
        <ele>312</ele>
        <time>2019-04-14T10:04:46Z</time>
      </trkpt>
      <trkpt lat="44.43014" lon="1.32539">
        <ele>312</ele>
        <time>2019-04-14T10:04:47Z</time>
      </trkpt>
      <trkpt lat="44.43034" lon="1.32536">
        <ele>310</ele>
        <time>2019-04-14T10:04:52Z</time>
      </trkpt>
      <trkpt lat="44.43041" lon="1.32532">
        <ele>309</ele>
        <time>2019-04-14T10:04:55Z</time>
      </trkpt>
      <trkpt lat="44.43043" lon="1.32532">
        <ele>309</ele>
        <time>2019-04-14T10:04:56Z</time>
      </trkpt>
      <trkpt lat="44.43044" lon="1.32531">
        <ele>307</ele>
        <time>2019-04-14T10:06:23Z</time>
      </trkpt>
      <trkpt lat="44.43045" lon="1.32529">
        <ele>307</ele>
        <time>2019-04-14T10:06:24Z</time>
      </trkpt>
      <trkpt lat="44.43049" lon="1.32525">
        <ele>307</ele>
        <time>2019-04-14T10:06:27Z</time>
      </trkpt>
      <trkpt lat="44.43054" lon="1.32519">
        <ele>307</ele>
        <time>2019-04-14T10:06:29Z</time>
      </trkpt>
      <trkpt lat="44.43056" lon="1.32517">
        <ele>306</ele>
        <time>2019-04-14T10:06:31Z</time>
      </trkpt>
      <trkpt lat="44.4306" lon="1.32514">
        <ele>306</ele>
        <time>2019-04-14T10:06:33Z</time>
      </trkpt>
      <trkpt lat="44.43063" lon="1.32513">
        <ele>306</ele>
        <time>2019-04-14T10:06:35Z</time>
      </trkpt>
      <trkpt lat="44.43069" lon="1.32517">
        <ele>306</ele>
        <time>2019-04-14T10:06:40Z</time>
      </trkpt>
      <trkpt lat="44.43073" lon="1.32529">
        <ele>305</ele>
        <time>2019-04-14T10:06:45Z</time>
      </trkpt>
      <trkpt lat="44.43075" lon="1.32538">
        <ele>306</ele>
        <time>2019-04-14T10:06:49Z</time>
      </trkpt>
      <trkpt lat="44.43075" lon="1.32541">
        <ele>306</ele>
        <time>2019-04-14T10:06:50Z</time>
      </trkpt>
      <trkpt lat="44.43076" lon="1.32554">
        <ele>307</ele>
        <time>2019-04-14T10:06:55Z</time>
      </trkpt>
      <trkpt lat="44.43076" lon="1.32562">
        <ele>307</ele>
        <time>2019-04-14T10:06:58Z</time>
      </trkpt>
      <trkpt lat="44.43076" lon="1.3257">
        <ele>308</ele>
        <time>2019-04-14T10:07:01Z</time>
      </trkpt>
      <trkpt lat="44.43075" lon="1.3258">
        <ele>308</ele>
        <time>2019-04-14T10:07:05Z</time>
      </trkpt>
      <trkpt lat="44.43077" lon="1.32594">
        <ele>309</ele>
        <time>2019-04-14T10:07:10Z</time>
      </trkpt>
      <trkpt lat="44.4308" lon="1.32614">
        <ele>309</ele>
        <time>2019-04-14T10:07:16Z</time>
      </trkpt>
      <trkpt lat="44.43085" lon="1.32636">
        <ele>309</ele>
        <time>2019-04-14T10:07:23Z</time>
      </trkpt>
      <trkpt lat="44.43085" lon="1.32648">
        <ele>309</ele>
        <time>2019-04-14T10:07:27Z</time>
      </trkpt>
      <trkpt lat="44.43086" lon="1.32651">
        <ele>309</ele>
        <time>2019-04-14T10:07:28Z</time>
      </trkpt>
      <trkpt lat="44.43092" lon="1.32655">
        <ele>309</ele>
        <time>2019-04-14T10:07:30Z</time>
      </trkpt>
      <trkpt lat="44.43099" lon="1.32667">
        <ele>309</ele>
        <time>2019-04-14T10:07:33Z</time>
      </trkpt>
      <trkpt lat="44.43102" lon="1.32672">
        <ele>308</ele>
        <time>2019-04-14T10:07:34Z</time>
      </trkpt>
      <trkpt lat="44.43106" lon="1.32677">
        <ele>307</ele>
        <time>2019-04-14T10:07:35Z</time>
      </trkpt>
      <trkpt lat="44.43117" lon="1.32686">
        <ele>305</ele>
        <time>2019-04-14T10:07:38Z</time>
      </trkpt>
      <trkpt lat="44.43122" lon="1.32687">
        <ele>305</ele>
        <time>2019-04-14T10:07:39Z</time>
      </trkpt>
      <trkpt lat="44.43128" lon="1.32688">
        <ele>304</ele>
        <time>2019-04-14T10:07:40Z</time>
      </trkpt>
      <trkpt lat="44.43138" lon="1.32691">
        <ele>303</ele>
        <time>2019-04-14T10:07:42Z</time>
      </trkpt>
      <trkpt lat="44.43141" lon="1.32693">
        <ele>303</ele>
        <time>2019-04-14T10:07:43Z</time>
      </trkpt>
      <trkpt lat="44.43152" lon="1.32697">
        <ele>303</ele>
        <time>2019-04-14T10:07:48Z</time>
      </trkpt>
      <trkpt lat="44.43155" lon="1.32696">
        <ele>303</ele>
        <time>2019-04-14T10:07:49Z</time>
      </trkpt>
      <trkpt lat="44.43157" lon="1.32695">
        <ele>304</ele>
        <time>2019-04-14T10:07:50Z</time>
      </trkpt>
      <trkpt lat="44.43162" lon="1.32692">
        <ele>305</ele>
        <time>2019-04-14T10:07:53Z</time>
      </trkpt>
      <trkpt lat="44.43167" lon="1.32683">
        <ele>306</ele>
        <time>2019-04-14T10:07:57Z</time>
      </trkpt>
      <trkpt lat="44.43168" lon="1.3268">
        <ele>307</ele>
        <time>2019-04-14T10:07:58Z</time>
      </trkpt>
      <trkpt lat="44.43177" lon="1.3266">
        <ele>307</ele>
        <time>2019-04-14T10:08:04Z</time>
      </trkpt>
      <trkpt lat="44.43179" lon="1.32657">
        <ele>306</ele>
        <time>2019-04-14T10:08:05Z</time>
      </trkpt>
      <trkpt lat="44.43188" lon="1.32643">
        <ele>306</ele>
        <time>2019-04-14T10:08:10Z</time>
      </trkpt>
      <trkpt lat="44.43195" lon="1.32636">
        <ele>306</ele>
        <time>2019-04-14T10:08:13Z</time>
      </trkpt>
      <trkpt lat="44.43202" lon="1.32627">
        <ele>306</ele>
        <time>2019-04-14T10:08:17Z</time>
      </trkpt>
      <trkpt lat="44.43207" lon="1.32628">
        <ele>305</ele>
        <time>2019-04-14T10:08:20Z</time>
      </trkpt>
      <trkpt lat="44.43208" lon="1.3263">
        <ele>305</ele>
        <time>2019-04-14T10:08:21Z</time>
      </trkpt>
      <trkpt lat="44.4321" lon="1.32636">
        <ele>306</ele>
        <time>2019-04-14T10:08:25Z</time>
      </trkpt>
      <trkpt lat="44.43212" lon="1.3264">
        <ele>306</ele>
        <time>2019-04-14T10:08:26Z</time>
      </trkpt>
      <trkpt lat="44.43213" lon="1.32645">
        <ele>307</ele>
        <time>2019-04-14T10:08:28Z</time>
      </trkpt>
      <trkpt lat="44.43213" lon="1.3265">
        <ele>307</ele>
        <time>2019-04-14T10:08:30Z</time>
      </trkpt>
      <trkpt lat="44.43212" lon="1.32661">
        <ele>308</ele>
        <time>2019-04-14T10:08:34Z</time>
      </trkpt>
      <trkpt lat="44.4321" lon="1.3267">
        <ele>308</ele>
        <time>2019-04-14T10:08:37Z</time>
      </trkpt>
      <trkpt lat="44.4321" lon="1.32679">
        <ele>309</ele>
        <time>2019-04-14T10:08:40Z</time>
      </trkpt>
      <trkpt lat="44.43213" lon="1.32694">
        <ele>308</ele>
        <time>2019-04-14T10:08:45Z</time>
      </trkpt>
      <trkpt lat="44.43222" lon="1.32707">
        <ele>308</ele>
        <time>2019-04-14T10:08:49Z</time>
      </trkpt>
      <trkpt lat="44.43225" lon="1.32711">
        <ele>308</ele>
        <time>2019-04-14T10:08:50Z</time>
      </trkpt>
      <trkpt lat="44.43229" lon="1.32714">
        <ele>307</ele>
        <time>2019-04-14T10:08:51Z</time>
      </trkpt>
      <trkpt lat="44.43232" lon="1.32716">
        <ele>307</ele>
        <time>2019-04-14T10:08:52Z</time>
      </trkpt>
      <trkpt lat="44.43236" lon="1.32717">
        <ele>306</ele>
        <time>2019-04-14T10:08:53Z</time>
      </trkpt>
      <trkpt lat="44.43244" lon="1.32717">
        <ele>306</ele>
        <time>2019-04-14T10:08:56Z</time>
      </trkpt>
      <trkpt lat="44.43248" lon="1.32717">
        <ele>305</ele>
        <time>2019-04-14T10:08:57Z</time>
      </trkpt>
      <trkpt lat="44.43256" lon="1.32716">
        <ele>305</ele>
        <time>2019-04-14T10:08:59Z</time>
      </trkpt>
      <trkpt lat="44.43261" lon="1.32715">
        <ele>305</ele>
        <time>2019-04-14T10:09:00Z</time>
      </trkpt>
      <trkpt lat="44.43265" lon="1.32716">
        <ele>304</ele>
        <time>2019-04-14T10:09:01Z</time>
      </trkpt>
      <trkpt lat="44.43276" lon="1.32719">
        <ele>303</ele>
        <time>2019-04-14T10:09:04Z</time>
      </trkpt>
      <trkpt lat="44.4328" lon="1.32717">
        <ele>303</ele>
        <time>2019-04-14T10:09:05Z</time>
      </trkpt>
      <trkpt lat="44.43285" lon="1.32715">
        <ele>302</ele>
        <time>2019-04-14T10:09:06Z</time>
      </trkpt>
      <trkpt lat="44.43291" lon="1.32713">
        <ele>302</ele>
        <time>2019-04-14T10:09:07Z</time>
      </trkpt>
      <trkpt lat="44.43301" lon="1.32711">
        <ele>301</ele>
        <time>2019-04-14T10:09:09Z</time>
      </trkpt>
      <trkpt lat="44.4331" lon="1.32709">
        <ele>299</ele>
        <time>2019-04-14T10:09:11Z</time>
      </trkpt>
      <trkpt lat="44.43318" lon="1.32705">
        <ele>300</ele>
        <time>2019-04-14T10:09:13Z</time>
      </trkpt>
      <trkpt lat="44.43321" lon="1.32704">
        <ele>300</ele>
        <time>2019-04-14T10:09:16Z</time>
      </trkpt>
      <trkpt lat="44.43322" lon="1.32703">
        <ele>300</ele>
        <time>2019-04-14T10:09:32Z</time>
      </trkpt>
      <trkpt lat="44.43323" lon="1.32702">
        <ele>300</ele>
        <time>2019-04-14T10:09:33Z</time>
      </trkpt>
      <trkpt lat="44.43326" lon="1.32701">
        <ele>299</ele>
        <time>2019-04-14T10:09:35Z</time>
      </trkpt>
      <trkpt lat="44.43329" lon="1.327">
        <ele>300</ele>
        <time>2019-04-14T10:09:37Z</time>
      </trkpt>
      <trkpt lat="44.43332" lon="1.32699">
        <ele>300</ele>
        <time>2019-04-14T10:09:39Z</time>
      </trkpt>
      <trkpt lat="44.43333" lon="1.32699">
        <ele>300</ele>
        <time>2019-04-14T10:09:40Z</time>
      </trkpt>
      <trkpt lat="44.43335" lon="1.32697">
        <ele>301</ele>
        <time>2019-04-14T10:09:42Z</time>
      </trkpt>
      <trkpt lat="44.43335" lon="1.32697">
        <ele>301</ele>
        <time>2019-04-14T10:09:44Z</time>
      </trkpt>
      <trkpt lat="44.43336" lon="1.32696">
        <ele>301</ele>
        <time>2019-04-14T10:09:47Z</time>
      </trkpt>
      <trkpt lat="44.4334" lon="1.32693">
        <ele>301</ele>
        <time>2019-04-14T10:09:50Z</time>
      </trkpt>
      <trkpt lat="44.43342" lon="1.32692">
        <ele>301</ele>
        <time>2019-04-14T10:09:51Z</time>
      </trkpt>
      <trkpt lat="44.43346" lon="1.3269">
        <ele>301</ele>
        <time>2019-04-14T10:09:53Z</time>
      </trkpt>
      <trkpt lat="44.43352" lon="1.32686">
        <ele>302</ele>
        <time>2019-04-14T10:09:56Z</time>
      </trkpt>
      <trkpt lat="44.43359" lon="1.32681">
        <ele>303</ele>
        <time>2019-04-14T10:10:00Z</time>
      </trkpt>
      <trkpt lat="44.43361" lon="1.32679">
        <ele>303</ele>
        <time>2019-04-14T10:10:01Z</time>
      </trkpt>
      <trkpt lat="44.43374" lon="1.32672">
        <ele>304</ele>
        <time>2019-04-14T10:10:07Z</time>
      </trkpt>
      <trkpt lat="44.43376" lon="1.3267">
        <ele>304</ele>
        <time>2019-04-14T10:10:08Z</time>
      </trkpt>
      <trkpt lat="44.43384" lon="1.32664">
        <ele>305</ele>
        <time>2019-04-14T10:10:12Z</time>
      </trkpt>
      <trkpt lat="44.43388" lon="1.32661">
        <ele>305</ele>
        <time>2019-04-14T10:10:14Z</time>
      </trkpt>
      <trkpt lat="44.434" lon="1.32657">
        <ele>306</ele>
        <time>2019-04-14T10:10:20Z</time>
      </trkpt>
      <trkpt lat="44.43402" lon="1.32657">
        <ele>306</ele>
        <time>2019-04-14T10:10:21Z</time>
      </trkpt>
      <trkpt lat="44.43405" lon="1.32656">
        <ele>306</ele>
        <time>2019-04-14T10:10:23Z</time>
      </trkpt>
      <trkpt lat="44.43412" lon="1.32654">
        <ele>307</ele>
        <time>2019-04-14T10:10:27Z</time>
      </trkpt>
      <trkpt lat="44.43416" lon="1.32653">
        <ele>308</ele>
        <time>2019-04-14T10:10:29Z</time>
      </trkpt>
      <trkpt lat="44.43423" lon="1.3265">
        <ele>309</ele>
        <time>2019-04-14T10:10:33Z</time>
      </trkpt>
      <trkpt lat="44.43425" lon="1.32649">
        <ele>309</ele>
        <time>2019-04-14T10:10:34Z</time>
      </trkpt>
      <trkpt lat="44.43433" lon="1.32644">
        <ele>310</ele>
        <time>2019-04-14T10:10:39Z</time>
      </trkpt>
      <trkpt lat="44.43437" lon="1.32642">
        <ele>310</ele>
        <time>2019-04-14T10:10:41Z</time>
      </trkpt>
      <trkpt lat="44.43442" lon="1.3264">
        <ele>310</ele>
        <time>2019-04-14T10:10:44Z</time>
      </trkpt>
      <trkpt lat="44.43445" lon="1.32638">
        <ele>311</ele>
        <time>2019-04-14T10:10:46Z</time>
      </trkpt>
      <trkpt lat="44.43456" lon="1.32627">
        <ele>312</ele>
        <time>2019-04-14T10:10:52Z</time>
      </trkpt>
      <trkpt lat="44.43457" lon="1.32625">
        <ele>312</ele>
        <time>2019-04-14T10:10:53Z</time>
      </trkpt>
      <trkpt lat="44.43464" lon="1.32618">
        <ele>313</ele>
        <time>2019-04-14T10:10:57Z</time>
      </trkpt>
      <trkpt lat="44.4347" lon="1.32608">
        <ele>314</ele>
        <time>2019-04-14T10:11:02Z</time>
      </trkpt>
      <trkpt lat="44.43476" lon="1.326">
        <ele>315</ele>
        <time>2019-04-14T10:11:07Z</time>
      </trkpt>
      <trkpt lat="44.43478" lon="1.32596">
        <ele>316</ele>
        <time>2019-04-14T10:11:09Z</time>
      </trkpt>
      <trkpt lat="44.4348" lon="1.32592">
        <ele>317</ele>
        <time>2019-04-14T10:11:11Z</time>
      </trkpt>
      <trkpt lat="44.43485" lon="1.32582">
        <ele>318</ele>
        <time>2019-04-14T10:11:16Z</time>
      </trkpt>
      <trkpt lat="44.43486" lon="1.32577">
        <ele>318</ele>
        <time>2019-04-14T10:11:18Z</time>
      </trkpt>
      <trkpt lat="44.43488" lon="1.32567">
        <ele>319</ele>
        <time>2019-04-14T10:11:22Z</time>
      </trkpt>
      <trkpt lat="44.4349" lon="1.32562">
        <ele>319</ele>
        <time>2019-04-14T10:11:25Z</time>
      </trkpt>
      <trkpt lat="44.43494" lon="1.32546">
        <ele>320</ele>
        <time>2019-04-14T10:11:31Z</time>
      </trkpt>
      <trkpt lat="44.43497" lon="1.32532">
        <ele>320</ele>
        <time>2019-04-14T10:11:35Z</time>
      </trkpt>
      <trkpt lat="44.43499" lon="1.32516">
        <ele>321</ele>
        <time>2019-04-14T10:11:40Z</time>
      </trkpt>
      <trkpt lat="44.435" lon="1.325">
        <ele>321</ele>
        <time>2019-04-14T10:11:45Z</time>
      </trkpt>
      <trkpt lat="44.43503" lon="1.32487">
        <ele>322</ele>
        <time>2019-04-14T10:11:49Z</time>
      </trkpt>
      <trkpt lat="44.43506" lon="1.32478">
        <ele>322</ele>
        <time>2019-04-14T10:11:52Z</time>
      </trkpt>
      <trkpt lat="44.43513" lon="1.32463">
        <ele>323</ele>
        <time>2019-04-14T10:11:57Z</time>
      </trkpt>
      <trkpt lat="44.43515" lon="1.3246">
        <ele>323</ele>
        <time>2019-04-14T10:11:58Z</time>
      </trkpt>
      <trkpt lat="44.43517" lon="1.32452">
        <ele>323</ele>
        <time>2019-04-14T10:12:01Z</time>
      </trkpt>
      <trkpt lat="44.43527" lon="1.32447">
        <ele>323</ele>
        <time>2019-04-14T10:12:05Z</time>
      </trkpt>
      <trkpt lat="44.43535" lon="1.32445">
        <ele>323</ele>
        <time>2019-04-14T10:12:08Z</time>
      </trkpt>
      <trkpt lat="44.43541" lon="1.3244">
        <ele>323</ele>
        <time>2019-04-14T10:12:10Z</time>
      </trkpt>
      <trkpt lat="44.43553" lon="1.32438">
        <ele>323</ele>
        <time>2019-04-14T10:12:14Z</time>
      </trkpt>
      <trkpt lat="44.43558" lon="1.32443">
        <ele>323</ele>
        <time>2019-04-14T10:12:16Z</time>
      </trkpt>
      <trkpt lat="44.43559" lon="1.32447">
        <ele>323</ele>
        <time>2019-04-14T10:12:17Z</time>
      </trkpt>
      <trkpt lat="44.43557" lon="1.32469">
        <ele>323</ele>
        <time>2019-04-14T10:12:22Z</time>
      </trkpt>
      <trkpt lat="44.43548" lon="1.32499">
        <ele>324</ele>
        <time>2019-04-14T10:12:29Z</time>
      </trkpt>
      <trkpt lat="44.43551" lon="1.32524">
        <ele>324</ele>
        <time>2019-04-14T10:12:34Z</time>
      </trkpt>
      <trkpt lat="44.43568" lon="1.32561">
        <ele>324</ele>
        <time>2019-04-14T10:12:42Z</time>
      </trkpt>
      <trkpt lat="44.4357" lon="1.32565">
        <ele>324</ele>
        <time>2019-04-14T10:12:43Z</time>
      </trkpt>
      <trkpt lat="44.4358" lon="1.32598">
        <ele>324</ele>
        <time>2019-04-14T10:12:50Z</time>
      </trkpt>
      <trkpt lat="44.43588" lon="1.32651">
        <ele>325</ele>
        <time>2019-04-14T10:13:00Z</time>
      </trkpt>
      <trkpt lat="44.43597" lon="1.32678">
        <ele>325</ele>
        <time>2019-04-14T10:13:06Z</time>
      </trkpt>
      <trkpt lat="44.43612" lon="1.32683">
        <ele>325</ele>
        <time>2019-04-14T10:13:10Z</time>
      </trkpt>
      <trkpt lat="44.43642" lon="1.32684">
        <ele>325</ele>
        <time>2019-04-14T10:13:16Z</time>
      </trkpt>
      <trkpt lat="44.43652" lon="1.32686">
        <ele>324</ele>
        <time>2019-04-14T10:13:18Z</time>
      </trkpt>
      <trkpt lat="44.43669" lon="1.32691">
        <ele>323</ele>
        <time>2019-04-14T10:13:21Z</time>
      </trkpt>
      <trkpt lat="44.43691" lon="1.32699">
        <ele>323</ele>
        <time>2019-04-14T10:13:25Z</time>
      </trkpt>
      <trkpt lat="44.43701" lon="1.32704">
        <ele>322</ele>
        <time>2019-04-14T10:13:27Z</time>
      </trkpt>
      <trkpt lat="44.43733" lon="1.3272">
        <ele>321</ele>
        <time>2019-04-14T10:13:33Z</time>
      </trkpt>
      <trkpt lat="44.4375" lon="1.32728">
        <ele>321</ele>
        <time>2019-04-14T10:13:36Z</time>
      </trkpt>
      <trkpt lat="44.43755" lon="1.3273">
        <ele>320</ele>
        <time>2019-04-14T10:13:37Z</time>
      </trkpt>
      <trkpt lat="44.43782" lon="1.32744">
        <ele>320</ele>
        <time>2019-04-14T10:13:42Z</time>
      </trkpt>
      <trkpt lat="44.43787" lon="1.32745">
        <ele>320</ele>
        <time>2019-04-14T10:13:43Z</time>
      </trkpt>
      <trkpt lat="44.4379" lon="1.32746">
        <ele>319</ele>
        <time>2019-04-14T10:13:44Z</time>
      </trkpt>
      <trkpt lat="44.43795" lon="1.3275">
        <ele>319</ele>
        <time>2019-04-14T10:13:46Z</time>
      </trkpt>
      <trkpt lat="44.43795" lon="1.3275">
        <ele>319</ele>
        <time>2019-04-14T10:13:48Z</time>
      </trkpt>
      <trkpt lat="44.43797" lon="1.32752">
        <ele>319</ele>
        <time>2019-04-14T10:14:03Z</time>
      </trkpt>
      <trkpt lat="44.43805" lon="1.32764">
        <ele>319</ele>
        <time>2019-04-14T10:14:08Z</time>
      </trkpt>
      <trkpt lat="44.43811" lon="1.32768">
        <ele>319</ele>
        <time>2019-04-14T10:14:10Z</time>
      </trkpt>
      <trkpt lat="44.43821" lon="1.32776">
        <ele>319</ele>
        <time>2019-04-14T10:14:14Z</time>
      </trkpt>
      <trkpt lat="44.43837" lon="1.32786">
        <ele>318</ele>
        <time>2019-04-14T10:14:20Z</time>
      </trkpt>
      <trkpt lat="44.43841" lon="1.3279">
        <ele>318</ele>
        <time>2019-04-14T10:14:22Z</time>
      </trkpt>
      <trkpt lat="44.43849" lon="1.32795">
        <ele>318</ele>
        <time>2019-04-14T10:14:25Z</time>
      </trkpt>
      <trkpt lat="44.43871" lon="1.32808">
        <ele>318</ele>
        <time>2019-04-14T10:14:32Z</time>
      </trkpt>
      <trkpt lat="44.43896" lon="1.32815">
        <ele>318</ele>
        <time>2019-04-14T10:14:39Z</time>
      </trkpt>
      <trkpt lat="44.43914" lon="1.32819">
        <ele>318</ele>
        <time>2019-04-14T10:14:45Z</time>
      </trkpt>
      <trkpt lat="44.43922" lon="1.3282">
        <ele>318</ele>
        <time>2019-04-14T10:14:49Z</time>
      </trkpt>
      <trkpt lat="44.43939" lon="1.32818">
        <ele>318</ele>
        <time>2019-04-14T10:14:54Z</time>
      </trkpt>
      <trkpt lat="44.43962" lon="1.32814">
        <ele>318</ele>
        <time>2019-04-14T10:15:00Z</time>
      </trkpt>
      <trkpt lat="44.43979" lon="1.32811">
        <ele>317</ele>
        <time>2019-04-14T10:15:04Z</time>
      </trkpt>
      <trkpt lat="44.43995" lon="1.32807">
        <ele>316</ele>
        <time>2019-04-14T10:15:07Z</time>
      </trkpt>
      <trkpt lat="44.44002" lon="1.32807">
        <ele>316</ele>
        <time>2019-04-14T10:15:08Z</time>
      </trkpt>
      <trkpt lat="44.44009" lon="1.32807">
        <ele>316</ele>
        <time>2019-04-14T10:15:09Z</time>
      </trkpt>
      <trkpt lat="44.44023" lon="1.3281">
        <ele>315</ele>
        <time>2019-04-14T10:15:11Z</time>
      </trkpt>
      <trkpt lat="44.44031" lon="1.32812">
        <ele>314</ele>
        <time>2019-04-14T10:15:12Z</time>
      </trkpt>
      <trkpt lat="44.44039" lon="1.32815">
        <ele>312</ele>
        <time>2019-04-14T10:15:13Z</time>
      </trkpt>
      <trkpt lat="44.44056" lon="1.32821">
        <ele>310</ele>
        <time>2019-04-14T10:15:15Z</time>
      </trkpt>
      <trkpt lat="44.44065" lon="1.32824">
        <ele>309</ele>
        <time>2019-04-14T10:15:16Z</time>
      </trkpt>
      <trkpt lat="44.44073" lon="1.32827">
        <ele>309</ele>
        <time>2019-04-14T10:15:17Z</time>
      </trkpt>
      <trkpt lat="44.44088" lon="1.32833">
        <ele>307</ele>
        <time>2019-04-14T10:15:19Z</time>
      </trkpt>
      <trkpt lat="44.44096" lon="1.32838">
        <ele>305</ele>
        <time>2019-04-14T10:15:20Z</time>
      </trkpt>
      <trkpt lat="44.44102" lon="1.3284">
        <ele>304</ele>
        <time>2019-04-14T10:15:21Z</time>
      </trkpt>
      <trkpt lat="44.4411" lon="1.3284">
        <ele>302</ele>
        <time>2019-04-14T10:15:22Z</time>
      </trkpt>
      <trkpt lat="44.44118" lon="1.32841">
        <ele>302</ele>
        <time>2019-04-14T10:15:23Z</time>
      </trkpt>
      <trkpt lat="44.44126" lon="1.3284">
        <ele>301</ele>
        <time>2019-04-14T10:15:24Z</time>
      </trkpt>
      <trkpt lat="44.44139" lon="1.32838">
        <ele>300</ele>
        <time>2019-04-14T10:15:26Z</time>
      </trkpt>
      <trkpt lat="44.44146" lon="1.32839">
        <ele>299</ele>
        <time>2019-04-14T10:15:27Z</time>
      </trkpt>
      <trkpt lat="44.44152" lon="1.32841">
        <ele>298</ele>
        <time>2019-04-14T10:15:28Z</time>
      </trkpt>
      <trkpt lat="44.44165" lon="1.32846">
        <ele>297</ele>
        <time>2019-04-14T10:15:30Z</time>
      </trkpt>
      <trkpt lat="44.44171" lon="1.32849">
        <ele>296</ele>
        <time>2019-04-14T10:15:31Z</time>
      </trkpt>
      <trkpt lat="44.44176" lon="1.32852">
        <ele>296</ele>
        <time>2019-04-14T10:15:32Z</time>
      </trkpt>
      <trkpt lat="44.44192" lon="1.32861">
        <ele>296</ele>
        <time>2019-04-14T10:15:35Z</time>
      </trkpt>
      <trkpt lat="44.44207" lon="1.32866">
        <ele>296</ele>
        <time>2019-04-14T10:15:38Z</time>
      </trkpt>
      <trkpt lat="44.44227" lon="1.32869">
        <ele>297</ele>
        <time>2019-04-14T10:15:42Z</time>
      </trkpt>
      <trkpt lat="44.44236" lon="1.32869">
        <ele>297</ele>
        <time>2019-04-14T10:15:44Z</time>
      </trkpt>
      <trkpt lat="44.44241" lon="1.3287">
        <ele>297</ele>
        <time>2019-04-14T10:15:45Z</time>
      </trkpt>
      <trkpt lat="44.44254" lon="1.32874">
        <ele>297</ele>
        <time>2019-04-14T10:15:48Z</time>
      </trkpt>
      <trkpt lat="44.44262" lon="1.32877">
        <ele>298</ele>
        <time>2019-04-14T10:15:50Z</time>
      </trkpt>
      <trkpt lat="44.44273" lon="1.32881">
        <ele>299</ele>
        <time>2019-04-14T10:15:53Z</time>
      </trkpt>
      <trkpt lat="44.44285" lon="1.32886">
        <ele>299</ele>
        <time>2019-04-14T10:15:56Z</time>
      </trkpt>
      <trkpt lat="44.44288" lon="1.32889">
        <ele>300</ele>
        <time>2019-04-14T10:15:57Z</time>
      </trkpt>
      <trkpt lat="44.44291" lon="1.32891">
        <ele>300</ele>
        <time>2019-04-14T10:15:58Z</time>
      </trkpt>
      <trkpt lat="44.44304" lon="1.32899">
        <ele>301</ele>
        <time>2019-04-14T10:16:02Z</time>
      </trkpt>
      <trkpt lat="44.44308" lon="1.32901">
        <ele>301</ele>
        <time>2019-04-14T10:16:03Z</time>
      </trkpt>
      <trkpt lat="44.44317" lon="1.32907">
        <ele>302</ele>
        <time>2019-04-14T10:16:06Z</time>
      </trkpt>
      <trkpt lat="44.44327" lon="1.32912">
        <ele>303</ele>
        <time>2019-04-14T10:16:09Z</time>
      </trkpt>
      <trkpt lat="44.4433" lon="1.32914">
        <ele>303</ele>
        <time>2019-04-14T10:16:10Z</time>
      </trkpt>
      <trkpt lat="44.44334" lon="1.32916">
        <ele>304</ele>
        <time>2019-04-14T10:16:11Z</time>
      </trkpt>
      <trkpt lat="44.44343" lon="1.32922">
        <ele>305</ele>
        <time>2019-04-14T10:16:14Z</time>
      </trkpt>
      <trkpt lat="44.44348" lon="1.32926">
        <ele>305</ele>
        <time>2019-04-14T10:16:16Z</time>
      </trkpt>
      <trkpt lat="44.44357" lon="1.32933">
        <ele>306</ele>
        <time>2019-04-14T10:16:19Z</time>
      </trkpt>
      <trkpt lat="44.44362" lon="1.3294">
        <ele>306</ele>
        <time>2019-04-14T10:16:21Z</time>
      </trkpt>
      <trkpt lat="44.44378" lon="1.32968">
        <ele>305</ele>
        <time>2019-04-14T10:16:26Z</time>
      </trkpt>
      <trkpt lat="44.44385" lon="1.32983">
        <ele>305</ele>
        <time>2019-04-14T10:16:28Z</time>
      </trkpt>
      <trkpt lat="44.44395" lon="1.33002">
        <ele>303</ele>
        <time>2019-04-14T10:16:31Z</time>
      </trkpt>
      <trkpt lat="44.4441" lon="1.33013">
        <ele>302</ele>
        <time>2019-04-14T10:16:34Z</time>
      </trkpt>
      <trkpt lat="44.44415" lon="1.33013">
        <ele>302</ele>
        <time>2019-04-14T10:16:35Z</time>
      </trkpt>
      <trkpt lat="44.44425" lon="1.33012">
        <ele>302</ele>
        <time>2019-04-14T10:16:37Z</time>
      </trkpt>
      <trkpt lat="44.44429" lon="1.33011">
        <ele>302</ele>
        <time>2019-04-14T10:16:38Z</time>
      </trkpt>
      <trkpt lat="44.44444" lon="1.33011">
        <ele>302</ele>
        <time>2019-04-14T10:16:42Z</time>
      </trkpt>
      <trkpt lat="44.4446" lon="1.3303">
        <ele>302</ele>
        <time>2019-04-14T10:16:46Z</time>
      </trkpt>
      <trkpt lat="44.44464" lon="1.33044">
        <ele>301</ele>
        <time>2019-04-14T10:16:48Z</time>
      </trkpt>
      <trkpt lat="44.44468" lon="1.33065">
        <ele>301</ele>
        <time>2019-04-14T10:16:51Z</time>
      </trkpt>
      <trkpt lat="44.44478" lon="1.33108">
        <ele>300</ele>
        <time>2019-04-14T10:16:57Z</time>
      </trkpt>
      <trkpt lat="44.44481" lon="1.33122">
        <ele>300</ele>
        <time>2019-04-14T10:16:59Z</time>
      </trkpt>
      <trkpt lat="44.44484" lon="1.33137">
        <ele>300</ele>
        <time>2019-04-14T10:17:01Z</time>
      </trkpt>
      <trkpt lat="44.44486" lon="1.33144">
        <ele>300</ele>
        <time>2019-04-14T10:17:02Z</time>
      </trkpt>
      <trkpt lat="44.44495" lon="1.33162">
        <ele>300</ele>
        <time>2019-04-14T10:17:05Z</time>
      </trkpt>
      <trkpt lat="44.44499" lon="1.33167">
        <ele>300</ele>
        <time>2019-04-14T10:17:06Z</time>
      </trkpt>
      <trkpt lat="44.4453" lon="1.33209">
        <ele>299</ele>
        <time>2019-04-14T10:17:14Z</time>
      </trkpt>
      <trkpt lat="44.44555" lon="1.33243">
        <ele>300</ele>
        <time>2019-04-14T10:17:21Z</time>
      </trkpt>
      <trkpt lat="44.4457" lon="1.33278">
        <ele>300</ele>
        <time>2019-04-14T10:17:27Z</time>
      </trkpt>
      <trkpt lat="44.4458" lon="1.33317">
        <ele>301</ele>
        <time>2019-04-14T10:17:34Z</time>
      </trkpt>
      <trkpt lat="44.44581" lon="1.33327">
        <ele>301</ele>
        <time>2019-04-14T10:17:36Z</time>
      </trkpt>
      <trkpt lat="44.4458" lon="1.33348">
        <ele>302</ele>
        <time>2019-04-14T10:17:40Z</time>
      </trkpt>
      <trkpt lat="44.44579" lon="1.33364">
        <ele>302</ele>
        <time>2019-04-14T10:17:43Z</time>
      </trkpt>
      <trkpt lat="44.44577" lon="1.33387">
        <ele>303</ele>
        <time>2019-04-14T10:17:47Z</time>
      </trkpt>
      <trkpt lat="44.44575" lon="1.33422">
        <ele>304</ele>
        <time>2019-04-14T10:17:53Z</time>
      </trkpt>
      <trkpt lat="44.44575" lon="1.33428">
        <ele>304</ele>
        <time>2019-04-14T10:17:54Z</time>
      </trkpt>
      <trkpt lat="44.44576" lon="1.3344">
        <ele>305</ele>
        <time>2019-04-14T10:17:56Z</time>
      </trkpt>
      <trkpt lat="44.44577" lon="1.33451">
        <ele>305</ele>
        <time>2019-04-14T10:17:58Z</time>
      </trkpt>
      <trkpt lat="44.44581" lon="1.33472">
        <ele>304</ele>
        <time>2019-04-14T10:18:02Z</time>
      </trkpt>
      <trkpt lat="44.44581" lon="1.33477">
        <ele>304</ele>
        <time>2019-04-14T10:18:03Z</time>
      </trkpt>
      <trkpt lat="44.44575" lon="1.33483">
        <ele>304</ele>
        <time>2019-04-14T10:18:05Z</time>
      </trkpt>
      <trkpt lat="44.4456" lon="1.33482">
        <ele>303</ele>
        <time>2019-04-14T10:18:08Z</time>
      </trkpt>
      <trkpt lat="44.4453" lon="1.33477">
        <ele>302</ele>
        <time>2019-04-14T10:18:13Z</time>
      </trkpt>
      <trkpt lat="44.44523" lon="1.33475">
        <ele>302</ele>
        <time>2019-04-14T10:18:14Z</time>
      </trkpt>
      <trkpt lat="44.44503" lon="1.33471">
        <ele>301</ele>
        <time>2019-04-14T10:18:17Z</time>
      </trkpt>
      <trkpt lat="44.44497" lon="1.3347">
        <ele>300</ele>
        <time>2019-04-14T10:18:18Z</time>
      </trkpt>
      <trkpt lat="44.4449" lon="1.33472">
        <ele>300</ele>
        <time>2019-04-14T10:18:19Z</time>
      </trkpt>
      <trkpt lat="44.44484" lon="1.33476">
        <ele>299</ele>
        <time>2019-04-14T10:18:20Z</time>
      </trkpt>
      <trkpt lat="44.44472" lon="1.33488">
        <ele>299</ele>
        <time>2019-04-14T10:18:22Z</time>
      </trkpt>
      <trkpt lat="44.44467" lon="1.33495">
        <ele>298</ele>
        <time>2019-04-14T10:18:23Z</time>
      </trkpt>
      <trkpt lat="44.44461" lon="1.33502">
        <ele>297</ele>
        <time>2019-04-14T10:18:24Z</time>
      </trkpt>
      <trkpt lat="44.44456" lon="1.33519">
        <ele>296</ele>
        <time>2019-04-14T10:18:26Z</time>
      </trkpt>
      <trkpt lat="44.44448" lon="1.33534">
        <ele>294</ele>
        <time>2019-04-14T10:18:29Z</time>
      </trkpt>
      <trkpt lat="44.4444" lon="1.33532">
        <ele>293</ele>
        <time>2019-04-14T10:18:31Z</time>
      </trkpt>
      <trkpt lat="44.44436" lon="1.3353">
        <ele>293</ele>
        <time>2019-04-14T10:18:32Z</time>
      </trkpt>
      <trkpt lat="44.44432" lon="1.33528">
        <ele>293</ele>
        <time>2019-04-14T10:18:33Z</time>
      </trkpt>
      <trkpt lat="44.44423" lon="1.33523">
        <ele>292</ele>
        <time>2019-04-14T10:18:35Z</time>
      </trkpt>
      <trkpt lat="44.44413" lon="1.33518">
        <ele>291</ele>
        <time>2019-04-14T10:18:37Z</time>
      </trkpt>
      <trkpt lat="44.44408" lon="1.33517">
        <ele>291</ele>
        <time>2019-04-14T10:18:38Z</time>
      </trkpt>
      <trkpt lat="44.44398" lon="1.33517">
        <ele>290</ele>
        <time>2019-04-14T10:18:40Z</time>
      </trkpt>
      <trkpt lat="44.44393" lon="1.33519">
        <ele>289</ele>
        <time>2019-04-14T10:18:41Z</time>
      </trkpt>
      <trkpt lat="44.44388" lon="1.3352">
        <ele>288</ele>
        <time>2019-04-14T10:18:42Z</time>
      </trkpt>
      <trkpt lat="44.44384" lon="1.33521">
        <ele>287</ele>
        <time>2019-04-14T10:18:43Z</time>
      </trkpt>
      <trkpt lat="44.4438" lon="1.33522">
        <ele>286</ele>
        <time>2019-04-14T10:18:44Z</time>
      </trkpt>
      <trkpt lat="44.44377" lon="1.33523">
        <ele>285</ele>
        <time>2019-04-14T10:18:45Z</time>
      </trkpt>
      <trkpt lat="44.44376" lon="1.33525">
        <ele>284</ele>
        <time>2019-04-14T10:18:46Z</time>
      </trkpt>
      <trkpt lat="44.44373" lon="1.3353">
        <ele>284</ele>
        <time>2019-04-14T10:18:48Z</time>
      </trkpt>
      <trkpt lat="44.44371" lon="1.33545">
        <ele>283</ele>
        <time>2019-04-14T10:18:51Z</time>
      </trkpt>
      <trkpt lat="44.44369" lon="1.33562">
        <ele>283</ele>
        <time>2019-04-14T10:18:54Z</time>
      </trkpt>
      <trkpt lat="44.44367" lon="1.33574">
        <ele>283</ele>
        <time>2019-04-14T10:18:56Z</time>
      </trkpt>
      <trkpt lat="44.44365" lon="1.33593">
        <ele>282</ele>
        <time>2019-04-14T10:18:59Z</time>
      </trkpt>
      <trkpt lat="44.44363" lon="1.33612">
        <ele>282</ele>
        <time>2019-04-14T10:19:02Z</time>
      </trkpt>
      <trkpt lat="44.44359" lon="1.33653">
        <ele>281</ele>
        <time>2019-04-14T10:19:08Z</time>
      </trkpt>
      <trkpt lat="44.44356" lon="1.33689">
        <ele>281</ele>
        <time>2019-04-14T10:19:13Z</time>
      </trkpt>
      <trkpt lat="44.44355" lon="1.33696">
        <ele>280</ele>
        <time>2019-04-14T10:19:14Z</time>
      </trkpt>
      <trkpt lat="44.44355" lon="1.33718">
        <ele>280</ele>
        <time>2019-04-14T10:19:17Z</time>
      </trkpt>
      <trkpt lat="44.44356" lon="1.33725">
        <ele>279</ele>
        <time>2019-04-14T10:19:18Z</time>
      </trkpt>
      <trkpt lat="44.44357" lon="1.33732">
        <ele>279</ele>
        <time>2019-04-14T10:19:19Z</time>
      </trkpt>
      <trkpt lat="44.44357" lon="1.33748">
        <ele>279</ele>
        <time>2019-04-14T10:19:21Z</time>
      </trkpt>
      <trkpt lat="44.44358" lon="1.33756">
        <ele>278</ele>
        <time>2019-04-14T10:19:22Z</time>
      </trkpt>
      <trkpt lat="44.44362" lon="1.33773">
        <ele>277</ele>
        <time>2019-04-14T10:19:24Z</time>
      </trkpt>
      <trkpt lat="44.44364" lon="1.33786">
        <ele>276</ele>
        <time>2019-04-14T10:19:26Z</time>
      </trkpt>
      <trkpt lat="44.44366" lon="1.33792">
        <ele>275</ele>
        <time>2019-04-14T10:19:27Z</time>
      </trkpt>
      <trkpt lat="44.4437" lon="1.33804">
        <ele>273</ele>
        <time>2019-04-14T10:19:29Z</time>
      </trkpt>
      <trkpt lat="44.44373" lon="1.33809">
        <ele>272</ele>
        <time>2019-04-14T10:19:30Z</time>
      </trkpt>
      <trkpt lat="44.44374" lon="1.33814">
        <ele>272</ele>
        <time>2019-04-14T10:19:31Z</time>
      </trkpt>
      <trkpt lat="44.44375" lon="1.33826">
        <ele>271</ele>
        <time>2019-04-14T10:19:33Z</time>
      </trkpt>
      <trkpt lat="44.44378" lon="1.33835">
        <ele>269</ele>
        <time>2019-04-14T10:19:35Z</time>
      </trkpt>
      <trkpt lat="44.44382" lon="1.33845">
        <ele>268</ele>
        <time>2019-04-14T10:19:38Z</time>
      </trkpt>
      <trkpt lat="44.44382" lon="1.33849">
        <ele>268</ele>
        <time>2019-04-14T10:19:39Z</time>
      </trkpt>
      <trkpt lat="44.44389" lon="1.33866">
        <ele>267</ele>
        <time>2019-04-14T10:19:43Z</time>
      </trkpt>
      <trkpt lat="44.44391" lon="1.33876">
        <ele>266</ele>
        <time>2019-04-14T10:19:45Z</time>
      </trkpt>
      <trkpt lat="44.44391" lon="1.33882">
        <ele>266</ele>
        <time>2019-04-14T10:19:46Z</time>
      </trkpt>
      <trkpt lat="44.44391" lon="1.33889">
        <ele>265</ele>
        <time>2019-04-14T10:19:47Z</time>
      </trkpt>
      <trkpt lat="44.44392" lon="1.33895">
        <ele>265</ele>
        <time>2019-04-14T10:19:48Z</time>
      </trkpt>
      <trkpt lat="44.44397" lon="1.33907">
        <ele>264</ele>
        <time>2019-04-14T10:19:51Z</time>
      </trkpt>
      <trkpt lat="44.44399" lon="1.33925">
        <ele>263</ele>
        <time>2019-04-14T10:19:55Z</time>
      </trkpt>
      <trkpt lat="44.44401" lon="1.33929">
        <ele>263</ele>
        <time>2019-04-14T10:19:56Z</time>
      </trkpt>
      <trkpt lat="44.44405" lon="1.33945">
        <ele>263</ele>
        <time>2019-04-14T10:20:00Z</time>
      </trkpt>
      <trkpt lat="44.4441" lon="1.33957">
        <ele>263</ele>
        <time>2019-04-14T10:20:03Z</time>
      </trkpt>
      <trkpt lat="44.44412" lon="1.33961">
        <ele>263</ele>
        <time>2019-04-14T10:20:04Z</time>
      </trkpt>
      <trkpt lat="44.44419" lon="1.33988">
        <ele>263</ele>
        <time>2019-04-14T10:20:09Z</time>
      </trkpt>
      <trkpt lat="44.44421" lon="1.33992">
        <ele>263</ele>
        <time>2019-04-14T10:20:10Z</time>
      </trkpt>
      <trkpt lat="44.44426" lon="1.33995">
        <ele>262</ele>
        <time>2019-04-14T10:20:12Z</time>
      </trkpt>
      <trkpt lat="44.44431" lon="1.33994">
        <ele>262</ele>
        <time>2019-04-14T10:20:15Z</time>
      </trkpt>
      <trkpt lat="44.44436" lon="1.33993">
        <ele>263</ele>
        <time>2019-04-14T10:20:17Z</time>
      </trkpt>
      <trkpt lat="44.44446" lon="1.33986">
        <ele>264</ele>
        <time>2019-04-14T10:20:21Z</time>
      </trkpt>
      <trkpt lat="44.44449" lon="1.33982">
        <ele>264</ele>
        <time>2019-04-14T10:20:23Z</time>
      </trkpt>
      <trkpt lat="44.44451" lon="1.33981">
        <ele>264</ele>
        <time>2019-04-14T10:20:24Z</time>
      </trkpt>
      <trkpt lat="44.44462" lon="1.33977">
        <ele>264</ele>
        <time>2019-04-14T10:20:28Z</time>
      </trkpt>
      <trkpt lat="44.44466" lon="1.33975">
        <ele>264</ele>
        <time>2019-04-14T10:20:29Z</time>
      </trkpt>
      <trkpt lat="44.44477" lon="1.33964">
        <ele>264</ele>
        <time>2019-04-14T10:20:32Z</time>
      </trkpt>
      <trkpt lat="44.44482" lon="1.33939">
        <ele>264</ele>
        <time>2019-04-14T10:20:36Z</time>
      </trkpt>
      <trkpt lat="44.44487" lon="1.33914">
        <ele>263</ele>
        <time>2019-04-14T10:20:41Z</time>
      </trkpt>
      <trkpt lat="44.4449" lon="1.33896">
        <ele>263</ele>
        <time>2019-04-14T10:20:45Z</time>
      </trkpt>
      <trkpt lat="44.4449" lon="1.33891">
        <ele>263</ele>
        <time>2019-04-14T10:20:46Z</time>
      </trkpt>
      <trkpt lat="44.44488" lon="1.33871">
        <ele>263</ele>
        <time>2019-04-14T10:20:51Z</time>
      </trkpt>
      <trkpt lat="44.44487" lon="1.33863">
        <ele>264</ele>
        <time>2019-04-14T10:20:53Z</time>
      </trkpt>
      <trkpt lat="44.44486" lon="1.33855">
        <ele>265</ele>
        <time>2019-04-14T10:20:56Z</time>
      </trkpt>
      <trkpt lat="44.44485" lon="1.33852">
        <ele>265</ele>
        <time>2019-04-14T10:20:57Z</time>
      </trkpt>
      <trkpt lat="44.44485" lon="1.33849">
        <ele>265</ele>
        <time>2019-04-14T10:20:58Z</time>
      </trkpt>
      <trkpt lat="44.44488" lon="1.33843">
        <ele>265</ele>
        <time>2019-04-14T10:21:00Z</time>
      </trkpt>
      <trkpt lat="44.44502" lon="1.33836">
        <ele>265</ele>
        <time>2019-04-14T10:21:03Z</time>
      </trkpt>
      <trkpt lat="44.44507" lon="1.33833">
        <ele>264</ele>
        <time>2019-04-14T10:21:04Z</time>
      </trkpt>
      <trkpt lat="44.44514" lon="1.3383">
        <ele>264</ele>
        <time>2019-04-14T10:21:05Z</time>
      </trkpt>
      <trkpt lat="44.4452" lon="1.33828">
        <ele>263</ele>
        <time>2019-04-14T10:21:06Z</time>
      </trkpt>
      <trkpt lat="44.4453" lon="1.33829">
        <ele>263</ele>
        <time>2019-04-14T10:21:08Z</time>
      </trkpt>
      <trkpt lat="44.44534" lon="1.33832">
        <ele>263</ele>
        <time>2019-04-14T10:21:09Z</time>
      </trkpt>
      <trkpt lat="44.4454" lon="1.3384">
        <ele>262</ele>
        <time>2019-04-14T10:21:11Z</time>
      </trkpt>
      <trkpt lat="44.44544" lon="1.33842">
        <ele>263</ele>
        <time>2019-04-14T10:21:14Z</time>
      </trkpt>
      <trkpt lat="44.44544" lon="1.33842">
        <ele>263</ele>
        <time>2019-04-14T10:21:15Z</time>
      </trkpt>
      <trkpt lat="44.44544" lon="1.33841">
        <ele>263</ele>
        <time>2019-04-14T10:21:19Z</time>
      </trkpt>
      <trkpt lat="44.44544" lon="1.3384">
        <ele>263</ele>
        <time>2019-04-14T10:21:22Z</time>
      </trkpt>
      <trkpt lat="44.44544" lon="1.33837">
        <ele>264</ele>
        <time>2019-04-14T10:21:38Z</time>
      </trkpt>
      <trkpt lat="44.44547" lon="1.33827">
        <ele>264</ele>
        <time>2019-04-14T10:21:45Z</time>
      </trkpt>
      <trkpt lat="44.44547" lon="1.33826">
        <ele>265</ele>
        <time>2019-04-14T10:21:46Z</time>
      </trkpt>
      <trkpt lat="44.44548" lon="1.33825">
        <ele>265</ele>
        <time>2019-04-14T10:21:47Z</time>
      </trkpt>
      <trkpt lat="44.44551" lon="1.3382">
        <ele>266</ele>
        <time>2019-04-14T10:21:53Z</time>
      </trkpt>
      <trkpt lat="44.44552" lon="1.3382">
        <ele>266</ele>
        <time>2019-04-14T10:21:54Z</time>
      </trkpt>
      <trkpt lat="44.44553" lon="1.3382">
        <ele>267</ele>
        <time>2019-04-14T10:21:57Z</time>
      </trkpt>
      <trkpt lat="44.44554" lon="1.3382">
        <ele>267</ele>
        <time>2019-04-14T10:21:59Z</time>
      </trkpt>
      <trkpt lat="44.44555" lon="1.3382">
        <ele>268</ele>
        <time>2019-04-14T10:22:01Z</time>
      </trkpt>
      <trkpt lat="44.44558" lon="1.3382">
        <ele>269</ele>
        <time>2019-04-14T10:22:05Z</time>
      </trkpt>
      <trkpt lat="44.44561" lon="1.33819">
        <ele>269</ele>
        <time>2019-04-14T10:22:09Z</time>
      </trkpt>
      <trkpt lat="44.44562" lon="1.33819">
        <ele>270</ele>
        <time>2019-04-14T10:22:10Z</time>
      </trkpt>
      <trkpt lat="44.44565" lon="1.33818">
        <ele>271</ele>
        <time>2019-04-14T10:22:14Z</time>
      </trkpt>
      <trkpt lat="44.44567" lon="1.33816">
        <ele>272</ele>
        <time>2019-04-14T10:22:18Z</time>
      </trkpt>
      <trkpt lat="44.44568" lon="1.33816">
        <ele>272</ele>
        <time>2019-04-14T10:22:20Z</time>
      </trkpt>
      <trkpt lat="44.44572" lon="1.33814">
        <ele>272</ele>
        <time>2019-04-14T10:22:25Z</time>
      </trkpt>
      <trkpt lat="44.44574" lon="1.33813">
        <ele>273</ele>
        <time>2019-04-14T10:22:28Z</time>
      </trkpt>
      <trkpt lat="44.44576" lon="1.33812">
        <ele>274</ele>
        <time>2019-04-14T10:22:31Z</time>
      </trkpt>
      <trkpt lat="44.44577" lon="1.33812">
        <ele>274</ele>
        <time>2019-04-14T10:22:32Z</time>
      </trkpt>
      <trkpt lat="44.44578" lon="1.33811">
        <ele>275</ele>
        <time>2019-04-14T10:22:35Z</time>
      </trkpt>
      <trkpt lat="44.44579" lon="1.33811">
        <ele>275</ele>
        <time>2019-04-14T10:22:38Z</time>
      </trkpt>
      <trkpt lat="44.4458" lon="1.33811">
        <ele>275</ele>
        <time>2019-04-14T10:22:39Z</time>
      </trkpt>
      <trkpt lat="44.44581" lon="1.3381">
        <ele>275</ele>
        <time>2019-04-14T10:22:41Z</time>
      </trkpt>
      <trkpt lat="44.44583" lon="1.33809">
        <ele>275</ele>
        <time>2019-04-14T10:22:43Z</time>
      </trkpt>
      <trkpt lat="44.44585" lon="1.33808">
        <ele>275</ele>
        <time>2019-04-14T10:22:45Z</time>
      </trkpt>
      <trkpt lat="44.4459" lon="1.33806">
        <ele>276</ele>
        <time>2019-04-14T10:22:49Z</time>
      </trkpt>
      <trkpt lat="44.44592" lon="1.33806">
        <ele>277</ele>
        <time>2019-04-14T10:22:50Z</time>
      </trkpt>
      <trkpt lat="44.44595" lon="1.33805">
        <ele>277</ele>
        <time>2019-04-14T10:22:52Z</time>
      </trkpt>
      <trkpt lat="44.44596" lon="1.33804">
        <ele>277</ele>
        <time>2019-04-14T10:22:53Z</time>
      </trkpt>
      <trkpt lat="44.446" lon="1.33804">
        <ele>278</ele>
        <time>2019-04-14T10:22:56Z</time>
      </trkpt>
      <trkpt lat="44.44601" lon="1.33805">
        <ele>278</ele>
        <time>2019-04-14T10:22:57Z</time>
      </trkpt>
      <trkpt lat="44.44601" lon="1.33806">
        <ele>279</ele>
        <time>2019-04-14T10:22:58Z</time>
      </trkpt>
      <trkpt lat="44.44601" lon="1.3381">
        <ele>279</ele>
        <time>2019-04-14T10:23:00Z</time>
      </trkpt>
      <trkpt lat="44.44601" lon="1.33813">
        <ele>279</ele>
        <time>2019-04-14T10:23:01Z</time>
      </trkpt>
      <trkpt lat="44.44599" lon="1.3383">
        <ele>279</ele>
        <time>2019-04-14T10:23:05Z</time>
      </trkpt>
      <trkpt lat="44.44604" lon="1.33847">
        <ele>278</ele>
        <time>2019-04-14T10:23:09Z</time>
      </trkpt>
      <trkpt lat="44.44606" lon="1.33851">
        <ele>277</ele>
        <time>2019-04-14T10:23:10Z</time>
      </trkpt>
      <trkpt lat="44.44613" lon="1.33865">
        <ele>277</ele>
        <time>2019-04-14T10:23:15Z</time>
      </trkpt>
      <trkpt lat="44.44614" lon="1.3387">
        <ele>277</ele>
        <time>2019-04-14T10:23:16Z</time>
      </trkpt>
      <trkpt lat="44.44616" lon="1.33887">
        <ele>276</ele>
        <time>2019-04-14T10:23:19Z</time>
      </trkpt>
      <trkpt lat="44.44618" lon="1.33893">
        <ele>275</ele>
        <time>2019-04-14T10:23:20Z</time>
      </trkpt>
      <trkpt lat="44.44621" lon="1.33912">
        <ele>274</ele>
        <time>2019-04-14T10:23:23Z</time>
      </trkpt>
      <trkpt lat="44.44621" lon="1.3392">
        <ele>274</ele>
        <time>2019-04-14T10:23:24Z</time>
      </trkpt>
      <trkpt lat="44.44622" lon="1.33927">
        <ele>273</ele>
        <time>2019-04-14T10:23:25Z</time>
      </trkpt>
      <trkpt lat="44.44623" lon="1.33933">
        <ele>273</ele>
        <time>2019-04-14T10:23:26Z</time>
      </trkpt>
      <trkpt lat="44.44625" lon="1.33938">
        <ele>273</ele>
        <time>2019-04-14T10:23:27Z</time>
      </trkpt>
      <trkpt lat="44.44629" lon="1.33946">
        <ele>272</ele>
        <time>2019-04-14T10:23:29Z</time>
      </trkpt>
      <trkpt lat="44.44634" lon="1.3396">
        <ele>271</ele>
        <time>2019-04-14T10:23:33Z</time>
      </trkpt>
      <trkpt lat="44.44637" lon="1.33988">
        <ele>271</ele>
        <time>2019-04-14T10:23:39Z</time>
      </trkpt>
      <trkpt lat="44.44636" lon="1.33999">
        <ele>270</ele>
        <time>2019-04-14T10:23:41Z</time>
      </trkpt>
      <trkpt lat="44.44637" lon="1.34009">
        <ele>270</ele>
        <time>2019-04-14T10:23:43Z</time>
      </trkpt>
      <trkpt lat="44.44639" lon="1.34013">
        <ele>270</ele>
        <time>2019-04-14T10:23:44Z</time>
      </trkpt>
      <trkpt lat="44.44645" lon="1.34022">
        <ele>269</ele>
        <time>2019-04-14T10:23:47Z</time>
      </trkpt>
      <trkpt lat="44.44646" lon="1.34024">
        <ele>269</ele>
        <time>2019-04-14T10:23:48Z</time>
      </trkpt>
      <trkpt lat="44.44648" lon="1.34037">
        <ele>269</ele>
        <time>2019-04-14T10:23:52Z</time>
      </trkpt>
      <trkpt lat="44.44647" lon="1.34042">
        <ele>269</ele>
        <time>2019-04-14T10:23:53Z</time>
      </trkpt>
      <trkpt lat="44.44646" lon="1.34056">
        <ele>269</ele>
        <time>2019-04-14T10:23:56Z</time>
      </trkpt>
      <trkpt lat="44.44647" lon="1.34062">
        <ele>269</ele>
        <time>2019-04-14T10:23:57Z</time>
      </trkpt>
      <trkpt lat="44.44649" lon="1.34074">
        <ele>269</ele>
        <time>2019-04-14T10:23:59Z</time>
      </trkpt>
      <trkpt lat="44.44649" lon="1.3408">
        <ele>268</ele>
        <time>2019-04-14T10:24:00Z</time>
      </trkpt>
      <trkpt lat="44.4465" lon="1.34094">
        <ele>267</ele>
        <time>2019-04-14T10:24:02Z</time>
      </trkpt>
      <trkpt lat="44.44651" lon="1.34102">
        <ele>267</ele>
        <time>2019-04-14T10:24:03Z</time>
      </trkpt>
      <trkpt lat="44.44653" lon="1.34124">
        <ele>266</ele>
        <time>2019-04-14T10:24:06Z</time>
      </trkpt>
      <trkpt lat="44.44654" lon="1.34131">
        <ele>266</ele>
        <time>2019-04-14T10:24:07Z</time>
      </trkpt>
      <trkpt lat="44.44654" lon="1.34138">
        <ele>265</ele>
        <time>2019-04-14T10:24:08Z</time>
      </trkpt>
      <trkpt lat="44.44656" lon="1.34155">
        <ele>264</ele>
        <time>2019-04-14T10:24:11Z</time>
      </trkpt>
      <trkpt lat="44.44657" lon="1.34165">
        <ele>264</ele>
        <time>2019-04-14T10:24:13Z</time>
      </trkpt>
      <trkpt lat="44.44657" lon="1.34168">
        <ele>263</ele>
        <time>2019-04-14T10:24:14Z</time>
      </trkpt>
      <trkpt lat="44.44657" lon="1.34171">
        <ele>262</ele>
        <time>2019-04-14T10:24:16Z</time>
      </trkpt>
      <trkpt lat="44.44657" lon="1.34171">
        <ele>262</ele>
        <time>2019-04-14T10:24:17Z</time>
      </trkpt>
      <trkpt lat="44.44657" lon="1.34172">
        <ele>261</ele>
        <time>2019-04-14T10:26:33Z</time>
      </trkpt>
      <trkpt lat="44.44657" lon="1.34175">
        <ele>261</ele>
        <time>2019-04-14T10:26:34Z</time>
      </trkpt>
      <trkpt lat="44.44657" lon="1.34178">
        <ele>261</ele>
        <time>2019-04-14T10:26:35Z</time>
      </trkpt>
      <trkpt lat="44.44658" lon="1.34187">
        <ele>261</ele>
        <time>2019-04-14T10:26:38Z</time>
      </trkpt>
      <trkpt lat="44.44659" lon="1.34192">
        <ele>261</ele>
        <time>2019-04-14T10:26:40Z</time>
      </trkpt>
      <trkpt lat="44.44659" lon="1.34198">
        <ele>260</ele>
        <time>2019-04-14T10:26:42Z</time>
      </trkpt>
      <trkpt lat="44.44659" lon="1.34207">
        <ele>260</ele>
        <time>2019-04-14T10:26:44Z</time>
      </trkpt>
      <trkpt lat="44.44668" lon="1.34239">
        <ele>259</ele>
        <time>2019-04-14T10:26:50Z</time>
      </trkpt>
      <trkpt lat="44.44672" lon="1.34253">
        <ele>259</ele>
        <time>2019-04-14T10:26:53Z</time>
      </trkpt>
      <trkpt lat="44.44671" lon="1.34258">
        <ele>258</ele>
        <time>2019-04-14T10:26:54Z</time>
      </trkpt>
      <trkpt lat="44.44668" lon="1.34268">
        <ele>258</ele>
        <time>2019-04-14T10:26:56Z</time>
      </trkpt>
      <trkpt lat="44.44668" lon="1.34272">
        <ele>258</ele>
        <time>2019-04-14T10:26:57Z</time>
      </trkpt>
      <trkpt lat="44.44669" lon="1.34275">
        <ele>257</ele>
        <time>2019-04-14T10:26:58Z</time>
      </trkpt>
      <trkpt lat="44.44671" lon="1.34281">
        <ele>257</ele>
        <time>2019-04-14T10:27:00Z</time>
      </trkpt>
      <trkpt lat="44.44673" lon="1.3429">
        <ele>256</ele>
        <time>2019-04-14T10:27:02Z</time>
      </trkpt>
      <trkpt lat="44.44675" lon="1.34301">
        <ele>256</ele>
        <time>2019-04-14T10:27:04Z</time>
      </trkpt>
      <trkpt lat="44.44675" lon="1.34307">
        <ele>256</ele>
        <time>2019-04-14T10:27:05Z</time>
      </trkpt>
      <trkpt lat="44.44675" lon="1.34314">
        <ele>256</ele>
        <time>2019-04-14T10:27:06Z</time>
      </trkpt>
      <trkpt lat="44.44677" lon="1.34326">
        <ele>255</ele>
        <time>2019-04-14T10:27:08Z</time>
      </trkpt>
      <trkpt lat="44.44681" lon="1.34337">
        <ele>255</ele>
        <time>2019-04-14T10:27:10Z</time>
      </trkpt>
      <trkpt lat="44.44693" lon="1.34355">
        <ele>254</ele>
        <time>2019-04-14T10:27:14Z</time>
      </trkpt>
      <trkpt lat="44.44697" lon="1.3436">
        <ele>253</ele>
        <time>2019-04-14T10:27:15Z</time>
      </trkpt>
      <trkpt lat="44.447" lon="1.34366">
        <ele>253</ele>
        <time>2019-04-14T10:27:16Z</time>
      </trkpt>
      <trkpt lat="44.44712" lon="1.34387">
        <ele>251</ele>
        <time>2019-04-14T10:27:20Z</time>
      </trkpt>
      <trkpt lat="44.44715" lon="1.34392">
        <ele>250</ele>
        <time>2019-04-14T10:27:21Z</time>
      </trkpt>
      <trkpt lat="44.44718" lon="1.34396">
        <ele>250</ele>
        <time>2019-04-14T10:27:22Z</time>
      </trkpt>
      <trkpt lat="44.44725" lon="1.34407">
        <ele>249</ele>
        <time>2019-04-14T10:27:24Z</time>
      </trkpt>
      <trkpt lat="44.44726" lon="1.34414">
        <ele>248</ele>
        <time>2019-04-14T10:27:25Z</time>
      </trkpt>
      <trkpt lat="44.44726" lon="1.34426">
        <ele>247</ele>
        <time>2019-04-14T10:27:27Z</time>
      </trkpt>
      <trkpt lat="44.44724" lon="1.34433">
        <ele>246</ele>
        <time>2019-04-14T10:27:29Z</time>
      </trkpt>
      <trkpt lat="44.44723" lon="1.34442">
        <ele>245</ele>
        <time>2019-04-14T10:27:33Z</time>
      </trkpt>
      <trkpt lat="44.4472" lon="1.34446">
        <ele>246</ele>
        <time>2019-04-14T10:27:36Z</time>
      </trkpt>
      <trkpt lat="44.44719" lon="1.34451">
        <ele>245</ele>
        <time>2019-04-14T10:27:38Z</time>
      </trkpt>
      <trkpt lat="44.4472" lon="1.34462">
        <ele>245</ele>
        <time>2019-04-14T10:27:42Z</time>
      </trkpt>
      <trkpt lat="44.44719" lon="1.34468">
        <ele>245</ele>
        <time>2019-04-14T10:27:44Z</time>
      </trkpt>
      <trkpt lat="44.44714" lon="1.34482">
        <ele>245</ele>
        <time>2019-04-14T10:27:47Z</time>
      </trkpt>
      <trkpt lat="44.4471" lon="1.3449">
        <ele>244</ele>
        <time>2019-04-14T10:27:49Z</time>
      </trkpt>
      <trkpt lat="44.44707" lon="1.34498">
        <ele>243</ele>
        <time>2019-04-14T10:27:51Z</time>
      </trkpt>
      <trkpt lat="44.44706" lon="1.34501">
        <ele>243</ele>
        <time>2019-04-14T10:27:52Z</time>
      </trkpt>
      <trkpt lat="44.44703" lon="1.34508">
        <ele>242</ele>
        <time>2019-04-14T10:27:54Z</time>
      </trkpt>
      <trkpt lat="44.447" lon="1.34519">
        <ele>241</ele>
        <time>2019-04-14T10:27:58Z</time>
      </trkpt>
      <trkpt lat="44.44699" lon="1.34521">
        <ele>241</ele>
        <time>2019-04-14T10:27:59Z</time>
      </trkpt>
      <trkpt lat="44.44698" lon="1.34526">
        <ele>240</ele>
        <time>2019-04-14T10:28:01Z</time>
      </trkpt>
      <trkpt lat="44.44697" lon="1.34528">
        <ele>240</ele>
        <time>2019-04-14T10:28:02Z</time>
      </trkpt>
      <trkpt lat="44.44697" lon="1.3453">
        <ele>239</ele>
        <time>2019-04-14T10:28:03Z</time>
      </trkpt>
      <trkpt lat="44.44697" lon="1.34536">
        <ele>240</ele>
        <time>2019-04-14T10:28:07Z</time>
      </trkpt>
      <trkpt lat="44.44698" lon="1.34554">
        <ele>240</ele>
        <time>2019-04-14T10:28:13Z</time>
      </trkpt>
      <trkpt lat="44.44697" lon="1.34568">
        <ele>240</ele>
        <time>2019-04-14T10:28:18Z</time>
      </trkpt>
      <trkpt lat="44.44695" lon="1.34582">
        <ele>240</ele>
        <time>2019-04-14T10:28:23Z</time>
      </trkpt>
      <trkpt lat="44.44695" lon="1.34591">
        <ele>238</ele>
        <time>2019-04-14T10:28:26Z</time>
      </trkpt>
      <trkpt lat="44.44695" lon="1.34593">
        <ele>238</ele>
        <time>2019-04-14T10:28:27Z</time>
      </trkpt>
      <trkpt lat="44.44696" lon="1.34594">
        <ele>238</ele>
        <time>2019-04-14T10:28:28Z</time>
      </trkpt>
      <trkpt lat="44.44696" lon="1.34594">
        <ele>238</ele>
        <time>2019-04-14T10:28:29Z</time>
      </trkpt>
      <trkpt lat="44.44696" lon="1.34596">
        <ele>238</ele>
        <time>2019-04-14T10:28:31Z</time>
      </trkpt>
      <trkpt lat="44.44696" lon="1.34597">
        <ele>237</ele>
        <time>2019-04-14T10:28:32Z</time>
      </trkpt>
      <trkpt lat="44.44696" lon="1.34599">
        <ele>237</ele>
        <time>2019-04-14T10:28:34Z</time>
      </trkpt>
      <trkpt lat="44.44695" lon="1.34618">
        <ele>237</ele>
        <time>2019-04-14T10:28:40Z</time>
      </trkpt>
      <trkpt lat="44.44695" lon="1.34622">
        <ele>236</ele>
        <time>2019-04-14T10:28:41Z</time>
      </trkpt>
      <trkpt lat="44.44696" lon="1.34639">
        <ele>235</ele>
        <time>2019-04-14T10:28:46Z</time>
      </trkpt>
      <trkpt lat="44.44701" lon="1.34655">
        <ele>236</ele>
        <time>2019-04-14T10:28:52Z</time>
      </trkpt>
      <trkpt lat="44.447" lon="1.34675">
        <ele>237</ele>
        <time>2019-04-14T10:28:57Z</time>
      </trkpt>
      <trkpt lat="44.44703" lon="1.34688">
        <ele>236</ele>
        <time>2019-04-14T10:29:01Z</time>
      </trkpt>
      <trkpt lat="44.44706" lon="1.34697">
        <ele>237</ele>
        <time>2019-04-14T10:29:05Z</time>
      </trkpt>
      <trkpt lat="44.44707" lon="1.34703">
        <ele>238</ele>
        <time>2019-04-14T10:29:07Z</time>
      </trkpt>
      <trkpt lat="44.44707" lon="1.34706">
        <ele>239</ele>
        <time>2019-04-14T10:29:08Z</time>
      </trkpt>
      <trkpt lat="44.44708" lon="1.3472">
        <ele>239</ele>
        <time>2019-04-14T10:29:13Z</time>
      </trkpt>
      <trkpt lat="44.44709" lon="1.3474">
        <ele>239</ele>
        <time>2019-04-14T10:29:20Z</time>
      </trkpt>
      <trkpt lat="44.44708" lon="1.34756">
        <ele>239</ele>
        <time>2019-04-14T10:29:26Z</time>
      </trkpt>
      <trkpt lat="44.44709" lon="1.34765">
        <ele>238</ele>
        <time>2019-04-14T10:29:29Z</time>
      </trkpt>
      <trkpt lat="44.44709" lon="1.34768">
        <ele>238</ele>
        <time>2019-04-14T10:29:30Z</time>
      </trkpt>
      <trkpt lat="44.4471" lon="1.34774">
        <ele>238</ele>
        <time>2019-04-14T10:29:32Z</time>
      </trkpt>
      <trkpt lat="44.4471" lon="1.34778">
        <ele>237</ele>
        <time>2019-04-14T10:29:34Z</time>
      </trkpt>
      <trkpt lat="44.44709" lon="1.34783">
        <ele>237</ele>
        <time>2019-04-14T10:29:36Z</time>
      </trkpt>
      <trkpt lat="44.44708" lon="1.34795">
        <ele>236</ele>
        <time>2019-04-14T10:29:40Z</time>
      </trkpt>
      <trkpt lat="44.44706" lon="1.34803">
        <ele>236</ele>
        <time>2019-04-14T10:29:42Z</time>
      </trkpt>
      <trkpt lat="44.44706" lon="1.34807">
        <ele>236</ele>
        <time>2019-04-14T10:29:43Z</time>
      </trkpt>
      <trkpt lat="44.44705" lon="1.34811">
        <ele>236</ele>
        <time>2019-04-14T10:29:44Z</time>
      </trkpt>
      <trkpt lat="44.44705" lon="1.34815">
        <ele>235</ele>
        <time>2019-04-14T10:29:45Z</time>
      </trkpt>
      <trkpt lat="44.44705" lon="1.34821">
        <ele>234</ele>
        <time>2019-04-14T10:29:47Z</time>
      </trkpt>
      <trkpt lat="44.44706" lon="1.34824">
        <ele>234</ele>
        <time>2019-04-14T10:29:48Z</time>
      </trkpt>
      <trkpt lat="44.44706" lon="1.3483">
        <ele>234</ele>
        <time>2019-04-14T10:29:50Z</time>
      </trkpt>
      <trkpt lat="44.44706" lon="1.34835">
        <ele>234</ele>
        <time>2019-04-14T10:29:51Z</time>
      </trkpt>
      <trkpt lat="44.44706" lon="1.34839">
        <ele>234</ele>
        <time>2019-04-14T10:29:52Z</time>
      </trkpt>
      <trkpt lat="44.44709" lon="1.34856">
        <ele>234</ele>
        <time>2019-04-14T10:29:57Z</time>
      </trkpt>
      <trkpt lat="44.44716" lon="1.34861">
        <ele>233</ele>
        <time>2019-04-14T10:30:01Z</time>
      </trkpt>
      <trkpt lat="44.44719" lon="1.34865">
        <ele>233</ele>
        <time>2019-04-14T10:30:03Z</time>
      </trkpt>
      <trkpt lat="44.44723" lon="1.34869">
        <ele>233</ele>
        <time>2019-04-14T10:30:05Z</time>
      </trkpt>
      <trkpt lat="44.44731" lon="1.34873">
        <ele>234</ele>
        <time>2019-04-14T10:30:09Z</time>
      </trkpt>
      <trkpt lat="44.44743" lon="1.34876">
        <ele>233</ele>
        <time>2019-04-14T10:30:13Z</time>
      </trkpt>
      <trkpt lat="44.44752" lon="1.34878">
        <ele>231</ele>
        <time>2019-04-14T10:30:16Z</time>
      </trkpt>
      <trkpt lat="44.44754" lon="1.34878">
        <ele>231</ele>
        <time>2019-04-14T10:30:17Z</time>
      </trkpt>
      <trkpt lat="44.44757" lon="1.34879">
        <ele>230</ele>
        <time>2019-04-14T10:30:18Z</time>
      </trkpt>
      <trkpt lat="44.44762" lon="1.34878">
        <ele>229</ele>
        <time>2019-04-14T10:30:20Z</time>
      </trkpt>
      <trkpt lat="44.44765" lon="1.34877">
        <ele>228</ele>
        <time>2019-04-14T10:30:21Z</time>
      </trkpt>
      <trkpt lat="44.44768" lon="1.34875">
        <ele>227</ele>
        <time>2019-04-14T10:30:22Z</time>
      </trkpt>
      <trkpt lat="44.44773" lon="1.34875">
        <ele>226</ele>
        <time>2019-04-14T10:30:24Z</time>
      </trkpt>
      <trkpt lat="44.44775" lon="1.34874">
        <ele>225</ele>
        <time>2019-04-14T10:30:25Z</time>
      </trkpt>
      <trkpt lat="44.44778" lon="1.34874">
        <ele>225</ele>
        <time>2019-04-14T10:30:26Z</time>
      </trkpt>
      <trkpt lat="44.44781" lon="1.34877">
        <ele>224</ele>
        <time>2019-04-14T10:30:27Z</time>
      </trkpt>
      <trkpt lat="44.44785" lon="1.34879">
        <ele>223</ele>
        <time>2019-04-14T10:30:28Z</time>
      </trkpt>
      <trkpt lat="44.44788" lon="1.34882">
        <ele>222</ele>
        <time>2019-04-14T10:30:29Z</time>
      </trkpt>
      <trkpt lat="44.44795" lon="1.34889">
        <ele>221</ele>
        <time>2019-04-14T10:30:31Z</time>
      </trkpt>
      <trkpt lat="44.44799" lon="1.34892">
        <ele>221</ele>
        <time>2019-04-14T10:30:32Z</time>
      </trkpt>
      <trkpt lat="44.44807" lon="1.34899">
        <ele>221</ele>
        <time>2019-04-14T10:30:36Z</time>
      </trkpt>
      <trkpt lat="44.44813" lon="1.34907">
        <ele>222</ele>
        <time>2019-04-14T10:30:39Z</time>
      </trkpt>
      <trkpt lat="44.44816" lon="1.34908">
        <ele>222</ele>
        <time>2019-04-14T10:30:40Z</time>
      </trkpt>
      <trkpt lat="44.4482" lon="1.34911">
        <ele>223</ele>
        <time>2019-04-14T10:30:42Z</time>
      </trkpt>
      <trkpt lat="44.44821" lon="1.34912">
        <ele>223</ele>
        <time>2019-04-14T10:30:43Z</time>
      </trkpt>
      <trkpt lat="44.44826" lon="1.34915">
        <ele>224</ele>
        <time>2019-04-14T10:30:46Z</time>
      </trkpt>
      <trkpt lat="44.44829" lon="1.34916">
        <ele>225</ele>
        <time>2019-04-14T10:30:48Z</time>
      </trkpt>
      <trkpt lat="44.4483" lon="1.34917">
        <ele>226</ele>
        <time>2019-04-14T10:30:50Z</time>
      </trkpt>
      <trkpt lat="44.44832" lon="1.3492">
        <ele>226</ele>
        <time>2019-04-14T10:30:53Z</time>
      </trkpt>
      <trkpt lat="44.44834" lon="1.34921">
        <ele>226</ele>
        <time>2019-04-14T10:30:55Z</time>
      </trkpt>
      <trkpt lat="44.44837" lon="1.34924">
        <ele>226</ele>
        <time>2019-04-14T10:31:01Z</time>
      </trkpt>
      <trkpt lat="44.44837" lon="1.34925">
        <ele>225</ele>
        <time>2019-04-14T10:31:03Z</time>
      </trkpt>
      <trkpt lat="44.44839" lon="1.34926">
        <ele>225</ele>
        <time>2019-04-14T10:31:06Z</time>
      </trkpt>
      <trkpt lat="44.44842" lon="1.34929">
        <ele>225</ele>
        <time>2019-04-14T10:31:08Z</time>
      </trkpt>
      <trkpt lat="44.44849" lon="1.34936">
        <ele>226</ele>
        <time>2019-04-14T10:31:13Z</time>
      </trkpt>
      <trkpt lat="44.44854" lon="1.34939">
        <ele>227</ele>
        <time>2019-04-14T10:31:16Z</time>
      </trkpt>
      <trkpt lat="44.44858" lon="1.34942">
        <ele>227</ele>
        <time>2019-04-14T10:31:19Z</time>
      </trkpt>
      <trkpt lat="44.4486" lon="1.34943">
        <ele>228</ele>
        <time>2019-04-14T10:31:20Z</time>
      </trkpt>
      <trkpt lat="44.44871" lon="1.34951">
        <ele>229</ele>
        <time>2019-04-14T10:31:27Z</time>
      </trkpt>
      <trkpt lat="44.44878" lon="1.34959">
        <ele>230</ele>
        <time>2019-04-14T10:31:33Z</time>
      </trkpt>
      <trkpt lat="44.44889" lon="1.34971">
        <ele>230</ele>
        <time>2019-04-14T10:31:38Z</time>
      </trkpt>
      <trkpt lat="44.44897" lon="1.34973">
        <ele>229</ele>
        <time>2019-04-14T10:31:42Z</time>
      </trkpt>
      <trkpt lat="44.44908" lon="1.34975">
        <ele>230</ele>
        <time>2019-04-14T10:31:48Z</time>
      </trkpt>
      <trkpt lat="44.44915" lon="1.34978">
        <ele>230</ele>
        <time>2019-04-14T10:31:52Z</time>
      </trkpt>
      <trkpt lat="44.44917" lon="1.34977">
        <ele>230</ele>
        <time>2019-04-14T10:31:53Z</time>
      </trkpt>
      <trkpt lat="44.44927" lon="1.3497">
        <ele>231</ele>
        <time>2019-04-14T10:31:59Z</time>
      </trkpt>
      <trkpt lat="44.44929" lon="1.3497">
        <ele>231</ele>
        <time>2019-04-14T10:32:00Z</time>
      </trkpt>
      <trkpt lat="44.44938" lon="1.34971">
        <ele>231</ele>
        <time>2019-04-14T10:32:04Z</time>
      </trkpt>
      <trkpt lat="44.44943" lon="1.34969">
        <ele>231</ele>
        <time>2019-04-14T10:32:06Z</time>
      </trkpt>
      <trkpt lat="44.44953" lon="1.34962">
        <ele>231</ele>
        <time>2019-04-14T10:32:11Z</time>
      </trkpt>
      <trkpt lat="44.44964" lon="1.34961">
        <ele>231</ele>
        <time>2019-04-14T10:32:15Z</time>
      </trkpt>
      <trkpt lat="44.44969" lon="1.34968">
        <ele>230</ele>
        <time>2019-04-14T10:32:18Z</time>
      </trkpt>
      <trkpt lat="44.44973" lon="1.3497">
        <ele>230</ele>
        <time>2019-04-14T10:32:20Z</time>
      </trkpt>
      <trkpt lat="44.44975" lon="1.34969">
        <ele>229</ele>
        <time>2019-04-14T10:32:22Z</time>
      </trkpt>
      <trkpt lat="44.44975" lon="1.34969">
        <ele>228</ele>
        <time>2019-04-14T10:32:23Z</time>
      </trkpt>
      <trkpt lat="44.44976" lon="1.34968">
        <ele>228</ele>
        <time>2019-04-14T10:32:25Z</time>
      </trkpt>
      <trkpt lat="44.4498" lon="1.34964">
        <ele>228</ele>
        <time>2019-04-14T10:32:29Z</time>
      </trkpt>
      <trkpt lat="44.44993" lon="1.34961">
        <ele>228</ele>
        <time>2019-04-14T10:32:34Z</time>
      </trkpt>
      <trkpt lat="44.45002" lon="1.34953">
        <ele>227</ele>
        <time>2019-04-14T10:32:37Z</time>
      </trkpt>
      <trkpt lat="44.45004" lon="1.3495">
        <ele>227</ele>
        <time>2019-04-14T10:32:38Z</time>
      </trkpt>
      <trkpt lat="44.45009" lon="1.34934">
        <ele>227</ele>
        <time>2019-04-14T10:32:43Z</time>
      </trkpt>
      <trkpt lat="44.45007" lon="1.34915">
        <ele>229</ele>
        <time>2019-04-14T10:32:50Z</time>
      </trkpt>
      <trkpt lat="44.45005" lon="1.34908">
        <ele>230</ele>
        <time>2019-04-14T10:32:53Z</time>
      </trkpt>
      <trkpt lat="44.45005" lon="1.34901">
        <ele>231</ele>
        <time>2019-04-14T10:32:56Z</time>
      </trkpt>
      <trkpt lat="44.45005" lon="1.34899">
        <ele>231</ele>
        <time>2019-04-14T10:32:57Z</time>
      </trkpt>
      <trkpt lat="44.45004" lon="1.34892">
        <ele>232</ele>
        <time>2019-04-14T10:33:00Z</time>
      </trkpt>
      <trkpt lat="44.45003" lon="1.34887">
        <ele>233</ele>
        <time>2019-04-14T10:33:02Z</time>
      </trkpt>
      <trkpt lat="44.45002" lon="1.34883">
        <ele>233</ele>
        <time>2019-04-14T10:33:04Z</time>
      </trkpt>
      <trkpt lat="44.45001" lon="1.34874">
        <ele>234</ele>
        <time>2019-04-14T10:33:08Z</time>
      </trkpt>
      <trkpt lat="44.45" lon="1.34866">
        <ele>235</ele>
        <time>2019-04-14T10:33:12Z</time>
      </trkpt>
      <trkpt lat="44.45" lon="1.34862">
        <ele>235</ele>
        <time>2019-04-14T10:33:14Z</time>
      </trkpt>
      <trkpt lat="44.45005" lon="1.34858">
        <ele>236</ele>
        <time>2019-04-14T10:33:17Z</time>
      </trkpt>
      <trkpt lat="44.45015" lon="1.34858">
        <ele>236</ele>
        <time>2019-04-14T10:33:20Z</time>
      </trkpt>
      <trkpt lat="44.4502" lon="1.3486">
        <ele>236</ele>
        <time>2019-04-14T10:33:21Z</time>
      </trkpt>
      <trkpt lat="44.45032" lon="1.34866">
        <ele>234</ele>
        <time>2019-04-14T10:33:23Z</time>
      </trkpt>
      <trkpt lat="44.45038" lon="1.34869">
        <ele>233</ele>
        <time>2019-04-14T10:33:24Z</time>
      </trkpt>
      <trkpt lat="44.45045" lon="1.34873">
        <ele>233</ele>
        <time>2019-04-14T10:33:25Z</time>
      </trkpt>
      <trkpt lat="44.4506" lon="1.34882">
        <ele>231</ele>
        <time>2019-04-14T10:33:27Z</time>
      </trkpt>
      <trkpt lat="44.4508" lon="1.34898">
        <ele>230</ele>
        <time>2019-04-14T10:33:30Z</time>
      </trkpt>
      <trkpt lat="44.45087" lon="1.34904">
        <ele>230</ele>
        <time>2019-04-14T10:33:31Z</time>
      </trkpt>
      <trkpt lat="44.45099" lon="1.34916">
        <ele>229</ele>
        <time>2019-04-14T10:33:33Z</time>
      </trkpt>
      <trkpt lat="44.45118" lon="1.34932">
        <ele>228</ele>
        <time>2019-04-14T10:33:36Z</time>
      </trkpt>
      <trkpt lat="44.45123" lon="1.34938">
        <ele>228</ele>
        <time>2019-04-14T10:33:37Z</time>
      </trkpt>
      <trkpt lat="44.4514" lon="1.34954">
        <ele>227</ele>
        <time>2019-04-14T10:33:40Z</time>
      </trkpt>
      <trkpt lat="44.45154" lon="1.34966">
        <ele>226</ele>
        <time>2019-04-14T10:33:43Z</time>
      </trkpt>
      <trkpt lat="44.45158" lon="1.3497">
        <ele>226</ele>
        <time>2019-04-14T10:33:44Z</time>
      </trkpt>
      <trkpt lat="44.45171" lon="1.34983">
        <ele>226</ele>
        <time>2019-04-14T10:33:48Z</time>
      </trkpt>
      <trkpt lat="44.45185" lon="1.35005">
        <ele>226</ele>
        <time>2019-04-14T10:33:53Z</time>
      </trkpt>
      <trkpt lat="44.45198" lon="1.35024">
        <ele>226</ele>
        <time>2019-04-14T10:33:57Z</time>
      </trkpt>
      <trkpt lat="44.45206" lon="1.3503">
        <ele>226</ele>
        <time>2019-04-14T10:33:59Z</time>
      </trkpt>
      <trkpt lat="44.45214" lon="1.35038">
        <ele>225</ele>
        <time>2019-04-14T10:34:02Z</time>
      </trkpt>
      <trkpt lat="44.45215" lon="1.35041">
        <ele>225</ele>
        <time>2019-04-14T10:34:03Z</time>
      </trkpt>
      <trkpt lat="44.45215" lon="1.35052">
        <ele>224</ele>
        <time>2019-04-14T10:34:06Z</time>
      </trkpt>
      <trkpt lat="44.45214" lon="1.35056">
        <ele>223</ele>
        <time>2019-04-14T10:34:07Z</time>
      </trkpt>
      <trkpt lat="44.45215" lon="1.3506">
        <ele>222</ele>
        <time>2019-04-14T10:34:08Z</time>
      </trkpt>
      <trkpt lat="44.45218" lon="1.35066">
        <ele>221</ele>
        <time>2019-04-14T10:34:10Z</time>
      </trkpt>
      <trkpt lat="44.45219" lon="1.35069">
        <ele>219</ele>
        <time>2019-04-14T10:34:11Z</time>
      </trkpt>
      <trkpt lat="44.4522" lon="1.35074">
        <ele>219</ele>
        <time>2019-04-14T10:34:12Z</time>
      </trkpt>
      <trkpt lat="44.45222" lon="1.35082">
        <ele>217</ele>
        <time>2019-04-14T10:34:14Z</time>
      </trkpt>
      <trkpt lat="44.45222" lon="1.35086">
        <ele>217</ele>
        <time>2019-04-14T10:34:15Z</time>
      </trkpt>
      <trkpt lat="44.45223" lon="1.35092">
        <ele>216</ele>
        <time>2019-04-14T10:34:16Z</time>
      </trkpt>
      <trkpt lat="44.45223" lon="1.35098">
        <ele>216</ele>
        <time>2019-04-14T10:34:17Z</time>
      </trkpt>
      <trkpt lat="44.45222" lon="1.3511">
        <ele>215</ele>
        <time>2019-04-14T10:34:19Z</time>
      </trkpt>
      <trkpt lat="44.45221" lon="1.35116">
        <ele>213</ele>
        <time>2019-04-14T10:34:20Z</time>
      </trkpt>
      <trkpt lat="44.45221" lon="1.35121">
        <ele>211</ele>
        <time>2019-04-14T10:34:21Z</time>
      </trkpt>
      <trkpt lat="44.4522" lon="1.35126">
        <ele>210</ele>
        <time>2019-04-14T10:34:22Z</time>
      </trkpt>
      <trkpt lat="44.45218" lon="1.35137">
        <ele>208</ele>
        <time>2019-04-14T10:34:24Z</time>
      </trkpt>
      <trkpt lat="44.45219" lon="1.35144">
        <ele>207</ele>
        <time>2019-04-14T10:34:25Z</time>
      </trkpt>
      <trkpt lat="44.4522" lon="1.3515">
        <ele>206</ele>
        <time>2019-04-14T10:34:26Z</time>
      </trkpt>
      <trkpt lat="44.45221" lon="1.35156">
        <ele>204</ele>
        <time>2019-04-14T10:34:27Z</time>
      </trkpt>
      <trkpt lat="44.45221" lon="1.35166">
        <ele>203</ele>
        <time>2019-04-14T10:34:29Z</time>
      </trkpt>
      <trkpt lat="44.45223" lon="1.35185">
        <ele>202</ele>
        <time>2019-04-14T10:34:33Z</time>
      </trkpt>
      <trkpt lat="44.4522" lon="1.35192">
        <ele>200</ele>
        <time>2019-04-14T10:34:35Z</time>
      </trkpt>
      <trkpt lat="44.4522" lon="1.35195">
        <ele>198</ele>
        <time>2019-04-14T10:34:36Z</time>
      </trkpt>
      <trkpt lat="44.45222" lon="1.35203">
        <ele>197</ele>
        <time>2019-04-14T10:34:38Z</time>
      </trkpt>
      <trkpt lat="44.45226" lon="1.35212">
        <ele>196</ele>
        <time>2019-04-14T10:34:40Z</time>
      </trkpt>
      <trkpt lat="44.45227" lon="1.35215">
        <ele>196</ele>
        <time>2019-04-14T10:34:41Z</time>
      </trkpt>
      <trkpt lat="44.45229" lon="1.35223">
        <ele>195</ele>
        <time>2019-04-14T10:34:43Z</time>
      </trkpt>
      <trkpt lat="44.45231" lon="1.35227">
        <ele>194</ele>
        <time>2019-04-14T10:34:44Z</time>
      </trkpt>
      <trkpt lat="44.45232" lon="1.35231">
        <ele>193</ele>
        <time>2019-04-14T10:34:45Z</time>
      </trkpt>
      <trkpt lat="44.45239" lon="1.35244">
        <ele>192</ele>
        <time>2019-04-14T10:34:48Z</time>
      </trkpt>
      <trkpt lat="44.45241" lon="1.35249">
        <ele>191</ele>
        <time>2019-04-14T10:34:49Z</time>
      </trkpt>
      <trkpt lat="44.45243" lon="1.35253">
        <ele>191</ele>
        <time>2019-04-14T10:34:50Z</time>
      </trkpt>
      <trkpt lat="44.45246" lon="1.35262">
        <ele>189</ele>
        <time>2019-04-14T10:34:52Z</time>
      </trkpt>
      <trkpt lat="44.45248" lon="1.35265">
        <ele>188</ele>
        <time>2019-04-14T10:34:53Z</time>
      </trkpt>
      <trkpt lat="44.4525" lon="1.3527">
        <ele>188</ele>
        <time>2019-04-14T10:34:54Z</time>
      </trkpt>
      <trkpt lat="44.45256" lon="1.35278">
        <ele>186</ele>
        <time>2019-04-14T10:34:56Z</time>
      </trkpt>
      <trkpt lat="44.45259" lon="1.35283">
        <ele>185</ele>
        <time>2019-04-14T10:34:57Z</time>
      </trkpt>
      <trkpt lat="44.45262" lon="1.35286">
        <ele>184</ele>
        <time>2019-04-14T10:34:58Z</time>
      </trkpt>
      <trkpt lat="44.45268" lon="1.35291">
        <ele>182</ele>
        <time>2019-04-14T10:35:00Z</time>
      </trkpt>
      <trkpt lat="44.45272" lon="1.35293">
        <ele>181</ele>
        <time>2019-04-14T10:35:01Z</time>
      </trkpt>
      <trkpt lat="44.45276" lon="1.35293">
        <ele>180</ele>
        <time>2019-04-14T10:35:02Z</time>
      </trkpt>
      <trkpt lat="44.45279" lon="1.35293">
        <ele>178</ele>
        <time>2019-04-14T10:35:03Z</time>
      </trkpt>
      <trkpt lat="44.45285" lon="1.35292">
        <ele>177</ele>
        <time>2019-04-14T10:35:05Z</time>
      </trkpt>
      <trkpt lat="44.45293" lon="1.35294">
        <ele>176</ele>
        <time>2019-04-14T10:35:07Z</time>
      </trkpt>
      <trkpt lat="44.45297" lon="1.35296">
        <ele>175</ele>
        <time>2019-04-14T10:35:08Z</time>
      </trkpt>
      <trkpt lat="44.45299" lon="1.35299">
        <ele>174</ele>
        <time>2019-04-14T10:35:09Z</time>
      </trkpt>
      <trkpt lat="44.45302" lon="1.35304">
        <ele>173</ele>
        <time>2019-04-14T10:35:10Z</time>
      </trkpt>
      <trkpt lat="44.45304" lon="1.35313">
        <ele>172</ele>
        <time>2019-04-14T10:35:12Z</time>
      </trkpt>
      <trkpt lat="44.45303" lon="1.35318">
        <ele>171</ele>
        <time>2019-04-14T10:35:13Z</time>
      </trkpt>
      <trkpt lat="44.45304" lon="1.35335">
        <ele>170</ele>
        <time>2019-04-14T10:35:16Z</time>
      </trkpt>
      <trkpt lat="44.45307" lon="1.35345">
        <ele>168</ele>
        <time>2019-04-14T10:35:18Z</time>
      </trkpt>
      <trkpt lat="44.45309" lon="1.35348">
        <ele>167</ele>
        <time>2019-04-14T10:35:19Z</time>
      </trkpt>
      <trkpt lat="44.4531" lon="1.35352">
        <ele>166</ele>
        <time>2019-04-14T10:35:20Z</time>
      </trkpt>
      <trkpt lat="44.45311" lon="1.35355">
        <ele>165</ele>
        <time>2019-04-14T10:35:21Z</time>
      </trkpt>
      <trkpt lat="44.45312" lon="1.35357">
        <ele>163</ele>
        <time>2019-04-14T10:35:22Z</time>
      </trkpt>
      <trkpt lat="44.45314" lon="1.35359">
        <ele>162</ele>
        <time>2019-04-14T10:35:23Z</time>
      </trkpt>
      <trkpt lat="44.45316" lon="1.35363">
        <ele>161</ele>
        <time>2019-04-14T10:35:25Z</time>
      </trkpt>
      <trkpt lat="44.45317" lon="1.35364">
        <ele>159</ele>
        <time>2019-04-14T10:35:27Z</time>
      </trkpt>
      <trkpt lat="44.45318" lon="1.35365">
        <ele>158</ele>
        <time>2019-04-14T10:35:28Z</time>
      </trkpt>
      <trkpt lat="44.45318" lon="1.35367">
        <ele>157</ele>
        <time>2019-04-14T10:35:36Z</time>
      </trkpt>
      <trkpt lat="44.45319" lon="1.35368">
        <ele>157</ele>
        <time>2019-04-14T10:35:38Z</time>
      </trkpt>
      <trkpt lat="44.45319" lon="1.35369">
        <ele>156</ele>
        <time>2019-04-14T10:35:40Z</time>
      </trkpt>
      <trkpt lat="44.45319" lon="1.35372">
        <ele>155</ele>
        <time>2019-04-14T10:35:44Z</time>
      </trkpt>
      <trkpt lat="44.4532" lon="1.35375">
        <ele>154</ele>
        <time>2019-04-14T10:35:49Z</time>
      </trkpt>
      <trkpt lat="44.4532" lon="1.35377">
        <ele>153</ele>
        <time>2019-04-14T10:35:51Z</time>
      </trkpt>
      <trkpt lat="44.45321" lon="1.3538">
        <ele>152</ele>
        <time>2019-04-14T10:35:54Z</time>
      </trkpt>
      <trkpt lat="44.45321" lon="1.35382">
        <ele>151</ele>
        <time>2019-04-14T10:35:57Z</time>
      </trkpt>
      <trkpt lat="44.45322" lon="1.35383">
        <ele>150</ele>
        <time>2019-04-14T10:35:59Z</time>
      </trkpt>
      <trkpt lat="44.45326" lon="1.35388">
        <ele>148</ele>
        <time>2019-04-14T10:36:09Z</time>
      </trkpt>
      <trkpt lat="44.45326" lon="1.35388">
        <ele>148</ele>
        <time>2019-04-14T10:36:10Z</time>
      </trkpt>
      <trkpt lat="44.45326" lon="1.3539">
        <ele>147</ele>
        <time>2019-04-14T10:36:12Z</time>
      </trkpt>
      <trkpt lat="44.45327" lon="1.35392">
        <ele>147</ele>
        <time>2019-04-14T10:36:13Z</time>
      </trkpt>
      <trkpt lat="44.45334" lon="1.35396">
        <ele>146</ele>
        <time>2019-04-14T10:36:16Z</time>
      </trkpt>
      <trkpt lat="44.45336" lon="1.35396">
        <ele>145</ele>
        <time>2019-04-14T10:36:17Z</time>
      </trkpt>
      <trkpt lat="44.45337" lon="1.35397">
        <ele>145</ele>
        <time>2019-04-14T10:36:18Z</time>
      </trkpt>
      <trkpt lat="44.45339" lon="1.35399">
        <ele>143</ele>
        <time>2019-04-14T10:36:20Z</time>
      </trkpt>
      <trkpt lat="44.45338" lon="1.35401">
        <ele>143</ele>
        <time>2019-04-14T10:36:22Z</time>
      </trkpt>
      <trkpt lat="44.45337" lon="1.35402">
        <ele>142</ele>
        <time>2019-04-14T10:36:23Z</time>
      </trkpt>
      <trkpt lat="44.45331" lon="1.35404">
        <ele>142</ele>
        <time>2019-04-14T10:36:27Z</time>
      </trkpt>
      <trkpt lat="44.45323" lon="1.35409">
        <ele>142</ele>
        <time>2019-04-14T10:36:31Z</time>
      </trkpt>
      <trkpt lat="44.45321" lon="1.3541">
        <ele>142</ele>
        <time>2019-04-14T10:36:32Z</time>
      </trkpt>
      <trkpt lat="44.4531" lon="1.35417">
        <ele>143</ele>
        <time>2019-04-14T10:36:37Z</time>
      </trkpt>
      <trkpt lat="44.45292" lon="1.3543">
        <ele>143</ele>
        <time>2019-04-14T10:36:43Z</time>
      </trkpt>
      <trkpt lat="44.45271" lon="1.35442">
        <ele>143</ele>
        <time>2019-04-14T10:36:49Z</time>
      </trkpt>
      <trkpt lat="44.45254" lon="1.35458">
        <ele>142</ele>
        <time>2019-04-14T10:36:54Z</time>
      </trkpt>
      <trkpt lat="44.45244" lon="1.35474">
        <ele>142</ele>
        <time>2019-04-14T10:36:59Z</time>
      </trkpt>
      <trkpt lat="44.4524" lon="1.35478">
        <ele>142</ele>
        <time>2019-04-14T10:37:01Z</time>
      </trkpt>
      <trkpt lat="44.45237" lon="1.35477">
        <ele>143</ele>
        <time>2019-04-14T10:37:03Z</time>
      </trkpt>
      <trkpt lat="44.45234" lon="1.35472">
        <ele>143</ele>
        <time>2019-04-14T10:37:06Z</time>
      </trkpt>
      <trkpt lat="44.45233" lon="1.35469">
        <ele>143</ele>
        <time>2019-04-14T10:37:08Z</time>
      </trkpt>
      <trkpt lat="44.45231" lon="1.35466">
        <ele>143</ele>
        <time>2019-04-14T10:37:11Z</time>
      </trkpt>
      <trkpt lat="44.45231" lon="1.35468">
        <ele>142</ele>
        <time>2019-04-14T10:40:18Z</time>
      </trkpt>
      <trkpt lat="44.45231" lon="1.35469">
        <ele>142</ele>
        <time>2019-04-14T10:40:19Z</time>
      </trkpt>
      <trkpt lat="44.4523" lon="1.35471">
        <ele>143</ele>
        <time>2019-04-14T10:40:23Z</time>
      </trkpt>
      <trkpt lat="44.4523" lon="1.35473">
        <ele>143</ele>
        <time>2019-04-14T10:40:25Z</time>
      </trkpt>
      <trkpt lat="44.4523" lon="1.35474">
        <ele>143</ele>
        <time>2019-04-14T10:40:26Z</time>
      </trkpt>
      <trkpt lat="44.45234" lon="1.35481">
        <ele>143</ele>
        <time>2019-04-14T10:40:30Z</time>
      </trkpt>
      <trkpt lat="44.4524" lon="1.35488">
        <ele>144</ele>
        <time>2019-04-14T10:40:33Z</time>
      </trkpt>
      <trkpt lat="44.45249" lon="1.35497">
        <ele>144</ele>
        <time>2019-04-14T10:40:37Z</time>
      </trkpt>
      <trkpt lat="44.45261" lon="1.35512">
        <ele>144</ele>
        <time>2019-04-14T10:40:43Z</time>
      </trkpt>
      <trkpt lat="44.45278" lon="1.35532">
        <ele>144</ele>
        <time>2019-04-14T10:40:49Z</time>
      </trkpt>
      <trkpt lat="44.4528" lon="1.35535">
        <ele>144</ele>
        <time>2019-04-14T10:40:50Z</time>
      </trkpt>
      <trkpt lat="44.45308" lon="1.35568">
        <ele>144</ele>
        <time>2019-04-14T10:41:00Z</time>
      </trkpt>
      <trkpt lat="44.45313" lon="1.35583">
        <ele>144</ele>
        <time>2019-04-14T10:41:04Z</time>
      </trkpt>
      <trkpt lat="44.45307" lon="1.35597">
        <ele>144</ele>
        <time>2019-04-14T10:41:08Z</time>
      </trkpt>
      <trkpt lat="44.45303" lon="1.35602">
        <ele>144</ele>
        <time>2019-04-14T10:41:10Z</time>
      </trkpt>
      <trkpt lat="44.45292" lon="1.35617">
        <ele>145</ele>
        <time>2019-04-14T10:41:15Z</time>
      </trkpt>
      <trkpt lat="44.45288" lon="1.35624">
        <ele>145</ele>
        <time>2019-04-14T10:41:17Z</time>
      </trkpt>
      <trkpt lat="44.4528" lon="1.35637">
        <ele>146</ele>
        <time>2019-04-14T10:41:21Z</time>
      </trkpt>
      <trkpt lat="44.45276" lon="1.35644">
        <ele>146</ele>
        <time>2019-04-14T10:41:23Z</time>
      </trkpt>
      <trkpt lat="44.45274" lon="1.35647">
        <ele>147</ele>
        <time>2019-04-14T10:41:24Z</time>
      </trkpt>
      <trkpt lat="44.45266" lon="1.35659">
        <ele>147</ele>
        <time>2019-04-14T10:41:28Z</time>
      </trkpt>
      <trkpt lat="44.4526" lon="1.35669">
        <ele>148</ele>
        <time>2019-04-14T10:41:31Z</time>
      </trkpt>
      <trkpt lat="44.45251" lon="1.3568">
        <ele>148</ele>
        <time>2019-04-14T10:41:35Z</time>
      </trkpt>
      <trkpt lat="44.45246" lon="1.35686">
        <ele>149</ele>
        <time>2019-04-14T10:41:37Z</time>
      </trkpt>
      <trkpt lat="44.45226" lon="1.35707">
        <ele>149</ele>
        <time>2019-04-14T10:41:44Z</time>
      </trkpt>
      <trkpt lat="44.45199" lon="1.35731">
        <ele>149</ele>
        <time>2019-04-14T10:41:52Z</time>
      </trkpt>
      <trkpt lat="44.45185" lon="1.35742">
        <ele>150</ele>
        <time>2019-04-14T10:41:56Z</time>
      </trkpt>
      <trkpt lat="44.45173" lon="1.35756">
        <ele>150</ele>
        <time>2019-04-14T10:42:00Z</time>
      </trkpt>
      <trkpt lat="44.45151" lon="1.35789">
        <ele>150</ele>
        <time>2019-04-14T10:42:08Z</time>
      </trkpt>
      <trkpt lat="44.45142" lon="1.35826">
        <ele>150</ele>
        <time>2019-04-14T10:42:15Z</time>
      </trkpt>
      <trkpt lat="44.45141" lon="1.35851">
        <ele>150</ele>
        <time>2019-04-14T10:42:19Z</time>
      </trkpt>
      <trkpt lat="44.45139" lon="1.35875">
        <ele>150</ele>
        <time>2019-04-14T10:42:23Z</time>
      </trkpt>
      <trkpt lat="44.45133" lon="1.35892">
        <ele>149</ele>
        <time>2019-04-14T10:42:27Z</time>
      </trkpt>
      <trkpt lat="44.45131" lon="1.35895">
        <ele>149</ele>
        <time>2019-04-14T10:42:28Z</time>
      </trkpt>
      <trkpt lat="44.45121" lon="1.35903">
        <ele>149</ele>
        <time>2019-04-14T10:42:31Z</time>
      </trkpt>
      <trkpt lat="44.45113" lon="1.35907">
        <ele>149</ele>
        <time>2019-04-14T10:42:33Z</time>
      </trkpt>
      <trkpt lat="44.45082" lon="1.35917">
        <ele>149</ele>
        <time>2019-04-14T10:42:41Z</time>
      </trkpt>
      <trkpt lat="44.4505" lon="1.35933">
        <ele>150</ele>
        <time>2019-04-14T10:42:50Z</time>
      </trkpt>
      <trkpt lat="44.4504" lon="1.35941">
        <ele>150</ele>
        <time>2019-04-14T10:42:53Z</time>
      </trkpt>
      <trkpt lat="44.45028" lon="1.35951">
        <ele>151</ele>
        <time>2019-04-14T10:42:57Z</time>
      </trkpt>
      <trkpt lat="44.45002" lon="1.3597">
        <ele>151</ele>
        <time>2019-04-14T10:43:05Z</time>
      </trkpt>
      <trkpt lat="44.44996" lon="1.35974">
        <ele>152</ele>
        <time>2019-04-14T10:43:07Z</time>
      </trkpt>
      <trkpt lat="44.4498" lon="1.35983">
        <ele>152</ele>
        <time>2019-04-14T10:43:12Z</time>
      </trkpt>
      <trkpt lat="44.44971" lon="1.35988">
        <ele>153</ele>
        <time>2019-04-14T10:43:15Z</time>
      </trkpt>
      <trkpt lat="44.44957" lon="1.35996">
        <ele>153</ele>
        <time>2019-04-14T10:43:19Z</time>
      </trkpt>
      <trkpt lat="44.4494" lon="1.36008">
        <ele>154</ele>
        <time>2019-04-14T10:43:24Z</time>
      </trkpt>
      <trkpt lat="44.4493" lon="1.36015">
        <ele>154</ele>
        <time>2019-04-14T10:43:27Z</time>
      </trkpt>
      <trkpt lat="44.44909" lon="1.36029">
        <ele>154</ele>
        <time>2019-04-14T10:43:33Z</time>
      </trkpt>
      <trkpt lat="44.44885" lon="1.36045">
        <ele>154</ele>
        <time>2019-04-14T10:43:40Z</time>
      </trkpt>
      <trkpt lat="44.44882" lon="1.36047">
        <ele>155</ele>
        <time>2019-04-14T10:43:41Z</time>
      </trkpt>
      <trkpt lat="44.44864" lon="1.36057">
        <ele>155</ele>
        <time>2019-04-14T10:43:46Z</time>
      </trkpt>
      <trkpt lat="44.44841" lon="1.3607">
        <ele>155</ele>
        <time>2019-04-14T10:43:52Z</time>
      </trkpt>
      <trkpt lat="44.44818" lon="1.36081">
        <ele>155</ele>
        <time>2019-04-14T10:43:58Z</time>
      </trkpt>
      <trkpt lat="44.44794" lon="1.36095">
        <ele>155</ele>
        <time>2019-04-14T10:44:04Z</time>
      </trkpt>
      <trkpt lat="44.44789" lon="1.36096">
        <ele>155</ele>
        <time>2019-04-14T10:44:05Z</time>
      </trkpt>
      <trkpt lat="44.44785" lon="1.36098">
        <ele>155</ele>
        <time>2019-04-14T10:44:06Z</time>
      </trkpt>
      <trkpt lat="44.4478" lon="1.36099">
        <ele>156</ele>
        <time>2019-04-14T10:44:07Z</time>
      </trkpt>
      <trkpt lat="44.44763" lon="1.36105">
        <ele>156</ele>
        <time>2019-04-14T10:44:11Z</time>
      </trkpt>
      <trkpt lat="44.4473" lon="1.36116">
        <ele>156</ele>
        <time>2019-04-14T10:44:19Z</time>
      </trkpt>
      <trkpt lat="44.44718" lon="1.36122">
        <ele>157</ele>
        <time>2019-04-14T10:44:22Z</time>
      </trkpt>
      <trkpt lat="44.44703" lon="1.36126">
        <ele>157</ele>
        <time>2019-04-14T10:44:26Z</time>
      </trkpt>
      <trkpt lat="44.44681" lon="1.36116">
        <ele>157</ele>
        <time>2019-04-14T10:44:31Z</time>
      </trkpt>
      <trkpt lat="44.44648" lon="1.36104">
        <ele>157</ele>
        <time>2019-04-14T10:44:39Z</time>
      </trkpt>
      <trkpt lat="44.44644" lon="1.36102">
        <ele>158</ele>
        <time>2019-04-14T10:44:40Z</time>
      </trkpt>
      <trkpt lat="44.44612" lon="1.36091">
        <ele>158</ele>
        <time>2019-04-14T10:44:48Z</time>
      </trkpt>
      <trkpt lat="44.44594" lon="1.36082">
        <ele>158</ele>
        <time>2019-04-14T10:44:53Z</time>
      </trkpt>
      <trkpt lat="44.4457" lon="1.36067">
        <ele>158</ele>
        <time>2019-04-14T10:44:59Z</time>
      </trkpt>
      <trkpt lat="44.44535" lon="1.36043">
        <ele>158</ele>
        <time>2019-04-14T10:45:08Z</time>
      </trkpt>
      <trkpt lat="44.44531" lon="1.36041">
        <ele>158</ele>
        <time>2019-04-14T10:45:09Z</time>
      </trkpt>
      <trkpt lat="44.44511" lon="1.36035">
        <ele>158</ele>
        <time>2019-04-14T10:45:14Z</time>
      </trkpt>
      <trkpt lat="44.44503" lon="1.36032">
        <ele>159</ele>
        <time>2019-04-14T10:45:16Z</time>
      </trkpt>
      <trkpt lat="44.44475" lon="1.36028">
        <ele>159</ele>
        <time>2019-04-14T10:45:23Z</time>
      </trkpt>
      <trkpt lat="44.44463" lon="1.36027">
        <ele>160</ele>
        <time>2019-04-14T10:45:26Z</time>
      </trkpt>
      <trkpt lat="44.44435" lon="1.36028">
        <ele>160</ele>
        <time>2019-04-14T10:45:33Z</time>
      </trkpt>
      <trkpt lat="44.44428" lon="1.36028">
        <ele>161</ele>
        <time>2019-04-14T10:45:35Z</time>
      </trkpt>
      <trkpt lat="44.44417" lon="1.36028">
        <ele>161</ele>
        <time>2019-04-14T10:45:38Z</time>
      </trkpt>
      <trkpt lat="44.44384" lon="1.36028">
        <ele>161</ele>
        <time>2019-04-14T10:45:46Z</time>
      </trkpt>
      <trkpt lat="44.44372" lon="1.36027">
        <ele>162</ele>
        <time>2019-04-14T10:45:49Z</time>
      </trkpt>
      <trkpt lat="44.44357" lon="1.36029">
        <ele>162</ele>
        <time>2019-04-14T10:45:53Z</time>
      </trkpt>
      <trkpt lat="44.44333" lon="1.36035">
        <ele>163</ele>
        <time>2019-04-14T10:45:59Z</time>
      </trkpt>
      <trkpt lat="44.44326" lon="1.36038">
        <ele>163</ele>
        <time>2019-04-14T10:46:01Z</time>
      </trkpt>
      <trkpt lat="44.44315" lon="1.36043">
        <ele>163</ele>
        <time>2019-04-14T10:46:04Z</time>
      </trkpt>
      <trkpt lat="44.44281" lon="1.36063">
        <ele>164</ele>
        <time>2019-04-14T10:46:13Z</time>
      </trkpt>
      <trkpt lat="44.4426" lon="1.36077">
        <ele>165</ele>
        <time>2019-04-14T10:46:19Z</time>
      </trkpt>
      <trkpt lat="44.4425" lon="1.36084">
        <ele>165</ele>
        <time>2019-04-14T10:46:22Z</time>
      </trkpt>
      <trkpt lat="44.4424" lon="1.36091">
        <ele>165</ele>
        <time>2019-04-14T10:46:25Z</time>
      </trkpt>
      <trkpt lat="44.44224" lon="1.36102">
        <ele>166</ele>
        <time>2019-04-14T10:46:30Z</time>
      </trkpt>
      <trkpt lat="44.44218" lon="1.36107">
        <ele>166</ele>
        <time>2019-04-14T10:46:32Z</time>
      </trkpt>
      <trkpt lat="44.44203" lon="1.36116">
        <ele>166</ele>
        <time>2019-04-14T10:46:36Z</time>
      </trkpt>
      <trkpt lat="44.44178" lon="1.36133">
        <ele>166</ele>
        <time>2019-04-14T10:46:43Z</time>
      </trkpt>
      <trkpt lat="44.44152" lon="1.3615">
        <ele>166</ele>
        <time>2019-04-14T10:46:50Z</time>
      </trkpt>
      <trkpt lat="44.44126" lon="1.3617">
        <ele>167</ele>
        <time>2019-04-14T10:46:58Z</time>
      </trkpt>
      <trkpt lat="44.44118" lon="1.36175">
        <ele>167</ele>
        <time>2019-04-14T10:47:01Z</time>
      </trkpt>
      <trkpt lat="44.44116" lon="1.36175">
        <ele>167</ele>
        <time>2019-04-14T10:47:02Z</time>
      </trkpt>
      <trkpt lat="44.44115" lon="1.36173">
        <ele>167</ele>
        <time>2019-04-14T10:47:03Z</time>
      </trkpt>
      <trkpt lat="44.44117" lon="1.36157">
        <ele>167</ele>
        <time>2019-04-14T10:47:07Z</time>
      </trkpt>
      <trkpt lat="44.44117" lon="1.36141">
        <ele>166</ele>
        <time>2019-04-14T10:47:10Z</time>
      </trkpt>
      <trkpt lat="44.44115" lon="1.36136">
        <ele>166</ele>
        <time>2019-04-14T10:47:11Z</time>
      </trkpt>
      <trkpt lat="44.44114" lon="1.36128">
        <ele>165</ele>
        <time>2019-04-14T10:47:14Z</time>
      </trkpt>
      <trkpt lat="44.44113" lon="1.3612">
        <ele>166</ele>
        <time>2019-04-14T10:47:18Z</time>
      </trkpt>
      <trkpt lat="44.44113" lon="1.36117">
        <ele>166</ele>
        <time>2019-04-14T10:47:19Z</time>
      </trkpt>
      <trkpt lat="44.44112" lon="1.36096">
        <ele>165</ele>
        <time>2019-04-14T10:47:24Z</time>
      </trkpt>
      <trkpt lat="44.44111" lon="1.36083">
        <ele>165</ele>
        <time>2019-04-14T10:47:27Z</time>
      </trkpt>
      <trkpt lat="44.4411" lon="1.36081">
        <ele>165</ele>
        <time>2019-04-14T10:47:28Z</time>
      </trkpt>
      <trkpt lat="44.44103" lon="1.36084">
        <ele>166</ele>
        <time>2019-04-14T10:47:32Z</time>
      </trkpt>
      <trkpt lat="44.44098" lon="1.36086">
        <ele>167</ele>
        <time>2019-04-14T10:47:35Z</time>
      </trkpt>
      <trkpt lat="44.44096" lon="1.36087">
        <ele>167</ele>
        <time>2019-04-14T10:47:36Z</time>
      </trkpt>
      <trkpt lat="44.44085" lon="1.36091">
        <ele>168</ele>
        <time>2019-04-14T10:47:40Z</time>
      </trkpt>
      <trkpt lat="44.44082" lon="1.36092">
        <ele>169</ele>
        <time>2019-04-14T10:47:41Z</time>
      </trkpt>
      <trkpt lat="44.44069" lon="1.36099">
        <ele>169</ele>
        <time>2019-04-14T10:47:46Z</time>
      </trkpt>
      <trkpt lat="44.44061" lon="1.36103">
        <ele>170</ele>
        <time>2019-04-14T10:47:49Z</time>
      </trkpt>
      <trkpt lat="44.44054" lon="1.36107">
        <ele>170</ele>
        <time>2019-04-14T10:47:52Z</time>
      </trkpt>
      <trkpt lat="44.44038" lon="1.36115">
        <ele>170</ele>
        <time>2019-04-14T10:47:57Z</time>
      </trkpt>
      <trkpt lat="44.44025" lon="1.36126">
        <ele>170</ele>
        <time>2019-04-14T10:48:02Z</time>
      </trkpt>
      <trkpt lat="44.44007" lon="1.36138">
        <ele>171</ele>
        <time>2019-04-14T10:48:08Z</time>
      </trkpt>
      <trkpt lat="44.44002" lon="1.36142">
        <ele>171</ele>
        <time>2019-04-14T10:48:10Z</time>
      </trkpt>
      <trkpt lat="44.43992" lon="1.36149">
        <ele>171</ele>
        <time>2019-04-14T10:48:13Z</time>
      </trkpt>
      <trkpt lat="44.4398" lon="1.36158">
        <ele>171</ele>
        <time>2019-04-14T10:48:17Z</time>
      </trkpt>
      <trkpt lat="44.43967" lon="1.36166">
        <ele>172</ele>
        <time>2019-04-14T10:48:21Z</time>
      </trkpt>
      <trkpt lat="44.43953" lon="1.36172">
        <ele>171</ele>
        <time>2019-04-14T10:48:25Z</time>
      </trkpt>
      <trkpt lat="44.43932" lon="1.36174">
        <ele>172</ele>
        <time>2019-04-14T10:48:30Z</time>
      </trkpt>
      <trkpt lat="44.43929" lon="1.36174">
        <ele>172</ele>
        <time>2019-04-14T10:48:31Z</time>
      </trkpt>
      <trkpt lat="44.43914" lon="1.3617">
        <ele>173</ele>
        <time>2019-04-14T10:48:36Z</time>
      </trkpt>
      <trkpt lat="44.43904" lon="1.36164">
        <ele>175</ele>
        <time>2019-04-14T10:48:40Z</time>
      </trkpt>
      <trkpt lat="44.43902" lon="1.36162">
        <ele>175</ele>
        <time>2019-04-14T10:48:41Z</time>
      </trkpt>
      <trkpt lat="44.43887" lon="1.36151">
        <ele>176</ele>
        <time>2019-04-14T10:48:47Z</time>
      </trkpt>
      <trkpt lat="44.43875" lon="1.36142">
        <ele>177</ele>
        <time>2019-04-14T10:48:52Z</time>
      </trkpt>
      <trkpt lat="44.43872" lon="1.3614">
        <ele>177</ele>
        <time>2019-04-14T10:48:53Z</time>
      </trkpt>
      <trkpt lat="44.43857" lon="1.36128">
        <ele>178</ele>
        <time>2019-04-14T10:49:00Z</time>
      </trkpt>
      <trkpt lat="44.43855" lon="1.36126">
        <ele>178</ele>
        <time>2019-04-14T10:49:01Z</time>
      </trkpt>
      <trkpt lat="44.43845" lon="1.36117">
        <ele>179</ele>
        <time>2019-04-14T10:49:06Z</time>
      </trkpt>
      <trkpt lat="44.43843" lon="1.36116">
        <ele>179</ele>
        <time>2019-04-14T10:49:07Z</time>
      </trkpt>
      <trkpt lat="44.4384" lon="1.36113">
        <ele>179</ele>
        <time>2019-04-14T10:49:09Z</time>
      </trkpt>
      <trkpt lat="44.43836" lon="1.36114">
        <ele>180</ele>
        <time>2019-04-14T10:49:11Z</time>
      </trkpt>
      <trkpt lat="44.43836" lon="1.36125">
        <ele>180</ele>
        <time>2019-04-14T10:49:15Z</time>
      </trkpt>
      <trkpt lat="44.43838" lon="1.3613">
        <ele>179</ele>
        <time>2019-04-14T10:49:16Z</time>
      </trkpt>
      <trkpt lat="44.43846" lon="1.3615">
        <ele>178</ele>
        <time>2019-04-14T10:49:19Z</time>
      </trkpt>
      <trkpt lat="44.43849" lon="1.36156">
        <ele>178</ele>
        <time>2019-04-14T10:49:20Z</time>
      </trkpt>
      <trkpt lat="44.43853" lon="1.36163">
        <ele>178</ele>
        <time>2019-04-14T10:49:21Z</time>
      </trkpt>
      <trkpt lat="44.43863" lon="1.36182">
        <ele>177</ele>
        <time>2019-04-14T10:49:24Z</time>
      </trkpt>
      <trkpt lat="44.43866" lon="1.36187">
        <ele>177</ele>
        <time>2019-04-14T10:49:25Z</time>
      </trkpt>
      <trkpt lat="44.43869" lon="1.36193">
        <ele>176</ele>
        <time>2019-04-14T10:49:26Z</time>
      </trkpt>
      <trkpt lat="44.43871" lon="1.36199">
        <ele>176</ele>
        <time>2019-04-14T10:49:27Z</time>
      </trkpt>
      <trkpt lat="44.43871" lon="1.3621">
        <ele>175</ele>
        <time>2019-04-14T10:49:29Z</time>
      </trkpt>
      <trkpt lat="44.43869" lon="1.36215">
        <ele>174</ele>
        <time>2019-04-14T10:49:30Z</time>
      </trkpt>
      <trkpt lat="44.43863" lon="1.36224">
        <ele>174</ele>
        <time>2019-04-14T10:49:32Z</time>
      </trkpt>
      <trkpt lat="44.4386" lon="1.36228">
        <ele>173</ele>
        <time>2019-04-14T10:49:33Z</time>
      </trkpt>
      <trkpt lat="44.43857" lon="1.36232">
        <ele>173</ele>
        <time>2019-04-14T10:49:34Z</time>
      </trkpt>
      <trkpt lat="44.43848" lon="1.36246">
        <ele>173</ele>
        <time>2019-04-14T10:49:38Z</time>
      </trkpt>
      <trkpt lat="44.43838" lon="1.36265">
        <ele>174</ele>
        <time>2019-04-14T10:49:43Z</time>
      </trkpt>
      <trkpt lat="44.43825" lon="1.36298">
        <ele>174</ele>
        <time>2019-04-14T10:49:50Z</time>
      </trkpt>
      <trkpt lat="44.43815" lon="1.3633">
        <ele>174</ele>
        <time>2019-04-14T10:49:56Z</time>
      </trkpt>
      <trkpt lat="44.43814" lon="1.36336">
        <ele>174</ele>
        <time>2019-04-14T10:49:57Z</time>
      </trkpt>
      <trkpt lat="44.43809" lon="1.36356">
        <ele>174</ele>
        <time>2019-04-14T10:50:01Z</time>
      </trkpt>
      <trkpt lat="44.43805" lon="1.36383">
        <ele>174</ele>
        <time>2019-04-14T10:50:06Z</time>
      </trkpt>
      <trkpt lat="44.438" lon="1.36409">
        <ele>175</ele>
        <time>2019-04-14T10:50:12Z</time>
      </trkpt>
      <trkpt lat="44.43795" lon="1.36434">
        <ele>175</ele>
        <time>2019-04-14T10:50:18Z</time>
      </trkpt>
      <trkpt lat="44.43794" lon="1.36442">
        <ele>176</ele>
        <time>2019-04-14T10:50:20Z</time>
      </trkpt>
      <trkpt lat="44.43792" lon="1.36454">
        <ele>176</ele>
        <time>2019-04-14T10:50:23Z</time>
      </trkpt>
      <trkpt lat="44.43785" lon="1.36482">
        <ele>177</ele>
        <time>2019-04-14T10:50:30Z</time>
      </trkpt>
      <trkpt lat="44.43776" lon="1.36507">
        <ele>177</ele>
        <time>2019-04-14T10:50:36Z</time>
      </trkpt>
      <trkpt lat="44.43774" lon="1.3651">
        <ele>177</ele>
        <time>2019-04-14T10:50:37Z</time>
      </trkpt>
      <trkpt lat="44.43767" lon="1.3652">
        <ele>177</ele>
        <time>2019-04-14T10:50:41Z</time>
      </trkpt>
      <trkpt lat="44.43757" lon="1.36533">
        <ele>178</ele>
        <time>2019-04-14T10:50:46Z</time>
      </trkpt>
      <trkpt lat="44.43751" lon="1.36538">
        <ele>178</ele>
        <time>2019-04-14T10:50:49Z</time>
      </trkpt>
      <trkpt lat="44.43745" lon="1.36543">
        <ele>179</ele>
        <time>2019-04-14T10:50:51Z</time>
      </trkpt>
      <trkpt lat="44.43743" lon="1.36541">
        <ele>179</ele>
        <time>2019-04-14T10:50:55Z</time>
      </trkpt>
      <trkpt lat="44.4374" lon="1.3654">
        <ele>180</ele>
        <time>2019-04-14T10:50:57Z</time>
      </trkpt>
      <trkpt lat="44.43732" lon="1.36534">
        <ele>180</ele>
        <time>2019-04-14T10:51:01Z</time>
      </trkpt>
      <trkpt lat="44.43729" lon="1.36531">
        <ele>181</ele>
        <time>2019-04-14T10:51:03Z</time>
      </trkpt>
      <trkpt lat="44.43721" lon="1.36524">
        <ele>182</ele>
        <time>2019-04-14T10:51:07Z</time>
      </trkpt>
      <trkpt lat="44.43719" lon="1.36522">
        <ele>182</ele>
        <time>2019-04-14T10:51:08Z</time>
      </trkpt>
      <trkpt lat="44.43708" lon="1.36517">
        <ele>183</ele>
        <time>2019-04-14T10:51:12Z</time>
      </trkpt>
      <trkpt lat="44.43705" lon="1.36515">
        <ele>183</ele>
        <time>2019-04-14T10:51:13Z</time>
      </trkpt>
      <trkpt lat="44.43693" lon="1.36511">
        <ele>184</ele>
        <time>2019-04-14T10:51:18Z</time>
      </trkpt>
      <trkpt lat="44.43687" lon="1.36513">
        <ele>184</ele>
        <time>2019-04-14T10:51:20Z</time>
      </trkpt>
      <trkpt lat="44.43674" lon="1.36523">
        <ele>184</ele>
        <time>2019-04-14T10:51:24Z</time>
      </trkpt>
      <trkpt lat="44.4367" lon="1.3653">
        <ele>183</ele>
        <time>2019-04-14T10:51:26Z</time>
      </trkpt>
      <trkpt lat="44.43668" lon="1.36535">
        <ele>182</ele>
        <time>2019-04-14T10:51:28Z</time>
      </trkpt>
      <trkpt lat="44.43667" lon="1.36538">
        <ele>182</ele>
        <time>2019-04-14T10:51:29Z</time>
      </trkpt>
      <trkpt lat="44.43668" lon="1.36548">
        <ele>183</ele>
        <time>2019-04-14T10:51:32Z</time>
      </trkpt>
      <trkpt lat="44.43675" lon="1.36579">
        <ele>182</ele>
        <time>2019-04-14T10:51:38Z</time>
      </trkpt>
      <trkpt lat="44.43674" lon="1.36585">
        <ele>182</ele>
        <time>2019-04-14T10:51:39Z</time>
      </trkpt>
      <trkpt lat="44.43673" lon="1.36591">
        <ele>182</ele>
        <time>2019-04-14T10:51:40Z</time>
      </trkpt>
      <trkpt lat="44.4367" lon="1.36597">
        <ele>181</ele>
        <time>2019-04-14T10:51:41Z</time>
      </trkpt>
      <trkpt lat="44.43661" lon="1.36613">
        <ele>181</ele>
        <time>2019-04-14T10:51:44Z</time>
      </trkpt>
      <trkpt lat="44.43654" lon="1.36621">
        <ele>181</ele>
        <time>2019-04-14T10:51:46Z</time>
      </trkpt>
      <trkpt lat="44.43648" lon="1.36629">
        <ele>181</ele>
        <time>2019-04-14T10:51:48Z</time>
      </trkpt>
      <trkpt lat="44.43645" lon="1.36634">
        <ele>181</ele>
        <time>2019-04-14T10:51:49Z</time>
      </trkpt>
      <trkpt lat="44.43641" lon="1.36644">
        <ele>181</ele>
        <time>2019-04-14T10:51:51Z</time>
      </trkpt>
      <trkpt lat="44.43636" lon="1.36655">
        <ele>181</ele>
        <time>2019-04-14T10:51:53Z</time>
      </trkpt>
      <trkpt lat="44.4363" lon="1.36664">
        <ele>181</ele>
        <time>2019-04-14T10:51:55Z</time>
      </trkpt>
      <trkpt lat="44.43628" lon="1.36669">
        <ele>180</ele>
        <time>2019-04-14T10:51:56Z</time>
      </trkpt>
      <trkpt lat="44.43619" lon="1.3669">
        <ele>181</ele>
        <time>2019-04-14T10:52:01Z</time>
      </trkpt>
      <trkpt lat="44.43609" lon="1.36719">
        <ele>182</ele>
        <time>2019-04-14T10:52:07Z</time>
      </trkpt>
      <trkpt lat="44.43607" lon="1.36729">
        <ele>182</ele>
        <time>2019-04-14T10:52:09Z</time>
      </trkpt>
      <trkpt lat="44.43602" lon="1.36755">
        <ele>183</ele>
        <time>2019-04-14T10:52:14Z</time>
      </trkpt>
      <trkpt lat="44.43599" lon="1.36787">
        <ele>183</ele>
        <time>2019-04-14T10:52:20Z</time>
      </trkpt>
      <trkpt lat="44.43599" lon="1.36791">
        <ele>183</ele>
        <time>2019-04-14T10:52:21Z</time>
      </trkpt>
      <trkpt lat="44.43599" lon="1.36818">
        <ele>183</ele>
        <time>2019-04-14T10:52:26Z</time>
      </trkpt>
      <trkpt lat="44.43601" lon="1.36843">
        <ele>183</ele>
        <time>2019-04-14T10:52:31Z</time>
      </trkpt>
      <trkpt lat="44.43607" lon="1.3687">
        <ele>183</ele>
        <time>2019-04-14T10:52:36Z</time>
      </trkpt>
      <trkpt lat="44.43621" lon="1.36906">
        <ele>183</ele>
        <time>2019-04-14T10:52:42Z</time>
      </trkpt>
      <trkpt lat="44.43632" lon="1.36937">
        <ele>183</ele>
        <time>2019-04-14T10:52:48Z</time>
      </trkpt>
      <trkpt lat="44.43639" lon="1.36963">
        <ele>184</ele>
        <time>2019-04-14T10:52:53Z</time>
      </trkpt>
      <trkpt lat="44.43641" lon="1.36978">
        <ele>184</ele>
        <time>2019-04-14T10:52:56Z</time>
      </trkpt>
      <trkpt lat="44.43641" lon="1.36998">
        <ele>184</ele>
        <time>2019-04-14T10:53:00Z</time>
      </trkpt>
      <trkpt lat="44.43636" lon="1.37025">
        <ele>185</ele>
        <time>2019-04-14T10:53:06Z</time>
      </trkpt>
      <trkpt lat="44.43633" lon="1.37038">
        <ele>186</ele>
        <time>2019-04-14T10:53:09Z</time>
      </trkpt>
      <trkpt lat="44.43631" lon="1.3705">
        <ele>186</ele>
        <time>2019-04-14T10:53:12Z</time>
      </trkpt>
      <trkpt lat="44.43627" lon="1.37071">
        <ele>187</ele>
        <time>2019-04-14T10:53:17Z</time>
      </trkpt>
      <trkpt lat="44.43625" lon="1.37079">
        <ele>188</ele>
        <time>2019-04-14T10:53:19Z</time>
      </trkpt>
      <trkpt lat="44.43619" lon="1.37103">
        <ele>188</ele>
        <time>2019-04-14T10:53:24Z</time>
      </trkpt>
      <trkpt lat="44.43609" lon="1.37131">
        <ele>189</ele>
        <time>2019-04-14T10:53:31Z</time>
      </trkpt>
      <trkpt lat="44.43607" lon="1.37134">
        <ele>189</ele>
        <time>2019-04-14T10:53:32Z</time>
      </trkpt>
      <trkpt lat="44.43601" lon="1.37153">
        <ele>189</ele>
        <time>2019-04-14T10:53:37Z</time>
      </trkpt>
      <trkpt lat="44.43593" lon="1.37182">
        <ele>189</ele>
        <time>2019-04-14T10:53:44Z</time>
      </trkpt>
      <trkpt lat="44.4359" lon="1.3719">
        <ele>190</ele>
        <time>2019-04-14T10:53:46Z</time>
      </trkpt>
      <trkpt lat="44.43585" lon="1.37209">
        <ele>191</ele>
        <time>2019-04-14T10:53:50Z</time>
      </trkpt>
      <trkpt lat="44.43575" lon="1.37236">
        <ele>190</ele>
        <time>2019-04-14T10:53:56Z</time>
      </trkpt>
      <trkpt lat="44.43577" lon="1.37248">
        <ele>190</ele>
        <time>2019-04-14T10:53:58Z</time>
      </trkpt>
      <trkpt lat="44.4358" lon="1.37252">
        <ele>190</ele>
        <time>2019-04-14T10:53:59Z</time>
      </trkpt>
      <trkpt lat="44.436" lon="1.37266">
        <ele>191</ele>
        <time>2019-04-14T10:54:06Z</time>
      </trkpt>
      <trkpt lat="44.43602" lon="1.37268">
        <ele>191</ele>
        <time>2019-04-14T10:54:07Z</time>
      </trkpt>
      <trkpt lat="44.43604" lon="1.37271">
        <ele>191</ele>
        <time>2019-04-14T10:54:08Z</time>
      </trkpt>
      <trkpt lat="44.43604" lon="1.37278">
        <ele>191</ele>
        <time>2019-04-14T10:54:10Z</time>
      </trkpt>
      <trkpt lat="44.436" lon="1.37287">
        <ele>192</ele>
        <time>2019-04-14T10:54:13Z</time>
      </trkpt>
      <trkpt lat="44.43598" lon="1.37294">
        <ele>192</ele>
        <time>2019-04-14T10:54:15Z</time>
      </trkpt>
      <trkpt lat="44.43591" lon="1.37315">
        <ele>192</ele>
        <time>2019-04-14T10:54:20Z</time>
      </trkpt>
      <trkpt lat="44.43584" lon="1.37336">
        <ele>191</ele>
        <time>2019-04-14T10:54:25Z</time>
      </trkpt>
      <trkpt lat="44.43583" lon="1.37338">
        <ele>191</ele>
        <time>2019-04-14T10:54:26Z</time>
      </trkpt>
      <trkpt lat="44.43576" lon="1.37344">
        <ele>191</ele>
        <time>2019-04-14T10:54:29Z</time>
      </trkpt>
      <trkpt lat="44.43565" lon="1.37358">
        <ele>191</ele>
        <time>2019-04-14T10:54:34Z</time>
      </trkpt>
      <trkpt lat="44.4356" lon="1.37368">
        <ele>191</ele>
        <time>2019-04-14T10:54:37Z</time>
      </trkpt>
      <trkpt lat="44.43557" lon="1.37371">
        <ele>191</ele>
        <time>2019-04-14T10:54:38Z</time>
      </trkpt>
      <trkpt lat="44.43549" lon="1.37384">
        <ele>192</ele>
        <time>2019-04-14T10:54:42Z</time>
      </trkpt>
      <trkpt lat="44.43533" lon="1.37386">
        <ele>192</ele>
        <time>2019-04-14T10:54:46Z</time>
      </trkpt>
      <trkpt lat="44.43521" lon="1.37393">
        <ele>191</ele>
        <time>2019-04-14T10:54:50Z</time>
      </trkpt>
      <trkpt lat="44.43507" lon="1.37399">
        <ele>192</ele>
        <time>2019-04-14T10:54:55Z</time>
      </trkpt>
      <trkpt lat="44.43501" lon="1.37402">
        <ele>192</ele>
        <time>2019-04-14T10:54:57Z</time>
      </trkpt>
      <trkpt lat="44.43499" lon="1.37402">
        <ele>193</ele>
        <time>2019-04-14T10:54:58Z</time>
      </trkpt>
      <trkpt lat="44.43496" lon="1.37403">
        <ele>193</ele>
        <time>2019-04-14T10:54:59Z</time>
      </trkpt>
      <trkpt lat="44.43488" lon="1.37401">
        <ele>193</ele>
        <time>2019-04-14T10:55:02Z</time>
      </trkpt>
      <trkpt lat="44.4348" lon="1.37407">
        <ele>193</ele>
        <time>2019-04-14T10:55:06Z</time>
      </trkpt>
      <trkpt lat="44.43471" lon="1.37408">
        <ele>193</ele>
        <time>2019-04-14T10:55:10Z</time>
      </trkpt>
      <trkpt lat="44.43469" lon="1.37409">
        <ele>194</ele>
        <time>2019-04-14T10:55:11Z</time>
      </trkpt>
      <trkpt lat="44.4346" lon="1.37415">
        <ele>194</ele>
        <time>2019-04-14T10:55:14Z</time>
      </trkpt>
      <trkpt lat="44.43458" lon="1.37418">
        <ele>194</ele>
        <time>2019-04-14T10:55:15Z</time>
      </trkpt>
      <trkpt lat="44.43454" lon="1.37421">
        <ele>194</ele>
        <time>2019-04-14T10:55:17Z</time>
      </trkpt>
      <trkpt lat="44.43447" lon="1.3742">
        <ele>195</ele>
        <time>2019-04-14T10:55:19Z</time>
      </trkpt>
      <trkpt lat="44.43435" lon="1.37424">
        <ele>195</ele>
        <time>2019-04-14T10:55:23Z</time>
      </trkpt>
      <trkpt lat="44.43433" lon="1.37425">
        <ele>195</ele>
        <time>2019-04-14T10:55:24Z</time>
      </trkpt>
      <trkpt lat="44.43421" lon="1.37428">
        <ele>195</ele>
        <time>2019-04-14T10:55:28Z</time>
      </trkpt>
      <trkpt lat="44.43411" lon="1.37432">
        <ele>195</ele>
        <time>2019-04-14T10:55:32Z</time>
      </trkpt>
      <trkpt lat="44.43408" lon="1.3743">
        <ele>195</ele>
        <time>2019-04-14T10:55:33Z</time>
      </trkpt>
      <trkpt lat="44.43396" lon="1.37431">
        <ele>195</ele>
        <time>2019-04-14T10:55:37Z</time>
      </trkpt>
      <trkpt lat="44.43394" lon="1.37432">
        <ele>195</ele>
        <time>2019-04-14T10:55:38Z</time>
      </trkpt>
      <trkpt lat="44.4339" lon="1.37433">
        <ele>195</ele>
        <time>2019-04-14T10:55:41Z</time>
      </trkpt>
      <trkpt lat="44.43381" lon="1.37439">
        <ele>195</ele>
        <time>2019-04-14T10:55:48Z</time>
      </trkpt>
      <trkpt lat="44.43368" lon="1.37445">
        <ele>195</ele>
        <time>2019-04-14T10:55:53Z</time>
      </trkpt>
      <trkpt lat="44.4336" lon="1.37454">
        <ele>196</ele>
        <time>2019-04-14T10:55:57Z</time>
      </trkpt>
      <trkpt lat="44.43356" lon="1.37459">
        <ele>196</ele>
        <time>2019-04-14T10:55:59Z</time>
      </trkpt>
      <trkpt lat="44.43351" lon="1.37461">
        <ele>197</ele>
        <time>2019-04-14T10:56:01Z</time>
      </trkpt>
      <trkpt lat="44.43345" lon="1.37464">
        <ele>197</ele>
        <time>2019-04-14T10:56:03Z</time>
      </trkpt>
      <trkpt lat="44.43333" lon="1.37471">
        <ele>197</ele>
        <time>2019-04-14T10:56:08Z</time>
      </trkpt>
      <trkpt lat="44.43331" lon="1.37472">
        <ele>197</ele>
        <time>2019-04-14T10:56:09Z</time>
      </trkpt>
      <trkpt lat="44.43321" lon="1.37477">
        <ele>198</ele>
        <time>2019-04-14T10:56:14Z</time>
      </trkpt>
      <trkpt lat="44.4332" lon="1.37478">
        <ele>198</ele>
        <time>2019-04-14T10:56:15Z</time>
      </trkpt>
      <trkpt lat="44.43311" lon="1.37483">
        <ele>199</ele>
        <time>2019-04-14T10:56:21Z</time>
      </trkpt>
      <trkpt lat="44.43305" lon="1.37489">
        <ele>199</ele>
        <time>2019-04-14T10:56:24Z</time>
      </trkpt>
      <trkpt lat="44.433" lon="1.37492">
        <ele>199</ele>
        <time>2019-04-14T10:56:26Z</time>
      </trkpt>
      <trkpt lat="44.43293" lon="1.37497">
        <ele>200</ele>
        <time>2019-04-14T10:56:30Z</time>
      </trkpt>
      <trkpt lat="44.43291" lon="1.37497">
        <ele>200</ele>
        <time>2019-04-14T10:56:31Z</time>
      </trkpt>
      <trkpt lat="44.43278" lon="1.375">
        <ele>199</ele>
        <time>2019-04-14T10:56:36Z</time>
      </trkpt>
      <trkpt lat="44.43267" lon="1.37508">
        <ele>199</ele>
        <time>2019-04-14T10:56:41Z</time>
      </trkpt>
      <trkpt lat="44.43255" lon="1.37517">
        <ele>200</ele>
        <time>2019-04-14T10:56:46Z</time>
      </trkpt>
      <trkpt lat="44.43244" lon="1.37522">
        <ele>200</ele>
        <time>2019-04-14T10:56:50Z</time>
      </trkpt>
      <trkpt lat="44.43236" lon="1.37529">
        <ele>199</ele>
        <time>2019-04-14T10:56:54Z</time>
      </trkpt>
      <trkpt lat="44.43228" lon="1.37534">
        <ele>199</ele>
        <time>2019-04-14T10:56:58Z</time>
      </trkpt>
      <trkpt lat="44.43226" lon="1.37536">
        <ele>199</ele>
        <time>2019-04-14T10:56:59Z</time>
      </trkpt>
      <trkpt lat="44.4322" lon="1.37542">
        <ele>200</ele>
        <time>2019-04-14T10:57:03Z</time>
      </trkpt>
      <trkpt lat="44.43217" lon="1.37547">
        <ele>200</ele>
        <time>2019-04-14T10:57:05Z</time>
      </trkpt>
      <trkpt lat="44.43208" lon="1.37558">
        <ele>200</ele>
        <time>2019-04-14T10:57:09Z</time>
      </trkpt>
      <trkpt lat="44.43197" lon="1.37575">
        <ele>200</ele>
        <time>2019-04-14T10:57:14Z</time>
      </trkpt>
      <trkpt lat="44.43189" lon="1.37593">
        <ele>202</ele>
        <time>2019-04-14T10:57:20Z</time>
      </trkpt>
      <trkpt lat="44.43183" lon="1.37602">
        <ele>203</ele>
        <time>2019-04-14T10:57:25Z</time>
      </trkpt>
      <trkpt lat="44.43182" lon="1.37604">
        <ele>203</ele>
        <time>2019-04-14T10:57:26Z</time>
      </trkpt>
      <trkpt lat="44.4318" lon="1.37609">
        <ele>203</ele>
        <time>2019-04-14T10:57:28Z</time>
      </trkpt>
      <trkpt lat="44.43175" lon="1.37614">
        <ele>203</ele>
        <time>2019-04-14T10:57:30Z</time>
      </trkpt>
      <trkpt lat="44.43167" lon="1.37623">
        <ele>203</ele>
        <time>2019-04-14T10:57:33Z</time>
      </trkpt>
      <trkpt lat="44.43165" lon="1.37629">
        <ele>203</ele>
        <time>2019-04-14T10:57:35Z</time>
      </trkpt>
      <trkpt lat="44.43158" lon="1.37647">
        <ele>203</ele>
        <time>2019-04-14T10:57:41Z</time>
      </trkpt>
      <trkpt lat="44.43157" lon="1.3765">
        <ele>204</ele>
        <time>2019-04-14T10:57:42Z</time>
      </trkpt>
      <trkpt lat="44.43156" lon="1.37654">
        <ele>204</ele>
        <time>2019-04-14T10:57:43Z</time>
      </trkpt>
      <trkpt lat="44.43157" lon="1.37662">
        <ele>204</ele>
        <time>2019-04-14T10:57:45Z</time>
      </trkpt>
      <trkpt lat="44.43158" lon="1.37667">
        <ele>205</ele>
        <time>2019-04-14T10:57:47Z</time>
      </trkpt>
      <trkpt lat="44.43157" lon="1.3767">
        <ele>205</ele>
        <time>2019-04-14T10:57:48Z</time>
      </trkpt>
      <trkpt lat="44.43157" lon="1.37673">
        <ele>206</ele>
        <time>2019-04-14T10:57:49Z</time>
      </trkpt>
      <trkpt lat="44.43156" lon="1.37678">
        <ele>207</ele>
        <time>2019-04-14T10:57:51Z</time>
      </trkpt>
      <trkpt lat="44.43151" lon="1.37687">
        <ele>206</ele>
        <time>2019-04-14T10:57:54Z</time>
      </trkpt>
      <trkpt lat="44.43145" lon="1.37694">
        <ele>206</ele>
        <time>2019-04-14T10:57:57Z</time>
      </trkpt>
      <trkpt lat="44.43141" lon="1.37694">
        <ele>206</ele>
        <time>2019-04-14T10:57:58Z</time>
      </trkpt>
      <trkpt lat="44.43133" lon="1.37684">
        <ele>206</ele>
        <time>2019-04-14T10:58:02Z</time>
      </trkpt>
      <trkpt lat="44.43132" lon="1.37668">
        <ele>205</ele>
        <time>2019-04-14T10:58:06Z</time>
      </trkpt>
      <trkpt lat="44.43132" lon="1.37644">
        <ele>205</ele>
        <time>2019-04-14T10:58:10Z</time>
      </trkpt>
      <trkpt lat="44.43132" lon="1.37637">
        <ele>204</ele>
        <time>2019-04-14T10:58:11Z</time>
      </trkpt>
      <trkpt lat="44.43133" lon="1.37624">
        <ele>203</ele>
        <time>2019-04-14T10:58:13Z</time>
      </trkpt>
      <trkpt lat="44.43134" lon="1.37618">
        <ele>203</ele>
        <time>2019-04-14T10:58:14Z</time>
      </trkpt>
      <trkpt lat="44.43137" lon="1.37612">
        <ele>203</ele>
        <time>2019-04-14T10:58:15Z</time>
      </trkpt>
      <trkpt lat="44.43139" lon="1.37607">
        <ele>202</ele>
        <time>2019-04-14T10:58:16Z</time>
      </trkpt>
      <trkpt lat="44.43144" lon="1.37597">
        <ele>202</ele>
        <time>2019-04-14T10:58:18Z</time>
      </trkpt>
      <trkpt lat="44.43146" lon="1.37593">
        <ele>202</ele>
        <time>2019-04-14T10:58:19Z</time>
      </trkpt>
      <trkpt lat="44.43147" lon="1.37585">
        <ele>201</ele>
        <time>2019-04-14T10:58:21Z</time>
      </trkpt>
      <trkpt lat="44.43146" lon="1.37583">
        <ele>201</ele>
        <time>2019-04-14T10:58:22Z</time>
      </trkpt>
      <trkpt lat="44.43142" lon="1.3758">
        <ele>201</ele>
        <time>2019-04-14T10:58:25Z</time>
      </trkpt>
      <trkpt lat="44.43136" lon="1.37578">
        <ele>201</ele>
        <time>2019-04-14T10:58:27Z</time>
      </trkpt>
      <trkpt lat="44.43129" lon="1.37578">
        <ele>202</ele>
        <time>2019-04-14T10:58:30Z</time>
      </trkpt>
      <trkpt lat="44.43122" lon="1.3758">
        <ele>203</ele>
        <time>2019-04-14T10:58:34Z</time>
      </trkpt>
      <trkpt lat="44.4312" lon="1.3758">
        <ele>203</ele>
        <time>2019-04-14T10:58:35Z</time>
      </trkpt>
      <trkpt lat="44.4311" lon="1.37584">
        <ele>204</ele>
        <time>2019-04-14T10:58:40Z</time>
      </trkpt>
      <trkpt lat="44.43106" lon="1.37585">
        <ele>204</ele>
        <time>2019-04-14T10:58:42Z</time>
      </trkpt>
      <trkpt lat="44.43093" lon="1.37588">
        <ele>204</ele>
        <time>2019-04-14T10:58:47Z</time>
      </trkpt>
      <trkpt lat="44.43092" lon="1.37589">
        <ele>204</ele>
        <time>2019-04-14T10:58:48Z</time>
      </trkpt>
      <trkpt lat="44.43075" lon="1.37596">
        <ele>204</ele>
        <time>2019-04-14T10:58:54Z</time>
      </trkpt>
      <trkpt lat="44.43059" lon="1.37608">
        <ele>205</ele>
        <time>2019-04-14T10:59:01Z</time>
      </trkpt>
      <trkpt lat="44.43046" lon="1.37616">
        <ele>204</ele>
        <time>2019-04-14T10:59:06Z</time>
      </trkpt>
      <trkpt lat="44.43032" lon="1.37627">
        <ele>204</ele>
        <time>2019-04-14T10:59:11Z</time>
      </trkpt>
      <trkpt lat="44.43021" lon="1.37637">
        <ele>204</ele>
        <time>2019-04-14T10:59:15Z</time>
      </trkpt>
      <trkpt lat="44.4301" lon="1.37645">
        <ele>205</ele>
        <time>2019-04-14T10:59:20Z</time>
      </trkpt>
      <trkpt lat="44.43008" lon="1.37647">
        <ele>205</ele>
        <time>2019-04-14T10:59:21Z</time>
      </trkpt>
      <trkpt lat="44.43006" lon="1.3765">
        <ele>205</ele>
        <time>2019-04-14T10:59:22Z</time>
      </trkpt>
      <trkpt lat="44.43003" lon="1.3766">
        <ele>205</ele>
        <time>2019-04-14T10:59:24Z</time>
      </trkpt>
      <trkpt lat="44.42995" lon="1.37676">
        <ele>205</ele>
        <time>2019-04-14T10:59:28Z</time>
      </trkpt>
      <trkpt lat="44.42981" lon="1.37694">
        <ele>205</ele>
        <time>2019-04-14T10:59:34Z</time>
      </trkpt>
      <trkpt lat="44.42967" lon="1.37701">
        <ele>205</ele>
        <time>2019-04-14T10:59:38Z</time>
      </trkpt>
      <trkpt lat="44.42958" lon="1.37704">
        <ele>206</ele>
        <time>2019-04-14T10:59:41Z</time>
      </trkpt>
      <trkpt lat="44.42949" lon="1.3771">
        <ele>207</ele>
        <time>2019-04-14T10:59:44Z</time>
      </trkpt>
      <trkpt lat="44.42945" lon="1.37711">
        <ele>207</ele>
        <time>2019-04-14T10:59:45Z</time>
      </trkpt>
      <trkpt lat="44.4294" lon="1.37712">
        <ele>208</ele>
        <time>2019-04-14T10:59:47Z</time>
      </trkpt>
      <trkpt lat="44.42938" lon="1.37712">
        <ele>208</ele>
        <time>2019-04-14T10:59:48Z</time>
      </trkpt>
      <trkpt lat="44.42925" lon="1.37706">
        <ele>208</ele>
        <time>2019-04-14T10:59:52Z</time>
      </trkpt>
      <trkpt lat="44.42919" lon="1.37702">
        <ele>209</ele>
        <time>2019-04-14T10:59:54Z</time>
      </trkpt>
      <trkpt lat="44.42899" lon="1.37691">
        <ele>209</ele>
        <time>2019-04-14T11:00:00Z</time>
      </trkpt>
      <trkpt lat="44.42894" lon="1.37685">
        <ele>209</ele>
        <time>2019-04-14T11:00:02Z</time>
      </trkpt>
      <trkpt lat="44.42889" lon="1.37679">
        <ele>209</ele>
        <time>2019-04-14T11:00:04Z</time>
      </trkpt>
      <trkpt lat="44.42872" lon="1.37662">
        <ele>210</ele>
        <time>2019-04-14T11:00:10Z</time>
      </trkpt>
      <trkpt lat="44.42858" lon="1.37641">
        <ele>210</ele>
        <time>2019-04-14T11:00:16Z</time>
      </trkpt>
      <trkpt lat="44.42854" lon="1.37631">
        <ele>210</ele>
        <time>2019-04-14T11:00:19Z</time>
      </trkpt>
      <trkpt lat="44.42851" lon="1.37624">
        <ele>211</ele>
        <time>2019-04-14T11:00:21Z</time>
      </trkpt>
      <trkpt lat="44.42847" lon="1.37618">
        <ele>211</ele>
        <time>2019-04-14T11:00:23Z</time>
      </trkpt>
      <trkpt lat="44.42843" lon="1.37617">
        <ele>211</ele>
        <time>2019-04-14T11:00:25Z</time>
      </trkpt>
      <trkpt lat="44.42831" lon="1.37615">
        <ele>211</ele>
        <time>2019-04-14T11:00:29Z</time>
      </trkpt>
      <trkpt lat="44.42826" lon="1.37608">
        <ele>211</ele>
        <time>2019-04-14T11:00:31Z</time>
      </trkpt>
      <trkpt lat="44.42814" lon="1.37596">
        <ele>211</ele>
        <time>2019-04-14T11:00:35Z</time>
      </trkpt>
      <trkpt lat="44.428" lon="1.37578">
        <ele>212</ele>
        <time>2019-04-14T11:00:41Z</time>
      </trkpt>
      <trkpt lat="44.42795" lon="1.37573">
        <ele>212</ele>
        <time>2019-04-14T11:00:43Z</time>
      </trkpt>
      <trkpt lat="44.42782" lon="1.37561">
        <ele>213</ele>
        <time>2019-04-14T11:00:48Z</time>
      </trkpt>
      <trkpt lat="44.42775" lon="1.37556">
        <ele>214</ele>
        <time>2019-04-14T11:00:51Z</time>
      </trkpt>
      <trkpt lat="44.42772" lon="1.37555">
        <ele>214</ele>
        <time>2019-04-14T11:00:52Z</time>
      </trkpt>
      <trkpt lat="44.42761" lon="1.37552">
        <ele>215</ele>
        <time>2019-04-14T11:00:56Z</time>
      </trkpt>
      <trkpt lat="44.42752" lon="1.3755">
        <ele>215</ele>
        <time>2019-04-14T11:00:59Z</time>
      </trkpt>
      <trkpt lat="44.42742" lon="1.37549">
        <ele>216</ele>
        <time>2019-04-14T11:01:03Z</time>
      </trkpt>
      <trkpt lat="44.42731" lon="1.37549">
        <ele>217</ele>
        <time>2019-04-14T11:01:07Z</time>
      </trkpt>
      <trkpt lat="44.42728" lon="1.37549">
        <ele>217</ele>
        <time>2019-04-14T11:01:08Z</time>
      </trkpt>
      <trkpt lat="44.42714" lon="1.37547">
        <ele>218</ele>
        <time>2019-04-14T11:01:13Z</time>
      </trkpt>
      <trkpt lat="44.42694" lon="1.37543">
        <ele>218</ele>
        <time>2019-04-14T11:01:20Z</time>
      </trkpt>
      <trkpt lat="44.42676" lon="1.37537">
        <ele>218</ele>
        <time>2019-04-14T11:01:26Z</time>
      </trkpt>
      <trkpt lat="44.42658" lon="1.37536">
        <ele>219</ele>
        <time>2019-04-14T11:01:32Z</time>
      </trkpt>
      <trkpt lat="44.42655" lon="1.37537">
        <ele>219</ele>
        <time>2019-04-14T11:01:33Z</time>
      </trkpt>
      <trkpt lat="44.42637" lon="1.37539">
        <ele>220</ele>
        <time>2019-04-14T11:01:39Z</time>
      </trkpt>
      <trkpt lat="44.42626" lon="1.37539">
        <ele>220</ele>
        <time>2019-04-14T11:01:43Z</time>
      </trkpt>
      <trkpt lat="44.42624" lon="1.3754">
        <ele>220</ele>
        <time>2019-04-14T11:01:44Z</time>
      </trkpt>
      <trkpt lat="44.42619" lon="1.37553">
        <ele>221</ele>
        <time>2019-04-14T11:01:49Z</time>
      </trkpt>
      <trkpt lat="44.42619" lon="1.37561">
        <ele>221</ele>
        <time>2019-04-14T11:01:51Z</time>
      </trkpt>
      <trkpt lat="44.42617" lon="1.37564">
        <ele>221</ele>
        <time>2019-04-14T11:01:52Z</time>
      </trkpt>
      <trkpt lat="44.42616" lon="1.37568">
        <ele>221</ele>
        <time>2019-04-14T11:01:53Z</time>
      </trkpt>
      <trkpt lat="44.42605" lon="1.37586">
        <ele>221</ele>
        <time>2019-04-14T11:01:59Z</time>
      </trkpt>
      <trkpt lat="44.42594" lon="1.376">
        <ele>222</ele>
        <time>2019-04-14T11:02:05Z</time>
      </trkpt>
      <trkpt lat="44.42592" lon="1.37602">
        <ele>222</ele>
        <time>2019-04-14T11:02:06Z</time>
      </trkpt>
      <trkpt lat="44.42586" lon="1.37608">
        <ele>223</ele>
        <time>2019-04-14T11:02:10Z</time>
      </trkpt>
      <trkpt lat="44.42581" lon="1.37614">
        <ele>224</ele>
        <time>2019-04-14T11:02:13Z</time>
      </trkpt>
      <trkpt lat="44.42574" lon="1.37621">
        <ele>224</ele>
        <time>2019-04-14T11:02:17Z</time>
      </trkpt>
      <trkpt lat="44.4257" lon="1.37624">
        <ele>225</ele>
        <time>2019-04-14T11:02:19Z</time>
      </trkpt>
      <trkpt lat="44.42566" lon="1.37629">
        <ele>226</ele>
        <time>2019-04-14T11:02:22Z</time>
      </trkpt>
      <trkpt lat="44.42564" lon="1.37632">
        <ele>226</ele>
        <time>2019-04-14T11:02:23Z</time>
      </trkpt>
      <trkpt lat="44.42563" lon="1.37634">
        <ele>226</ele>
        <time>2019-04-14T11:02:24Z</time>
      </trkpt>
      <trkpt lat="44.42559" lon="1.37639">
        <ele>226</ele>
        <time>2019-04-14T11:02:27Z</time>
      </trkpt>
      <trkpt lat="44.42557" lon="1.37645">
        <ele>226</ele>
        <time>2019-04-14T11:02:29Z</time>
      </trkpt>
      <trkpt lat="44.42551" lon="1.37652">
        <ele>226</ele>
        <time>2019-04-14T11:02:33Z</time>
      </trkpt>
      <trkpt lat="44.42549" lon="1.37654">
        <ele>226</ele>
        <time>2019-04-14T11:02:34Z</time>
      </trkpt>
      <trkpt lat="44.42547" lon="1.37656">
        <ele>226</ele>
        <time>2019-04-14T11:02:35Z</time>
      </trkpt>
      <trkpt lat="44.42541" lon="1.37661">
        <ele>226</ele>
        <time>2019-04-14T11:02:38Z</time>
      </trkpt>
      <trkpt lat="44.42539" lon="1.37674">
        <ele>227</ele>
        <time>2019-04-14T11:02:42Z</time>
      </trkpt>
      <trkpt lat="44.42538" lon="1.37687">
        <ele>227</ele>
        <time>2019-04-14T11:02:47Z</time>
      </trkpt>
      <trkpt lat="44.42537" lon="1.3769">
        <ele>227</ele>
        <time>2019-04-14T11:02:48Z</time>
      </trkpt>
      <trkpt lat="44.42536" lon="1.37694">
        <ele>227</ele>
        <time>2019-04-14T11:02:50Z</time>
      </trkpt>
      <trkpt lat="44.42533" lon="1.37695">
        <ele>227</ele>
        <time>2019-04-14T11:02:52Z</time>
      </trkpt>
      <trkpt lat="44.4253" lon="1.37697">
        <ele>228</ele>
        <time>2019-04-14T11:02:54Z</time>
      </trkpt>
      <trkpt lat="44.42525" lon="1.37702">
        <ele>228</ele>
        <time>2019-04-14T11:02:57Z</time>
      </trkpt>
      <trkpt lat="44.42518" lon="1.37705">
        <ele>228</ele>
        <time>2019-04-14T11:03:00Z</time>
      </trkpt>
      <trkpt lat="44.42513" lon="1.37705">
        <ele>228</ele>
        <time>2019-04-14T11:03:02Z</time>
      </trkpt>
      <trkpt lat="44.42503" lon="1.37708">
        <ele>229</ele>
        <time>2019-04-14T11:03:07Z</time>
      </trkpt>
      <trkpt lat="44.42499" lon="1.37712">
        <ele>229</ele>
        <time>2019-04-14T11:03:09Z</time>
      </trkpt>
      <trkpt lat="44.42498" lon="1.37714">
        <ele>229</ele>
        <time>2019-04-14T11:03:10Z</time>
      </trkpt>
      <trkpt lat="44.42497" lon="1.37716">
        <ele>229</ele>
        <time>2019-04-14T11:03:11Z</time>
      </trkpt>
      <trkpt lat="44.42496" lon="1.37717">
        <ele>229</ele>
        <time>2019-04-14T11:03:12Z</time>
      </trkpt>
      <trkpt lat="44.42491" lon="1.37719">
        <ele>229</ele>
        <time>2019-04-14T11:03:15Z</time>
      </trkpt>
      <trkpt lat="44.42482" lon="1.37725">
        <ele>230</ele>
        <time>2019-04-14T11:03:19Z</time>
      </trkpt>
      <trkpt lat="44.42479" lon="1.37726">
        <ele>230</ele>
        <time>2019-04-14T11:03:20Z</time>
      </trkpt>
      <trkpt lat="44.42477" lon="1.37727">
        <ele>230</ele>
        <time>2019-04-14T11:03:21Z</time>
      </trkpt>
      <trkpt lat="44.42472" lon="1.37732">
        <ele>231</ele>
        <time>2019-04-14T11:03:24Z</time>
      </trkpt>
      <trkpt lat="44.4247" lon="1.37733">
        <ele>231</ele>
        <time>2019-04-14T11:03:25Z</time>
      </trkpt>
      <trkpt lat="44.4246" lon="1.3773">
        <ele>232</ele>
        <time>2019-04-14T11:03:29Z</time>
      </trkpt>
      <trkpt lat="44.42451" lon="1.37728">
        <ele>232</ele>
        <time>2019-04-14T11:03:32Z</time>
      </trkpt>
      <trkpt lat="44.42448" lon="1.37727">
        <ele>232</ele>
        <time>2019-04-14T11:03:33Z</time>
      </trkpt>
      <trkpt lat="44.42439" lon="1.37726">
        <ele>232</ele>
        <time>2019-04-14T11:03:37Z</time>
      </trkpt>
      <trkpt lat="44.42436" lon="1.37726">
        <ele>233</ele>
        <time>2019-04-14T11:03:38Z</time>
      </trkpt>
      <trkpt lat="44.42434" lon="1.37727">
        <ele>233</ele>
        <time>2019-04-14T11:03:39Z</time>
      </trkpt>
      <trkpt lat="44.42428" lon="1.3773">
        <ele>234</ele>
        <time>2019-04-14T11:03:42Z</time>
      </trkpt>
      <trkpt lat="44.42421" lon="1.37734">
        <ele>234</ele>
        <time>2019-04-14T11:03:45Z</time>
      </trkpt>
      <trkpt lat="44.42416" lon="1.37737">
        <ele>234</ele>
        <time>2019-04-14T11:03:47Z</time>
      </trkpt>
      <trkpt lat="44.42412" lon="1.37742">
        <ele>234</ele>
        <time>2019-04-14T11:03:49Z</time>
      </trkpt>
      <trkpt lat="44.4241" lon="1.37748">
        <ele>234</ele>
        <time>2019-04-14T11:03:51Z</time>
      </trkpt>
      <trkpt lat="44.42409" lon="1.37751">
        <ele>235</ele>
        <time>2019-04-14T11:03:52Z</time>
      </trkpt>
      <trkpt lat="44.42403" lon="1.37755">
        <ele>235</ele>
        <time>2019-04-14T11:03:55Z</time>
      </trkpt>
      <trkpt lat="44.42401" lon="1.37755">
        <ele>235</ele>
        <time>2019-04-14T11:03:56Z</time>
      </trkpt>
      <trkpt lat="44.42391" lon="1.37759">
        <ele>236</ele>
        <time>2019-04-14T11:04:00Z</time>
      </trkpt>
      <trkpt lat="44.42387" lon="1.37761">
        <ele>236</ele>
        <time>2019-04-14T11:04:02Z</time>
      </trkpt>
      <trkpt lat="44.4238" lon="1.37762">
        <ele>236</ele>
        <time>2019-04-14T11:04:05Z</time>
      </trkpt>
      <trkpt lat="44.42372" lon="1.37765">
        <ele>236</ele>
        <time>2019-04-14T11:04:09Z</time>
      </trkpt>
      <trkpt lat="44.42366" lon="1.37765">
        <ele>237</ele>
        <time>2019-04-14T11:04:11Z</time>
      </trkpt>
      <trkpt lat="44.42359" lon="1.37767">
        <ele>237</ele>
        <time>2019-04-14T11:04:14Z</time>
      </trkpt>
      <trkpt lat="44.42344" lon="1.37775">
        <ele>238</ele>
        <time>2019-04-14T11:04:20Z</time>
      </trkpt>
      <trkpt lat="44.42338" lon="1.3778">
        <ele>238</ele>
        <time>2019-04-14T11:04:23Z</time>
      </trkpt>
      <trkpt lat="44.42334" lon="1.37783">
        <ele>238</ele>
        <time>2019-04-14T11:04:25Z</time>
      </trkpt>
      <trkpt lat="44.42322" lon="1.37792">
        <ele>239</ele>
        <time>2019-04-14T11:04:30Z</time>
      </trkpt>
      <trkpt lat="44.42317" lon="1.37796">
        <ele>239</ele>
        <time>2019-04-14T11:04:32Z</time>
      </trkpt>
      <trkpt lat="44.42309" lon="1.37803">
        <ele>239</ele>
        <time>2019-04-14T11:04:35Z</time>
      </trkpt>
      <trkpt lat="44.42299" lon="1.37808">
        <ele>240</ele>
        <time>2019-04-14T11:04:39Z</time>
      </trkpt>
      <trkpt lat="44.42297" lon="1.37809">
        <ele>240</ele>
        <time>2019-04-14T11:04:40Z</time>
      </trkpt>
      <trkpt lat="44.42293" lon="1.37808">
        <ele>240</ele>
        <time>2019-04-14T11:04:41Z</time>
      </trkpt>
      <trkpt lat="44.42277" lon="1.37809">
        <ele>241</ele>
        <time>2019-04-14T11:04:46Z</time>
      </trkpt>
      <trkpt lat="44.4226" lon="1.37814">
        <ele>242</ele>
        <time>2019-04-14T11:04:52Z</time>
      </trkpt>
      <trkpt lat="44.42252" lon="1.37813">
        <ele>242</ele>
        <time>2019-04-14T11:04:56Z</time>
      </trkpt>
      <trkpt lat="44.42243" lon="1.37808">
        <ele>243</ele>
        <time>2019-04-14T11:05:00Z</time>
      </trkpt>
      <trkpt lat="44.42238" lon="1.37805">
        <ele>243</ele>
        <time>2019-04-14T11:05:02Z</time>
      </trkpt>
      <trkpt lat="44.4223" lon="1.37802">
        <ele>244</ele>
        <time>2019-04-14T11:05:05Z</time>
      </trkpt>
      <trkpt lat="44.42228" lon="1.37803">
        <ele>244</ele>
        <time>2019-04-14T11:05:06Z</time>
      </trkpt>
      <trkpt lat="44.42225" lon="1.37804">
        <ele>245</ele>
        <time>2019-04-14T11:05:07Z</time>
      </trkpt>
      <trkpt lat="44.42217" lon="1.37806">
        <ele>245</ele>
        <time>2019-04-14T11:05:10Z</time>
      </trkpt>
      <trkpt lat="44.42214" lon="1.37808">
        <ele>245</ele>
        <time>2019-04-14T11:05:11Z</time>
      </trkpt>
      <trkpt lat="44.42212" lon="1.37809">
        <ele>245</ele>
        <time>2019-04-14T11:05:12Z</time>
      </trkpt>
      <trkpt lat="44.42208" lon="1.37808">
        <ele>245</ele>
        <time>2019-04-14T11:05:14Z</time>
      </trkpt>
      <trkpt lat="44.42194" lon="1.37803">
        <ele>245</ele>
        <time>2019-04-14T11:05:20Z</time>
      </trkpt>
      <trkpt lat="44.4219" lon="1.37801">
        <ele>246</ele>
        <time>2019-04-14T11:05:22Z</time>
      </trkpt>
      <trkpt lat="44.42184" lon="1.37796">
        <ele>246</ele>
        <time>2019-04-14T11:05:25Z</time>
      </trkpt>
      <trkpt lat="44.42178" lon="1.37795">
        <ele>246</ele>
        <time>2019-04-14T11:05:28Z</time>
      </trkpt>
      <trkpt lat="44.42174" lon="1.37796">
        <ele>247</ele>
        <time>2019-04-14T11:05:30Z</time>
      </trkpt>
      <trkpt lat="44.42172" lon="1.37795">
        <ele>247</ele>
        <time>2019-04-14T11:05:31Z</time>
      </trkpt>
      <trkpt lat="44.42165" lon="1.37795">
        <ele>247</ele>
        <time>2019-04-14T11:05:34Z</time>
      </trkpt>
      <trkpt lat="44.42162" lon="1.37793">
        <ele>247</ele>
        <time>2019-04-14T11:05:35Z</time>
      </trkpt>
      <trkpt lat="44.42152" lon="1.37785">
        <ele>248</ele>
        <time>2019-04-14T11:05:39Z</time>
      </trkpt>
      <trkpt lat="44.42149" lon="1.37784">
        <ele>248</ele>
        <time>2019-04-14T11:05:40Z</time>
      </trkpt>
      <trkpt lat="44.42148" lon="1.37783">
        <ele>248</ele>
        <time>2019-04-14T11:05:41Z</time>
      </trkpt>
      <trkpt lat="44.42134" lon="1.37777">
        <ele>249</ele>
        <time>2019-04-14T11:05:47Z</time>
      </trkpt>
      <trkpt lat="44.42117" lon="1.37766">
        <ele>250</ele>
        <time>2019-04-14T11:05:53Z</time>
      </trkpt>
      <trkpt lat="44.42111" lon="1.37762">
        <ele>250</ele>
        <time>2019-04-14T11:05:55Z</time>
      </trkpt>
      <trkpt lat="44.421" lon="1.37753">
        <ele>251</ele>
        <time>2019-04-14T11:06:00Z</time>
      </trkpt>
      <trkpt lat="44.42095" lon="1.37751">
        <ele>251</ele>
        <time>2019-04-14T11:06:02Z</time>
      </trkpt>
      <trkpt lat="44.42085" lon="1.3775">
        <ele>252</ele>
        <time>2019-04-14T11:06:06Z</time>
      </trkpt>
      <trkpt lat="44.42081" lon="1.37751">
        <ele>252</ele>
        <time>2019-04-14T11:06:08Z</time>
      </trkpt>
      <trkpt lat="44.42071" lon="1.37754">
        <ele>253</ele>
        <time>2019-04-14T11:06:12Z</time>
      </trkpt>
      <trkpt lat="44.42067" lon="1.37756">
        <ele>254</ele>
        <time>2019-04-14T11:06:14Z</time>
      </trkpt>
      <trkpt lat="44.42059" lon="1.37758">
        <ele>255</ele>
        <time>2019-04-14T11:06:18Z</time>
      </trkpt>
      <trkpt lat="44.42046" lon="1.37763">
        <ele>255</ele>
        <time>2019-04-14T11:06:24Z</time>
      </trkpt>
      <trkpt lat="44.4204" lon="1.37765">
        <ele>256</ele>
        <time>2019-04-14T11:06:27Z</time>
      </trkpt>
      <trkpt lat="44.42034" lon="1.37768">
        <ele>256</ele>
        <time>2019-04-14T11:06:30Z</time>
      </trkpt>
      <trkpt lat="44.42029" lon="1.3777">
        <ele>257</ele>
        <time>2019-04-14T11:06:32Z</time>
      </trkpt>
      <trkpt lat="44.4202" lon="1.37775">
        <ele>257</ele>
        <time>2019-04-14T11:06:36Z</time>
      </trkpt>
      <trkpt lat="44.42008" lon="1.3778">
        <ele>258</ele>
        <time>2019-04-14T11:06:41Z</time>
      </trkpt>
      <trkpt lat="44.42005" lon="1.37781">
        <ele>258</ele>
        <time>2019-04-14T11:06:42Z</time>
      </trkpt>
      <trkpt lat="44.41996" lon="1.37786">
        <ele>259</ele>
        <time>2019-04-14T11:06:46Z</time>
      </trkpt>
      <trkpt lat="44.41994" lon="1.37787">
        <ele>260</ele>
        <time>2019-04-14T11:06:47Z</time>
      </trkpt>
      <trkpt lat="44.41987" lon="1.37791">
        <ele>260</ele>
        <time>2019-04-14T11:06:50Z</time>
      </trkpt>
      <trkpt lat="44.41977" lon="1.37797">
        <ele>261</ele>
        <time>2019-04-14T11:06:54Z</time>
      </trkpt>
      <trkpt lat="44.4197" lon="1.37803">
        <ele>261</ele>
        <time>2019-04-14T11:06:57Z</time>
      </trkpt>
      <trkpt lat="44.41964" lon="1.37807">
        <ele>262</ele>
        <time>2019-04-14T11:07:00Z</time>
      </trkpt>
      <trkpt lat="44.41959" lon="1.37813">
        <ele>262</ele>
        <time>2019-04-14T11:07:03Z</time>
      </trkpt>
      <trkpt lat="44.41954" lon="1.3782">
        <ele>263</ele>
        <time>2019-04-14T11:07:07Z</time>
      </trkpt>
      <trkpt lat="44.41948" lon="1.37825">
        <ele>264</ele>
        <time>2019-04-14T11:07:10Z</time>
      </trkpt>
      <trkpt lat="44.41941" lon="1.37832">
        <ele>264</ele>
        <time>2019-04-14T11:07:14Z</time>
      </trkpt>
      <trkpt lat="44.41937" lon="1.37836">
        <ele>265</ele>
        <time>2019-04-14T11:07:16Z</time>
      </trkpt>
      <trkpt lat="44.41931" lon="1.37844">
        <ele>265</ele>
        <time>2019-04-14T11:07:20Z</time>
      </trkpt>
      <trkpt lat="44.41928" lon="1.37851">
        <ele>266</ele>
        <time>2019-04-14T11:07:23Z</time>
      </trkpt>
      <trkpt lat="44.41926" lon="1.37856">
        <ele>266</ele>
        <time>2019-04-14T11:07:25Z</time>
      </trkpt>
      <trkpt lat="44.41923" lon="1.37861">
        <ele>267</ele>
        <time>2019-04-14T11:07:27Z</time>
      </trkpt>
      <trkpt lat="44.41916" lon="1.37871">
        <ele>267</ele>
        <time>2019-04-14T11:07:31Z</time>
      </trkpt>
      <trkpt lat="44.41915" lon="1.37873">
        <ele>268</ele>
        <time>2019-04-14T11:07:32Z</time>
      </trkpt>
      <trkpt lat="44.41906" lon="1.37882">
        <ele>269</ele>
        <time>2019-04-14T11:07:38Z</time>
      </trkpt>
      <trkpt lat="44.41905" lon="1.37884">
        <ele>269</ele>
        <time>2019-04-14T11:07:39Z</time>
      </trkpt>
      <trkpt lat="44.41901" lon="1.37897">
        <ele>270</ele>
        <time>2019-04-14T11:07:45Z</time>
      </trkpt>
      <trkpt lat="44.41901" lon="1.37899">
        <ele>270</ele>
        <time>2019-04-14T11:07:46Z</time>
      </trkpt>
      <trkpt lat="44.41897" lon="1.37907">
        <ele>271</ele>
        <time>2019-04-14T11:07:51Z</time>
      </trkpt>
      <trkpt lat="44.41895" lon="1.37908">
        <ele>272</ele>
        <time>2019-04-14T11:07:52Z</time>
      </trkpt>
      <trkpt lat="44.41888" lon="1.37914">
        <ele>273</ele>
        <time>2019-04-14T11:07:56Z</time>
      </trkpt>
      <trkpt lat="44.41883" lon="1.37916">
        <ele>273</ele>
        <time>2019-04-14T11:07:58Z</time>
      </trkpt>
      <trkpt lat="44.41866" lon="1.37924">
        <ele>273</ele>
        <time>2019-04-14T11:08:06Z</time>
      </trkpt>
      <trkpt lat="44.41852" lon="1.37929">
        <ele>274</ele>
        <time>2019-04-14T11:08:12Z</time>
      </trkpt>
      <trkpt lat="44.4184" lon="1.3793">
        <ele>275</ele>
        <time>2019-04-14T11:08:18Z</time>
      </trkpt>
      <trkpt lat="44.41828" lon="1.37931">
        <ele>275</ele>
        <time>2019-04-14T11:08:23Z</time>
      </trkpt>
      <trkpt lat="44.41816" lon="1.37934">
        <ele>276</ele>
        <time>2019-04-14T11:08:29Z</time>
      </trkpt>
      <trkpt lat="44.41803" lon="1.37936">
        <ele>277</ele>
        <time>2019-04-14T11:08:35Z</time>
      </trkpt>
      <trkpt lat="44.41802" lon="1.37936">
        <ele>277</ele>
        <time>2019-04-14T11:08:36Z</time>
      </trkpt>
      <trkpt lat="44.41792" lon="1.37938">
        <ele>278</ele>
        <time>2019-04-14T11:08:41Z</time>
      </trkpt>
      <trkpt lat="44.41791" lon="1.37939">
        <ele>278</ele>
        <time>2019-04-14T11:08:42Z</time>
      </trkpt>
      <trkpt lat="44.41783" lon="1.37941">
        <ele>279</ele>
        <time>2019-04-14T11:08:46Z</time>
      </trkpt>
      <trkpt lat="44.41781" lon="1.37941">
        <ele>280</ele>
        <time>2019-04-14T11:08:47Z</time>
      </trkpt>
      <trkpt lat="44.4177" lon="1.37944">
        <ele>281</ele>
        <time>2019-04-14T11:08:52Z</time>
      </trkpt>
      <trkpt lat="44.41765" lon="1.37944">
        <ele>281</ele>
        <time>2019-04-14T11:08:54Z</time>
      </trkpt>
      <trkpt lat="44.41762" lon="1.37945">
        <ele>282</ele>
        <time>2019-04-14T11:08:56Z</time>
      </trkpt>
      <trkpt lat="44.41753" lon="1.37948">
        <ele>283</ele>
        <time>2019-04-14T11:09:01Z</time>
      </trkpt>
      <trkpt lat="44.41751" lon="1.37949">
        <ele>283</ele>
        <time>2019-04-14T11:09:02Z</time>
      </trkpt>
      <trkpt lat="44.41743" lon="1.3795">
        <ele>284</ele>
        <time>2019-04-14T11:09:06Z</time>
      </trkpt>
      <trkpt lat="44.41741" lon="1.37949">
        <ele>284</ele>
        <time>2019-04-14T11:09:07Z</time>
      </trkpt>
      <trkpt lat="44.4174" lon="1.37947">
        <ele>285</ele>
        <time>2019-04-14T11:09:08Z</time>
      </trkpt>
      <trkpt lat="44.4174" lon="1.37945">
        <ele>285</ele>
        <time>2019-04-14T11:09:09Z</time>
      </trkpt>
      <trkpt lat="44.41735" lon="1.37938">
        <ele>286</ele>
        <time>2019-04-14T11:09:13Z</time>
      </trkpt>
      <trkpt lat="44.41726" lon="1.37938">
        <ele>286</ele>
        <time>2019-04-14T11:09:18Z</time>
      </trkpt>
      <trkpt lat="44.41715" lon="1.37935">
        <ele>287</ele>
        <time>2019-04-14T11:09:23Z</time>
      </trkpt>
      <trkpt lat="44.41713" lon="1.37935">
        <ele>287</ele>
        <time>2019-04-14T11:09:24Z</time>
      </trkpt>
      <trkpt lat="44.41712" lon="1.37934">
        <ele>287</ele>
        <time>2019-04-14T11:09:25Z</time>
      </trkpt>
      <trkpt lat="44.41703" lon="1.37929">
        <ele>289</ele>
        <time>2019-04-14T11:09:30Z</time>
      </trkpt>
      <trkpt lat="44.41701" lon="1.37928">
        <ele>289</ele>
        <time>2019-04-14T11:09:31Z</time>
      </trkpt>
      <trkpt lat="44.41693" lon="1.37926">
        <ele>290</ele>
        <time>2019-04-14T11:09:35Z</time>
      </trkpt>
      <trkpt lat="44.41686" lon="1.37925">
        <ele>290</ele>
        <time>2019-04-14T11:09:38Z</time>
      </trkpt>
      <trkpt lat="44.41674" lon="1.37923">
        <ele>291</ele>
        <time>2019-04-14T11:09:44Z</time>
      </trkpt>
      <trkpt lat="44.41663" lon="1.37923">
        <ele>292</ele>
        <time>2019-04-14T11:09:49Z</time>
      </trkpt>
      <trkpt lat="44.41653" lon="1.37921">
        <ele>293</ele>
        <time>2019-04-14T11:09:54Z</time>
      </trkpt>
      <trkpt lat="44.41644" lon="1.37917">
        <ele>294</ele>
        <time>2019-04-14T11:09:59Z</time>
      </trkpt>
      <trkpt lat="44.41642" lon="1.37916">
        <ele>294</ele>
        <time>2019-04-14T11:10:00Z</time>
      </trkpt>
      <trkpt lat="44.41627" lon="1.37911">
        <ele>296</ele>
        <time>2019-04-14T11:10:08Z</time>
      </trkpt>
      <trkpt lat="44.4162" lon="1.37906">
        <ele>297</ele>
        <time>2019-04-14T11:10:12Z</time>
      </trkpt>
      <trkpt lat="44.41617" lon="1.37905">
        <ele>297</ele>
        <time>2019-04-14T11:10:14Z</time>
      </trkpt>
      <trkpt lat="44.41612" lon="1.37902">
        <ele>298</ele>
        <time>2019-04-14T11:10:17Z</time>
      </trkpt>
      <trkpt lat="44.41611" lon="1.37898">
        <ele>298</ele>
        <time>2019-04-14T11:10:19Z</time>
      </trkpt>
      <trkpt lat="44.41613" lon="1.37889">
        <ele>299</ele>
        <time>2019-04-14T11:10:24Z</time>
      </trkpt>
      <trkpt lat="44.41616" lon="1.37889">
        <ele>300</ele>
        <time>2019-04-14T11:10:28Z</time>
      </trkpt>
      <trkpt lat="44.41617" lon="1.37889">
        <ele>300</ele>
        <time>2019-04-14T11:10:29Z</time>
      </trkpt>
      <trkpt lat="44.41618" lon="1.37889">
        <ele>300</ele>
        <time>2019-04-14T11:10:30Z</time>
      </trkpt>
      <trkpt lat="44.41625" lon="1.37889">
        <ele>301</ele>
        <time>2019-04-14T11:10:35Z</time>
      </trkpt>
      <trkpt lat="44.41628" lon="1.37888">
        <ele>302</ele>
        <time>2019-04-14T11:10:37Z</time>
      </trkpt>
      <trkpt lat="44.41631" lon="1.37888">
        <ele>302</ele>
        <time>2019-04-14T11:10:39Z</time>
      </trkpt>
      <trkpt lat="44.41637" lon="1.37887">
        <ele>304</ele>
        <time>2019-04-14T11:10:43Z</time>
      </trkpt>
      <trkpt lat="44.4164" lon="1.37887">
        <ele>304</ele>
        <time>2019-04-14T11:10:45Z</time>
      </trkpt>
      <trkpt lat="44.41648" lon="1.37885">
        <ele>305</ele>
        <time>2019-04-14T11:10:50Z</time>
      </trkpt>
      <trkpt lat="44.41655" lon="1.37883">
        <ele>305</ele>
        <time>2019-04-14T11:10:54Z</time>
      </trkpt>
      <trkpt lat="44.41662" lon="1.37881">
        <ele>306</ele>
        <time>2019-04-14T11:10:58Z</time>
      </trkpt>
      <trkpt lat="44.41671" lon="1.37879">
        <ele>306</ele>
        <time>2019-04-14T11:11:03Z</time>
      </trkpt>
      <trkpt lat="44.41679" lon="1.37877">
        <ele>307</ele>
        <time>2019-04-14T11:11:07Z</time>
      </trkpt>
      <trkpt lat="44.41688" lon="1.37874">
        <ele>307</ele>
        <time>2019-04-14T11:11:11Z</time>
      </trkpt>
      <trkpt lat="44.41698" lon="1.37859">
        <ele>308</ele>
        <time>2019-04-14T11:11:18Z</time>
      </trkpt>
      <trkpt lat="44.41698" lon="1.37857">
        <ele>308</ele>
        <time>2019-04-14T11:11:19Z</time>
      </trkpt>
      <trkpt lat="44.41696" lon="1.3785">
        <ele>309</ele>
        <time>2019-04-14T11:11:22Z</time>
      </trkpt>
      <trkpt lat="44.41695" lon="1.37847">
        <ele>309</ele>
        <time>2019-04-14T11:11:23Z</time>
      </trkpt>
      <trkpt lat="44.41691" lon="1.3784">
        <ele>310</ele>
        <time>2019-04-14T11:11:27Z</time>
      </trkpt>
      <trkpt lat="44.4169" lon="1.37837">
        <ele>310</ele>
        <time>2019-04-14T11:11:28Z</time>
      </trkpt>
      <trkpt lat="44.4169" lon="1.37835">
        <ele>311</ele>
        <time>2019-04-14T11:11:29Z</time>
      </trkpt>
      <trkpt lat="44.41692" lon="1.37831">
        <ele>311</ele>
        <time>2019-04-14T11:11:31Z</time>
      </trkpt>
      <trkpt lat="44.41693" lon="1.37829">
        <ele>311</ele>
        <time>2019-04-14T11:11:32Z</time>
      </trkpt>
      <trkpt lat="44.41694" lon="1.37827">
        <ele>312</ele>
        <time>2019-04-14T11:11:33Z</time>
      </trkpt>
      <trkpt lat="44.41694" lon="1.37824">
        <ele>312</ele>
        <time>2019-04-14T11:11:34Z</time>
      </trkpt>
      <trkpt lat="44.41692" lon="1.37815">
        <ele>312</ele>
        <time>2019-04-14T11:11:37Z</time>
      </trkpt>
      <trkpt lat="44.41689" lon="1.37811">
        <ele>312</ele>
        <time>2019-04-14T11:11:39Z</time>
      </trkpt>
      <trkpt lat="44.41686" lon="1.37804">
        <ele>313</ele>
        <time>2019-04-14T11:11:42Z</time>
      </trkpt>
      <trkpt lat="44.41686" lon="1.37801">
        <ele>313</ele>
        <time>2019-04-14T11:11:43Z</time>
      </trkpt>
      <trkpt lat="44.41685" lon="1.37792">
        <ele>313</ele>
        <time>2019-04-14T11:11:46Z</time>
      </trkpt>
      <trkpt lat="44.41683" lon="1.37784">
        <ele>313</ele>
        <time>2019-04-14T11:11:49Z</time>
      </trkpt>
      <trkpt lat="44.41678" lon="1.37773">
        <ele>314</ele>
        <time>2019-04-14T11:11:54Z</time>
      </trkpt>
      <trkpt lat="44.41673" lon="1.3777">
        <ele>314</ele>
        <time>2019-04-14T11:11:57Z</time>
      </trkpt>
      <trkpt lat="44.4167" lon="1.37771">
        <ele>314</ele>
        <time>2019-04-14T11:11:59Z</time>
      </trkpt>
      <trkpt lat="44.41667" lon="1.37772">
        <ele>315</ele>
        <time>2019-04-14T11:12:01Z</time>
      </trkpt>
      <trkpt lat="44.41666" lon="1.37772">
        <ele>315</ele>
        <time>2019-04-14T11:12:02Z</time>
      </trkpt>
      <trkpt lat="44.4166" lon="1.37774">
        <ele>316</ele>
        <time>2019-04-14T11:12:06Z</time>
      </trkpt>
      <trkpt lat="44.41648" lon="1.37772">
        <ele>318</ele>
        <time>2019-04-14T11:12:13Z</time>
      </trkpt>
      <trkpt lat="44.41639" lon="1.37768">
        <ele>319</ele>
        <time>2019-04-14T11:12:19Z</time>
      </trkpt>
      <trkpt lat="44.41637" lon="1.37768">
        <ele>319</ele>
        <time>2019-04-14T11:12:20Z</time>
      </trkpt>
      <trkpt lat="44.4163" lon="1.37763">
        <ele>320</ele>
        <time>2019-04-14T11:12:25Z</time>
      </trkpt>
      <trkpt lat="44.41629" lon="1.37761">
        <ele>320</ele>
        <time>2019-04-14T11:12:26Z</time>
      </trkpt>
      <trkpt lat="44.41623" lon="1.37756">
        <ele>321</ele>
        <time>2019-04-14T11:12:30Z</time>
      </trkpt>
      <trkpt lat="44.41621" lon="1.37755">
        <ele>321</ele>
        <time>2019-04-14T11:12:31Z</time>
      </trkpt>
      <trkpt lat="44.41618" lon="1.37752">
        <ele>321</ele>
        <time>2019-04-14T11:12:33Z</time>
      </trkpt>
      <trkpt lat="44.41614" lon="1.37743">
        <ele>322</ele>
        <time>2019-04-14T11:12:38Z</time>
      </trkpt>
      <trkpt lat="44.41609" lon="1.37734">
        <ele>323</ele>
        <time>2019-04-14T11:12:43Z</time>
      </trkpt>
      <trkpt lat="44.41607" lon="1.37717">
        <ele>323</ele>
        <time>2019-04-14T11:12:49Z</time>
      </trkpt>
      <trkpt lat="44.41605" lon="1.37709">
        <ele>323</ele>
        <time>2019-04-14T11:12:52Z</time>
      </trkpt>
      <trkpt lat="44.41603" lon="1.37698">
        <ele>324</ele>
        <time>2019-04-14T11:12:56Z</time>
      </trkpt>
      <trkpt lat="44.41603" lon="1.37672">
        <ele>324</ele>
        <time>2019-04-14T11:13:04Z</time>
      </trkpt>
      <trkpt lat="44.41603" lon="1.37646">
        <ele>323</ele>
        <time>2019-04-14T11:13:11Z</time>
      </trkpt>
      <trkpt lat="44.41603" lon="1.37639">
        <ele>323</ele>
        <time>2019-04-14T11:13:13Z</time>
      </trkpt>
      <trkpt lat="44.41596" lon="1.37625">
        <ele>323</ele>
        <time>2019-04-14T11:13:18Z</time>
      </trkpt>
      <trkpt lat="44.41588" lon="1.37618">
        <ele>324</ele>
        <time>2019-04-14T11:13:23Z</time>
      </trkpt>
      <trkpt lat="44.41582" lon="1.37613">
        <ele>325</ele>
        <time>2019-04-14T11:13:27Z</time>
      </trkpt>
      <trkpt lat="44.41576" lon="1.37608">
        <ele>327</ele>
        <time>2019-04-14T11:13:31Z</time>
      </trkpt>
      <trkpt lat="44.4157" lon="1.37604">
        <ele>328</ele>
        <time>2019-04-14T11:13:35Z</time>
      </trkpt>
      <trkpt lat="44.41569" lon="1.37603">
        <ele>328</ele>
        <time>2019-04-14T11:13:36Z</time>
      </trkpt>
      <trkpt lat="44.41562" lon="1.37598">
        <ele>329</ele>
        <time>2019-04-14T11:13:41Z</time>
      </trkpt>
      <trkpt lat="44.41558" lon="1.37595">
        <ele>330</ele>
        <time>2019-04-14T11:13:44Z</time>
      </trkpt>
      <trkpt lat="44.41557" lon="1.37594">
        <ele>330</ele>
        <time>2019-04-14T11:13:45Z</time>
      </trkpt>
      <trkpt lat="44.41552" lon="1.3759">
        <ele>331</ele>
        <time>2019-04-14T11:13:49Z</time>
      </trkpt>
      <trkpt lat="44.4155" lon="1.37587">
        <ele>332</ele>
        <time>2019-04-14T11:13:51Z</time>
      </trkpt>
      <trkpt lat="44.41544" lon="1.37579">
        <ele>332</ele>
        <time>2019-04-14T11:13:56Z</time>
      </trkpt>
      <trkpt lat="44.41543" lon="1.37578">
        <ele>332</ele>
        <time>2019-04-14T11:13:57Z</time>
      </trkpt>
      <trkpt lat="44.41542" lon="1.37566">
        <ele>333</ele>
        <time>2019-04-14T11:14:02Z</time>
      </trkpt>
      <trkpt lat="44.41542" lon="1.37561">
        <ele>333</ele>
        <time>2019-04-14T11:14:04Z</time>
      </trkpt>
      <trkpt lat="44.41544" lon="1.37545">
        <ele>334</ele>
        <time>2019-04-14T11:14:10Z</time>
      </trkpt>
      <trkpt lat="44.41548" lon="1.37525">
        <ele>334</ele>
        <time>2019-04-14T11:14:17Z</time>
      </trkpt>
      <trkpt lat="44.41549" lon="1.37523">
        <ele>334</ele>
        <time>2019-04-14T11:14:18Z</time>
      </trkpt>
      <trkpt lat="44.41548" lon="1.37515">
        <ele>334</ele>
        <time>2019-04-14T11:14:21Z</time>
      </trkpt>
      <trkpt lat="44.41549" lon="1.3751">
        <ele>335</ele>
        <time>2019-04-14T11:14:23Z</time>
      </trkpt>
      <trkpt lat="44.41551" lon="1.37498">
        <ele>335</ele>
        <time>2019-04-14T11:14:28Z</time>
      </trkpt>
      <trkpt lat="44.4155" lon="1.37491">
        <ele>336</ele>
        <time>2019-04-14T11:14:31Z</time>
      </trkpt>
      <trkpt lat="44.4155" lon="1.37484">
        <ele>337</ele>
        <time>2019-04-14T11:14:34Z</time>
      </trkpt>
      <trkpt lat="44.4155" lon="1.37482">
        <ele>337</ele>
        <time>2019-04-14T11:14:35Z</time>
      </trkpt>
      <trkpt lat="44.41549" lon="1.37476">
        <ele>338</ele>
        <time>2019-04-14T11:14:38Z</time>
      </trkpt>
      <trkpt lat="44.41549" lon="1.37475">
        <ele>338</ele>
        <time>2019-04-14T11:14:39Z</time>
      </trkpt>
      <trkpt lat="44.41549" lon="1.37475">
        <ele>338</ele>
        <time>2019-04-14T11:14:40Z</time>
      </trkpt>
      <trkpt lat="44.41549" lon="1.37473">
        <ele>338</ele>
        <time>2019-04-14T11:14:44Z</time>
      </trkpt>
      <trkpt lat="44.41549" lon="1.37471">
        <ele>339</ele>
        <time>2019-04-14T11:14:46Z</time>
      </trkpt>
      <trkpt lat="44.41549" lon="1.3747">
        <ele>339</ele>
        <time>2019-04-14T11:14:49Z</time>
      </trkpt>
      <trkpt lat="44.41549" lon="1.3747">
        <ele>339</ele>
        <time>2019-04-14T11:14:50Z</time>
      </trkpt>
      <trkpt lat="44.41547" lon="1.37469">
        <ele>339</ele>
        <time>2019-04-14T11:14:56Z</time>
      </trkpt>
      <trkpt lat="44.41547" lon="1.37468">
        <ele>339</ele>
        <time>2019-04-14T11:14:57Z</time>
      </trkpt>
      <trkpt lat="44.41541" lon="1.37466">
        <ele>339</ele>
        <time>2019-04-14T11:15:01Z</time>
      </trkpt>
      <trkpt lat="44.41533" lon="1.3746">
        <ele>340</ele>
        <time>2019-04-14T11:15:05Z</time>
      </trkpt>
      <trkpt lat="44.41524" lon="1.37455">
        <ele>340</ele>
        <time>2019-04-14T11:15:09Z</time>
      </trkpt>
      <trkpt lat="44.41515" lon="1.37451">
        <ele>341</ele>
        <time>2019-04-14T11:15:13Z</time>
      </trkpt>
      <trkpt lat="44.41511" lon="1.37449">
        <ele>341</ele>
        <time>2019-04-14T11:15:15Z</time>
      </trkpt>
      <trkpt lat="44.41507" lon="1.37448">
        <ele>342</ele>
        <time>2019-04-14T11:15:17Z</time>
      </trkpt>
      <trkpt lat="44.41498" lon="1.37445">
        <ele>343</ele>
        <time>2019-04-14T11:15:21Z</time>
      </trkpt>
      <trkpt lat="44.41497" lon="1.37444">
        <ele>343</ele>
        <time>2019-04-14T11:15:22Z</time>
      </trkpt>
      <trkpt lat="44.41493" lon="1.37439">
        <ele>343</ele>
        <time>2019-04-14T11:15:25Z</time>
      </trkpt>
      <trkpt lat="44.41493" lon="1.37437">
        <ele>344</ele>
        <time>2019-04-14T11:15:26Z</time>
      </trkpt>
      <trkpt lat="44.41493" lon="1.37435">
        <ele>344</ele>
        <time>2019-04-14T11:15:27Z</time>
      </trkpt>
      <trkpt lat="44.41498" lon="1.37426">
        <ele>344</ele>
        <time>2019-04-14T11:15:30Z</time>
      </trkpt>
      <trkpt lat="44.41511" lon="1.37402">
        <ele>344</ele>
        <time>2019-04-14T11:15:36Z</time>
      </trkpt>
      <trkpt lat="44.41513" lon="1.37397">
        <ele>344</ele>
        <time>2019-04-14T11:15:37Z</time>
      </trkpt>
      <trkpt lat="44.41524" lon="1.37374">
        <ele>344</ele>
        <time>2019-04-14T11:15:41Z</time>
      </trkpt>
      <trkpt lat="44.41543" lon="1.37338">
        <ele>342</ele>
        <time>2019-04-14T11:15:46Z</time>
      </trkpt>
      <trkpt lat="44.41555" lon="1.37311">
        <ele>341</ele>
        <time>2019-04-14T11:15:49Z</time>
      </trkpt>
      <trkpt lat="44.41569" lon="1.37282">
        <ele>340</ele>
        <time>2019-04-14T11:15:52Z</time>
      </trkpt>
      <trkpt lat="44.41584" lon="1.37253">
        <ele>339</ele>
        <time>2019-04-14T11:15:55Z</time>
      </trkpt>
      <trkpt lat="44.41603" lon="1.37215">
        <ele>337</ele>
        <time>2019-04-14T11:15:59Z</time>
      </trkpt>
      <trkpt lat="44.41626" lon="1.37178">
        <ele>336</ele>
        <time>2019-04-14T11:16:04Z</time>
      </trkpt>
      <trkpt lat="44.4163" lon="1.37172">
        <ele>336</ele>
        <time>2019-04-14T11:16:05Z</time>
      </trkpt>
      <trkpt lat="44.41634" lon="1.37166">
        <ele>336</ele>
        <time>2019-04-14T11:16:06Z</time>
      </trkpt>
      <trkpt lat="44.41637" lon="1.37153">
        <ele>336</ele>
        <time>2019-04-14T11:16:08Z</time>
      </trkpt>
      <trkpt lat="44.41635" lon="1.37143">
        <ele>336</ele>
        <time>2019-04-14T11:16:11Z</time>
      </trkpt>
      <trkpt lat="44.41634" lon="1.37141">
        <ele>337</ele>
        <time>2019-04-14T11:16:15Z</time>
      </trkpt>
      <trkpt lat="44.41633" lon="1.37144">
        <ele>337</ele>
        <time>2019-04-14T11:16:26Z</time>
      </trkpt>
      <trkpt lat="44.4163" lon="1.37153">
        <ele>337</ele>
        <time>2019-04-14T11:16:29Z</time>
      </trkpt>
      <trkpt lat="44.41628" lon="1.37156">
        <ele>337</ele>
        <time>2019-04-14T11:16:30Z</time>
      </trkpt>
      <trkpt lat="44.41615" lon="1.37166">
        <ele>337</ele>
        <time>2019-04-14T11:16:35Z</time>
      </trkpt>
      <trkpt lat="44.41604" lon="1.37159">
        <ele>337</ele>
        <time>2019-04-14T11:16:39Z</time>
      </trkpt>
      <trkpt lat="44.41597" lon="1.37149">
        <ele>339</ele>
        <time>2019-04-14T11:16:43Z</time>
      </trkpt>
      <trkpt lat="44.41593" lon="1.37145">
        <ele>340</ele>
        <time>2019-04-14T11:16:45Z</time>
      </trkpt>
      <trkpt lat="44.41591" lon="1.37143">
        <ele>340</ele>
        <time>2019-04-14T11:16:46Z</time>
      </trkpt>
      <trkpt lat="44.41587" lon="1.37139">
        <ele>341</ele>
        <time>2019-04-14T11:16:48Z</time>
      </trkpt>
      <trkpt lat="44.41582" lon="1.37134">
        <ele>342</ele>
        <time>2019-04-14T11:16:51Z</time>
      </trkpt>
      <trkpt lat="44.41577" lon="1.37128">
        <ele>343</ele>
        <time>2019-04-14T11:16:54Z</time>
      </trkpt>
      <trkpt lat="44.41575" lon="1.37126">
        <ele>344</ele>
        <time>2019-04-14T11:16:55Z</time>
      </trkpt>
      <trkpt lat="44.41569" lon="1.37119">
        <ele>345</ele>
        <time>2019-04-14T11:16:58Z</time>
      </trkpt>
      <trkpt lat="44.41562" lon="1.3711">
        <ele>346</ele>
        <time>2019-04-14T11:17:02Z</time>
      </trkpt>
      <trkpt lat="44.41561" lon="1.37108">
        <ele>346</ele>
        <time>2019-04-14T11:17:03Z</time>
      </trkpt>
      <trkpt lat="44.41559" lon="1.37105">
        <ele>346</ele>
        <time>2019-04-14T11:17:04Z</time>
      </trkpt>
      <trkpt lat="44.41553" lon="1.37096">
        <ele>347</ele>
        <time>2019-04-14T11:17:08Z</time>
      </trkpt>
      <trkpt lat="44.41546" lon="1.37086">
        <ele>348</ele>
        <time>2019-04-14T11:17:12Z</time>
      </trkpt>
      <trkpt lat="44.41543" lon="1.37082">
        <ele>348</ele>
        <time>2019-04-14T11:17:14Z</time>
      </trkpt>
      <trkpt lat="44.41531" lon="1.3707">
        <ele>349</ele>
        <time>2019-04-14T11:17:19Z</time>
      </trkpt>
      <trkpt lat="44.41514" lon="1.37054">
        <ele>349</ele>
        <time>2019-04-14T11:17:26Z</time>
      </trkpt>
      <trkpt lat="44.41497" lon="1.37032">
        <ele>348</ele>
        <time>2019-04-14T11:17:32Z</time>
      </trkpt>
      <trkpt lat="44.41486" lon="1.37034">
        <ele>348</ele>
        <time>2019-04-14T11:17:35Z</time>
      </trkpt>
      <trkpt lat="44.41481" lon="1.37042">
        <ele>348</ele>
        <time>2019-04-14T11:17:37Z</time>
      </trkpt>
      <trkpt lat="44.41478" lon="1.3705">
        <ele>348</ele>
        <time>2019-04-14T11:17:39Z</time>
      </trkpt>
      <trkpt lat="44.41463" lon="1.37073">
        <ele>349</ele>
        <time>2019-04-14T11:17:47Z</time>
      </trkpt>
      <trkpt lat="44.4146" lon="1.37089">
        <ele>350</ele>
        <time>2019-04-14T11:17:52Z</time>
      </trkpt>
      <trkpt lat="44.41459" lon="1.37093">
        <ele>351</ele>
        <time>2019-04-14T11:17:53Z</time>
      </trkpt>
      <trkpt lat="44.4146" lon="1.371">
        <ele>351</ele>
        <time>2019-04-14T11:17:55Z</time>
      </trkpt>
      <trkpt lat="44.41462" lon="1.37106">
        <ele>351</ele>
        <time>2019-04-14T11:17:57Z</time>
      </trkpt>
      <trkpt lat="44.41467" lon="1.37113">
        <ele>351</ele>
        <time>2019-04-14T11:18:00Z</time>
      </trkpt>
      <trkpt lat="44.41473" lon="1.37118">
        <ele>352</ele>
        <time>2019-04-14T11:18:03Z</time>
      </trkpt>
      <trkpt lat="44.41482" lon="1.37126">
        <ele>352</ele>
        <time>2019-04-14T11:18:07Z</time>
      </trkpt>
      <trkpt lat="44.41489" lon="1.37135">
        <ele>352</ele>
        <time>2019-04-14T11:18:11Z</time>
      </trkpt>
      <trkpt lat="44.41497" lon="1.37148">
        <ele>353</ele>
        <time>2019-04-14T11:18:16Z</time>
      </trkpt>
      <trkpt lat="44.41497" lon="1.37151">
        <ele>353</ele>
        <time>2019-04-14T11:18:17Z</time>
      </trkpt>
      <trkpt lat="44.41491" lon="1.37161">
        <ele>353</ele>
        <time>2019-04-14T11:18:21Z</time>
      </trkpt>
      <trkpt lat="44.41489" lon="1.37163">
        <ele>353</ele>
        <time>2019-04-14T11:18:22Z</time>
      </trkpt>
      <trkpt lat="44.41477" lon="1.37173">
        <ele>354</ele>
        <time>2019-04-14T11:18:28Z</time>
      </trkpt>
      <trkpt lat="44.41472" lon="1.37176">
        <ele>354</ele>
        <time>2019-04-14T11:18:30Z</time>
      </trkpt>
      <trkpt lat="44.41459" lon="1.37185">
        <ele>355</ele>
        <time>2019-04-14T11:18:36Z</time>
      </trkpt>
      <trkpt lat="44.41456" lon="1.37186">
        <ele>355</ele>
        <time>2019-04-14T11:18:37Z</time>
      </trkpt>
      <trkpt lat="44.41442" lon="1.37192">
        <ele>355</ele>
        <time>2019-04-14T11:18:42Z</time>
      </trkpt>
      <trkpt lat="44.41436" lon="1.37183">
        <ele>355</ele>
        <time>2019-04-14T11:18:46Z</time>
      </trkpt>
      <trkpt lat="44.4144" lon="1.37172">
        <ele>354</ele>
        <time>2019-04-14T11:18:50Z</time>
      </trkpt>
      <trkpt lat="44.41441" lon="1.37172">
        <ele>354</ele>
        <time>2019-04-14T11:18:51Z</time>
      </trkpt>
    </trkseg>
  </trk>
</gpx>